<?xml version="1.0" encoding="UTF-8" standalone="no" ?>
<gpx xmlns="http://www.topografix.com/GPX/1/1" xmlns:xsi="http://www.w3.org/2001/XMLSchema-instance" xsi:schemaLocation="http://www.topografix.com/GPX/1/1 http://www.topografix.com/GPX/1/1/gpx.xsd" version="1.1" creator="VisuGPX - https://www.visugpx.com">
  <metadata>
    <name>Montigny le Bretonneux - Satory - Grand canal  MA-Rando-2019-06-23</name>
  </metadata>
  <trk>
    <name><![CDATA[MA-Rando-2019-06-23-110411]]></name>
    <trkseg>
      <trkpt lat="48.78105" lon="2.04578">
        <ele>156</ele>
        <time>2019-06-23T07:12:31Z</time>
      </trkpt>
      <trkpt lat="48.78095" lon="2.04577">
        <ele>156</ele>
        <time>2019-06-23T07:12:50Z</time>
      </trkpt>
      <trkpt lat="48.78086" lon="2.04583">
        <ele>156</ele>
        <time>2019-06-23T07:12:55Z</time>
      </trkpt>
      <trkpt lat="48.78077" lon="2.04587">
        <ele>156</ele>
        <time>2019-06-23T07:13:02Z</time>
      </trkpt>
      <trkpt lat="48.78068" lon="2.04591">
        <ele>155</ele>
        <time>2019-06-23T07:13:10Z</time>
      </trkpt>
      <trkpt lat="48.78059" lon="2.04595">
        <ele>155</ele>
        <time>2019-06-23T07:13:21Z</time>
      </trkpt>
      <trkpt lat="48.78051" lon="2.04607">
        <ele>155</ele>
        <time>2019-06-23T07:13:26Z</time>
      </trkpt>
      <trkpt lat="48.78048" lon="2.0462">
        <ele>155</ele>
        <time>2019-06-23T07:13:32Z</time>
      </trkpt>
      <trkpt lat="48.78048" lon="2.04634">
        <ele>155</ele>
        <time>2019-06-23T07:13:39Z</time>
      </trkpt>
      <trkpt lat="48.78048" lon="2.04648">
        <ele>155</ele>
        <time>2019-06-23T07:13:46Z</time>
      </trkpt>
      <trkpt lat="48.78049" lon="2.04663">
        <ele>155</ele>
        <time>2019-06-23T07:13:54Z</time>
      </trkpt>
      <trkpt lat="48.78046" lon="2.04678">
        <ele>155</ele>
        <time>2019-06-23T07:14:02Z</time>
      </trkpt>
      <trkpt lat="48.7804" lon="2.04689">
        <ele>155</ele>
        <time>2019-06-23T07:14:10Z</time>
      </trkpt>
      <trkpt lat="48.78031" lon="2.04696">
        <ele>154</ele>
        <time>2019-06-23T07:14:17Z</time>
      </trkpt>
      <trkpt lat="48.78023" lon="2.04705">
        <ele>154</ele>
        <time>2019-06-23T07:14:25Z</time>
      </trkpt>
      <trkpt lat="48.78016" lon="2.04715">
        <ele>154</ele>
        <time>2019-06-23T07:14:34Z</time>
      </trkpt>
      <trkpt lat="48.78007" lon="2.04719">
        <ele>154</ele>
        <time>2019-06-23T07:14:43Z</time>
      </trkpt>
      <trkpt lat="48.77998" lon="2.04721">
        <ele>154</ele>
        <time>2019-06-23T07:14:49Z</time>
      </trkpt>
      <trkpt lat="48.77989" lon="2.04726">
        <ele>154</ele>
        <time>2019-06-23T07:14:53Z</time>
      </trkpt>
      <trkpt lat="48.7798" lon="2.04734">
        <ele>154</ele>
        <time>2019-06-23T07:14:58Z</time>
      </trkpt>
      <trkpt lat="48.77974" lon="2.04744">
        <ele>154</ele>
        <time>2019-06-23T07:15:03Z</time>
      </trkpt>
      <trkpt lat="48.77967" lon="2.04754">
        <ele>153</ele>
        <time>2019-06-23T07:15:12Z</time>
      </trkpt>
      <trkpt lat="48.7796" lon="2.04766">
        <ele>153</ele>
        <time>2019-06-23T07:15:21Z</time>
      </trkpt>
      <trkpt lat="48.77962" lon="2.04781">
        <ele>153</ele>
        <time>2019-06-23T07:15:27Z</time>
      </trkpt>
      <trkpt lat="48.77964" lon="2.04796">
        <ele>153</ele>
        <time>2019-06-23T07:15:34Z</time>
      </trkpt>
      <trkpt lat="48.77959" lon="2.04809">
        <ele>153</ele>
        <time>2019-06-23T07:15:44Z</time>
      </trkpt>
      <trkpt lat="48.77951" lon="2.04815">
        <ele>154</ele>
        <time>2019-06-23T07:15:53Z</time>
      </trkpt>
      <trkpt lat="48.77945" lon="2.04826">
        <ele>154</ele>
        <time>2019-06-23T07:16:01Z</time>
      </trkpt>
      <trkpt lat="48.77944" lon="2.04841">
        <ele>153</ele>
        <time>2019-06-23T07:16:07Z</time>
      </trkpt>
      <trkpt lat="48.77943" lon="2.04855">
        <ele>153</ele>
        <time>2019-06-23T07:16:14Z</time>
      </trkpt>
      <trkpt lat="48.77941" lon="2.0487">
        <ele>153</ele>
        <time>2019-06-23T07:16:22Z</time>
      </trkpt>
      <trkpt lat="48.77941" lon="2.04885">
        <ele>153</ele>
        <time>2019-06-23T07:16:29Z</time>
      </trkpt>
      <trkpt lat="48.77942" lon="2.049">
        <ele>153</ele>
        <time>2019-06-23T07:16:37Z</time>
      </trkpt>
      <trkpt lat="48.77942" lon="2.04915">
        <ele>153</ele>
        <time>2019-06-23T07:16:46Z</time>
      </trkpt>
      <trkpt lat="48.77942" lon="2.04929">
        <ele>152</ele>
        <time>2019-06-23T07:16:55Z</time>
      </trkpt>
      <trkpt lat="48.77945" lon="2.04943">
        <ele>152</ele>
        <time>2019-06-23T07:17:02Z</time>
      </trkpt>
      <trkpt lat="48.77945" lon="2.04958">
        <ele>152</ele>
        <time>2019-06-23T07:17:11Z</time>
      </trkpt>
      <trkpt lat="48.77941" lon="2.0497">
        <ele>152</ele>
        <time>2019-06-23T07:17:17Z</time>
      </trkpt>
      <trkpt lat="48.77942" lon="2.04985">
        <ele>152</ele>
        <time>2019-06-23T07:17:25Z</time>
      </trkpt>
      <trkpt lat="48.7794" lon="2.05">
        <ele>151</ele>
        <time>2019-06-23T07:17:39Z</time>
      </trkpt>
      <trkpt lat="48.77934" lon="2.05014">
        <ele>151</ele>
        <time>2019-06-23T07:17:44Z</time>
      </trkpt>
      <trkpt lat="48.77928" lon="2.05024">
        <ele>151</ele>
        <time>2019-06-23T07:17:51Z</time>
      </trkpt>
      <trkpt lat="48.77921" lon="2.05037">
        <ele>151</ele>
        <time>2019-06-23T07:17:57Z</time>
      </trkpt>
      <trkpt lat="48.77918" lon="2.0505">
        <ele>151</ele>
        <time>2019-06-23T07:18:04Z</time>
      </trkpt>
      <trkpt lat="48.77911" lon="2.0506">
        <ele>151</ele>
        <time>2019-06-23T07:18:10Z</time>
      </trkpt>
      <trkpt lat="48.77905" lon="2.0507">
        <ele>151</ele>
        <time>2019-06-23T07:18:17Z</time>
      </trkpt>
      <trkpt lat="48.77901" lon="2.05084">
        <ele>151</ele>
        <time>2019-06-23T07:18:24Z</time>
      </trkpt>
      <trkpt lat="48.77899" lon="2.05098">
        <ele>151</ele>
        <time>2019-06-23T07:18:32Z</time>
      </trkpt>
      <trkpt lat="48.77897" lon="2.05113">
        <ele>151</ele>
        <time>2019-06-23T07:18:39Z</time>
      </trkpt>
      <trkpt lat="48.77893" lon="2.05126">
        <ele>151</ele>
        <time>2019-06-23T07:18:46Z</time>
      </trkpt>
      <trkpt lat="48.77891" lon="2.0514">
        <ele>151</ele>
        <time>2019-06-23T07:18:54Z</time>
      </trkpt>
      <trkpt lat="48.77888" lon="2.05153">
        <ele>151</ele>
        <time>2019-06-23T07:19:01Z</time>
      </trkpt>
      <trkpt lat="48.77887" lon="2.05168">
        <ele>151</ele>
        <time>2019-06-23T07:19:07Z</time>
      </trkpt>
      <trkpt lat="48.77887" lon="2.05182">
        <ele>151</ele>
        <time>2019-06-23T07:19:14Z</time>
      </trkpt>
      <trkpt lat="48.77889" lon="2.05196">
        <ele>151</ele>
        <time>2019-06-23T07:19:21Z</time>
      </trkpt>
      <trkpt lat="48.77888" lon="2.05211">
        <ele>151</ele>
        <time>2019-06-23T07:19:28Z</time>
      </trkpt>
      <trkpt lat="48.77887" lon="2.05226">
        <ele>151</ele>
        <time>2019-06-23T07:19:37Z</time>
      </trkpt>
      <trkpt lat="48.77883" lon="2.05239">
        <ele>151</ele>
        <time>2019-06-23T07:19:42Z</time>
      </trkpt>
      <trkpt lat="48.77876" lon="2.05251">
        <ele>150</ele>
        <time>2019-06-23T07:19:50Z</time>
      </trkpt>
      <trkpt lat="48.7787" lon="2.05261">
        <ele>150</ele>
        <time>2019-06-23T07:19:57Z</time>
      </trkpt>
      <trkpt lat="48.77863" lon="2.05272">
        <ele>150</ele>
        <time>2019-06-23T07:20:02Z</time>
      </trkpt>
      <trkpt lat="48.77856" lon="2.05282">
        <ele>150</ele>
        <time>2019-06-23T07:20:09Z</time>
      </trkpt>
      <trkpt lat="48.7785" lon="2.05294">
        <ele>150</ele>
        <time>2019-06-23T07:20:15Z</time>
      </trkpt>
      <trkpt lat="48.77842" lon="2.053">
        <ele>150</ele>
        <time>2019-06-23T07:20:19Z</time>
      </trkpt>
      <trkpt lat="48.77834" lon="2.05308">
        <ele>150</ele>
        <time>2019-06-23T07:20:25Z</time>
      </trkpt>
      <trkpt lat="48.77828" lon="2.05319">
        <ele>151</ele>
        <time>2019-06-23T07:20:33Z</time>
      </trkpt>
      <trkpt lat="48.77822" lon="2.0533">
        <ele>151</ele>
        <time>2019-06-23T07:20:39Z</time>
      </trkpt>
      <trkpt lat="48.77814" lon="2.0534">
        <ele>150</ele>
        <time>2019-06-23T07:20:46Z</time>
      </trkpt>
      <trkpt lat="48.77808" lon="2.05351">
        <ele>149</ele>
        <time>2019-06-23T07:20:53Z</time>
      </trkpt>
      <trkpt lat="48.77801" lon="2.0536">
        <ele>149</ele>
        <time>2019-06-23T07:21:00Z</time>
      </trkpt>
      <trkpt lat="48.77795" lon="2.0537">
        <ele>149</ele>
        <time>2019-06-23T07:21:05Z</time>
      </trkpt>
      <trkpt lat="48.77792" lon="2.05384">
        <ele>149</ele>
        <time>2019-06-23T07:21:15Z</time>
      </trkpt>
      <trkpt lat="48.77786" lon="2.05396">
        <ele>149</ele>
        <time>2019-06-23T07:21:24Z</time>
      </trkpt>
      <trkpt lat="48.77781" lon="2.05408">
        <ele>149</ele>
        <time>2019-06-23T07:21:34Z</time>
      </trkpt>
      <trkpt lat="48.77776" lon="2.05419">
        <ele>148</ele>
        <time>2019-06-23T07:21:42Z</time>
      </trkpt>
      <trkpt lat="48.77771" lon="2.05431">
        <ele>148</ele>
        <time>2019-06-23T07:21:48Z</time>
      </trkpt>
      <trkpt lat="48.7777" lon="2.05446">
        <ele>148</ele>
        <time>2019-06-23T07:21:54Z</time>
      </trkpt>
      <trkpt lat="48.77778" lon="2.0545">
        <ele>147</ele>
        <time>2019-06-23T07:22:04Z</time>
      </trkpt>
      <trkpt lat="48.77788" lon="2.05447">
        <ele>147</ele>
        <time>2019-06-23T07:22:15Z</time>
      </trkpt>
      <trkpt lat="48.77798" lon="2.05444">
        <ele>147</ele>
        <time>2019-06-23T07:22:20Z</time>
      </trkpt>
      <trkpt lat="48.77808" lon="2.05448">
        <ele>147</ele>
        <time>2019-06-23T07:22:26Z</time>
      </trkpt>
      <trkpt lat="48.77817" lon="2.05452">
        <ele>147</ele>
        <time>2019-06-23T07:22:35Z</time>
      </trkpt>
      <trkpt lat="48.77828" lon="2.05452">
        <ele>147</ele>
        <time>2019-06-23T07:22:40Z</time>
      </trkpt>
      <trkpt lat="48.77837" lon="2.0546">
        <ele>147</ele>
        <time>2019-06-23T07:22:46Z</time>
      </trkpt>
      <trkpt lat="48.77845" lon="2.05467">
        <ele>147</ele>
        <time>2019-06-23T07:22:52Z</time>
      </trkpt>
      <trkpt lat="48.77854" lon="2.05473">
        <ele>147</ele>
        <time>2019-06-23T07:22:57Z</time>
      </trkpt>
      <trkpt lat="48.77863" lon="2.05476">
        <ele>147</ele>
        <time>2019-06-23T07:23:00Z</time>
      </trkpt>
      <trkpt lat="48.77872" lon="2.0548">
        <ele>148</ele>
        <time>2019-06-23T07:23:08Z</time>
      </trkpt>
      <trkpt lat="48.77878" lon="2.05491">
        <ele>148</ele>
        <time>2019-06-23T07:23:14Z</time>
      </trkpt>
      <trkpt lat="48.77884" lon="2.05504">
        <ele>150</ele>
        <time>2019-06-23T07:23:20Z</time>
      </trkpt>
      <trkpt lat="48.77887" lon="2.05518">
        <ele>150</ele>
        <time>2019-06-23T07:23:27Z</time>
      </trkpt>
      <trkpt lat="48.77897" lon="2.05523">
        <ele>151</ele>
        <time>2019-06-23T07:23:49Z</time>
      </trkpt>
      <trkpt lat="48.77893" lon="2.05537">
        <ele>151</ele>
        <time>2019-06-23T07:24:06Z</time>
      </trkpt>
      <trkpt lat="48.77885" lon="2.05545">
        <ele>151</ele>
        <time>2019-06-23T07:24:12Z</time>
      </trkpt>
      <trkpt lat="48.77878" lon="2.05553">
        <ele>151</ele>
        <time>2019-06-23T07:24:19Z</time>
      </trkpt>
      <trkpt lat="48.77873" lon="2.05567">
        <ele>151</ele>
        <time>2019-06-23T07:24:27Z</time>
      </trkpt>
      <trkpt lat="48.77868" lon="2.05579">
        <ele>151</ele>
        <time>2019-06-23T07:24:33Z</time>
      </trkpt>
      <trkpt lat="48.7786" lon="2.05589">
        <ele>154</ele>
        <time>2019-06-23T07:24:41Z</time>
      </trkpt>
      <trkpt lat="48.77855" lon="2.05601">
        <ele>154</ele>
        <time>2019-06-23T07:24:47Z</time>
      </trkpt>
      <trkpt lat="48.7785" lon="2.05614">
        <ele>154</ele>
        <time>2019-06-23T07:24:55Z</time>
      </trkpt>
      <trkpt lat="48.77847" lon="2.05627">
        <ele>154</ele>
        <time>2019-06-23T07:25:00Z</time>
      </trkpt>
      <trkpt lat="48.77846" lon="2.05642">
        <ele>155</ele>
        <time>2019-06-23T07:25:09Z</time>
      </trkpt>
      <trkpt lat="48.77849" lon="2.05656">
        <ele>155</ele>
        <time>2019-06-23T07:25:19Z</time>
      </trkpt>
      <trkpt lat="48.77854" lon="2.05668">
        <ele>156</ele>
        <time>2019-06-23T07:25:26Z</time>
      </trkpt>
      <trkpt lat="48.77855" lon="2.05682">
        <ele>156</ele>
        <time>2019-06-23T07:25:40Z</time>
      </trkpt>
      <trkpt lat="48.77853" lon="2.05696">
        <ele>157</ele>
        <time>2019-06-23T07:25:48Z</time>
      </trkpt>
      <trkpt lat="48.77857" lon="2.0571">
        <ele>157</ele>
        <time>2019-06-23T07:25:57Z</time>
      </trkpt>
      <trkpt lat="48.7786" lon="2.05724">
        <ele>157</ele>
        <time>2019-06-23T07:26:08Z</time>
      </trkpt>
      <trkpt lat="48.77859" lon="2.05738">
        <ele>157</ele>
        <time>2019-06-23T07:26:17Z</time>
      </trkpt>
      <trkpt lat="48.77859" lon="2.05753">
        <ele>157</ele>
        <time>2019-06-23T07:26:25Z</time>
      </trkpt>
      <trkpt lat="48.77858" lon="2.05768">
        <ele>157</ele>
        <time>2019-06-23T07:26:30Z</time>
      </trkpt>
      <trkpt lat="48.77853" lon="2.0578">
        <ele>157</ele>
        <time>2019-06-23T07:26:38Z</time>
      </trkpt>
      <trkpt lat="48.77851" lon="2.05794">
        <ele>157</ele>
        <time>2019-06-23T07:26:43Z</time>
      </trkpt>
      <trkpt lat="48.77851" lon="2.05809">
        <ele>156</ele>
        <time>2019-06-23T07:26:51Z</time>
      </trkpt>
      <trkpt lat="48.77852" lon="2.05823">
        <ele>156</ele>
        <time>2019-06-23T07:26:56Z</time>
      </trkpt>
      <trkpt lat="48.77857" lon="2.05836">
        <ele>156</ele>
        <time>2019-06-23T07:27:02Z</time>
      </trkpt>
      <trkpt lat="48.7786" lon="2.0585">
        <ele>157</ele>
        <time>2019-06-23T07:27:07Z</time>
      </trkpt>
      <trkpt lat="48.77856" lon="2.05866">
        <ele>157</ele>
        <time>2019-06-23T07:27:23Z</time>
      </trkpt>
      <trkpt lat="48.77855" lon="2.0588">
        <ele>157</ele>
        <time>2019-06-23T07:27:27Z</time>
      </trkpt>
      <trkpt lat="48.77852" lon="2.05894">
        <ele>156</ele>
        <time>2019-06-23T07:27:34Z</time>
      </trkpt>
      <trkpt lat="48.7785" lon="2.0591">
        <ele>155</ele>
        <time>2019-06-23T07:27:43Z</time>
      </trkpt>
      <trkpt lat="48.77851" lon="2.05924">
        <ele>155</ele>
        <time>2019-06-23T07:27:53Z</time>
      </trkpt>
      <trkpt lat="48.77849" lon="2.05938">
        <ele>155</ele>
        <time>2019-06-23T07:28:03Z</time>
      </trkpt>
      <trkpt lat="48.77849" lon="2.05952">
        <ele>156</ele>
        <time>2019-06-23T07:28:10Z</time>
      </trkpt>
      <trkpt lat="48.77848" lon="2.05967">
        <ele>156</ele>
        <time>2019-06-23T07:28:18Z</time>
      </trkpt>
      <trkpt lat="48.77846" lon="2.05983">
        <ele>155</ele>
        <time>2019-06-23T07:28:23Z</time>
      </trkpt>
      <trkpt lat="48.77847" lon="2.05997">
        <ele>155</ele>
        <time>2019-06-23T07:28:32Z</time>
      </trkpt>
      <trkpt lat="48.77854" lon="2.06006">
        <ele>154</ele>
        <time>2019-06-23T07:28:50Z</time>
      </trkpt>
      <trkpt lat="48.77862" lon="2.06014">
        <ele>154</ele>
        <time>2019-06-23T07:29:02Z</time>
      </trkpt>
      <trkpt lat="48.77863" lon="2.0603">
        <ele>154</ele>
        <time>2019-06-23T07:29:13Z</time>
      </trkpt>
      <trkpt lat="48.77866" lon="2.06044">
        <ele>154</ele>
        <time>2019-06-23T07:29:20Z</time>
      </trkpt>
      <trkpt lat="48.77887" lon="2.06129">
        <ele>151</ele>
        <time>2019-06-23T07:29:50Z</time>
      </trkpt>
      <trkpt lat="48.77869" lon="2.06108">
        <ele>150</ele>
        <time>2019-06-23T07:29:52Z</time>
      </trkpt>
      <trkpt lat="48.77858" lon="2.06115">
        <ele>149</ele>
        <time>2019-06-23T07:30:01Z</time>
      </trkpt>
      <trkpt lat="48.77861" lon="2.0613">
        <ele>149</ele>
        <time>2019-06-23T07:30:09Z</time>
      </trkpt>
      <trkpt lat="48.77852" lon="2.06136">
        <ele>149</ele>
        <time>2019-06-23T07:30:21Z</time>
      </trkpt>
      <trkpt lat="48.77847" lon="2.06149">
        <ele>148</ele>
        <time>2019-06-23T07:30:28Z</time>
      </trkpt>
      <trkpt lat="48.77839" lon="2.06157">
        <ele>146</ele>
        <time>2019-06-23T07:30:38Z</time>
      </trkpt>
      <trkpt lat="48.7783" lon="2.06165">
        <ele>144</ele>
        <time>2019-06-23T07:30:45Z</time>
      </trkpt>
      <trkpt lat="48.77822" lon="2.06173">
        <ele>144</ele>
        <time>2019-06-23T07:30:52Z</time>
      </trkpt>
      <trkpt lat="48.77814" lon="2.06179">
        <ele>144</ele>
        <time>2019-06-23T07:30:58Z</time>
      </trkpt>
      <trkpt lat="48.77805" lon="2.06182">
        <ele>144</ele>
        <time>2019-06-23T07:31:06Z</time>
      </trkpt>
      <trkpt lat="48.77795" lon="2.06186">
        <ele>144</ele>
        <time>2019-06-23T07:31:14Z</time>
      </trkpt>
      <trkpt lat="48.77795" lon="2.06201">
        <ele>144</ele>
        <time>2019-06-23T07:31:21Z</time>
      </trkpt>
      <trkpt lat="48.77797" lon="2.06216">
        <ele>143</ele>
        <time>2019-06-23T07:31:27Z</time>
      </trkpt>
      <trkpt lat="48.77797" lon="2.06232">
        <ele>143</ele>
        <time>2019-06-23T07:31:36Z</time>
      </trkpt>
      <trkpt lat="48.7779" lon="2.06243">
        <ele>144</ele>
        <time>2019-06-23T07:31:45Z</time>
      </trkpt>
      <trkpt lat="48.77781" lon="2.06241">
        <ele>144</ele>
        <time>2019-06-23T07:31:51Z</time>
      </trkpt>
      <trkpt lat="48.77771" lon="2.06242">
        <ele>144</ele>
        <time>2019-06-23T07:31:57Z</time>
      </trkpt>
      <trkpt lat="48.77761" lon="2.06239">
        <ele>144</ele>
        <time>2019-06-23T07:32:04Z</time>
      </trkpt>
      <trkpt lat="48.77752" lon="2.06237">
        <ele>144</ele>
        <time>2019-06-23T07:32:13Z</time>
      </trkpt>
      <trkpt lat="48.77752" lon="2.06253">
        <ele>144</ele>
        <time>2019-06-23T07:32:23Z</time>
      </trkpt>
      <trkpt lat="48.77757" lon="2.06264">
        <ele>145</ele>
        <time>2019-06-23T07:32:31Z</time>
      </trkpt>
      <trkpt lat="48.77765" lon="2.06273">
        <ele>145</ele>
        <time>2019-06-23T07:32:41Z</time>
      </trkpt>
      <trkpt lat="48.77772" lon="2.06281">
        <ele>145</ele>
        <time>2019-06-23T07:32:47Z</time>
      </trkpt>
      <trkpt lat="48.77779" lon="2.0629">
        <ele>145</ele>
        <time>2019-06-23T07:32:53Z</time>
      </trkpt>
      <trkpt lat="48.77785" lon="2.06302">
        <ele>145</ele>
        <time>2019-06-23T07:33:01Z</time>
      </trkpt>
      <trkpt lat="48.7779" lon="2.06315">
        <ele>145</ele>
        <time>2019-06-23T07:33:10Z</time>
      </trkpt>
      <trkpt lat="48.77795" lon="2.06327">
        <ele>145</ele>
        <time>2019-06-23T07:33:18Z</time>
      </trkpt>
      <trkpt lat="48.77801" lon="2.06338">
        <ele>146</ele>
        <time>2019-06-23T07:33:27Z</time>
      </trkpt>
      <trkpt lat="48.77808" lon="2.06347">
        <ele>146</ele>
        <time>2019-06-23T07:33:34Z</time>
      </trkpt>
      <trkpt lat="48.77813" lon="2.06359">
        <ele>146</ele>
        <time>2019-06-23T07:33:41Z</time>
      </trkpt>
      <trkpt lat="48.77817" lon="2.06372">
        <ele>145</ele>
        <time>2019-06-23T07:33:47Z</time>
      </trkpt>
      <trkpt lat="48.77812" lon="2.06385">
        <ele>146</ele>
        <time>2019-06-23T07:33:57Z</time>
      </trkpt>
      <trkpt lat="48.77806" lon="2.06396">
        <ele>146</ele>
        <time>2019-06-23T07:34:03Z</time>
      </trkpt>
      <trkpt lat="48.77808" lon="2.06409">
        <ele>145</ele>
        <time>2019-06-23T07:34:10Z</time>
      </trkpt>
      <trkpt lat="48.77812" lon="2.06423">
        <ele>145</ele>
        <time>2019-06-23T07:34:19Z</time>
      </trkpt>
      <trkpt lat="48.77814" lon="2.06438">
        <ele>145</ele>
        <time>2019-06-23T07:34:25Z</time>
      </trkpt>
      <trkpt lat="48.77816" lon="2.06452">
        <ele>145</ele>
        <time>2019-06-23T07:34:31Z</time>
      </trkpt>
      <trkpt lat="48.77818" lon="2.06465">
        <ele>145</ele>
        <time>2019-06-23T07:34:39Z</time>
      </trkpt>
      <trkpt lat="48.77826" lon="2.06476">
        <ele>144</ele>
        <time>2019-06-23T07:34:49Z</time>
      </trkpt>
      <trkpt lat="48.77832" lon="2.06487">
        <ele>143</ele>
        <time>2019-06-23T07:34:55Z</time>
      </trkpt>
      <trkpt lat="48.77841" lon="2.06495">
        <ele>141</ele>
        <time>2019-06-23T07:35:03Z</time>
      </trkpt>
      <trkpt lat="48.7785" lon="2.06497">
        <ele>141</ele>
        <time>2019-06-23T07:35:12Z</time>
      </trkpt>
      <trkpt lat="48.77858" lon="2.06503">
        <ele>140</ele>
        <time>2019-06-23T07:35:25Z</time>
      </trkpt>
      <trkpt lat="48.77857" lon="2.06517">
        <ele>140</ele>
        <time>2019-06-23T07:35:36Z</time>
      </trkpt>
      <trkpt lat="48.77848" lon="2.06524">
        <ele>140</ele>
        <time>2019-06-23T07:35:43Z</time>
      </trkpt>
      <trkpt lat="48.77838" lon="2.06529">
        <ele>140</ele>
        <time>2019-06-23T07:35:50Z</time>
      </trkpt>
      <trkpt lat="48.77831" lon="2.06536">
        <ele>145</ele>
        <time>2019-06-23T07:35:58Z</time>
      </trkpt>
      <trkpt lat="48.77822" lon="2.06542">
        <ele>146</ele>
        <time>2019-06-23T07:36:04Z</time>
      </trkpt>
      <trkpt lat="48.77813" lon="2.06549">
        <ele>146</ele>
        <time>2019-06-23T07:36:17Z</time>
      </trkpt>
      <trkpt lat="48.77803" lon="2.06553">
        <ele>147</ele>
        <time>2019-06-23T07:36:32Z</time>
      </trkpt>
      <trkpt lat="48.77798" lon="2.06565">
        <ele>147</ele>
        <time>2019-06-23T07:36:40Z</time>
      </trkpt>
      <trkpt lat="48.77798" lon="2.0658">
        <ele>148</ele>
        <time>2019-06-23T07:36:48Z</time>
      </trkpt>
      <trkpt lat="48.77802" lon="2.06593">
        <ele>150</ele>
        <time>2019-06-23T07:36:58Z</time>
      </trkpt>
      <trkpt lat="48.77804" lon="2.06606">
        <ele>151</ele>
        <time>2019-06-23T07:37:08Z</time>
      </trkpt>
      <trkpt lat="48.7781" lon="2.06619">
        <ele>151</ele>
        <time>2019-06-23T07:37:15Z</time>
      </trkpt>
      <trkpt lat="48.77815" lon="2.06633">
        <ele>152</ele>
        <time>2019-06-23T07:37:22Z</time>
      </trkpt>
      <trkpt lat="48.7782" lon="2.06646">
        <ele>152</ele>
        <time>2019-06-23T07:37:31Z</time>
      </trkpt>
      <trkpt lat="48.77819" lon="2.0666">
        <ele>152</ele>
        <time>2019-06-23T07:37:41Z</time>
      </trkpt>
      <trkpt lat="48.77825" lon="2.06671">
        <ele>154</ele>
        <time>2019-06-23T07:37:49Z</time>
      </trkpt>
      <trkpt lat="48.77832" lon="2.0668">
        <ele>154</ele>
        <time>2019-06-23T07:37:58Z</time>
      </trkpt>
      <trkpt lat="48.77837" lon="2.06692">
        <ele>150</ele>
        <time>2019-06-23T07:38:04Z</time>
      </trkpt>
      <trkpt lat="48.77841" lon="2.06705">
        <ele>150</ele>
        <time>2019-06-23T07:38:12Z</time>
      </trkpt>
      <trkpt lat="48.77845" lon="2.06719">
        <ele>151</ele>
        <time>2019-06-23T07:38:21Z</time>
      </trkpt>
      <trkpt lat="48.7785" lon="2.06731">
        <ele>151</ele>
        <time>2019-06-23T07:38:27Z</time>
      </trkpt>
      <trkpt lat="48.77854" lon="2.06745">
        <ele>152</ele>
        <time>2019-06-23T07:38:35Z</time>
      </trkpt>
      <trkpt lat="48.7786" lon="2.06755">
        <ele>155</ele>
        <time>2019-06-23T07:38:42Z</time>
      </trkpt>
      <trkpt lat="48.7786" lon="2.0677">
        <ele>155</ele>
        <time>2019-06-23T07:38:53Z</time>
      </trkpt>
      <trkpt lat="48.77865" lon="2.06782">
        <ele>155</ele>
        <time>2019-06-23T07:39:04Z</time>
      </trkpt>
      <trkpt lat="48.77873" lon="2.06792">
        <ele>155</ele>
        <time>2019-06-23T07:39:08Z</time>
      </trkpt>
      <trkpt lat="48.77882" lon="2.06802">
        <ele>155</ele>
        <time>2019-06-23T07:39:23Z</time>
      </trkpt>
      <trkpt lat="48.77893" lon="2.06804">
        <ele>155</ele>
        <time>2019-06-23T07:39:36Z</time>
      </trkpt>
      <trkpt lat="48.77902" lon="2.06798">
        <ele>154</ele>
        <time>2019-06-23T07:39:43Z</time>
      </trkpt>
      <trkpt lat="48.77912" lon="2.06791">
        <ele>153</ele>
        <time>2019-06-23T07:39:53Z</time>
      </trkpt>
      <trkpt lat="48.77919" lon="2.06781">
        <ele>145</ele>
        <time>2019-06-23T07:39:58Z</time>
      </trkpt>
      <trkpt lat="48.77928" lon="2.06783">
        <ele>145</ele>
        <time>2019-06-23T07:40:04Z</time>
      </trkpt>
      <trkpt lat="48.77937" lon="2.06794">
        <ele>146</ele>
        <time>2019-06-23T07:40:09Z</time>
      </trkpt>
      <trkpt lat="48.77943" lon="2.06806">
        <ele>147</ele>
        <time>2019-06-23T07:40:16Z</time>
      </trkpt>
      <trkpt lat="48.7795" lon="2.06819">
        <ele>147</ele>
        <time>2019-06-23T07:40:24Z</time>
      </trkpt>
      <trkpt lat="48.77957" lon="2.06828">
        <ele>146</ele>
        <time>2019-06-23T07:40:33Z</time>
      </trkpt>
      <trkpt lat="48.77964" lon="2.06839">
        <ele>150</ele>
        <time>2019-06-23T07:40:42Z</time>
      </trkpt>
      <trkpt lat="48.7797" lon="2.0685">
        <ele>150</ele>
        <time>2019-06-23T07:40:48Z</time>
      </trkpt>
      <trkpt lat="48.77978" lon="2.06857">
        <ele>149</ele>
        <time>2019-06-23T07:40:54Z</time>
      </trkpt>
      <trkpt lat="48.77985" lon="2.06868">
        <ele>150</ele>
        <time>2019-06-23T07:41:00Z</time>
      </trkpt>
      <trkpt lat="48.77993" lon="2.06877">
        <ele>150</ele>
        <time>2019-06-23T07:41:07Z</time>
      </trkpt>
      <trkpt lat="48.78" lon="2.06888">
        <ele>144</ele>
        <time>2019-06-23T07:41:14Z</time>
      </trkpt>
      <trkpt lat="48.78007" lon="2.06898">
        <ele>145</ele>
        <time>2019-06-23T07:41:20Z</time>
      </trkpt>
      <trkpt lat="48.78013" lon="2.06908">
        <ele>145</ele>
        <time>2019-06-23T07:41:27Z</time>
      </trkpt>
      <trkpt lat="48.78018" lon="2.0692">
        <ele>147</ele>
        <time>2019-06-23T07:41:34Z</time>
      </trkpt>
      <trkpt lat="48.78025" lon="2.06929">
        <ele>147</ele>
        <time>2019-06-23T07:41:41Z</time>
      </trkpt>
      <trkpt lat="48.78036" lon="2.06932">
        <ele>146</ele>
        <time>2019-06-23T07:41:49Z</time>
      </trkpt>
      <trkpt lat="48.78045" lon="2.06937">
        <ele>145</ele>
        <time>2019-06-23T07:41:56Z</time>
      </trkpt>
      <trkpt lat="48.78055" lon="2.06941">
        <ele>144</ele>
        <time>2019-06-23T07:42:00Z</time>
      </trkpt>
      <trkpt lat="48.78065" lon="2.06946">
        <ele>144</ele>
        <time>2019-06-23T07:42:06Z</time>
      </trkpt>
      <trkpt lat="48.78072" lon="2.06953">
        <ele>143</ele>
        <time>2019-06-23T07:42:12Z</time>
      </trkpt>
      <trkpt lat="48.78076" lon="2.06966">
        <ele>143</ele>
        <time>2019-06-23T07:42:21Z</time>
      </trkpt>
      <trkpt lat="48.78081" lon="2.0698">
        <ele>143</ele>
        <time>2019-06-23T07:42:27Z</time>
      </trkpt>
      <trkpt lat="48.78087" lon="2.0699">
        <ele>140</ele>
        <time>2019-06-23T07:42:37Z</time>
      </trkpt>
      <trkpt lat="48.78095" lon="2.07001">
        <ele>139</ele>
        <time>2019-06-23T07:42:43Z</time>
      </trkpt>
      <trkpt lat="48.78101" lon="2.07012">
        <ele>140</ele>
        <time>2019-06-23T07:42:48Z</time>
      </trkpt>
      <trkpt lat="48.78106" lon="2.07026">
        <ele>140</ele>
        <time>2019-06-23T07:42:55Z</time>
      </trkpt>
      <trkpt lat="48.78109" lon="2.07039">
        <ele>140</ele>
        <time>2019-06-23T07:43:00Z</time>
      </trkpt>
      <trkpt lat="48.78115" lon="2.07052">
        <ele>140</ele>
        <time>2019-06-23T07:43:06Z</time>
      </trkpt>
      <trkpt lat="48.78118" lon="2.07066">
        <ele>140</ele>
        <time>2019-06-23T07:43:12Z</time>
      </trkpt>
      <trkpt lat="48.78117" lon="2.07081">
        <ele>140</ele>
        <time>2019-06-23T07:43:22Z</time>
      </trkpt>
      <trkpt lat="48.78115" lon="2.07095">
        <ele>140</ele>
        <time>2019-06-23T07:43:28Z</time>
      </trkpt>
      <trkpt lat="48.7811" lon="2.07109">
        <ele>140</ele>
        <time>2019-06-23T07:43:36Z</time>
      </trkpt>
      <trkpt lat="48.78107" lon="2.07123">
        <ele>140</ele>
        <time>2019-06-23T07:43:42Z</time>
      </trkpt>
      <trkpt lat="48.78104" lon="2.07136">
        <ele>140</ele>
        <time>2019-06-23T07:43:48Z</time>
      </trkpt>
      <trkpt lat="48.78103" lon="2.07152">
        <ele>141</ele>
        <time>2019-06-23T07:43:57Z</time>
      </trkpt>
      <trkpt lat="48.78098" lon="2.07164">
        <ele>141</ele>
        <time>2019-06-23T07:44:02Z</time>
      </trkpt>
      <trkpt lat="48.78099" lon="2.07178">
        <ele>141</ele>
        <time>2019-06-23T07:44:12Z</time>
      </trkpt>
      <trkpt lat="48.78095" lon="2.07192">
        <ele>142</ele>
        <time>2019-06-23T07:44:23Z</time>
      </trkpt>
      <trkpt lat="48.78095" lon="2.07206">
        <ele>142</ele>
        <time>2019-06-23T07:44:31Z</time>
      </trkpt>
      <trkpt lat="48.78092" lon="2.07221">
        <ele>142</ele>
        <time>2019-06-23T07:44:39Z</time>
      </trkpt>
      <trkpt lat="48.7809" lon="2.07235">
        <ele>143</ele>
        <time>2019-06-23T07:44:44Z</time>
      </trkpt>
      <trkpt lat="48.78091" lon="2.07249">
        <ele>143</ele>
        <time>2019-06-23T07:44:53Z</time>
      </trkpt>
      <trkpt lat="48.7809" lon="2.07263">
        <ele>143</ele>
        <time>2019-06-23T07:45:01Z</time>
      </trkpt>
      <trkpt lat="48.78088" lon="2.07279">
        <ele>142</ele>
        <time>2019-06-23T07:45:07Z</time>
      </trkpt>
      <trkpt lat="48.78085" lon="2.07292">
        <ele>142</ele>
        <time>2019-06-23T07:45:12Z</time>
      </trkpt>
      <trkpt lat="48.78081" lon="2.07305">
        <ele>149</ele>
        <time>2019-06-23T07:45:18Z</time>
      </trkpt>
      <trkpt lat="48.78083" lon="2.07318">
        <ele>148</ele>
        <time>2019-06-23T07:45:26Z</time>
      </trkpt>
      <trkpt lat="48.78079" lon="2.07331">
        <ele>145</ele>
        <time>2019-06-23T07:45:32Z</time>
      </trkpt>
      <trkpt lat="48.78076" lon="2.07346">
        <ele>148</ele>
        <time>2019-06-23T07:45:39Z</time>
      </trkpt>
      <trkpt lat="48.78073" lon="2.07359">
        <ele>151</ele>
        <time>2019-06-23T07:45:45Z</time>
      </trkpt>
      <trkpt lat="48.78071" lon="2.07372">
        <ele>152</ele>
        <time>2019-06-23T07:45:51Z</time>
      </trkpt>
      <trkpt lat="48.78071" lon="2.07388">
        <ele>152</ele>
        <time>2019-06-23T07:45:58Z</time>
      </trkpt>
      <trkpt lat="48.78061" lon="2.07396">
        <ele>153</ele>
        <time>2019-06-23T07:46:02Z</time>
      </trkpt>
      <trkpt lat="48.78054" lon="2.07408">
        <ele>153</ele>
        <time>2019-06-23T07:46:07Z</time>
      </trkpt>
      <trkpt lat="48.78062" lon="2.07417">
        <ele>153</ele>
        <time>2019-06-23T07:46:12Z</time>
      </trkpt>
      <trkpt lat="48.78071" lon="2.07427">
        <ele>152</ele>
        <time>2019-06-23T07:46:17Z</time>
      </trkpt>
      <trkpt lat="48.78073" lon="2.07442">
        <ele>153</ele>
        <time>2019-06-23T07:46:26Z</time>
      </trkpt>
      <trkpt lat="48.78076" lon="2.07456">
        <ele>154</ele>
        <time>2019-06-23T07:46:35Z</time>
      </trkpt>
      <trkpt lat="48.78078" lon="2.07471">
        <ele>155</ele>
        <time>2019-06-23T07:46:42Z</time>
      </trkpt>
      <trkpt lat="48.78079" lon="2.07487">
        <ele>154</ele>
        <time>2019-06-23T07:46:49Z</time>
      </trkpt>
      <trkpt lat="48.78081" lon="2.075">
        <ele>153</ele>
        <time>2019-06-23T07:46:56Z</time>
      </trkpt>
      <trkpt lat="48.78084" lon="2.07514">
        <ele>151</ele>
        <time>2019-06-23T07:47:03Z</time>
      </trkpt>
      <trkpt lat="48.78088" lon="2.07528">
        <ele>150</ele>
        <time>2019-06-23T07:47:09Z</time>
      </trkpt>
      <trkpt lat="48.78092" lon="2.07542">
        <ele>150</ele>
        <time>2019-06-23T07:47:15Z</time>
      </trkpt>
      <trkpt lat="48.78097" lon="2.07553">
        <ele>150</ele>
        <time>2019-06-23T07:47:22Z</time>
      </trkpt>
      <trkpt lat="48.78099" lon="2.07568">
        <ele>151</ele>
        <time>2019-06-23T07:47:29Z</time>
      </trkpt>
      <trkpt lat="48.78102" lon="2.07582">
        <ele>152</ele>
        <time>2019-06-23T07:47:37Z</time>
      </trkpt>
      <trkpt lat="48.78107" lon="2.07595">
        <ele>153</ele>
        <time>2019-06-23T07:47:46Z</time>
      </trkpt>
      <trkpt lat="48.78117" lon="2.07603">
        <ele>152</ele>
        <time>2019-06-23T07:47:54Z</time>
      </trkpt>
      <trkpt lat="48.78125" lon="2.07613">
        <ele>151</ele>
        <time>2019-06-23T07:48:00Z</time>
      </trkpt>
      <trkpt lat="48.78132" lon="2.07625">
        <ele>151</ele>
        <time>2019-06-23T07:48:09Z</time>
      </trkpt>
      <trkpt lat="48.78139" lon="2.07636">
        <ele>151</ele>
        <time>2019-06-23T07:48:16Z</time>
      </trkpt>
      <trkpt lat="48.78145" lon="2.07648">
        <ele>151</ele>
        <time>2019-06-23T07:48:23Z</time>
      </trkpt>
      <trkpt lat="48.78153" lon="2.07656">
        <ele>151</ele>
        <time>2019-06-23T07:48:30Z</time>
      </trkpt>
      <trkpt lat="48.78162" lon="2.07664">
        <ele>151</ele>
        <time>2019-06-23T07:48:37Z</time>
      </trkpt>
      <trkpt lat="48.7817" lon="2.07671">
        <ele>150</ele>
        <time>2019-06-23T07:48:42Z</time>
      </trkpt>
      <trkpt lat="48.78177" lon="2.0768">
        <ele>150</ele>
        <time>2019-06-23T07:48:50Z</time>
      </trkpt>
      <trkpt lat="48.78185" lon="2.07686">
        <ele>149</ele>
        <time>2019-06-23T07:48:58Z</time>
      </trkpt>
      <trkpt lat="48.78192" lon="2.07698">
        <ele>149</ele>
        <time>2019-06-23T07:49:07Z</time>
      </trkpt>
      <trkpt lat="48.78196" lon="2.0771">
        <ele>149</ele>
        <time>2019-06-23T07:49:27Z</time>
      </trkpt>
      <trkpt lat="48.78196" lon="2.07724">
        <ele>149</ele>
        <time>2019-06-23T07:49:35Z</time>
      </trkpt>
      <trkpt lat="48.78204" lon="2.07733">
        <ele>149</ele>
        <time>2019-06-23T07:50:02Z</time>
      </trkpt>
      <trkpt lat="48.78211" lon="2.07746">
        <ele>149</ele>
        <time>2019-06-23T07:50:11Z</time>
      </trkpt>
      <trkpt lat="48.78216" lon="2.07759">
        <ele>150</ele>
        <time>2019-06-23T07:50:20Z</time>
      </trkpt>
      <trkpt lat="48.78223" lon="2.07771">
        <ele>150</ele>
        <time>2019-06-23T07:50:31Z</time>
      </trkpt>
      <trkpt lat="48.78229" lon="2.07781">
        <ele>150</ele>
        <time>2019-06-23T07:50:41Z</time>
      </trkpt>
      <trkpt lat="48.78236" lon="2.07793">
        <ele>150</ele>
        <time>2019-06-23T07:50:48Z</time>
      </trkpt>
      <trkpt lat="48.78242" lon="2.07805">
        <ele>150</ele>
        <time>2019-06-23T07:50:56Z</time>
      </trkpt>
      <trkpt lat="48.78248" lon="2.07819">
        <ele>150</ele>
        <time>2019-06-23T07:51:01Z</time>
      </trkpt>
      <trkpt lat="48.78252" lon="2.07832">
        <ele>149</ele>
        <time>2019-06-23T07:51:10Z</time>
      </trkpt>
      <trkpt lat="48.78255" lon="2.07845">
        <ele>149</ele>
        <time>2019-06-23T07:51:17Z</time>
      </trkpt>
      <trkpt lat="48.78263" lon="2.07852">
        <ele>148</ele>
        <time>2019-06-23T07:51:23Z</time>
      </trkpt>
      <trkpt lat="48.78273" lon="2.07855">
        <ele>148</ele>
        <time>2019-06-23T07:51:29Z</time>
      </trkpt>
      <trkpt lat="48.78283" lon="2.07862">
        <ele>147</ele>
        <time>2019-06-23T07:51:37Z</time>
      </trkpt>
      <trkpt lat="48.78292" lon="2.07865">
        <ele>147</ele>
        <time>2019-06-23T07:51:43Z</time>
      </trkpt>
      <trkpt lat="48.78299" lon="2.07874">
        <ele>147</ele>
        <time>2019-06-23T07:51:50Z</time>
      </trkpt>
      <trkpt lat="48.78305" lon="2.07885">
        <ele>147</ele>
        <time>2019-06-23T07:51:55Z</time>
      </trkpt>
      <trkpt lat="48.78296" lon="2.07891">
        <ele>148</ele>
        <time>2019-06-23T07:52:25Z</time>
      </trkpt>
      <trkpt lat="48.78287" lon="2.07891">
        <ele>148</ele>
        <time>2019-06-23T07:52:37Z</time>
      </trkpt>
      <trkpt lat="48.78277" lon="2.07893">
        <ele>149</ele>
        <time>2019-06-23T07:52:47Z</time>
      </trkpt>
      <trkpt lat="48.78269" lon="2.07901">
        <ele>151</ele>
        <time>2019-06-23T07:52:57Z</time>
      </trkpt>
      <trkpt lat="48.78259" lon="2.07902">
        <ele>152</ele>
        <time>2019-06-23T07:53:09Z</time>
      </trkpt>
      <trkpt lat="48.7825" lon="2.07906">
        <ele>153</ele>
        <time>2019-06-23T07:53:18Z</time>
      </trkpt>
      <trkpt lat="48.78245" lon="2.07919">
        <ele>156</ele>
        <time>2019-06-23T07:53:32Z</time>
      </trkpt>
      <trkpt lat="48.78245" lon="2.07934">
        <ele>156</ele>
        <time>2019-06-23T07:53:44Z</time>
      </trkpt>
      <trkpt lat="48.78244" lon="2.07949">
        <ele>156</ele>
        <time>2019-06-23T07:53:55Z</time>
      </trkpt>
      <trkpt lat="48.78245" lon="2.07965">
        <ele>156</ele>
        <time>2019-06-23T07:54:03Z</time>
      </trkpt>
      <trkpt lat="48.78249" lon="2.07978">
        <ele>156</ele>
        <time>2019-06-23T07:54:10Z</time>
      </trkpt>
      <trkpt lat="48.78254" lon="2.07991">
        <ele>156</ele>
        <time>2019-06-23T07:54:18Z</time>
      </trkpt>
      <trkpt lat="48.78254" lon="2.08005">
        <ele>156</ele>
        <time>2019-06-23T07:54:25Z</time>
      </trkpt>
      <trkpt lat="48.78253" lon="2.0802">
        <ele>156</ele>
        <time>2019-06-23T07:54:33Z</time>
      </trkpt>
      <trkpt lat="48.78251" lon="2.08036">
        <ele>156</ele>
        <time>2019-06-23T07:54:42Z</time>
      </trkpt>
      <trkpt lat="48.78247" lon="2.0805">
        <ele>157</ele>
        <time>2019-06-23T07:54:50Z</time>
      </trkpt>
      <trkpt lat="48.78241" lon="2.08062">
        <ele>157</ele>
        <time>2019-06-23T07:54:54Z</time>
      </trkpt>
      <trkpt lat="48.78233" lon="2.08075">
        <ele>157</ele>
        <time>2019-06-23T07:54:59Z</time>
      </trkpt>
      <trkpt lat="48.78228" lon="2.08091">
        <ele>157</ele>
        <time>2019-06-23T07:55:03Z</time>
      </trkpt>
      <trkpt lat="48.78222" lon="2.08102">
        <ele>157</ele>
        <time>2019-06-23T07:55:07Z</time>
      </trkpt>
      <trkpt lat="48.78218" lon="2.08116">
        <ele>157</ele>
        <time>2019-06-23T07:55:14Z</time>
      </trkpt>
      <trkpt lat="48.78217" lon="2.0813">
        <ele>157</ele>
        <time>2019-06-23T07:55:21Z</time>
      </trkpt>
      <trkpt lat="48.78214" lon="2.08144">
        <ele>157</ele>
        <time>2019-06-23T07:55:28Z</time>
      </trkpt>
      <trkpt lat="48.78207" lon="2.08153">
        <ele>157</ele>
        <time>2019-06-23T07:55:35Z</time>
      </trkpt>
      <trkpt lat="48.78204" lon="2.08166">
        <ele>157</ele>
        <time>2019-06-23T07:55:41Z</time>
      </trkpt>
      <trkpt lat="48.78204" lon="2.08181">
        <ele>155</ele>
        <time>2019-06-23T07:55:51Z</time>
      </trkpt>
      <trkpt lat="48.78202" lon="2.08197">
        <ele>155</ele>
        <time>2019-06-23T07:55:58Z</time>
      </trkpt>
      <trkpt lat="48.78201" lon="2.08211">
        <ele>154</ele>
        <time>2019-06-23T07:56:04Z</time>
      </trkpt>
      <trkpt lat="48.78198" lon="2.08224">
        <ele>154</ele>
        <time>2019-06-23T07:56:09Z</time>
      </trkpt>
      <trkpt lat="48.78195" lon="2.08238">
        <ele>154</ele>
        <time>2019-06-23T07:56:24Z</time>
      </trkpt>
      <trkpt lat="48.78194" lon="2.08253">
        <ele>151</ele>
        <time>2019-06-23T07:56:30Z</time>
      </trkpt>
      <trkpt lat="48.78187" lon="2.08265">
        <ele>151</ele>
        <time>2019-06-23T07:56:39Z</time>
      </trkpt>
      <trkpt lat="48.78182" lon="2.08277">
        <ele>150</ele>
        <time>2019-06-23T07:56:48Z</time>
      </trkpt>
      <trkpt lat="48.78174" lon="2.08288">
        <ele>150</ele>
        <time>2019-06-23T07:56:55Z</time>
      </trkpt>
      <trkpt lat="48.78166" lon="2.08294">
        <ele>153</ele>
        <time>2019-06-23T07:57:04Z</time>
      </trkpt>
      <trkpt lat="48.78159" lon="2.08303">
        <ele>152</ele>
        <time>2019-06-23T07:57:09Z</time>
      </trkpt>
      <trkpt lat="48.78153" lon="2.08314">
        <ele>151</ele>
        <time>2019-06-23T07:57:15Z</time>
      </trkpt>
      <trkpt lat="48.78145" lon="2.08319">
        <ele>152</ele>
        <time>2019-06-23T07:57:33Z</time>
      </trkpt>
      <trkpt lat="48.78137" lon="2.08329">
        <ele>152</ele>
        <time>2019-06-23T07:57:44Z</time>
      </trkpt>
      <trkpt lat="48.78128" lon="2.08336">
        <ele>149</ele>
        <time>2019-06-23T07:57:51Z</time>
      </trkpt>
      <trkpt lat="48.78119" lon="2.08342">
        <ele>150</ele>
        <time>2019-06-23T07:57:59Z</time>
      </trkpt>
      <trkpt lat="48.7811" lon="2.08348">
        <ele>150</ele>
        <time>2019-06-23T07:58:07Z</time>
      </trkpt>
      <trkpt lat="48.781" lon="2.08348">
        <ele>151</ele>
        <time>2019-06-23T07:58:13Z</time>
      </trkpt>
      <trkpt lat="48.78099" lon="2.08363">
        <ele>150</ele>
        <time>2019-06-23T07:58:56Z</time>
      </trkpt>
      <trkpt lat="48.78107" lon="2.0837">
        <ele>150</ele>
        <time>2019-06-23T07:59:06Z</time>
      </trkpt>
      <trkpt lat="48.78116" lon="2.08374">
        <ele>149</ele>
        <time>2019-06-23T07:59:11Z</time>
      </trkpt>
      <trkpt lat="48.78127" lon="2.08382">
        <ele>148</ele>
        <time>2019-06-23T07:59:17Z</time>
      </trkpt>
      <trkpt lat="48.78136" lon="2.08386">
        <ele>147</ele>
        <time>2019-06-23T07:59:23Z</time>
      </trkpt>
      <trkpt lat="48.78145" lon="2.08389">
        <ele>146</ele>
        <time>2019-06-23T07:59:32Z</time>
      </trkpt>
      <trkpt lat="48.78154" lon="2.08391">
        <ele>145</ele>
        <time>2019-06-23T07:59:37Z</time>
      </trkpt>
      <trkpt lat="48.78164" lon="2.08396">
        <ele>144</ele>
        <time>2019-06-23T07:59:43Z</time>
      </trkpt>
      <trkpt lat="48.78173" lon="2.08398">
        <ele>139</ele>
        <time>2019-06-23T07:59:53Z</time>
      </trkpt>
      <trkpt lat="48.78181" lon="2.08402">
        <ele>139</ele>
        <time>2019-06-23T08:00:02Z</time>
      </trkpt>
      <trkpt lat="48.78191" lon="2.08405">
        <ele>139</ele>
        <time>2019-06-23T08:00:08Z</time>
      </trkpt>
      <trkpt lat="48.782" lon="2.0841">
        <ele>139</ele>
        <time>2019-06-23T08:00:14Z</time>
      </trkpt>
      <trkpt lat="48.7821" lon="2.08414">
        <ele>138</ele>
        <time>2019-06-23T08:00:21Z</time>
      </trkpt>
      <trkpt lat="48.78219" lon="2.08418">
        <ele>134</ele>
        <time>2019-06-23T08:00:37Z</time>
      </trkpt>
      <trkpt lat="48.78215" lon="2.08432">
        <ele>134</ele>
        <time>2019-06-23T08:00:51Z</time>
      </trkpt>
      <trkpt lat="48.78207" lon="2.08442">
        <ele>134</ele>
        <time>2019-06-23T08:00:55Z</time>
      </trkpt>
      <trkpt lat="48.782" lon="2.08451">
        <ele>134</ele>
        <time>2019-06-23T08:00:58Z</time>
      </trkpt>
      <trkpt lat="48.78194" lon="2.08462">
        <ele>134</ele>
        <time>2019-06-23T08:01:02Z</time>
      </trkpt>
      <trkpt lat="48.78187" lon="2.08473">
        <ele>134</ele>
        <time>2019-06-23T08:01:07Z</time>
      </trkpt>
      <trkpt lat="48.78184" lon="2.08486">
        <ele>133</ele>
        <time>2019-06-23T08:01:12Z</time>
      </trkpt>
      <trkpt lat="48.78179" lon="2.085">
        <ele>133</ele>
        <time>2019-06-23T08:01:23Z</time>
      </trkpt>
      <trkpt lat="48.78175" lon="2.08514">
        <ele>132</ele>
        <time>2019-06-23T08:01:28Z</time>
      </trkpt>
      <trkpt lat="48.78168" lon="2.08525">
        <ele>131</ele>
        <time>2019-06-23T08:01:34Z</time>
      </trkpt>
      <trkpt lat="48.78162" lon="2.08536">
        <ele>137</ele>
        <time>2019-06-23T08:01:42Z</time>
      </trkpt>
      <trkpt lat="48.78154" lon="2.08546">
        <ele>137</ele>
        <time>2019-06-23T08:01:51Z</time>
      </trkpt>
      <trkpt lat="48.78148" lon="2.08559">
        <ele>137</ele>
        <time>2019-06-23T08:01:57Z</time>
      </trkpt>
      <trkpt lat="48.78142" lon="2.08571">
        <ele>137</ele>
        <time>2019-06-23T08:02:03Z</time>
      </trkpt>
      <trkpt lat="48.78136" lon="2.08583">
        <ele>137</ele>
        <time>2019-06-23T08:02:12Z</time>
      </trkpt>
      <trkpt lat="48.78129" lon="2.08593">
        <ele>135</ele>
        <time>2019-06-23T08:02:18Z</time>
      </trkpt>
      <trkpt lat="48.78121" lon="2.08602">
        <ele>136</ele>
        <time>2019-06-23T08:02:26Z</time>
      </trkpt>
      <trkpt lat="48.78114" lon="2.08609">
        <ele>136</ele>
        <time>2019-06-23T08:02:34Z</time>
      </trkpt>
      <trkpt lat="48.78105" lon="2.08618">
        <ele>137</ele>
        <time>2019-06-23T08:02:39Z</time>
      </trkpt>
      <trkpt lat="48.78097" lon="2.08626">
        <ele>136</ele>
        <time>2019-06-23T08:02:43Z</time>
      </trkpt>
      <trkpt lat="48.78089" lon="2.08636">
        <ele>136</ele>
        <time>2019-06-23T08:02:58Z</time>
      </trkpt>
      <trkpt lat="48.78082" lon="2.08644">
        <ele>144</ele>
        <time>2019-06-23T08:03:08Z</time>
      </trkpt>
      <trkpt lat="48.78075" lon="2.08655">
        <ele>142</ele>
        <time>2019-06-23T08:03:20Z</time>
      </trkpt>
      <trkpt lat="48.78068" lon="2.08664">
        <ele>142</ele>
        <time>2019-06-23T08:03:27Z</time>
      </trkpt>
      <trkpt lat="48.78061" lon="2.08675">
        <ele>141</ele>
        <time>2019-06-23T08:03:33Z</time>
      </trkpt>
      <trkpt lat="48.78055" lon="2.08686">
        <ele>142</ele>
        <time>2019-06-23T08:03:39Z</time>
      </trkpt>
      <trkpt lat="48.78051" lon="2.08699">
        <ele>142</ele>
        <time>2019-06-23T08:03:45Z</time>
      </trkpt>
      <trkpt lat="48.78051" lon="2.08714">
        <ele>142</ele>
        <time>2019-06-23T08:03:51Z</time>
      </trkpt>
      <trkpt lat="48.78052" lon="2.08729">
        <ele>141</ele>
        <time>2019-06-23T08:03:55Z</time>
      </trkpt>
      <trkpt lat="48.78054" lon="2.08745">
        <ele>140</ele>
        <time>2019-06-23T08:04:01Z</time>
      </trkpt>
      <trkpt lat="48.7806" lon="2.08755">
        <ele>137</ele>
        <time>2019-06-23T08:04:11Z</time>
      </trkpt>
      <trkpt lat="48.78068" lon="2.08767">
        <ele>137</ele>
        <time>2019-06-23T08:04:17Z</time>
      </trkpt>
      <trkpt lat="48.78074" lon="2.08776">
        <ele>137</ele>
        <time>2019-06-23T08:04:23Z</time>
      </trkpt>
      <trkpt lat="48.78081" lon="2.08788">
        <ele>136</ele>
        <time>2019-06-23T08:04:28Z</time>
      </trkpt>
      <trkpt lat="48.78088" lon="2.08798">
        <ele>131</ele>
        <time>2019-06-23T08:04:34Z</time>
      </trkpt>
      <trkpt lat="48.7809" lon="2.08812">
        <ele>131</ele>
        <time>2019-06-23T08:04:41Z</time>
      </trkpt>
      <trkpt lat="48.78092" lon="2.08827">
        <ele>131</ele>
        <time>2019-06-23T08:04:49Z</time>
      </trkpt>
      <trkpt lat="48.78095" lon="2.08841">
        <ele>130</ele>
        <time>2019-06-23T08:04:57Z</time>
      </trkpt>
      <trkpt lat="48.78099" lon="2.08856">
        <ele>129</ele>
        <time>2019-06-23T08:05:03Z</time>
      </trkpt>
      <trkpt lat="48.78103" lon="2.08871">
        <ele>128</ele>
        <time>2019-06-23T08:05:09Z</time>
      </trkpt>
      <trkpt lat="48.78105" lon="2.08885">
        <ele>128</ele>
        <time>2019-06-23T08:05:14Z</time>
      </trkpt>
      <trkpt lat="48.78108" lon="2.089">
        <ele>128</ele>
        <time>2019-06-23T08:05:19Z</time>
      </trkpt>
      <trkpt lat="48.78112" lon="2.08914">
        <ele>128</ele>
        <time>2019-06-23T08:05:26Z</time>
      </trkpt>
      <trkpt lat="48.78116" lon="2.08928">
        <ele>128</ele>
        <time>2019-06-23T08:05:36Z</time>
      </trkpt>
      <trkpt lat="48.78126" lon="2.08932">
        <ele>128</ele>
        <time>2019-06-23T08:05:46Z</time>
      </trkpt>
      <trkpt lat="48.78135" lon="2.08936">
        <ele>128</ele>
        <time>2019-06-23T08:05:52Z</time>
      </trkpt>
      <trkpt lat="48.78143" lon="2.08945">
        <ele>128</ele>
        <time>2019-06-23T08:05:57Z</time>
      </trkpt>
      <trkpt lat="48.78151" lon="2.08952">
        <ele>128</ele>
        <time>2019-06-23T08:06:02Z</time>
      </trkpt>
      <trkpt lat="48.7816" lon="2.08958">
        <ele>128</ele>
        <time>2019-06-23T08:06:08Z</time>
      </trkpt>
      <trkpt lat="48.78168" lon="2.08965">
        <ele>133</ele>
        <time>2019-06-23T08:06:13Z</time>
      </trkpt>
      <trkpt lat="48.78177" lon="2.08972">
        <ele>134</ele>
        <time>2019-06-23T08:06:20Z</time>
      </trkpt>
      <trkpt lat="48.78187" lon="2.08977">
        <ele>134</ele>
        <time>2019-06-23T08:06:28Z</time>
      </trkpt>
      <trkpt lat="48.78196" lon="2.08983">
        <ele>135</ele>
        <time>2019-06-23T08:06:35Z</time>
      </trkpt>
      <trkpt lat="48.78205" lon="2.08992">
        <ele>137</ele>
        <time>2019-06-23T08:06:41Z</time>
      </trkpt>
      <trkpt lat="48.78213" lon="2.08999">
        <ele>138</ele>
        <time>2019-06-23T08:07:08Z</time>
      </trkpt>
      <trkpt lat="48.78222" lon="2.08997">
        <ele>140</ele>
        <time>2019-06-23T08:07:52Z</time>
      </trkpt>
      <trkpt lat="48.78224" lon="2.08983">
        <ele>139</ele>
        <time>2019-06-23T08:08:01Z</time>
      </trkpt>
      <trkpt lat="48.78226" lon="2.08969">
        <ele>139</ele>
        <time>2019-06-23T08:08:10Z</time>
      </trkpt>
      <trkpt lat="48.78228" lon="2.08955">
        <ele>138</ele>
        <time>2019-06-23T08:08:17Z</time>
      </trkpt>
      <trkpt lat="48.78228" lon="2.08941">
        <ele>138</ele>
        <time>2019-06-23T08:08:22Z</time>
      </trkpt>
      <trkpt lat="48.78226" lon="2.08927">
        <ele>137</ele>
        <time>2019-06-23T08:08:26Z</time>
      </trkpt>
      <trkpt lat="48.78226" lon="2.08913">
        <ele>136</ele>
        <time>2019-06-23T08:08:32Z</time>
      </trkpt>
      <trkpt lat="48.78225" lon="2.08899">
        <ele>135</ele>
        <time>2019-06-23T08:08:39Z</time>
      </trkpt>
      <trkpt lat="48.78225" lon="2.08885">
        <ele>135</ele>
        <time>2019-06-23T08:08:46Z</time>
      </trkpt>
      <trkpt lat="48.78226" lon="2.08871">
        <ele>135</ele>
        <time>2019-06-23T08:08:54Z</time>
      </trkpt>
      <trkpt lat="48.78226" lon="2.08857">
        <ele>135</ele>
        <time>2019-06-23T08:09:02Z</time>
      </trkpt>
      <trkpt lat="48.78229" lon="2.08845">
        <ele>135</ele>
        <time>2019-06-23T08:09:07Z</time>
      </trkpt>
      <trkpt lat="48.78231" lon="2.0883">
        <ele>135</ele>
        <time>2019-06-23T08:09:14Z</time>
      </trkpt>
      <trkpt lat="48.78238" lon="2.08821">
        <ele>136</ele>
        <time>2019-06-23T08:09:20Z</time>
      </trkpt>
      <trkpt lat="48.78246" lon="2.08826">
        <ele>138</ele>
        <time>2019-06-23T08:09:27Z</time>
      </trkpt>
      <trkpt lat="48.78257" lon="2.0883">
        <ele>142</ele>
        <time>2019-06-23T08:09:37Z</time>
      </trkpt>
      <trkpt lat="48.78261" lon="2.08842">
        <ele>145</ele>
        <time>2019-06-23T08:09:49Z</time>
      </trkpt>
      <trkpt lat="48.78266" lon="2.08855">
        <ele>147</ele>
        <time>2019-06-23T08:09:57Z</time>
      </trkpt>
      <trkpt lat="48.78266" lon="2.0887">
        <ele>148</ele>
        <time>2019-06-23T08:10:05Z</time>
      </trkpt>
      <trkpt lat="48.78263" lon="2.08883">
        <ele>148</ele>
        <time>2019-06-23T08:10:14Z</time>
      </trkpt>
      <trkpt lat="48.78257" lon="2.08894">
        <ele>147</ele>
        <time>2019-06-23T08:10:20Z</time>
      </trkpt>
      <trkpt lat="48.78255" lon="2.08908">
        <ele>144</ele>
        <time>2019-06-23T08:10:27Z</time>
      </trkpt>
      <trkpt lat="48.78251" lon="2.08921">
        <ele>143</ele>
        <time>2019-06-23T08:10:33Z</time>
      </trkpt>
      <trkpt lat="48.78249" lon="2.08936">
        <ele>139</ele>
        <time>2019-06-23T08:10:42Z</time>
      </trkpt>
      <trkpt lat="48.78251" lon="2.08951">
        <ele>150</ele>
        <time>2019-06-23T08:10:52Z</time>
      </trkpt>
      <trkpt lat="48.78253" lon="2.08965">
        <ele>151</ele>
        <time>2019-06-23T08:10:58Z</time>
      </trkpt>
      <trkpt lat="48.78255" lon="2.08979">
        <ele>151</ele>
        <time>2019-06-23T08:11:07Z</time>
      </trkpt>
      <trkpt lat="48.78259" lon="2.08965">
        <ele>151</ele>
        <time>2019-06-23T08:11:23Z</time>
      </trkpt>
      <trkpt lat="48.78261" lon="2.0895">
        <ele>151</ele>
        <time>2019-06-23T08:11:31Z</time>
      </trkpt>
      <trkpt lat="48.78267" lon="2.08937">
        <ele>150</ele>
        <time>2019-06-23T08:11:39Z</time>
      </trkpt>
      <trkpt lat="48.78274" lon="2.08929">
        <ele>150</ele>
        <time>2019-06-23T08:11:47Z</time>
      </trkpt>
      <trkpt lat="48.78283" lon="2.08922">
        <ele>152</ele>
        <time>2019-06-23T08:11:57Z</time>
      </trkpt>
      <trkpt lat="48.78292" lon="2.08922">
        <ele>154</ele>
        <time>2019-06-23T08:12:08Z</time>
      </trkpt>
      <trkpt lat="48.78302" lon="2.08921">
        <ele>156</ele>
        <time>2019-06-23T08:12:17Z</time>
      </trkpt>
      <trkpt lat="48.78313" lon="2.08921">
        <ele>158</ele>
        <time>2019-06-23T08:12:26Z</time>
      </trkpt>
      <trkpt lat="48.78323" lon="2.08918">
        <ele>160</ele>
        <time>2019-06-23T08:12:34Z</time>
      </trkpt>
      <trkpt lat="48.78315" lon="2.08925">
        <ele>158</ele>
        <time>2019-06-23T08:14:28Z</time>
      </trkpt>
      <trkpt lat="48.78308" lon="2.08936">
        <ele>156</ele>
        <time>2019-06-23T08:14:37Z</time>
      </trkpt>
      <trkpt lat="48.783" lon="2.08945">
        <ele>155</ele>
        <time>2019-06-23T08:14:57Z</time>
      </trkpt>
      <trkpt lat="48.78289" lon="2.0895">
        <ele>154</ele>
        <time>2019-06-23T08:15:04Z</time>
      </trkpt>
      <trkpt lat="48.78286" lon="2.08964">
        <ele>154</ele>
        <time>2019-06-23T08:15:14Z</time>
      </trkpt>
      <trkpt lat="48.78279" lon="2.08978">
        <ele>153</ele>
        <time>2019-06-23T08:15:27Z</time>
      </trkpt>
      <trkpt lat="48.78274" lon="2.08991">
        <ele>153</ele>
        <time>2019-06-23T08:15:35Z</time>
      </trkpt>
      <trkpt lat="48.78274" lon="2.09006">
        <ele>156</ele>
        <time>2019-06-23T08:15:46Z</time>
      </trkpt>
      <trkpt lat="48.7827" lon="2.0902">
        <ele>156</ele>
        <time>2019-06-23T08:15:57Z</time>
      </trkpt>
      <trkpt lat="48.78263" lon="2.0903">
        <ele>157</ele>
        <time>2019-06-23T08:16:02Z</time>
      </trkpt>
      <trkpt lat="48.78254" lon="2.09041">
        <ele>157</ele>
        <time>2019-06-23T08:16:09Z</time>
      </trkpt>
      <trkpt lat="48.78249" lon="2.09056">
        <ele>149</ele>
        <time>2019-06-23T08:16:16Z</time>
      </trkpt>
      <trkpt lat="48.78247" lon="2.09069">
        <ele>151</ele>
        <time>2019-06-23T08:16:24Z</time>
      </trkpt>
      <trkpt lat="48.78241" lon="2.09081">
        <ele>153</ele>
        <time>2019-06-23T08:16:31Z</time>
      </trkpt>
      <trkpt lat="48.78236" lon="2.09092">
        <ele>155</ele>
        <time>2019-06-23T08:16:38Z</time>
      </trkpt>
      <trkpt lat="48.78229" lon="2.09101">
        <ele>154</ele>
        <time>2019-06-23T08:16:45Z</time>
      </trkpt>
      <trkpt lat="48.78221" lon="2.09108">
        <ele>154</ele>
        <time>2019-06-23T08:16:53Z</time>
      </trkpt>
      <trkpt lat="48.78215" lon="2.0912">
        <ele>154</ele>
        <time>2019-06-23T08:16:59Z</time>
      </trkpt>
      <trkpt lat="48.78207" lon="2.09126">
        <ele>153</ele>
        <time>2019-06-23T08:17:05Z</time>
      </trkpt>
      <trkpt lat="48.78199" lon="2.09137">
        <ele>153</ele>
        <time>2019-06-23T08:17:19Z</time>
      </trkpt>
      <trkpt lat="48.7819" lon="2.09141">
        <ele>153</ele>
        <time>2019-06-23T08:17:25Z</time>
      </trkpt>
      <trkpt lat="48.78181" lon="2.09147">
        <ele>153</ele>
        <time>2019-06-23T08:17:32Z</time>
      </trkpt>
      <trkpt lat="48.78173" lon="2.09153">
        <ele>153</ele>
        <time>2019-06-23T08:17:38Z</time>
      </trkpt>
      <trkpt lat="48.78164" lon="2.0916">
        <ele>149</ele>
        <time>2019-06-23T08:17:44Z</time>
      </trkpt>
      <trkpt lat="48.78155" lon="2.09165">
        <ele>148</ele>
        <time>2019-06-23T08:17:50Z</time>
      </trkpt>
      <trkpt lat="48.78147" lon="2.09172">
        <ele>149</ele>
        <time>2019-06-23T08:17:59Z</time>
      </trkpt>
      <trkpt lat="48.78138" lon="2.09177">
        <ele>148</ele>
        <time>2019-06-23T08:18:07Z</time>
      </trkpt>
      <trkpt lat="48.78128" lon="2.09178">
        <ele>146</ele>
        <time>2019-06-23T08:18:15Z</time>
      </trkpt>
      <trkpt lat="48.78119" lon="2.09182">
        <ele>145</ele>
        <time>2019-06-23T08:18:25Z</time>
      </trkpt>
      <trkpt lat="48.78111" lon="2.09191">
        <ele>144</ele>
        <time>2019-06-23T08:18:31Z</time>
      </trkpt>
      <trkpt lat="48.78107" lon="2.09204">
        <ele>144</ele>
        <time>2019-06-23T08:18:37Z</time>
      </trkpt>
      <trkpt lat="48.78106" lon="2.09218">
        <ele>144</ele>
        <time>2019-06-23T08:18:50Z</time>
      </trkpt>
      <trkpt lat="48.78102" lon="2.09231">
        <ele>143</ele>
        <time>2019-06-23T08:18:57Z</time>
      </trkpt>
      <trkpt lat="48.78098" lon="2.09245">
        <ele>141</ele>
        <time>2019-06-23T08:19:01Z</time>
      </trkpt>
      <trkpt lat="48.78092" lon="2.09257">
        <ele>141</ele>
        <time>2019-06-23T08:19:12Z</time>
      </trkpt>
      <trkpt lat="48.7809" lon="2.09271">
        <ele>144</ele>
        <time>2019-06-23T08:19:18Z</time>
      </trkpt>
      <trkpt lat="48.78087" lon="2.09285">
        <ele>145</ele>
        <time>2019-06-23T08:19:30Z</time>
      </trkpt>
      <trkpt lat="48.78085" lon="2.09299">
        <ele>145</ele>
        <time>2019-06-23T08:19:51Z</time>
      </trkpt>
      <trkpt lat="48.78083" lon="2.09314">
        <ele>136</ele>
        <time>2019-06-23T08:19:56Z</time>
      </trkpt>
      <trkpt lat="48.7808" lon="2.09328">
        <ele>138</ele>
        <time>2019-06-23T08:20:02Z</time>
      </trkpt>
      <trkpt lat="48.78078" lon="2.09342">
        <ele>137</ele>
        <time>2019-06-23T08:20:10Z</time>
      </trkpt>
      <trkpt lat="48.78071" lon="2.09352">
        <ele>136</ele>
        <time>2019-06-23T08:20:19Z</time>
      </trkpt>
      <trkpt lat="48.7807" lon="2.09367">
        <ele>136</ele>
        <time>2019-06-23T08:20:25Z</time>
      </trkpt>
      <trkpt lat="48.78067" lon="2.09382">
        <ele>136</ele>
        <time>2019-06-23T08:20:32Z</time>
      </trkpt>
      <trkpt lat="48.78067" lon="2.09395">
        <ele>136</ele>
        <time>2019-06-23T08:20:46Z</time>
      </trkpt>
      <trkpt lat="48.78069" lon="2.0941">
        <ele>137</ele>
        <time>2019-06-23T08:20:57Z</time>
      </trkpt>
      <trkpt lat="48.78067" lon="2.09425">
        <ele>137</ele>
        <time>2019-06-23T08:21:06Z</time>
      </trkpt>
      <trkpt lat="48.78064" lon="2.09439">
        <ele>136</ele>
        <time>2019-06-23T08:21:13Z</time>
      </trkpt>
      <trkpt lat="48.78061" lon="2.09454">
        <ele>135</ele>
        <time>2019-06-23T08:21:19Z</time>
      </trkpt>
      <trkpt lat="48.7806" lon="2.09469">
        <ele>136</ele>
        <time>2019-06-23T08:21:27Z</time>
      </trkpt>
      <trkpt lat="48.7806" lon="2.09483">
        <ele>136</ele>
        <time>2019-06-23T08:21:34Z</time>
      </trkpt>
      <trkpt lat="48.78061" lon="2.09499">
        <ele>137</ele>
        <time>2019-06-23T08:21:41Z</time>
      </trkpt>
      <trkpt lat="48.78059" lon="2.09514">
        <ele>135</ele>
        <time>2019-06-23T08:21:49Z</time>
      </trkpt>
      <trkpt lat="48.78062" lon="2.0953">
        <ele>135</ele>
        <time>2019-06-23T08:21:56Z</time>
      </trkpt>
      <trkpt lat="48.78061" lon="2.09546">
        <ele>135</ele>
        <time>2019-06-23T08:22:04Z</time>
      </trkpt>
      <trkpt lat="48.78063" lon="2.0956">
        <ele>135</ele>
        <time>2019-06-23T08:22:14Z</time>
      </trkpt>
      <trkpt lat="48.78055" lon="2.09568">
        <ele>134</ele>
        <time>2019-06-23T08:22:23Z</time>
      </trkpt>
      <trkpt lat="48.78046" lon="2.09573">
        <ele>133</ele>
        <time>2019-06-23T08:22:31Z</time>
      </trkpt>
      <trkpt lat="48.78036" lon="2.0957">
        <ele>132</ele>
        <time>2019-06-23T08:22:38Z</time>
      </trkpt>
      <trkpt lat="48.78026" lon="2.0957">
        <ele>132</ele>
        <time>2019-06-23T08:22:45Z</time>
      </trkpt>
      <trkpt lat="48.78025" lon="2.09584">
        <ele>129</ele>
        <time>2019-06-23T08:22:56Z</time>
      </trkpt>
      <trkpt lat="48.78026" lon="2.09598">
        <ele>129</ele>
        <time>2019-06-23T08:23:03Z</time>
      </trkpt>
      <trkpt lat="48.78027" lon="2.0964">
        <ele>128</ele>
        <time>2019-06-23T08:23:22Z</time>
      </trkpt>
      <trkpt lat="48.78034" lon="2.09653">
        <ele>128</ele>
        <time>2019-06-23T08:23:27Z</time>
      </trkpt>
      <trkpt lat="48.78039" lon="2.09665">
        <ele>128</ele>
        <time>2019-06-23T08:23:36Z</time>
      </trkpt>
      <trkpt lat="48.78043" lon="2.09679">
        <ele>126</ele>
        <time>2019-06-23T08:23:42Z</time>
      </trkpt>
      <trkpt lat="48.78047" lon="2.09692">
        <ele>126</ele>
        <time>2019-06-23T08:23:51Z</time>
      </trkpt>
      <trkpt lat="48.78051" lon="2.09705">
        <ele>127</ele>
        <time>2019-06-23T08:24:01Z</time>
      </trkpt>
      <trkpt lat="48.78056" lon="2.09719">
        <ele>127</ele>
        <time>2019-06-23T08:24:06Z</time>
      </trkpt>
      <trkpt lat="48.78061" lon="2.09732">
        <ele>128</ele>
        <time>2019-06-23T08:24:10Z</time>
      </trkpt>
      <trkpt lat="48.78063" lon="2.09747">
        <ele>129</ele>
        <time>2019-06-23T08:24:18Z</time>
      </trkpt>
      <trkpt lat="48.78061" lon="2.09761">
        <ele>129</ele>
        <time>2019-06-23T08:24:25Z</time>
      </trkpt>
      <trkpt lat="48.78058" lon="2.09775">
        <ele>128</ele>
        <time>2019-06-23T08:24:32Z</time>
      </trkpt>
      <trkpt lat="48.78056" lon="2.09789">
        <ele>128</ele>
        <time>2019-06-23T08:24:40Z</time>
      </trkpt>
      <trkpt lat="48.78055" lon="2.09805">
        <ele>128</ele>
        <time>2019-06-23T08:24:49Z</time>
      </trkpt>
      <trkpt lat="48.78059" lon="2.09821">
        <ele>129</ele>
        <time>2019-06-23T08:24:53Z</time>
      </trkpt>
      <trkpt lat="48.78061" lon="2.09835">
        <ele>134</ele>
        <time>2019-06-23T08:25:00Z</time>
      </trkpt>
      <trkpt lat="48.78058" lon="2.09851">
        <ele>134</ele>
        <time>2019-06-23T08:25:08Z</time>
      </trkpt>
      <trkpt lat="48.78052" lon="2.09864">
        <ele>134</ele>
        <time>2019-06-23T08:25:13Z</time>
      </trkpt>
      <trkpt lat="48.78046" lon="2.09878">
        <ele>135</ele>
        <time>2019-06-23T08:25:19Z</time>
      </trkpt>
      <trkpt lat="48.78043" lon="2.09891">
        <ele>135</ele>
        <time>2019-06-23T08:25:26Z</time>
      </trkpt>
      <trkpt lat="48.78035" lon="2.099">
        <ele>135</ele>
        <time>2019-06-23T08:25:32Z</time>
      </trkpt>
      <trkpt lat="48.78027" lon="2.09909">
        <ele>135</ele>
        <time>2019-06-23T08:25:38Z</time>
      </trkpt>
      <trkpt lat="48.78019" lon="2.09914">
        <ele>134</ele>
        <time>2019-06-23T08:25:42Z</time>
      </trkpt>
      <trkpt lat="48.78009" lon="2.09915">
        <ele>134</ele>
        <time>2019-06-23T08:25:55Z</time>
      </trkpt>
      <trkpt lat="48.77999" lon="2.09922">
        <ele>135</ele>
        <time>2019-06-23T08:26:03Z</time>
      </trkpt>
      <trkpt lat="48.7799" lon="2.09923">
        <ele>137</ele>
        <time>2019-06-23T08:26:10Z</time>
      </trkpt>
      <trkpt lat="48.7798" lon="2.09921">
        <ele>138</ele>
        <time>2019-06-23T08:26:17Z</time>
      </trkpt>
      <trkpt lat="48.7797" lon="2.0992">
        <ele>139</ele>
        <time>2019-06-23T08:26:28Z</time>
      </trkpt>
      <trkpt lat="48.7796" lon="2.09919">
        <ele>139</ele>
        <time>2019-06-23T08:26:34Z</time>
      </trkpt>
      <trkpt lat="48.77951" lon="2.09916">
        <ele>129</ele>
        <time>2019-06-23T08:26:39Z</time>
      </trkpt>
      <trkpt lat="48.77941" lon="2.09913">
        <ele>129</ele>
        <time>2019-06-23T08:26:48Z</time>
      </trkpt>
      <trkpt lat="48.77932" lon="2.09909">
        <ele>130</ele>
        <time>2019-06-23T08:26:56Z</time>
      </trkpt>
      <trkpt lat="48.77924" lon="2.099">
        <ele>129</ele>
        <time>2019-06-23T08:27:03Z</time>
      </trkpt>
      <trkpt lat="48.77914" lon="2.09893">
        <ele>127</ele>
        <time>2019-06-23T08:27:11Z</time>
      </trkpt>
      <trkpt lat="48.77908" lon="2.09884">
        <ele>125</ele>
        <time>2019-06-23T08:27:16Z</time>
      </trkpt>
      <trkpt lat="48.77899" lon="2.09878">
        <ele>124</ele>
        <time>2019-06-23T08:27:22Z</time>
      </trkpt>
      <trkpt lat="48.77889" lon="2.09876">
        <ele>124</ele>
        <time>2019-06-23T08:27:30Z</time>
      </trkpt>
      <trkpt lat="48.77879" lon="2.09873">
        <ele>123</ele>
        <time>2019-06-23T08:27:37Z</time>
      </trkpt>
      <trkpt lat="48.7787" lon="2.09872">
        <ele>123</ele>
        <time>2019-06-23T08:27:42Z</time>
      </trkpt>
      <trkpt lat="48.7786" lon="2.09875">
        <ele>123</ele>
        <time>2019-06-23T08:27:48Z</time>
      </trkpt>
      <trkpt lat="48.77851" lon="2.09884">
        <ele>123</ele>
        <time>2019-06-23T08:27:55Z</time>
      </trkpt>
      <trkpt lat="48.77843" lon="2.09889">
        <ele>124</ele>
        <time>2019-06-23T08:28:03Z</time>
      </trkpt>
      <trkpt lat="48.77834" lon="2.09895">
        <ele>124</ele>
        <time>2019-06-23T08:28:10Z</time>
      </trkpt>
      <trkpt lat="48.77827" lon="2.09905">
        <ele>123</ele>
        <time>2019-06-23T08:28:16Z</time>
      </trkpt>
      <trkpt lat="48.77822" lon="2.09919">
        <ele>124</ele>
        <time>2019-06-23T08:28:25Z</time>
      </trkpt>
      <trkpt lat="48.77818" lon="2.09931">
        <ele>124</ele>
        <time>2019-06-23T08:28:31Z</time>
      </trkpt>
      <trkpt lat="48.77816" lon="2.09945">
        <ele>124</ele>
        <time>2019-06-23T08:28:36Z</time>
      </trkpt>
      <trkpt lat="48.77814" lon="2.09958">
        <ele>125</ele>
        <time>2019-06-23T08:28:43Z</time>
      </trkpt>
      <trkpt lat="48.7781" lon="2.09971">
        <ele>125</ele>
        <time>2019-06-23T08:28:52Z</time>
      </trkpt>
      <trkpt lat="48.77809" lon="2.09985">
        <ele>126</ele>
        <time>2019-06-23T08:28:58Z</time>
      </trkpt>
      <trkpt lat="48.77811" lon="2.09999">
        <ele>128</ele>
        <time>2019-06-23T08:29:04Z</time>
      </trkpt>
      <trkpt lat="48.77806" lon="2.10014">
        <ele>132</ele>
        <time>2019-06-23T08:29:11Z</time>
      </trkpt>
      <trkpt lat="48.77801" lon="2.10027">
        <ele>132</ele>
        <time>2019-06-23T08:29:17Z</time>
      </trkpt>
      <trkpt lat="48.77793" lon="2.10033">
        <ele>132</ele>
        <time>2019-06-23T08:29:21Z</time>
      </trkpt>
      <trkpt lat="48.77784" lon="2.10037">
        <ele>131</ele>
        <time>2019-06-23T08:29:29Z</time>
      </trkpt>
      <trkpt lat="48.77775" lon="2.10037">
        <ele>131</ele>
        <time>2019-06-23T08:29:35Z</time>
      </trkpt>
      <trkpt lat="48.77764" lon="2.10036">
        <ele>130</ele>
        <time>2019-06-23T08:29:42Z</time>
      </trkpt>
      <trkpt lat="48.77756" lon="2.10031">
        <ele>129</ele>
        <time>2019-06-23T08:29:46Z</time>
      </trkpt>
      <trkpt lat="48.77746" lon="2.10028">
        <ele>124</ele>
        <time>2019-06-23T08:29:55Z</time>
      </trkpt>
      <trkpt lat="48.77736" lon="2.10028">
        <ele>124</ele>
        <time>2019-06-23T08:30:00Z</time>
      </trkpt>
      <trkpt lat="48.77727" lon="2.10029">
        <ele>124</ele>
        <time>2019-06-23T08:30:07Z</time>
      </trkpt>
      <trkpt lat="48.77717" lon="2.10027">
        <ele>124</ele>
        <time>2019-06-23T08:30:15Z</time>
      </trkpt>
      <trkpt lat="48.77707" lon="2.10026">
        <ele>123</ele>
        <time>2019-06-23T08:30:21Z</time>
      </trkpt>
      <trkpt lat="48.77697" lon="2.10026">
        <ele>123</ele>
        <time>2019-06-23T08:30:30Z</time>
      </trkpt>
      <trkpt lat="48.77688" lon="2.10027">
        <ele>123</ele>
        <time>2019-06-23T08:30:36Z</time>
      </trkpt>
      <trkpt lat="48.77677" lon="2.10026">
        <ele>122</ele>
        <time>2019-06-23T08:30:43Z</time>
      </trkpt>
      <trkpt lat="48.77668" lon="2.10028">
        <ele>122</ele>
        <time>2019-06-23T08:30:49Z</time>
      </trkpt>
      <trkpt lat="48.77658" lon="2.10028">
        <ele>119</ele>
        <time>2019-06-23T08:30:56Z</time>
      </trkpt>
      <trkpt lat="48.77649" lon="2.10032">
        <ele>120</ele>
        <time>2019-06-23T08:31:04Z</time>
      </trkpt>
      <trkpt lat="48.77642" lon="2.10042">
        <ele>120</ele>
        <time>2019-06-23T08:31:14Z</time>
      </trkpt>
      <trkpt lat="48.77635" lon="2.10053">
        <ele>120</ele>
        <time>2019-06-23T08:31:21Z</time>
      </trkpt>
      <trkpt lat="48.77625" lon="2.10058">
        <ele>120</ele>
        <time>2019-06-23T08:31:28Z</time>
      </trkpt>
      <trkpt lat="48.77616" lon="2.10056">
        <ele>119</ele>
        <time>2019-06-23T08:31:37Z</time>
      </trkpt>
      <trkpt lat="48.77609" lon="2.10045">
        <ele>119</ele>
        <time>2019-06-23T08:31:47Z</time>
      </trkpt>
      <trkpt lat="48.77599" lon="2.10049">
        <ele>119</ele>
        <time>2019-06-23T08:31:59Z</time>
      </trkpt>
      <trkpt lat="48.7759" lon="2.10049">
        <ele>119</ele>
        <time>2019-06-23T08:32:07Z</time>
      </trkpt>
      <trkpt lat="48.77582" lon="2.10056">
        <ele>119</ele>
        <time>2019-06-23T08:32:14Z</time>
      </trkpt>
      <trkpt lat="48.77578" lon="2.1007">
        <ele>118</ele>
        <time>2019-06-23T08:32:23Z</time>
      </trkpt>
      <trkpt lat="48.77573" lon="2.10082">
        <ele>118</ele>
        <time>2019-06-23T08:32:31Z</time>
      </trkpt>
      <trkpt lat="48.77567" lon="2.10095">
        <ele>118</ele>
        <time>2019-06-23T08:32:58Z</time>
      </trkpt>
      <trkpt lat="48.77567" lon="2.10109">
        <ele>118</ele>
        <time>2019-06-23T08:33:04Z</time>
      </trkpt>
      <trkpt lat="48.77573" lon="2.10121">
        <ele>118</ele>
        <time>2019-06-23T08:33:12Z</time>
      </trkpt>
      <trkpt lat="48.7758" lon="2.10131">
        <ele>118</ele>
        <time>2019-06-23T08:33:21Z</time>
      </trkpt>
      <trkpt lat="48.77579" lon="2.10146">
        <ele>118</ele>
        <time>2019-06-23T08:33:31Z</time>
      </trkpt>
      <trkpt lat="48.77581" lon="2.1016">
        <ele>117</ele>
        <time>2019-06-23T08:33:40Z</time>
      </trkpt>
      <trkpt lat="48.77581" lon="2.10176">
        <ele>117</ele>
        <time>2019-06-23T08:33:49Z</time>
      </trkpt>
      <trkpt lat="48.77576" lon="2.10188">
        <ele>117</ele>
        <time>2019-06-23T08:33:56Z</time>
      </trkpt>
      <trkpt lat="48.77571" lon="2.102">
        <ele>118</ele>
        <time>2019-06-23T08:34:02Z</time>
      </trkpt>
      <trkpt lat="48.77571" lon="2.10215">
        <ele>118</ele>
        <time>2019-06-23T08:34:11Z</time>
      </trkpt>
      <trkpt lat="48.77571" lon="2.1023">
        <ele>117</ele>
        <time>2019-06-23T08:34:18Z</time>
      </trkpt>
      <trkpt lat="48.77573" lon="2.10245">
        <ele>117</ele>
        <time>2019-06-23T08:34:27Z</time>
      </trkpt>
      <trkpt lat="48.77575" lon="2.1026">
        <ele>117</ele>
        <time>2019-06-23T08:34:34Z</time>
      </trkpt>
      <trkpt lat="48.77577" lon="2.10274">
        <ele>117</ele>
        <time>2019-06-23T08:34:44Z</time>
      </trkpt>
      <trkpt lat="48.77576" lon="2.10287">
        <ele>117</ele>
        <time>2019-06-23T08:34:54Z</time>
      </trkpt>
      <trkpt lat="48.77577" lon="2.10302">
        <ele>117</ele>
        <time>2019-06-23T08:35:04Z</time>
      </trkpt>
      <trkpt lat="48.77573" lon="2.10314">
        <ele>116</ele>
        <time>2019-06-23T08:35:17Z</time>
      </trkpt>
      <trkpt lat="48.77571" lon="2.10328">
        <ele>116</ele>
        <time>2019-06-23T08:35:27Z</time>
      </trkpt>
      <trkpt lat="48.77571" lon="2.10343">
        <ele>115</ele>
        <time>2019-06-23T08:35:35Z</time>
      </trkpt>
      <trkpt lat="48.77573" lon="2.10358">
        <ele>116</ele>
        <time>2019-06-23T08:35:41Z</time>
      </trkpt>
      <trkpt lat="48.77575" lon="2.10372">
        <ele>116</ele>
        <time>2019-06-23T08:35:50Z</time>
      </trkpt>
      <trkpt lat="48.77577" lon="2.10387">
        <ele>116</ele>
        <time>2019-06-23T08:36:00Z</time>
      </trkpt>
      <trkpt lat="48.77571" lon="2.10401">
        <ele>116</ele>
        <time>2019-06-23T08:36:06Z</time>
      </trkpt>
      <trkpt lat="48.77572" lon="2.10417">
        <ele>116</ele>
        <time>2019-06-23T08:36:15Z</time>
      </trkpt>
      <trkpt lat="48.77565" lon="2.10427">
        <ele>117</ele>
        <time>2019-06-23T08:36:24Z</time>
      </trkpt>
      <trkpt lat="48.77564" lon="2.10441">
        <ele>117</ele>
        <time>2019-06-23T08:36:34Z</time>
      </trkpt>
      <trkpt lat="48.77564" lon="2.10456">
        <ele>117</ele>
        <time>2019-06-23T08:36:46Z</time>
      </trkpt>
      <trkpt lat="48.7756" lon="2.10469">
        <ele>117</ele>
        <time>2019-06-23T08:36:58Z</time>
      </trkpt>
      <trkpt lat="48.7756" lon="2.10485">
        <ele>118</ele>
        <time>2019-06-23T08:37:15Z</time>
      </trkpt>
      <trkpt lat="48.7756" lon="2.10499">
        <ele>118</ele>
        <time>2019-06-23T08:37:21Z</time>
      </trkpt>
      <trkpt lat="48.77556" lon="2.10511">
        <ele>118</ele>
        <time>2019-06-23T08:37:39Z</time>
      </trkpt>
      <trkpt lat="48.77551" lon="2.10524">
        <ele>118</ele>
        <time>2019-06-23T08:37:55Z</time>
      </trkpt>
      <trkpt lat="48.77546" lon="2.10536">
        <ele>118</ele>
        <time>2019-06-23T08:38:03Z</time>
      </trkpt>
      <trkpt lat="48.7754" lon="2.10548">
        <ele>118</ele>
        <time>2019-06-23T08:38:11Z</time>
      </trkpt>
      <trkpt lat="48.77531" lon="2.10553">
        <ele>117</ele>
        <time>2019-06-23T08:38:19Z</time>
      </trkpt>
      <trkpt lat="48.77524" lon="2.10562">
        <ele>117</ele>
        <time>2019-06-23T08:38:28Z</time>
      </trkpt>
      <trkpt lat="48.77517" lon="2.10572">
        <ele>116</ele>
        <time>2019-06-23T08:38:35Z</time>
      </trkpt>
      <trkpt lat="48.77509" lon="2.10578">
        <ele>115</ele>
        <time>2019-06-23T08:38:42Z</time>
      </trkpt>
      <trkpt lat="48.77501" lon="2.10585">
        <ele>113</ele>
        <time>2019-06-23T08:38:56Z</time>
      </trkpt>
      <trkpt lat="48.77498" lon="2.10598">
        <ele>114</ele>
        <time>2019-06-23T08:39:03Z</time>
      </trkpt>
      <trkpt lat="48.77493" lon="2.1061">
        <ele>115</ele>
        <time>2019-06-23T08:39:13Z</time>
      </trkpt>
      <trkpt lat="48.77488" lon="2.10624">
        <ele>115</ele>
        <time>2019-06-23T08:39:22Z</time>
      </trkpt>
      <trkpt lat="48.77482" lon="2.10635">
        <ele>115</ele>
        <time>2019-06-23T08:39:30Z</time>
      </trkpt>
      <trkpt lat="48.77476" lon="2.10646">
        <ele>115</ele>
        <time>2019-06-23T08:39:37Z</time>
      </trkpt>
      <trkpt lat="48.7747" lon="2.10656">
        <ele>115</ele>
        <time>2019-06-23T08:39:45Z</time>
      </trkpt>
      <trkpt lat="48.77467" lon="2.1067">
        <ele>115</ele>
        <time>2019-06-23T08:39:53Z</time>
      </trkpt>
      <trkpt lat="48.77458" lon="2.10672">
        <ele>115</ele>
        <time>2019-06-23T08:40:05Z</time>
      </trkpt>
      <trkpt lat="48.77449" lon="2.10668">
        <ele>115</ele>
        <time>2019-06-23T08:40:13Z</time>
      </trkpt>
      <trkpt lat="48.77442" lon="2.1066">
        <ele>116</ele>
        <time>2019-06-23T08:40:25Z</time>
      </trkpt>
      <trkpt lat="48.77432" lon="2.10654">
        <ele>116</ele>
        <time>2019-06-23T08:40:32Z</time>
      </trkpt>
      <trkpt lat="48.77425" lon="2.10646">
        <ele>116</ele>
        <time>2019-06-23T08:40:39Z</time>
      </trkpt>
      <trkpt lat="48.77416" lon="2.10637">
        <ele>119</ele>
        <time>2019-06-23T08:40:49Z</time>
      </trkpt>
      <trkpt lat="48.77408" lon="2.10627">
        <ele>119</ele>
        <time>2019-06-23T08:40:57Z</time>
      </trkpt>
      <trkpt lat="48.774" lon="2.10623">
        <ele>120</ele>
        <time>2019-06-23T08:41:06Z</time>
      </trkpt>
      <trkpt lat="48.77396" lon="2.10636">
        <ele>120</ele>
        <time>2019-06-23T08:41:29Z</time>
      </trkpt>
      <trkpt lat="48.77396" lon="2.1065">
        <ele>119</ele>
        <time>2019-06-23T08:41:37Z</time>
      </trkpt>
      <trkpt lat="48.77391" lon="2.10664">
        <ele>119</ele>
        <time>2019-06-23T08:41:45Z</time>
      </trkpt>
      <trkpt lat="48.77387" lon="2.10676">
        <ele>120</ele>
        <time>2019-06-23T08:41:56Z</time>
      </trkpt>
      <trkpt lat="48.7738" lon="2.10686">
        <ele>120</ele>
        <time>2019-06-23T08:42:03Z</time>
      </trkpt>
      <trkpt lat="48.77377" lon="2.10702">
        <ele>120</ele>
        <time>2019-06-23T08:42:07Z</time>
      </trkpt>
      <trkpt lat="48.77374" lon="2.10715">
        <ele>121</ele>
        <time>2019-06-23T08:42:15Z</time>
      </trkpt>
      <trkpt lat="48.7737" lon="2.10729">
        <ele>121</ele>
        <time>2019-06-23T08:42:21Z</time>
      </trkpt>
      <trkpt lat="48.7737" lon="2.10743">
        <ele>121</ele>
        <time>2019-06-23T08:42:26Z</time>
      </trkpt>
      <trkpt lat="48.77369" lon="2.10757">
        <ele>123</ele>
        <time>2019-06-23T08:42:33Z</time>
      </trkpt>
      <trkpt lat="48.77367" lon="2.10771">
        <ele>123</ele>
        <time>2019-06-23T08:42:40Z</time>
      </trkpt>
      <trkpt lat="48.77366" lon="2.10786">
        <ele>123</ele>
        <time>2019-06-23T08:42:45Z</time>
      </trkpt>
      <trkpt lat="48.77369" lon="2.108">
        <ele>123</ele>
        <time>2019-06-23T08:42:55Z</time>
      </trkpt>
      <trkpt lat="48.77373" lon="2.10813">
        <ele>123</ele>
        <time>2019-06-23T08:43:02Z</time>
      </trkpt>
      <trkpt lat="48.7738" lon="2.10823">
        <ele>122</ele>
        <time>2019-06-23T08:43:08Z</time>
      </trkpt>
      <trkpt lat="48.77385" lon="2.10835">
        <ele>123</ele>
        <time>2019-06-23T08:43:14Z</time>
      </trkpt>
      <trkpt lat="48.7739" lon="2.10847">
        <ele>123</ele>
        <time>2019-06-23T08:43:21Z</time>
      </trkpt>
      <trkpt lat="48.77393" lon="2.10862">
        <ele>123</ele>
        <time>2019-06-23T08:43:29Z</time>
      </trkpt>
      <trkpt lat="48.77394" lon="2.10878">
        <ele>123</ele>
        <time>2019-06-23T08:43:37Z</time>
      </trkpt>
      <trkpt lat="48.77394" lon="2.10892">
        <ele>123</ele>
        <time>2019-06-23T08:43:44Z</time>
      </trkpt>
      <trkpt lat="48.77398" lon="2.10906">
        <ele>121</ele>
        <time>2019-06-23T08:43:50Z</time>
      </trkpt>
      <trkpt lat="48.77399" lon="2.10921">
        <ele>123</ele>
        <time>2019-06-23T08:43:58Z</time>
      </trkpt>
      <trkpt lat="48.77402" lon="2.10935">
        <ele>124</ele>
        <time>2019-06-23T08:44:05Z</time>
      </trkpt>
      <trkpt lat="48.77407" lon="2.10949">
        <ele>125</ele>
        <time>2019-06-23T08:44:11Z</time>
      </trkpt>
      <trkpt lat="48.77411" lon="2.10962">
        <ele>126</ele>
        <time>2019-06-23T08:44:19Z</time>
      </trkpt>
      <trkpt lat="48.77417" lon="2.10975">
        <ele>125</ele>
        <time>2019-06-23T08:44:25Z</time>
      </trkpt>
      <trkpt lat="48.77421" lon="2.10987">
        <ele>118</ele>
        <time>2019-06-23T08:44:32Z</time>
      </trkpt>
      <trkpt lat="48.77427" lon="2.10998">
        <ele>118</ele>
        <time>2019-06-23T08:44:40Z</time>
      </trkpt>
      <trkpt lat="48.77429" lon="2.11013">
        <ele>121</ele>
        <time>2019-06-23T08:44:48Z</time>
      </trkpt>
      <trkpt lat="48.77432" lon="2.11026">
        <ele>122</ele>
        <time>2019-06-23T08:44:55Z</time>
      </trkpt>
      <trkpt lat="48.77437" lon="2.11038">
        <ele>123</ele>
        <time>2019-06-23T08:45:01Z</time>
      </trkpt>
      <trkpt lat="48.77444" lon="2.11049">
        <ele>123</ele>
        <time>2019-06-23T08:45:09Z</time>
      </trkpt>
      <trkpt lat="48.77451" lon="2.11058">
        <ele>123</ele>
        <time>2019-06-23T08:45:15Z</time>
      </trkpt>
      <trkpt lat="48.77458" lon="2.11067">
        <ele>123</ele>
        <time>2019-06-23T08:45:22Z</time>
      </trkpt>
      <trkpt lat="48.77467" lon="2.11071">
        <ele>122</ele>
        <time>2019-06-23T08:45:32Z</time>
      </trkpt>
      <trkpt lat="48.77476" lon="2.1107">
        <ele>121</ele>
        <time>2019-06-23T08:45:37Z</time>
      </trkpt>
      <trkpt lat="48.77484" lon="2.11065">
        <ele>121</ele>
        <time>2019-06-23T08:45:45Z</time>
      </trkpt>
      <trkpt lat="48.77494" lon="2.11059">
        <ele>120</ele>
        <time>2019-06-23T08:45:52Z</time>
      </trkpt>
      <trkpt lat="48.77503" lon="2.11063">
        <ele>116</ele>
        <time>2019-06-23T08:45:59Z</time>
      </trkpt>
      <trkpt lat="48.77512" lon="2.11066">
        <ele>116</ele>
        <time>2019-06-23T08:46:05Z</time>
      </trkpt>
      <trkpt lat="48.77521" lon="2.11074">
        <ele>116</ele>
        <time>2019-06-23T08:46:12Z</time>
      </trkpt>
      <trkpt lat="48.7753" lon="2.11078">
        <ele>116</ele>
        <time>2019-06-23T08:46:19Z</time>
      </trkpt>
      <trkpt lat="48.77539" lon="2.11083">
        <ele>115</ele>
        <time>2019-06-23T08:46:26Z</time>
      </trkpt>
      <trkpt lat="48.77547" lon="2.11088">
        <ele>116</ele>
        <time>2019-06-23T08:46:34Z</time>
      </trkpt>
      <trkpt lat="48.77555" lon="2.11095">
        <ele>116</ele>
        <time>2019-06-23T08:46:38Z</time>
      </trkpt>
      <trkpt lat="48.77563" lon="2.11102">
        <ele>115</ele>
        <time>2019-06-23T08:46:44Z</time>
      </trkpt>
      <trkpt lat="48.7757" lon="2.11114">
        <ele>116</ele>
        <time>2019-06-23T08:46:51Z</time>
      </trkpt>
      <trkpt lat="48.77578" lon="2.11124">
        <ele>116</ele>
        <time>2019-06-23T08:46:58Z</time>
      </trkpt>
      <trkpt lat="48.77585" lon="2.11132">
        <ele>113</ele>
        <time>2019-06-23T08:47:03Z</time>
      </trkpt>
      <trkpt lat="48.77587" lon="2.11145">
        <ele>113</ele>
        <time>2019-06-23T08:47:13Z</time>
      </trkpt>
      <trkpt lat="48.77591" lon="2.11159">
        <ele>113</ele>
        <time>2019-06-23T08:47:20Z</time>
      </trkpt>
      <trkpt lat="48.77593" lon="2.11172">
        <ele>113</ele>
        <time>2019-06-23T08:47:26Z</time>
      </trkpt>
      <trkpt lat="48.77596" lon="2.11186">
        <ele>112</ele>
        <time>2019-06-23T08:47:35Z</time>
      </trkpt>
      <trkpt lat="48.77595" lon="2.11202">
        <ele>112</ele>
        <time>2019-06-23T08:47:40Z</time>
      </trkpt>
      <trkpt lat="48.77598" lon="2.11216">
        <ele>112</ele>
        <time>2019-06-23T08:47:46Z</time>
      </trkpt>
      <trkpt lat="48.77599" lon="2.11233">
        <ele>112</ele>
        <time>2019-06-23T08:47:55Z</time>
      </trkpt>
      <trkpt lat="48.77599" lon="2.11249">
        <ele>112</ele>
        <time>2019-06-23T08:48:03Z</time>
      </trkpt>
      <trkpt lat="48.77598" lon="2.11265">
        <ele>113</ele>
        <time>2019-06-23T08:48:09Z</time>
      </trkpt>
      <trkpt lat="48.77593" lon="2.11276">
        <ele>113</ele>
        <time>2019-06-23T08:48:15Z</time>
      </trkpt>
      <trkpt lat="48.77592" lon="2.11291">
        <ele>113</ele>
        <time>2019-06-23T08:48:22Z</time>
      </trkpt>
      <trkpt lat="48.77593" lon="2.11306">
        <ele>113</ele>
        <time>2019-06-23T08:48:28Z</time>
      </trkpt>
      <trkpt lat="48.77593" lon="2.11321">
        <ele>113</ele>
        <time>2019-06-23T08:48:34Z</time>
      </trkpt>
      <trkpt lat="48.77591" lon="2.11335">
        <ele>114</ele>
        <time>2019-06-23T08:48:39Z</time>
      </trkpt>
      <trkpt lat="48.77591" lon="2.1135">
        <ele>114</ele>
        <time>2019-06-23T08:48:45Z</time>
      </trkpt>
      <trkpt lat="48.77592" lon="2.11364">
        <ele>114</ele>
        <time>2019-06-23T08:48:58Z</time>
      </trkpt>
      <trkpt lat="48.77592" lon="2.11379">
        <ele>115</ele>
        <time>2019-06-23T08:49:04Z</time>
      </trkpt>
      <trkpt lat="48.77592" lon="2.11393">
        <ele>115</ele>
        <time>2019-06-23T08:49:10Z</time>
      </trkpt>
      <trkpt lat="48.7759" lon="2.1141">
        <ele>116</ele>
        <time>2019-06-23T08:49:18Z</time>
      </trkpt>
      <trkpt lat="48.77596" lon="2.1142">
        <ele>116</ele>
        <time>2019-06-23T08:49:24Z</time>
      </trkpt>
      <trkpt lat="48.77598" lon="2.11433">
        <ele>116</ele>
        <time>2019-06-23T08:49:32Z</time>
      </trkpt>
      <trkpt lat="48.776" lon="2.11447">
        <ele>116</ele>
        <time>2019-06-23T08:49:39Z</time>
      </trkpt>
      <trkpt lat="48.77605" lon="2.1146">
        <ele>116</ele>
        <time>2019-06-23T08:49:46Z</time>
      </trkpt>
      <trkpt lat="48.77605" lon="2.11475">
        <ele>116</ele>
        <time>2019-06-23T08:49:52Z</time>
      </trkpt>
      <trkpt lat="48.77608" lon="2.1149">
        <ele>116</ele>
        <time>2019-06-23T08:49:59Z</time>
      </trkpt>
      <trkpt lat="48.77607" lon="2.11504">
        <ele>116</ele>
        <time>2019-06-23T08:50:06Z</time>
      </trkpt>
      <trkpt lat="48.77608" lon="2.11519">
        <ele>116</ele>
        <time>2019-06-23T08:50:14Z</time>
      </trkpt>
      <trkpt lat="48.77605" lon="2.11533">
        <ele>116</ele>
        <time>2019-06-23T08:50:19Z</time>
      </trkpt>
      <trkpt lat="48.77598" lon="2.11542">
        <ele>116</ele>
        <time>2019-06-23T08:50:23Z</time>
      </trkpt>
      <trkpt lat="48.77594" lon="2.11555">
        <ele>116</ele>
        <time>2019-06-23T08:50:31Z</time>
      </trkpt>
      <trkpt lat="48.77595" lon="2.11571">
        <ele>115</ele>
        <time>2019-06-23T08:50:36Z</time>
      </trkpt>
      <trkpt lat="48.77599" lon="2.11584">
        <ele>115</ele>
        <time>2019-06-23T08:50:43Z</time>
      </trkpt>
      <trkpt lat="48.77598" lon="2.11598">
        <ele>114</ele>
        <time>2019-06-23T08:50:50Z</time>
      </trkpt>
      <trkpt lat="48.77603" lon="2.11613">
        <ele>114</ele>
        <time>2019-06-23T08:50:57Z</time>
      </trkpt>
      <trkpt lat="48.77603" lon="2.11628">
        <ele>114</ele>
        <time>2019-06-23T08:51:07Z</time>
      </trkpt>
      <trkpt lat="48.7761" lon="2.11641">
        <ele>114</ele>
        <time>2019-06-23T08:51:13Z</time>
      </trkpt>
      <trkpt lat="48.77617" lon="2.11652">
        <ele>114</ele>
        <time>2019-06-23T08:51:20Z</time>
      </trkpt>
      <trkpt lat="48.77622" lon="2.11664">
        <ele>113</ele>
        <time>2019-06-23T08:51:27Z</time>
      </trkpt>
      <trkpt lat="48.77623" lon="2.1168">
        <ele>113</ele>
        <time>2019-06-23T08:51:34Z</time>
      </trkpt>
      <trkpt lat="48.77625" lon="2.11694">
        <ele>113</ele>
        <time>2019-06-23T08:51:39Z</time>
      </trkpt>
      <trkpt lat="48.77625" lon="2.11709">
        <ele>114</ele>
        <time>2019-06-23T08:51:47Z</time>
      </trkpt>
      <trkpt lat="48.7762" lon="2.11725">
        <ele>114</ele>
        <time>2019-06-23T08:51:53Z</time>
      </trkpt>
      <trkpt lat="48.77615" lon="2.11737">
        <ele>115</ele>
        <time>2019-06-23T08:51:57Z</time>
      </trkpt>
      <trkpt lat="48.77616" lon="2.11753">
        <ele>116</ele>
        <time>2019-06-23T08:52:05Z</time>
      </trkpt>
      <trkpt lat="48.77618" lon="2.11768">
        <ele>116</ele>
        <time>2019-06-23T08:52:11Z</time>
      </trkpt>
      <trkpt lat="48.77626" lon="2.11774">
        <ele>115</ele>
        <time>2019-06-23T08:52:43Z</time>
      </trkpt>
      <trkpt lat="48.77635" lon="2.11776">
        <ele>114</ele>
        <time>2019-06-23T08:52:47Z</time>
      </trkpt>
      <trkpt lat="48.77645" lon="2.11778">
        <ele>114</ele>
        <time>2019-06-23T08:52:55Z</time>
      </trkpt>
      <trkpt lat="48.77655" lon="2.1178">
        <ele>113</ele>
        <time>2019-06-23T08:53:01Z</time>
      </trkpt>
      <trkpt lat="48.77664" lon="2.11783">
        <ele>113</ele>
        <time>2019-06-23T08:53:07Z</time>
      </trkpt>
      <trkpt lat="48.77674" lon="2.11786">
        <ele>112</ele>
        <time>2019-06-23T08:53:17Z</time>
      </trkpt>
      <trkpt lat="48.77677" lon="2.118">
        <ele>112</ele>
        <time>2019-06-23T08:53:39Z</time>
      </trkpt>
      <trkpt lat="48.77681" lon="2.11813">
        <ele>112</ele>
        <time>2019-06-23T08:53:44Z</time>
      </trkpt>
      <trkpt lat="48.77684" lon="2.11827">
        <ele>112</ele>
        <time>2019-06-23T08:53:54Z</time>
      </trkpt>
      <trkpt lat="48.77687" lon="2.11842">
        <ele>111</ele>
        <time>2019-06-23T08:54:01Z</time>
      </trkpt>
      <trkpt lat="48.7769" lon="2.11855">
        <ele>112</ele>
        <time>2019-06-23T08:54:06Z</time>
      </trkpt>
      <trkpt lat="48.77687" lon="2.1187">
        <ele>112</ele>
        <time>2019-06-23T08:54:12Z</time>
      </trkpt>
      <trkpt lat="48.77682" lon="2.11883">
        <ele>111</ele>
        <time>2019-06-23T08:54:19Z</time>
      </trkpt>
      <trkpt lat="48.77684" lon="2.11896">
        <ele>111</ele>
        <time>2019-06-23T08:54:27Z</time>
      </trkpt>
      <trkpt lat="48.77684" lon="2.11913">
        <ele>110</ele>
        <time>2019-06-23T08:54:33Z</time>
      </trkpt>
      <trkpt lat="48.77682" lon="2.11926">
        <ele>110</ele>
        <time>2019-06-23T08:54:39Z</time>
      </trkpt>
      <trkpt lat="48.7768" lon="2.11942">
        <ele>110</ele>
        <time>2019-06-23T08:54:46Z</time>
      </trkpt>
      <trkpt lat="48.77679" lon="2.11956">
        <ele>111</ele>
        <time>2019-06-23T08:54:50Z</time>
      </trkpt>
      <trkpt lat="48.77676" lon="2.11969">
        <ele>110</ele>
        <time>2019-06-23T08:55:01Z</time>
      </trkpt>
      <trkpt lat="48.77672" lon="2.11983">
        <ele>110</ele>
        <time>2019-06-23T08:55:09Z</time>
      </trkpt>
      <trkpt lat="48.77672" lon="2.11998">
        <ele>109</ele>
        <time>2019-06-23T08:55:14Z</time>
      </trkpt>
      <trkpt lat="48.77671" lon="2.12012">
        <ele>109</ele>
        <time>2019-06-23T08:55:23Z</time>
      </trkpt>
      <trkpt lat="48.77667" lon="2.12026">
        <ele>108</ele>
        <time>2019-06-23T08:55:32Z</time>
      </trkpt>
      <trkpt lat="48.77662" lon="2.12041">
        <ele>108</ele>
        <time>2019-06-23T08:55:38Z</time>
      </trkpt>
      <trkpt lat="48.77661" lon="2.12055">
        <ele>107</ele>
        <time>2019-06-23T08:55:43Z</time>
      </trkpt>
      <trkpt lat="48.77659" lon="2.1207">
        <ele>107</ele>
        <time>2019-06-23T08:55:52Z</time>
      </trkpt>
      <trkpt lat="48.77653" lon="2.12083">
        <ele>107</ele>
        <time>2019-06-23T08:55:59Z</time>
      </trkpt>
      <trkpt lat="48.77647" lon="2.12095">
        <ele>106</ele>
        <time>2019-06-23T08:56:05Z</time>
      </trkpt>
      <trkpt lat="48.77643" lon="2.12108">
        <ele>106</ele>
        <time>2019-06-23T08:56:11Z</time>
      </trkpt>
      <trkpt lat="48.77638" lon="2.1212">
        <ele>106</ele>
        <time>2019-06-23T08:56:18Z</time>
      </trkpt>
      <trkpt lat="48.77635" lon="2.12134">
        <ele>106</ele>
        <time>2019-06-23T08:56:27Z</time>
      </trkpt>
      <trkpt lat="48.77631" lon="2.12146">
        <ele>106</ele>
        <time>2019-06-23T08:56:34Z</time>
      </trkpt>
      <trkpt lat="48.77627" lon="2.12161">
        <ele>106</ele>
        <time>2019-06-23T08:56:41Z</time>
      </trkpt>
      <trkpt lat="48.77625" lon="2.12175">
        <ele>106</ele>
        <time>2019-06-23T08:56:46Z</time>
      </trkpt>
      <trkpt lat="48.77622" lon="2.1219">
        <ele>106</ele>
        <time>2019-06-23T08:56:53Z</time>
      </trkpt>
      <trkpt lat="48.77618" lon="2.12202">
        <ele>106</ele>
        <time>2019-06-23T08:57:00Z</time>
      </trkpt>
      <trkpt lat="48.77612" lon="2.12214">
        <ele>106</ele>
        <time>2019-06-23T08:57:08Z</time>
      </trkpt>
      <trkpt lat="48.77608" lon="2.12227">
        <ele>107</ele>
        <time>2019-06-23T08:57:14Z</time>
      </trkpt>
      <trkpt lat="48.77605" lon="2.12242">
        <ele>107</ele>
        <time>2019-06-23T08:57:22Z</time>
      </trkpt>
      <trkpt lat="48.77603" lon="2.12256">
        <ele>107</ele>
        <time>2019-06-23T08:57:31Z</time>
      </trkpt>
      <trkpt lat="48.77599" lon="2.12271">
        <ele>107</ele>
        <time>2019-06-23T08:57:37Z</time>
      </trkpt>
      <trkpt lat="48.77594" lon="2.12285">
        <ele>107</ele>
        <time>2019-06-23T08:57:43Z</time>
      </trkpt>
      <trkpt lat="48.77586" lon="2.12289">
        <ele>107</ele>
        <time>2019-06-23T08:57:50Z</time>
      </trkpt>
      <trkpt lat="48.77578" lon="2.12299">
        <ele>107</ele>
        <time>2019-06-23T08:58:07Z</time>
      </trkpt>
      <trkpt lat="48.77568" lon="2.123">
        <ele>107</ele>
        <time>2019-06-23T08:58:20Z</time>
      </trkpt>
      <trkpt lat="48.7756" lon="2.12303">
        <ele>107</ele>
        <time>2019-06-23T08:58:27Z</time>
      </trkpt>
      <trkpt lat="48.77552" lon="2.12312">
        <ele>107</ele>
        <time>2019-06-23T08:58:33Z</time>
      </trkpt>
      <trkpt lat="48.77545" lon="2.12322">
        <ele>107</ele>
        <time>2019-06-23T08:58:41Z</time>
      </trkpt>
      <trkpt lat="48.77542" lon="2.12337">
        <ele>106</ele>
        <time>2019-06-23T08:58:49Z</time>
      </trkpt>
      <trkpt lat="48.77541" lon="2.12351">
        <ele>106</ele>
        <time>2019-06-23T08:58:54Z</time>
      </trkpt>
      <trkpt lat="48.7754" lon="2.12365">
        <ele>106</ele>
        <time>2019-06-23T08:59:05Z</time>
      </trkpt>
      <trkpt lat="48.77539" lon="2.1238">
        <ele>106</ele>
        <time>2019-06-23T08:59:18Z</time>
      </trkpt>
      <trkpt lat="48.77532" lon="2.12391">
        <ele>106</ele>
        <time>2019-06-23T08:59:28Z</time>
      </trkpt>
      <trkpt lat="48.77528" lon="2.12404">
        <ele>106</ele>
        <time>2019-06-23T08:59:34Z</time>
      </trkpt>
      <trkpt lat="48.77524" lon="2.1242">
        <ele>106</ele>
        <time>2019-06-23T08:59:41Z</time>
      </trkpt>
      <trkpt lat="48.77528" lon="2.12432">
        <ele>106</ele>
        <time>2019-06-23T09:00:20Z</time>
      </trkpt>
      <trkpt lat="48.77529" lon="2.12447">
        <ele>106</ele>
        <time>2019-06-23T09:00:26Z</time>
      </trkpt>
      <trkpt lat="48.77526" lon="2.12461">
        <ele>106</ele>
        <time>2019-06-23T09:00:32Z</time>
      </trkpt>
      <trkpt lat="48.77519" lon="2.1247">
        <ele>106</ele>
        <time>2019-06-23T09:00:38Z</time>
      </trkpt>
      <trkpt lat="48.77512" lon="2.1248">
        <ele>105</ele>
        <time>2019-06-23T09:00:46Z</time>
      </trkpt>
      <trkpt lat="48.77505" lon="2.12494">
        <ele>105</ele>
        <time>2019-06-23T09:00:51Z</time>
      </trkpt>
      <trkpt lat="48.77499" lon="2.12507">
        <ele>106</ele>
        <time>2019-06-23T09:00:56Z</time>
      </trkpt>
      <trkpt lat="48.77492" lon="2.12519">
        <ele>108</ele>
        <time>2019-06-23T09:01:04Z</time>
      </trkpt>
      <trkpt lat="48.77488" lon="2.12533">
        <ele>109</ele>
        <time>2019-06-23T09:01:10Z</time>
      </trkpt>
      <trkpt lat="48.7749" lon="2.12546">
        <ele>109</ele>
        <time>2019-06-23T09:01:18Z</time>
      </trkpt>
      <trkpt lat="48.77493" lon="2.1256">
        <ele>108</ele>
        <time>2019-06-23T09:01:23Z</time>
      </trkpt>
      <trkpt lat="48.77493" lon="2.12575">
        <ele>107</ele>
        <time>2019-06-23T09:01:31Z</time>
      </trkpt>
      <trkpt lat="48.77492" lon="2.1259">
        <ele>107</ele>
        <time>2019-06-23T09:01:40Z</time>
      </trkpt>
      <trkpt lat="48.7749" lon="2.12606">
        <ele>108</ele>
        <time>2019-06-23T09:01:48Z</time>
      </trkpt>
      <trkpt lat="48.7749" lon="2.1262">
        <ele>109</ele>
        <time>2019-06-23T09:01:55Z</time>
      </trkpt>
      <trkpt lat="48.77488" lon="2.12636">
        <ele>109</ele>
        <time>2019-06-23T09:01:59Z</time>
      </trkpt>
      <trkpt lat="48.77484" lon="2.1265">
        <ele>109</ele>
        <time>2019-06-23T09:02:09Z</time>
      </trkpt>
      <trkpt lat="48.77479" lon="2.12663">
        <ele>109</ele>
        <time>2019-06-23T09:02:15Z</time>
      </trkpt>
      <trkpt lat="48.77487" lon="2.12671">
        <ele>108</ele>
        <time>2019-06-23T09:02:21Z</time>
      </trkpt>
      <trkpt lat="48.77494" lon="2.12682">
        <ele>108</ele>
        <time>2019-06-23T09:02:32Z</time>
      </trkpt>
      <trkpt lat="48.77492" lon="2.12696">
        <ele>109</ele>
        <time>2019-06-23T09:02:42Z</time>
      </trkpt>
      <trkpt lat="48.77488" lon="2.1271">
        <ele>109</ele>
        <time>2019-06-23T09:02:52Z</time>
      </trkpt>
      <trkpt lat="48.77482" lon="2.12722">
        <ele>110</ele>
        <time>2019-06-23T09:02:57Z</time>
      </trkpt>
      <trkpt lat="48.77479" lon="2.12736">
        <ele>109</ele>
        <time>2019-06-23T09:03:05Z</time>
      </trkpt>
      <trkpt lat="48.77478" lon="2.1275">
        <ele>109</ele>
        <time>2019-06-23T09:03:14Z</time>
      </trkpt>
      <trkpt lat="48.77475" lon="2.12766">
        <ele>110</ele>
        <time>2019-06-23T09:03:22Z</time>
      </trkpt>
      <trkpt lat="48.77475" lon="2.1278">
        <ele>110</ele>
        <time>2019-06-23T09:03:29Z</time>
      </trkpt>
      <trkpt lat="48.77476" lon="2.12796">
        <ele>110</ele>
        <time>2019-06-23T09:03:35Z</time>
      </trkpt>
      <trkpt lat="48.77475" lon="2.1281">
        <ele>110</ele>
        <time>2019-06-23T09:03:43Z</time>
      </trkpt>
      <trkpt lat="48.77473" lon="2.12826">
        <ele>110</ele>
        <time>2019-06-23T09:03:51Z</time>
      </trkpt>
      <trkpt lat="48.7747" lon="2.1284">
        <ele>109</ele>
        <time>2019-06-23T09:03:57Z</time>
      </trkpt>
      <trkpt lat="48.7747" lon="2.12854">
        <ele>109</ele>
        <time>2019-06-23T09:04:07Z</time>
      </trkpt>
      <trkpt lat="48.77479" lon="2.12857">
        <ele>109</ele>
        <time>2019-06-23T09:04:16Z</time>
      </trkpt>
      <trkpt lat="48.7749" lon="2.12862">
        <ele>109</ele>
        <time>2019-06-23T09:04:25Z</time>
      </trkpt>
      <trkpt lat="48.77498" lon="2.12872">
        <ele>109</ele>
        <time>2019-06-23T09:04:30Z</time>
      </trkpt>
      <trkpt lat="48.77504" lon="2.12885">
        <ele>107</ele>
        <time>2019-06-23T09:04:35Z</time>
      </trkpt>
      <trkpt lat="48.77511" lon="2.12895">
        <ele>107</ele>
        <time>2019-06-23T09:04:40Z</time>
      </trkpt>
      <trkpt lat="48.7752" lon="2.12904">
        <ele>107</ele>
        <time>2019-06-23T09:04:45Z</time>
      </trkpt>
      <trkpt lat="48.77517" lon="2.12918">
        <ele>107</ele>
        <time>2019-06-23T09:04:52Z</time>
      </trkpt>
      <trkpt lat="48.77512" lon="2.12929">
        <ele>107</ele>
        <time>2019-06-23T09:04:57Z</time>
      </trkpt>
      <trkpt lat="48.77503" lon="2.12935">
        <ele>107</ele>
        <time>2019-06-23T09:05:04Z</time>
      </trkpt>
      <trkpt lat="48.77497" lon="2.12946">
        <ele>108</ele>
        <time>2019-06-23T09:05:10Z</time>
      </trkpt>
      <trkpt lat="48.77495" lon="2.12959">
        <ele>108</ele>
        <time>2019-06-23T09:05:16Z</time>
      </trkpt>
      <trkpt lat="48.77494" lon="2.12975">
        <ele>108</ele>
        <time>2019-06-23T09:05:23Z</time>
      </trkpt>
      <trkpt lat="48.77494" lon="2.12988">
        <ele>107</ele>
        <time>2019-06-23T09:05:29Z</time>
      </trkpt>
      <trkpt lat="48.77484" lon="2.12997">
        <ele>107</ele>
        <time>2019-06-23T09:05:34Z</time>
      </trkpt>
      <trkpt lat="48.77483" lon="2.13012">
        <ele>107</ele>
        <time>2019-06-23T09:05:41Z</time>
      </trkpt>
      <trkpt lat="48.7748" lon="2.13026">
        <ele>107</ele>
        <time>2019-06-23T09:05:46Z</time>
      </trkpt>
      <trkpt lat="48.77479" lon="2.1304">
        <ele>106</ele>
        <time>2019-06-23T09:05:52Z</time>
      </trkpt>
      <trkpt lat="48.77476" lon="2.13053">
        <ele>106</ele>
        <time>2019-06-23T09:05:58Z</time>
      </trkpt>
      <trkpt lat="48.77474" lon="2.13067">
        <ele>106</ele>
        <time>2019-06-23T09:06:07Z</time>
      </trkpt>
      <trkpt lat="48.77471" lon="2.13081">
        <ele>106</ele>
        <time>2019-06-23T09:06:15Z</time>
      </trkpt>
      <trkpt lat="48.77469" lon="2.13094">
        <ele>106</ele>
        <time>2019-06-23T09:06:21Z</time>
      </trkpt>
      <trkpt lat="48.77463" lon="2.13107">
        <ele>106</ele>
        <time>2019-06-23T09:06:30Z</time>
      </trkpt>
      <trkpt lat="48.77454" lon="2.1311">
        <ele>107</ele>
        <time>2019-06-23T09:06:35Z</time>
      </trkpt>
      <trkpt lat="48.77443" lon="2.13105">
        <ele>107</ele>
        <time>2019-06-23T09:06:40Z</time>
      </trkpt>
      <trkpt lat="48.77434" lon="2.13101">
        <ele>106</ele>
        <time>2019-06-23T09:06:47Z</time>
      </trkpt>
      <trkpt lat="48.77425" lon="2.13101">
        <ele>106</ele>
        <time>2019-06-23T09:06:55Z</time>
      </trkpt>
      <trkpt lat="48.77415" lon="2.13104">
        <ele>108</ele>
        <time>2019-06-23T09:07:01Z</time>
      </trkpt>
      <trkpt lat="48.77406" lon="2.13109">
        <ele>109</ele>
        <time>2019-06-23T09:07:09Z</time>
      </trkpt>
      <trkpt lat="48.77397" lon="2.13105">
        <ele>109</ele>
        <time>2019-06-23T09:07:17Z</time>
      </trkpt>
      <trkpt lat="48.77387" lon="2.1311">
        <ele>109</ele>
        <time>2019-06-23T09:07:23Z</time>
      </trkpt>
      <trkpt lat="48.7738" lon="2.1312">
        <ele>110</ele>
        <time>2019-06-23T09:08:13Z</time>
      </trkpt>
      <trkpt lat="48.77371" lon="2.13125">
        <ele>110</ele>
        <time>2019-06-23T09:08:23Z</time>
      </trkpt>
      <trkpt lat="48.77362" lon="2.13134">
        <ele>110</ele>
        <time>2019-06-23T09:08:29Z</time>
      </trkpt>
      <trkpt lat="48.77353" lon="2.13139">
        <ele>110</ele>
        <time>2019-06-23T09:08:38Z</time>
      </trkpt>
      <trkpt lat="48.77346" lon="2.13148">
        <ele>111</ele>
        <time>2019-06-23T09:08:46Z</time>
      </trkpt>
      <trkpt lat="48.7734" lon="2.1316">
        <ele>111</ele>
        <time>2019-06-23T09:08:52Z</time>
      </trkpt>
      <trkpt lat="48.77335" lon="2.13174">
        <ele>112</ele>
        <time>2019-06-23T09:08:59Z</time>
      </trkpt>
      <trkpt lat="48.7733" lon="2.13185">
        <ele>115</ele>
        <time>2019-06-23T09:09:12Z</time>
      </trkpt>
      <trkpt lat="48.77324" lon="2.13197">
        <ele>116</ele>
        <time>2019-06-23T09:09:21Z</time>
      </trkpt>
      <trkpt lat="48.77316" lon="2.13206">
        <ele>117</ele>
        <time>2019-06-23T09:09:27Z</time>
      </trkpt>
      <trkpt lat="48.77311" lon="2.13218">
        <ele>117</ele>
        <time>2019-06-23T09:09:34Z</time>
      </trkpt>
      <trkpt lat="48.77303" lon="2.13226">
        <ele>117</ele>
        <time>2019-06-23T09:09:43Z</time>
      </trkpt>
      <trkpt lat="48.77295" lon="2.13231">
        <ele>118</ele>
        <time>2019-06-23T09:09:52Z</time>
      </trkpt>
      <trkpt lat="48.77285" lon="2.13233">
        <ele>118</ele>
        <time>2019-06-23T09:10:00Z</time>
      </trkpt>
      <trkpt lat="48.77276" lon="2.13235">
        <ele>119</ele>
        <time>2019-06-23T09:10:03Z</time>
      </trkpt>
      <trkpt lat="48.77264" lon="2.13236">
        <ele>119</ele>
        <time>2019-06-23T09:10:10Z</time>
      </trkpt>
      <trkpt lat="48.77257" lon="2.13229">
        <ele>119</ele>
        <time>2019-06-23T09:10:14Z</time>
      </trkpt>
      <trkpt lat="48.77249" lon="2.13221">
        <ele>122</ele>
        <time>2019-06-23T09:10:21Z</time>
      </trkpt>
      <trkpt lat="48.77244" lon="2.13209">
        <ele>122</ele>
        <time>2019-06-23T09:10:32Z</time>
      </trkpt>
      <trkpt lat="48.7724" lon="2.13194">
        <ele>122</ele>
        <time>2019-06-23T09:10:37Z</time>
      </trkpt>
      <trkpt lat="48.77242" lon="2.13179">
        <ele>121</ele>
        <time>2019-06-23T09:10:43Z</time>
      </trkpt>
      <trkpt lat="48.77243" lon="2.13163">
        <ele>121</ele>
        <time>2019-06-23T09:10:50Z</time>
      </trkpt>
      <trkpt lat="48.77238" lon="2.13149">
        <ele>122</ele>
        <time>2019-06-23T09:10:57Z</time>
      </trkpt>
      <trkpt lat="48.77228" lon="2.13146">
        <ele>122</ele>
        <time>2019-06-23T09:11:04Z</time>
      </trkpt>
      <trkpt lat="48.77219" lon="2.13147">
        <ele>122</ele>
        <time>2019-06-23T09:11:25Z</time>
      </trkpt>
      <trkpt lat="48.77214" lon="2.13135">
        <ele>123</ele>
        <time>2019-06-23T09:11:40Z</time>
      </trkpt>
      <trkpt lat="48.77204" lon="2.13129">
        <ele>123</ele>
        <time>2019-06-23T09:11:57Z</time>
      </trkpt>
      <trkpt lat="48.77197" lon="2.13139">
        <ele>123</ele>
        <time>2019-06-23T09:12:23Z</time>
      </trkpt>
      <trkpt lat="48.7719" lon="2.13131">
        <ele>123</ele>
        <time>2019-06-23T09:12:36Z</time>
      </trkpt>
      <trkpt lat="48.77186" lon="2.13116">
        <ele>123</ele>
        <time>2019-06-23T09:12:45Z</time>
      </trkpt>
      <trkpt lat="48.77178" lon="2.13109">
        <ele>124</ele>
        <time>2019-06-23T09:13:04Z</time>
      </trkpt>
      <trkpt lat="48.7717" lon="2.13098">
        <ele>124</ele>
        <time>2019-06-23T09:13:17Z</time>
      </trkpt>
      <trkpt lat="48.77161" lon="2.13099">
        <ele>129</ele>
        <time>2019-06-23T09:14:17Z</time>
      </trkpt>
      <trkpt lat="48.77154" lon="2.1309">
        <ele>129</ele>
        <time>2019-06-23T09:14:24Z</time>
      </trkpt>
      <trkpt lat="48.77152" lon="2.13076">
        <ele>128</ele>
        <time>2019-06-23T09:14:32Z</time>
      </trkpt>
      <trkpt lat="48.77146" lon="2.13064">
        <ele>129</ele>
        <time>2019-06-23T09:14:40Z</time>
      </trkpt>
      <trkpt lat="48.77138" lon="2.13061">
        <ele>130</ele>
        <time>2019-06-23T09:14:53Z</time>
      </trkpt>
      <trkpt lat="48.77133" lon="2.13073">
        <ele>130</ele>
        <time>2019-06-23T09:15:11Z</time>
      </trkpt>
      <trkpt lat="48.77137" lon="2.13086">
        <ele>131</ele>
        <time>2019-06-23T09:15:36Z</time>
      </trkpt>
      <trkpt lat="48.77138" lon="2.13101">
        <ele>131</ele>
        <time>2019-06-23T09:15:50Z</time>
      </trkpt>
      <trkpt lat="48.77139" lon="2.13115">
        <ele>132</ele>
        <time>2019-06-23T09:15:57Z</time>
      </trkpt>
      <trkpt lat="48.77141" lon="2.13129">
        <ele>132</ele>
        <time>2019-06-23T09:16:06Z</time>
      </trkpt>
      <trkpt lat="48.77142" lon="2.13143">
        <ele>131</ele>
        <time>2019-06-23T09:16:14Z</time>
      </trkpt>
      <trkpt lat="48.77143" lon="2.13159">
        <ele>131</ele>
        <time>2019-06-23T09:16:24Z</time>
      </trkpt>
      <trkpt lat="48.77149" lon="2.13171">
        <ele>129</ele>
        <time>2019-06-23T09:16:29Z</time>
      </trkpt>
      <trkpt lat="48.77153" lon="2.13185">
        <ele>130</ele>
        <time>2019-06-23T09:16:35Z</time>
      </trkpt>
      <trkpt lat="48.77157" lon="2.13199">
        <ele>130</ele>
        <time>2019-06-23T09:16:47Z</time>
      </trkpt>
      <trkpt lat="48.7716" lon="2.13214">
        <ele>129</ele>
        <time>2019-06-23T09:16:55Z</time>
      </trkpt>
      <trkpt lat="48.77168" lon="2.13222">
        <ele>123</ele>
        <time>2019-06-23T09:16:59Z</time>
      </trkpt>
      <trkpt lat="48.7716" lon="2.13231">
        <ele>128</ele>
        <time>2019-06-23T09:17:26Z</time>
      </trkpt>
      <trkpt lat="48.7715" lon="2.13225">
        <ele>129</ele>
        <time>2019-06-23T09:17:34Z</time>
      </trkpt>
      <trkpt lat="48.77141" lon="2.13223">
        <ele>130</ele>
        <time>2019-06-23T09:17:45Z</time>
      </trkpt>
      <trkpt lat="48.77133" lon="2.13229">
        <ele>131</ele>
        <time>2019-06-23T09:17:52Z</time>
      </trkpt>
      <trkpt lat="48.77136" lon="2.13242">
        <ele>130</ele>
        <time>2019-06-23T09:18:08Z</time>
      </trkpt>
      <trkpt lat="48.77145" lon="2.13245">
        <ele>128</ele>
        <time>2019-06-23T09:18:18Z</time>
      </trkpt>
      <trkpt lat="48.77155" lon="2.13249">
        <ele>126</ele>
        <time>2019-06-23T09:18:25Z</time>
      </trkpt>
      <trkpt lat="48.77163" lon="2.13255">
        <ele>124</ele>
        <time>2019-06-23T09:18:39Z</time>
      </trkpt>
      <trkpt lat="48.77173" lon="2.13257">
        <ele>122</ele>
        <time>2019-06-23T09:18:46Z</time>
      </trkpt>
      <trkpt lat="48.77183" lon="2.1326">
        <ele>121</ele>
        <time>2019-06-23T09:18:55Z</time>
      </trkpt>
      <trkpt lat="48.77192" lon="2.13262">
        <ele>120</ele>
        <time>2019-06-23T09:19:01Z</time>
      </trkpt>
      <trkpt lat="48.77202" lon="2.13264">
        <ele>120</ele>
        <time>2019-06-23T09:19:07Z</time>
      </trkpt>
      <trkpt lat="48.77209" lon="2.13274">
        <ele>119</ele>
        <time>2019-06-23T09:19:17Z</time>
      </trkpt>
      <trkpt lat="48.77219" lon="2.13278">
        <ele>119</ele>
        <time>2019-06-23T09:19:23Z</time>
      </trkpt>
      <trkpt lat="48.77228" lon="2.13284">
        <ele>118</ele>
        <time>2019-06-23T09:19:30Z</time>
      </trkpt>
      <trkpt lat="48.77236" lon="2.1329">
        <ele>118</ele>
        <time>2019-06-23T09:19:39Z</time>
      </trkpt>
      <trkpt lat="48.77246" lon="2.13291">
        <ele>118</ele>
        <time>2019-06-23T09:19:46Z</time>
      </trkpt>
      <trkpt lat="48.77255" lon="2.13292">
        <ele>117</ele>
        <time>2019-06-23T09:19:51Z</time>
      </trkpt>
      <trkpt lat="48.77265" lon="2.13295">
        <ele>116</ele>
        <time>2019-06-23T09:19:59Z</time>
      </trkpt>
      <trkpt lat="48.77274" lon="2.13299">
        <ele>116</ele>
        <time>2019-06-23T09:20:07Z</time>
      </trkpt>
      <trkpt lat="48.77282" lon="2.13308">
        <ele>116</ele>
        <time>2019-06-23T09:20:16Z</time>
      </trkpt>
      <trkpt lat="48.77289" lon="2.13318">
        <ele>116</ele>
        <time>2019-06-23T09:20:27Z</time>
      </trkpt>
      <trkpt lat="48.77296" lon="2.13328">
        <ele>116</ele>
        <time>2019-06-23T09:20:32Z</time>
      </trkpt>
      <trkpt lat="48.77306" lon="2.13331">
        <ele>116</ele>
        <time>2019-06-23T09:20:40Z</time>
      </trkpt>
      <trkpt lat="48.77316" lon="2.13331">
        <ele>117</ele>
        <time>2019-06-23T09:20:51Z</time>
      </trkpt>
      <trkpt lat="48.77326" lon="2.13335">
        <ele>115</ele>
        <time>2019-06-23T09:21:00Z</time>
      </trkpt>
      <trkpt lat="48.77335" lon="2.13337">
        <ele>117</ele>
        <time>2019-06-23T09:21:04Z</time>
      </trkpt>
      <trkpt lat="48.77345" lon="2.13334">
        <ele>117</ele>
        <time>2019-06-23T09:21:10Z</time>
      </trkpt>
      <trkpt lat="48.77354" lon="2.13343">
        <ele>117</ele>
        <time>2019-06-23T09:21:22Z</time>
      </trkpt>
      <trkpt lat="48.77362" lon="2.13348">
        <ele>117</ele>
        <time>2019-06-23T09:21:30Z</time>
      </trkpt>
      <trkpt lat="48.77373" lon="2.13348">
        <ele>117</ele>
        <time>2019-06-23T09:21:38Z</time>
      </trkpt>
      <trkpt lat="48.77384" lon="2.13346">
        <ele>117</ele>
        <time>2019-06-23T09:21:45Z</time>
      </trkpt>
      <trkpt lat="48.77391" lon="2.13357">
        <ele>117</ele>
        <time>2019-06-23T09:21:52Z</time>
      </trkpt>
      <trkpt lat="48.77399" lon="2.13363">
        <ele>117</ele>
        <time>2019-06-23T09:21:57Z</time>
      </trkpt>
      <trkpt lat="48.77404" lon="2.13375">
        <ele>117</ele>
        <time>2019-06-23T09:22:05Z</time>
      </trkpt>
      <trkpt lat="48.77414" lon="2.13378">
        <ele>117</ele>
        <time>2019-06-23T09:22:11Z</time>
      </trkpt>
      <trkpt lat="48.77423" lon="2.13384">
        <ele>123</ele>
        <time>2019-06-23T09:22:20Z</time>
      </trkpt>
      <trkpt lat="48.77435" lon="2.13382">
        <ele>124</ele>
        <time>2019-06-23T09:22:25Z</time>
      </trkpt>
      <trkpt lat="48.77445" lon="2.13384">
        <ele>125</ele>
        <time>2019-06-23T09:22:33Z</time>
      </trkpt>
      <trkpt lat="48.77454" lon="2.13386">
        <ele>125</ele>
        <time>2019-06-23T09:22:39Z</time>
      </trkpt>
      <trkpt lat="48.77461" lon="2.13398">
        <ele>126</ele>
        <time>2019-06-23T09:23:02Z</time>
      </trkpt>
      <trkpt lat="48.77466" lon="2.13409">
        <ele>127</ele>
        <time>2019-06-23T09:23:07Z</time>
      </trkpt>
      <trkpt lat="48.77473" lon="2.13417">
        <ele>130</ele>
        <time>2019-06-23T09:23:11Z</time>
      </trkpt>
      <trkpt lat="48.77481" lon="2.13427">
        <ele>131</ele>
        <time>2019-06-23T09:23:18Z</time>
      </trkpt>
      <trkpt lat="48.77488" lon="2.13437">
        <ele>131</ele>
        <time>2019-06-23T09:23:25Z</time>
      </trkpt>
      <trkpt lat="48.77494" lon="2.13449">
        <ele>131</ele>
        <time>2019-06-23T09:23:37Z</time>
      </trkpt>
      <trkpt lat="48.77498" lon="2.13462">
        <ele>132</ele>
        <time>2019-06-23T09:23:45Z</time>
      </trkpt>
      <trkpt lat="48.77502" lon="2.13476">
        <ele>143</ele>
        <time>2019-06-23T09:24:01Z</time>
      </trkpt>
      <trkpt lat="48.77507" lon="2.13488">
        <ele>142</ele>
        <time>2019-06-23T09:24:19Z</time>
      </trkpt>
      <trkpt lat="48.77515" lon="2.13496">
        <ele>143</ele>
        <time>2019-06-23T09:24:32Z</time>
      </trkpt>
      <trkpt lat="48.77521" lon="2.13507">
        <ele>145</ele>
        <time>2019-06-23T09:24:45Z</time>
      </trkpt>
      <trkpt lat="48.77529" lon="2.13496">
        <ele>145</ele>
        <time>2019-06-23T09:25:05Z</time>
      </trkpt>
      <trkpt lat="48.77532" lon="2.13482">
        <ele>146</ele>
        <time>2019-06-23T09:25:18Z</time>
      </trkpt>
      <trkpt lat="48.77527" lon="2.13469">
        <ele>145</ele>
        <time>2019-06-23T09:25:30Z</time>
      </trkpt>
      <trkpt lat="48.77526" lon="2.13454">
        <ele>145</ele>
        <time>2019-06-23T09:25:40Z</time>
      </trkpt>
      <trkpt lat="48.77522" lon="2.13441">
        <ele>144</ele>
        <time>2019-06-23T09:25:50Z</time>
      </trkpt>
      <trkpt lat="48.77519" lon="2.13428">
        <ele>142</ele>
        <time>2019-06-23T09:26:08Z</time>
      </trkpt>
      <trkpt lat="48.77523" lon="2.13411">
        <ele>141</ele>
        <time>2019-06-23T09:26:18Z</time>
      </trkpt>
      <trkpt lat="48.77531" lon="2.13405">
        <ele>142</ele>
        <time>2019-06-23T09:26:33Z</time>
      </trkpt>
      <trkpt lat="48.77534" lon="2.13392">
        <ele>142</ele>
        <time>2019-06-23T09:27:07Z</time>
      </trkpt>
      <trkpt lat="48.77544" lon="2.1339">
        <ele>144</ele>
        <time>2019-06-23T09:27:25Z</time>
      </trkpt>
      <trkpt lat="48.77554" lon="2.13393">
        <ele>146</ele>
        <time>2019-06-23T09:27:34Z</time>
      </trkpt>
      <trkpt lat="48.77563" lon="2.13399">
        <ele>148</ele>
        <time>2019-06-23T09:27:43Z</time>
      </trkpt>
      <trkpt lat="48.7757" lon="2.13408">
        <ele>151</ele>
        <time>2019-06-23T09:28:01Z</time>
      </trkpt>
      <trkpt lat="48.7758" lon="2.13406">
        <ele>152</ele>
        <time>2019-06-23T09:28:46Z</time>
      </trkpt>
      <trkpt lat="48.77589" lon="2.13404">
        <ele>158</ele>
        <time>2019-06-23T09:29:00Z</time>
      </trkpt>
      <trkpt lat="48.77598" lon="2.13393">
        <ele>158</ele>
        <time>2019-06-23T09:29:14Z</time>
      </trkpt>
      <trkpt lat="48.77606" lon="2.13388">
        <ele>159</ele>
        <time>2019-06-23T09:29:21Z</time>
      </trkpt>
      <trkpt lat="48.77616" lon="2.13377">
        <ele>159</ele>
        <time>2019-06-23T09:29:26Z</time>
      </trkpt>
      <trkpt lat="48.77625" lon="2.13374">
        <ele>159</ele>
        <time>2019-06-23T09:29:34Z</time>
      </trkpt>
      <trkpt lat="48.77633" lon="2.13367">
        <ele>160</ele>
        <time>2019-06-23T09:29:43Z</time>
      </trkpt>
      <trkpt lat="48.77641" lon="2.13358">
        <ele>160</ele>
        <time>2019-06-23T09:29:48Z</time>
      </trkpt>
      <trkpt lat="48.77648" lon="2.1335">
        <ele>161</ele>
        <time>2019-06-23T09:29:51Z</time>
      </trkpt>
      <trkpt lat="48.77655" lon="2.13341">
        <ele>162</ele>
        <time>2019-06-23T09:29:58Z</time>
      </trkpt>
      <trkpt lat="48.77662" lon="2.13332">
        <ele>162</ele>
        <time>2019-06-23T09:30:05Z</time>
      </trkpt>
      <trkpt lat="48.77667" lon="2.13319">
        <ele>165</ele>
        <time>2019-06-23T09:30:11Z</time>
      </trkpt>
      <trkpt lat="48.77672" lon="2.13306">
        <ele>165</ele>
        <time>2019-06-23T09:30:19Z</time>
      </trkpt>
      <trkpt lat="48.77677" lon="2.13293">
        <ele>165</ele>
        <time>2019-06-23T09:30:27Z</time>
      </trkpt>
      <trkpt lat="48.77681" lon="2.1328">
        <ele>165</ele>
        <time>2019-06-23T09:30:34Z</time>
      </trkpt>
      <trkpt lat="48.77687" lon="2.13267">
        <ele>164</ele>
        <time>2019-06-23T09:30:40Z</time>
      </trkpt>
      <trkpt lat="48.77693" lon="2.13256">
        <ele>165</ele>
        <time>2019-06-23T09:30:46Z</time>
      </trkpt>
      <trkpt lat="48.77697" lon="2.13243">
        <ele>162</ele>
        <time>2019-06-23T09:30:57Z</time>
      </trkpt>
      <trkpt lat="48.77702" lon="2.13232">
        <ele>162</ele>
        <time>2019-06-23T09:31:02Z</time>
      </trkpt>
      <trkpt lat="48.7771" lon="2.13225">
        <ele>162</ele>
        <time>2019-06-23T09:31:10Z</time>
      </trkpt>
      <trkpt lat="48.7772" lon="2.13229">
        <ele>163</ele>
        <time>2019-06-23T09:31:19Z</time>
      </trkpt>
      <trkpt lat="48.77727" lon="2.13238">
        <ele>164</ele>
        <time>2019-06-23T09:31:29Z</time>
      </trkpt>
      <trkpt lat="48.77736" lon="2.13246">
        <ele>166</ele>
        <time>2019-06-23T09:31:37Z</time>
      </trkpt>
      <trkpt lat="48.77744" lon="2.13254">
        <ele>168</ele>
        <time>2019-06-23T09:31:45Z</time>
      </trkpt>
      <trkpt lat="48.77754" lon="2.13258">
        <ele>168</ele>
        <time>2019-06-23T09:31:53Z</time>
      </trkpt>
      <trkpt lat="48.77764" lon="2.13262">
        <ele>168</ele>
        <time>2019-06-23T09:31:59Z</time>
      </trkpt>
      <trkpt lat="48.77772" lon="2.13265">
        <ele>168</ele>
        <time>2019-06-23T09:32:06Z</time>
      </trkpt>
      <trkpt lat="48.77781" lon="2.13268">
        <ele>167</ele>
        <time>2019-06-23T09:32:13Z</time>
      </trkpt>
      <trkpt lat="48.77789" lon="2.13275">
        <ele>167</ele>
        <time>2019-06-23T09:32:17Z</time>
      </trkpt>
      <trkpt lat="48.77797" lon="2.13283">
        <ele>167</ele>
        <time>2019-06-23T09:32:24Z</time>
      </trkpt>
      <trkpt lat="48.77805" lon="2.13293">
        <ele>167</ele>
        <time>2019-06-23T09:32:33Z</time>
      </trkpt>
      <trkpt lat="48.77814" lon="2.13298">
        <ele>167</ele>
        <time>2019-06-23T09:32:39Z</time>
      </trkpt>
      <trkpt lat="48.77822" lon="2.13304">
        <ele>168</ele>
        <time>2019-06-23T09:32:50Z</time>
      </trkpt>
      <trkpt lat="48.77829" lon="2.13314">
        <ele>168</ele>
        <time>2019-06-23T09:32:58Z</time>
      </trkpt>
      <trkpt lat="48.77837" lon="2.13322">
        <ele>167</ele>
        <time>2019-06-23T09:33:08Z</time>
      </trkpt>
      <trkpt lat="48.77843" lon="2.13333">
        <ele>168</ele>
        <time>2019-06-23T09:33:20Z</time>
      </trkpt>
      <trkpt lat="48.77852" lon="2.13339">
        <ele>169</ele>
        <time>2019-06-23T09:33:28Z</time>
      </trkpt>
      <trkpt lat="48.7786" lon="2.13348">
        <ele>169</ele>
        <time>2019-06-23T09:33:33Z</time>
      </trkpt>
      <trkpt lat="48.7787" lon="2.13352">
        <ele>169</ele>
        <time>2019-06-23T09:33:39Z</time>
      </trkpt>
      <trkpt lat="48.77877" lon="2.13363">
        <ele>169</ele>
        <time>2019-06-23T09:33:46Z</time>
      </trkpt>
      <trkpt lat="48.77885" lon="2.13372">
        <ele>169</ele>
        <time>2019-06-23T09:33:52Z</time>
      </trkpt>
      <trkpt lat="48.77895" lon="2.13379">
        <ele>169</ele>
        <time>2019-06-23T09:33:57Z</time>
      </trkpt>
      <trkpt lat="48.77904" lon="2.13387">
        <ele>169</ele>
        <time>2019-06-23T09:34:06Z</time>
      </trkpt>
      <trkpt lat="48.77913" lon="2.13391">
        <ele>169</ele>
        <time>2019-06-23T09:34:15Z</time>
      </trkpt>
      <trkpt lat="48.77922" lon="2.13397">
        <ele>169</ele>
        <time>2019-06-23T09:34:21Z</time>
      </trkpt>
      <trkpt lat="48.7793" lon="2.13405">
        <ele>169</ele>
        <time>2019-06-23T09:34:28Z</time>
      </trkpt>
      <trkpt lat="48.77939" lon="2.13409">
        <ele>169</ele>
        <time>2019-06-23T09:34:34Z</time>
      </trkpt>
      <trkpt lat="48.77949" lon="2.13416">
        <ele>169</ele>
        <time>2019-06-23T09:34:45Z</time>
      </trkpt>
      <trkpt lat="48.77955" lon="2.13427">
        <ele>172</ele>
        <time>2019-06-23T09:34:52Z</time>
      </trkpt>
      <trkpt lat="48.77963" lon="2.13434">
        <ele>173</ele>
        <time>2019-06-23T09:34:59Z</time>
      </trkpt>
      <trkpt lat="48.77972" lon="2.1344">
        <ele>173</ele>
        <time>2019-06-23T09:35:07Z</time>
      </trkpt>
      <trkpt lat="48.7798" lon="2.13447">
        <ele>173</ele>
        <time>2019-06-23T09:35:19Z</time>
      </trkpt>
      <trkpt lat="48.77988" lon="2.1344">
        <ele>173</ele>
        <time>2019-06-23T09:35:32Z</time>
      </trkpt>
      <trkpt lat="48.7799" lon="2.13424">
        <ele>172</ele>
        <time>2019-06-23T09:35:42Z</time>
      </trkpt>
      <trkpt lat="48.77996" lon="2.13414">
        <ele>171</ele>
        <time>2019-06-23T09:35:48Z</time>
      </trkpt>
      <trkpt lat="48.78002" lon="2.13402">
        <ele>169</ele>
        <time>2019-06-23T09:35:53Z</time>
      </trkpt>
      <trkpt lat="48.78003" lon="2.13388">
        <ele>167</ele>
        <time>2019-06-23T09:36:02Z</time>
      </trkpt>
      <trkpt lat="48.78008" lon="2.13377">
        <ele>166</ele>
        <time>2019-06-23T09:36:11Z</time>
      </trkpt>
      <trkpt lat="48.78012" lon="2.13364">
        <ele>164</ele>
        <time>2019-06-23T09:36:19Z</time>
      </trkpt>
      <trkpt lat="48.7802" lon="2.13357">
        <ele>164</ele>
        <time>2019-06-23T09:36:23Z</time>
      </trkpt>
      <trkpt lat="48.78025" lon="2.13341">
        <ele>163</ele>
        <time>2019-06-23T09:36:29Z</time>
      </trkpt>
      <trkpt lat="48.78033" lon="2.13337">
        <ele>163</ele>
        <time>2019-06-23T09:36:37Z</time>
      </trkpt>
      <trkpt lat="48.78043" lon="2.13335">
        <ele>163</ele>
        <time>2019-06-23T09:36:44Z</time>
      </trkpt>
      <trkpt lat="48.78052" lon="2.1333">
        <ele>156</ele>
        <time>2019-06-23T09:36:50Z</time>
      </trkpt>
      <trkpt lat="48.78061" lon="2.13331">
        <ele>157</ele>
        <time>2019-06-23T09:36:58Z</time>
      </trkpt>
      <trkpt lat="48.7807" lon="2.13334">
        <ele>162</ele>
        <time>2019-06-23T09:37:11Z</time>
      </trkpt>
      <trkpt lat="48.7808" lon="2.13335">
        <ele>161</ele>
        <time>2019-06-23T09:37:22Z</time>
      </trkpt>
      <trkpt lat="48.78089" lon="2.13336">
        <ele>160</ele>
        <time>2019-06-23T09:37:34Z</time>
      </trkpt>
      <trkpt lat="48.78099" lon="2.13336">
        <ele>160</ele>
        <time>2019-06-23T09:37:42Z</time>
      </trkpt>
      <trkpt lat="48.78107" lon="2.13327">
        <ele>154</ele>
        <time>2019-06-23T09:37:55Z</time>
      </trkpt>
      <trkpt lat="48.78114" lon="2.13317">
        <ele>152</ele>
        <time>2019-06-23T09:38:05Z</time>
      </trkpt>
      <trkpt lat="48.7812" lon="2.13303">
        <ele>151</ele>
        <time>2019-06-23T09:38:11Z</time>
      </trkpt>
      <trkpt lat="48.78129" lon="2.13296">
        <ele>150</ele>
        <time>2019-06-23T09:38:33Z</time>
      </trkpt>
      <trkpt lat="48.78139" lon="2.13301">
        <ele>150</ele>
        <time>2019-06-23T09:38:40Z</time>
      </trkpt>
      <trkpt lat="48.78147" lon="2.13305">
        <ele>150</ele>
        <time>2019-06-23T09:38:47Z</time>
      </trkpt>
      <trkpt lat="48.78156" lon="2.13309">
        <ele>150</ele>
        <time>2019-06-23T09:38:53Z</time>
      </trkpt>
      <trkpt lat="48.78166" lon="2.1331">
        <ele>150</ele>
        <time>2019-06-23T09:38:59Z</time>
      </trkpt>
      <trkpt lat="48.78175" lon="2.13307">
        <ele>148</ele>
        <time>2019-06-23T09:39:07Z</time>
      </trkpt>
      <trkpt lat="48.78184" lon="2.13306">
        <ele>148</ele>
        <time>2019-06-23T09:39:13Z</time>
      </trkpt>
      <trkpt lat="48.78193" lon="2.13303">
        <ele>148</ele>
        <time>2019-06-23T09:39:20Z</time>
      </trkpt>
      <trkpt lat="48.78204" lon="2.13305">
        <ele>148</ele>
        <time>2019-06-23T09:39:32Z</time>
      </trkpt>
      <trkpt lat="48.78214" lon="2.13302">
        <ele>148</ele>
        <time>2019-06-23T09:39:42Z</time>
      </trkpt>
      <trkpt lat="48.78224" lon="2.13303">
        <ele>148</ele>
        <time>2019-06-23T09:39:53Z</time>
      </trkpt>
      <trkpt lat="48.78233" lon="2.13307">
        <ele>149</ele>
        <time>2019-06-23T09:40:02Z</time>
      </trkpt>
      <trkpt lat="48.78241" lon="2.13312">
        <ele>150</ele>
        <time>2019-06-23T09:40:08Z</time>
      </trkpt>
      <trkpt lat="48.78251" lon="2.13317">
        <ele>151</ele>
        <time>2019-06-23T09:40:17Z</time>
      </trkpt>
      <trkpt lat="48.78261" lon="2.13316">
        <ele>151</ele>
        <time>2019-06-23T09:40:28Z</time>
      </trkpt>
      <trkpt lat="48.7827" lon="2.13313">
        <ele>150</ele>
        <time>2019-06-23T09:40:37Z</time>
      </trkpt>
      <trkpt lat="48.78279" lon="2.13317">
        <ele>150</ele>
        <time>2019-06-23T09:40:40Z</time>
      </trkpt>
      <trkpt lat="48.78289" lon="2.13318">
        <ele>150</ele>
        <time>2019-06-23T09:40:46Z</time>
      </trkpt>
      <trkpt lat="48.78298" lon="2.13322">
        <ele>150</ele>
        <time>2019-06-23T09:40:54Z</time>
      </trkpt>
      <trkpt lat="48.78307" lon="2.13323">
        <ele>150</ele>
        <time>2019-06-23T09:41:08Z</time>
      </trkpt>
      <trkpt lat="48.78316" lon="2.13328">
        <ele>150</ele>
        <time>2019-06-23T09:41:14Z</time>
      </trkpt>
      <trkpt lat="48.78325" lon="2.1333">
        <ele>151</ele>
        <time>2019-06-23T09:41:19Z</time>
      </trkpt>
      <trkpt lat="48.78334" lon="2.13331">
        <ele>152</ele>
        <time>2019-06-23T09:41:23Z</time>
      </trkpt>
      <trkpt lat="48.78344" lon="2.13333">
        <ele>151</ele>
        <time>2019-06-23T09:41:30Z</time>
      </trkpt>
      <trkpt lat="48.78354" lon="2.13332">
        <ele>150</ele>
        <time>2019-06-23T09:41:37Z</time>
      </trkpt>
      <trkpt lat="48.78363" lon="2.13334">
        <ele>155</ele>
        <time>2019-06-23T09:41:44Z</time>
      </trkpt>
      <trkpt lat="48.78372" lon="2.13329">
        <ele>150</ele>
        <time>2019-06-23T09:41:54Z</time>
      </trkpt>
      <trkpt lat="48.78381" lon="2.1333">
        <ele>150</ele>
        <time>2019-06-23T09:42:03Z</time>
      </trkpt>
      <trkpt lat="48.78391" lon="2.13331">
        <ele>150</ele>
        <time>2019-06-23T09:42:07Z</time>
      </trkpt>
      <trkpt lat="48.78401" lon="2.13334">
        <ele>153</ele>
        <time>2019-06-23T09:42:15Z</time>
      </trkpt>
      <trkpt lat="48.78412" lon="2.13341">
        <ele>153</ele>
        <time>2019-06-23T09:42:25Z</time>
      </trkpt>
      <trkpt lat="48.78421" lon="2.13345">
        <ele>153</ele>
        <time>2019-06-23T09:42:30Z</time>
      </trkpt>
      <trkpt lat="48.78431" lon="2.13348">
        <ele>154</ele>
        <time>2019-06-23T09:42:36Z</time>
      </trkpt>
      <trkpt lat="48.78441" lon="2.13348">
        <ele>154</ele>
        <time>2019-06-23T09:42:41Z</time>
      </trkpt>
      <trkpt lat="48.78448" lon="2.13359">
        <ele>155</ele>
        <time>2019-06-23T09:42:48Z</time>
      </trkpt>
      <trkpt lat="48.78455" lon="2.13372">
        <ele>155</ele>
        <time>2019-06-23T09:42:57Z</time>
      </trkpt>
      <trkpt lat="48.78463" lon="2.1338">
        <ele>155</ele>
        <time>2019-06-23T09:43:03Z</time>
      </trkpt>
      <trkpt lat="48.78473" lon="2.13384">
        <ele>156</ele>
        <time>2019-06-23T09:43:11Z</time>
      </trkpt>
      <trkpt lat="48.78482" lon="2.13391">
        <ele>156</ele>
        <time>2019-06-23T09:43:16Z</time>
      </trkpt>
      <trkpt lat="48.7849" lon="2.134">
        <ele>156</ele>
        <time>2019-06-23T09:43:22Z</time>
      </trkpt>
      <trkpt lat="48.78482" lon="2.13392">
        <ele>156</ele>
        <time>2019-06-23T09:43:57Z</time>
      </trkpt>
      <trkpt lat="48.78492" lon="2.13392">
        <ele>156</ele>
        <time>2019-06-23T09:44:40Z</time>
      </trkpt>
      <trkpt lat="48.78489" lon="2.13378">
        <ele>155</ele>
        <time>2019-06-23T09:47:13Z</time>
      </trkpt>
      <trkpt lat="48.78495" lon="2.13391">
        <ele>156</ele>
        <time>2019-06-23T09:49:42Z</time>
      </trkpt>
      <trkpt lat="48.78504" lon="2.1339">
        <ele>156</ele>
        <time>2019-06-23T09:49:48Z</time>
      </trkpt>
      <trkpt lat="48.78512" lon="2.13394">
        <ele>156</ele>
        <time>2019-06-23T09:49:54Z</time>
      </trkpt>
      <trkpt lat="48.78523" lon="2.13396">
        <ele>157</ele>
        <time>2019-06-23T09:50:02Z</time>
      </trkpt>
      <trkpt lat="48.78532" lon="2.134">
        <ele>157</ele>
        <time>2019-06-23T09:50:08Z</time>
      </trkpt>
      <trkpt lat="48.78542" lon="2.13398">
        <ele>157</ele>
        <time>2019-06-23T09:50:16Z</time>
      </trkpt>
      <trkpt lat="48.78551" lon="2.13398">
        <ele>157</ele>
        <time>2019-06-23T09:50:24Z</time>
      </trkpt>
      <trkpt lat="48.78562" lon="2.13398">
        <ele>157</ele>
        <time>2019-06-23T09:50:30Z</time>
      </trkpt>
      <trkpt lat="48.78572" lon="2.13398">
        <ele>158</ele>
        <time>2019-06-23T09:50:35Z</time>
      </trkpt>
      <trkpt lat="48.78582" lon="2.13401">
        <ele>158</ele>
        <time>2019-06-23T09:50:39Z</time>
      </trkpt>
      <trkpt lat="48.78591" lon="2.13401">
        <ele>159</ele>
        <time>2019-06-23T09:50:46Z</time>
      </trkpt>
      <trkpt lat="48.786" lon="2.13404">
        <ele>159</ele>
        <time>2019-06-23T09:50:56Z</time>
      </trkpt>
      <trkpt lat="48.7861" lon="2.13403">
        <ele>159</ele>
        <time>2019-06-23T09:51:02Z</time>
      </trkpt>
      <trkpt lat="48.7862" lon="2.13402">
        <ele>159</ele>
        <time>2019-06-23T09:51:10Z</time>
      </trkpt>
      <trkpt lat="48.78629" lon="2.13401">
        <ele>159</ele>
        <time>2019-06-23T09:51:18Z</time>
      </trkpt>
      <trkpt lat="48.78638" lon="2.13398">
        <ele>159</ele>
        <time>2019-06-23T09:51:30Z</time>
      </trkpt>
      <trkpt lat="48.78648" lon="2.13402">
        <ele>160</ele>
        <time>2019-06-23T09:51:38Z</time>
      </trkpt>
      <trkpt lat="48.78657" lon="2.13402">
        <ele>161</ele>
        <time>2019-06-23T09:51:43Z</time>
      </trkpt>
      <trkpt lat="48.78666" lon="2.13396">
        <ele>160</ele>
        <time>2019-06-23T09:51:51Z</time>
      </trkpt>
      <trkpt lat="48.78676" lon="2.13395">
        <ele>161</ele>
        <time>2019-06-23T09:52:07Z</time>
      </trkpt>
      <trkpt lat="48.78686" lon="2.13396">
        <ele>161</ele>
        <time>2019-06-23T09:52:13Z</time>
      </trkpt>
      <trkpt lat="48.78696" lon="2.13396">
        <ele>161</ele>
        <time>2019-06-23T09:52:19Z</time>
      </trkpt>
      <trkpt lat="48.78706" lon="2.13393">
        <ele>161</ele>
        <time>2019-06-23T09:52:29Z</time>
      </trkpt>
      <trkpt lat="48.78716" lon="2.13391">
        <ele>161</ele>
        <time>2019-06-23T09:52:32Z</time>
      </trkpt>
      <trkpt lat="48.78727" lon="2.13392">
        <ele>161</ele>
        <time>2019-06-23T09:52:41Z</time>
      </trkpt>
      <trkpt lat="48.78738" lon="2.13392">
        <ele>161</ele>
        <time>2019-06-23T09:52:45Z</time>
      </trkpt>
      <trkpt lat="48.78747" lon="2.13393">
        <ele>161</ele>
        <time>2019-06-23T09:52:51Z</time>
      </trkpt>
      <trkpt lat="48.78758" lon="2.13394">
        <ele>163</ele>
        <time>2019-06-23T09:53:03Z</time>
      </trkpt>
      <trkpt lat="48.78766" lon="2.13388">
        <ele>162</ele>
        <time>2019-06-23T09:53:09Z</time>
      </trkpt>
      <trkpt lat="48.78771" lon="2.13376">
        <ele>162</ele>
        <time>2019-06-23T09:53:17Z</time>
      </trkpt>
      <trkpt lat="48.78768" lon="2.13362">
        <ele>161</ele>
        <time>2019-06-23T09:53:24Z</time>
      </trkpt>
      <trkpt lat="48.78763" lon="2.13348">
        <ele>159</ele>
        <time>2019-06-23T09:53:32Z</time>
      </trkpt>
      <trkpt lat="48.78761" lon="2.13334">
        <ele>158</ele>
        <time>2019-06-23T09:53:52Z</time>
      </trkpt>
      <trkpt lat="48.78765" lon="2.1332">
        <ele>158</ele>
        <time>2019-06-23T09:54:01Z</time>
      </trkpt>
      <trkpt lat="48.7877" lon="2.13309">
        <ele>158</ele>
        <time>2019-06-23T09:54:18Z</time>
      </trkpt>
      <trkpt lat="48.78776" lon="2.13319">
        <ele>158</ele>
        <time>2019-06-23T09:54:33Z</time>
      </trkpt>
      <trkpt lat="48.78779" lon="2.13306">
        <ele>159</ele>
        <time>2019-06-23T09:54:40Z</time>
      </trkpt>
      <trkpt lat="48.78785" lon="2.13295">
        <ele>159</ele>
        <time>2019-06-23T09:54:47Z</time>
      </trkpt>
      <trkpt lat="48.7879" lon="2.1328">
        <ele>159</ele>
        <time>2019-06-23T09:54:54Z</time>
      </trkpt>
      <trkpt lat="48.78795" lon="2.13268">
        <ele>160</ele>
        <time>2019-06-23T09:55:03Z</time>
      </trkpt>
      <trkpt lat="48.78805" lon="2.1327">
        <ele>160</ele>
        <time>2019-06-23T09:55:13Z</time>
      </trkpt>
      <trkpt lat="48.78813" lon="2.1328">
        <ele>161</ele>
        <time>2019-06-23T09:55:18Z</time>
      </trkpt>
      <trkpt lat="48.78822" lon="2.13286">
        <ele>161</ele>
        <time>2019-06-23T09:55:25Z</time>
      </trkpt>
      <trkpt lat="48.78832" lon="2.13292">
        <ele>161</ele>
        <time>2019-06-23T09:55:34Z</time>
      </trkpt>
      <trkpt lat="48.78834" lon="2.13306">
        <ele>165</ele>
        <time>2019-06-23T09:55:40Z</time>
      </trkpt>
      <trkpt lat="48.78841" lon="2.13318">
        <ele>164</ele>
        <time>2019-06-23T09:55:47Z</time>
      </trkpt>
      <trkpt lat="48.78847" lon="2.13329">
        <ele>164</ele>
        <time>2019-06-23T09:55:55Z</time>
      </trkpt>
      <trkpt lat="48.78849" lon="2.13345">
        <ele>164</ele>
        <time>2019-06-23T09:56:01Z</time>
      </trkpt>
      <trkpt lat="48.78854" lon="2.13357">
        <ele>165</ele>
        <time>2019-06-23T09:56:06Z</time>
      </trkpt>
      <trkpt lat="48.78861" lon="2.13367">
        <ele>165</ele>
        <time>2019-06-23T09:56:13Z</time>
      </trkpt>
      <trkpt lat="48.78877" lon="2.13372">
        <ele>166</ele>
        <time>2019-06-23T09:56:25Z</time>
      </trkpt>
      <trkpt lat="48.78886" lon="2.13375">
        <ele>166</ele>
        <time>2019-06-23T09:56:47Z</time>
      </trkpt>
      <trkpt lat="48.78888" lon="2.13361">
        <ele>167</ele>
        <time>2019-06-23T09:56:53Z</time>
      </trkpt>
      <trkpt lat="48.78895" lon="2.13351">
        <ele>167</ele>
        <time>2019-06-23T09:57:06Z</time>
      </trkpt>
      <trkpt lat="48.78903" lon="2.13344">
        <ele>168</ele>
        <time>2019-06-23T09:57:10Z</time>
      </trkpt>
      <trkpt lat="48.78912" lon="2.13344">
        <ele>168</ele>
        <time>2019-06-23T09:57:16Z</time>
      </trkpt>
      <trkpt lat="48.78922" lon="2.13348">
        <ele>171</ele>
        <time>2019-06-23T09:57:25Z</time>
      </trkpt>
      <trkpt lat="48.78929" lon="2.13338">
        <ele>171</ele>
        <time>2019-06-23T09:57:35Z</time>
      </trkpt>
      <trkpt lat="48.78938" lon="2.13334">
        <ele>171</ele>
        <time>2019-06-23T09:57:40Z</time>
      </trkpt>
      <trkpt lat="48.78946" lon="2.13342">
        <ele>172</ele>
        <time>2019-06-23T09:57:53Z</time>
      </trkpt>
      <trkpt lat="48.78955" lon="2.13336">
        <ele>172</ele>
        <time>2019-06-23T09:58:01Z</time>
      </trkpt>
      <trkpt lat="48.78964" lon="2.13329">
        <ele>173</ele>
        <time>2019-06-23T09:58:06Z</time>
      </trkpt>
      <trkpt lat="48.78973" lon="2.13331">
        <ele>174</ele>
        <time>2019-06-23T09:58:19Z</time>
      </trkpt>
      <trkpt lat="48.78982" lon="2.13335">
        <ele>174</ele>
        <time>2019-06-23T09:58:37Z</time>
      </trkpt>
      <trkpt lat="48.78991" lon="2.13329">
        <ele>175</ele>
        <time>2019-06-23T09:58:51Z</time>
      </trkpt>
      <trkpt lat="48.78996" lon="2.13317">
        <ele>175</ele>
        <time>2019-06-23T09:59:00Z</time>
      </trkpt>
      <trkpt lat="48.78999" lon="2.13303">
        <ele>174</ele>
        <time>2019-06-23T09:59:05Z</time>
      </trkpt>
      <trkpt lat="48.79001" lon="2.13288">
        <ele>176</ele>
        <time>2019-06-23T09:59:12Z</time>
      </trkpt>
      <trkpt lat="48.79004" lon="2.13274">
        <ele>176</ele>
        <time>2019-06-23T09:59:17Z</time>
      </trkpt>
      <trkpt lat="48.79013" lon="2.13267">
        <ele>176</ele>
        <time>2019-06-23T09:59:27Z</time>
      </trkpt>
      <trkpt lat="48.79024" lon="2.1327">
        <ele>176</ele>
        <time>2019-06-23T09:59:34Z</time>
      </trkpt>
      <trkpt lat="48.79033" lon="2.13274">
        <ele>176</ele>
        <time>2019-06-23T09:59:41Z</time>
      </trkpt>
      <trkpt lat="48.79042" lon="2.13282">
        <ele>176</ele>
        <time>2019-06-23T09:59:50Z</time>
      </trkpt>
      <trkpt lat="48.7905" lon="2.13291">
        <ele>176</ele>
        <time>2019-06-23T09:59:57Z</time>
      </trkpt>
      <trkpt lat="48.79062" lon="2.13297">
        <ele>176</ele>
        <time>2019-06-23T10:00:10Z</time>
      </trkpt>
      <trkpt lat="48.79072" lon="2.13301">
        <ele>176</ele>
        <time>2019-06-23T10:00:15Z</time>
      </trkpt>
      <trkpt lat="48.79082" lon="2.13305">
        <ele>176</ele>
        <time>2019-06-23T10:00:23Z</time>
      </trkpt>
      <trkpt lat="48.79092" lon="2.13303">
        <ele>176</ele>
        <time>2019-06-23T10:00:33Z</time>
      </trkpt>
      <trkpt lat="48.79101" lon="2.13301">
        <ele>176</ele>
        <time>2019-06-23T10:00:40Z</time>
      </trkpt>
      <trkpt lat="48.7911" lon="2.13295">
        <ele>176</ele>
        <time>2019-06-23T10:00:48Z</time>
      </trkpt>
      <trkpt lat="48.7912" lon="2.13293">
        <ele>176</ele>
        <time>2019-06-23T10:00:56Z</time>
      </trkpt>
      <trkpt lat="48.79125" lon="2.13282">
        <ele>176</ele>
        <time>2019-06-23T10:01:04Z</time>
      </trkpt>
      <trkpt lat="48.79132" lon="2.13269">
        <ele>176</ele>
        <time>2019-06-23T10:01:09Z</time>
      </trkpt>
      <trkpt lat="48.79139" lon="2.13262">
        <ele>175</ele>
        <time>2019-06-23T10:01:14Z</time>
      </trkpt>
      <trkpt lat="48.79147" lon="2.13254">
        <ele>175</ele>
        <time>2019-06-23T10:01:24Z</time>
      </trkpt>
      <trkpt lat="48.79154" lon="2.13245">
        <ele>175</ele>
        <time>2019-06-23T10:01:37Z</time>
      </trkpt>
      <trkpt lat="48.7916" lon="2.13234">
        <ele>175</ele>
        <time>2019-06-23T10:01:45Z</time>
      </trkpt>
      <trkpt lat="48.79166" lon="2.13217">
        <ele>175</ele>
        <time>2019-06-23T10:01:49Z</time>
      </trkpt>
      <trkpt lat="48.79169" lon="2.13203">
        <ele>175</ele>
        <time>2019-06-23T10:01:57Z</time>
      </trkpt>
      <trkpt lat="48.79163" lon="2.13192">
        <ele>175</ele>
        <time>2019-06-23T10:02:09Z</time>
      </trkpt>
      <trkpt lat="48.79157" lon="2.13179">
        <ele>175</ele>
        <time>2019-06-23T10:02:16Z</time>
      </trkpt>
      <trkpt lat="48.79151" lon="2.13169">
        <ele>175</ele>
        <time>2019-06-23T10:02:23Z</time>
      </trkpt>
      <trkpt lat="48.79149" lon="2.13151">
        <ele>175</ele>
        <time>2019-06-23T10:02:37Z</time>
      </trkpt>
      <trkpt lat="48.79149" lon="2.13134">
        <ele>175</ele>
        <time>2019-06-23T10:02:43Z</time>
      </trkpt>
      <trkpt lat="48.79154" lon="2.13119">
        <ele>175</ele>
        <time>2019-06-23T10:02:47Z</time>
      </trkpt>
      <trkpt lat="48.79161" lon="2.13108">
        <ele>175</ele>
        <time>2019-06-23T10:02:55Z</time>
      </trkpt>
      <trkpt lat="48.7917" lon="2.13106">
        <ele>174</ele>
        <time>2019-06-23T10:03:04Z</time>
      </trkpt>
      <trkpt lat="48.7918" lon="2.13106">
        <ele>174</ele>
        <time>2019-06-23T10:03:13Z</time>
      </trkpt>
      <trkpt lat="48.79187" lon="2.13097">
        <ele>174</ele>
        <time>2019-06-23T10:03:19Z</time>
      </trkpt>
      <trkpt lat="48.79189" lon="2.13083">
        <ele>171</ele>
        <time>2019-06-23T10:03:25Z</time>
      </trkpt>
      <trkpt lat="48.79184" lon="2.13069">
        <ele>171</ele>
        <time>2019-06-23T10:03:38Z</time>
      </trkpt>
      <trkpt lat="48.79178" lon="2.13059">
        <ele>171</ele>
        <time>2019-06-23T10:03:54Z</time>
      </trkpt>
      <trkpt lat="48.79173" lon="2.13047">
        <ele>170</ele>
        <time>2019-06-23T10:04:00Z</time>
      </trkpt>
      <trkpt lat="48.79171" lon="2.13034">
        <ele>170</ele>
        <time>2019-06-23T10:04:07Z</time>
      </trkpt>
      <trkpt lat="48.79179" lon="2.13025">
        <ele>169</ele>
        <time>2019-06-23T10:04:22Z</time>
      </trkpt>
      <trkpt lat="48.79188" lon="2.13012">
        <ele>169</ele>
        <time>2019-06-23T10:04:28Z</time>
      </trkpt>
      <trkpt lat="48.79195" lon="2.13005">
        <ele>168</ele>
        <time>2019-06-23T10:04:34Z</time>
      </trkpt>
      <trkpt lat="48.79205" lon="2.13001">
        <ele>167</ele>
        <time>2019-06-23T10:04:48Z</time>
      </trkpt>
      <trkpt lat="48.79211" lon="2.12992">
        <ele>162</ele>
        <time>2019-06-23T10:04:56Z</time>
      </trkpt>
      <trkpt lat="48.79218" lon="2.12982">
        <ele>161</ele>
        <time>2019-06-23T10:05:03Z</time>
      </trkpt>
      <trkpt lat="48.79222" lon="2.12968">
        <ele>161</ele>
        <time>2019-06-23T10:05:12Z</time>
      </trkpt>
      <trkpt lat="48.79225" lon="2.12952">
        <ele>160</ele>
        <time>2019-06-23T10:05:20Z</time>
      </trkpt>
      <trkpt lat="48.79225" lon="2.12938">
        <ele>159</ele>
        <time>2019-06-23T10:05:26Z</time>
      </trkpt>
      <trkpt lat="48.7923" lon="2.12925">
        <ele>157</ele>
        <time>2019-06-23T10:05:32Z</time>
      </trkpt>
      <trkpt lat="48.79237" lon="2.12911">
        <ele>154</ele>
        <time>2019-06-23T10:05:39Z</time>
      </trkpt>
      <trkpt lat="48.79239" lon="2.12897">
        <ele>155</ele>
        <time>2019-06-23T10:05:45Z</time>
      </trkpt>
      <trkpt lat="48.79246" lon="2.12887">
        <ele>155</ele>
        <time>2019-06-23T10:05:50Z</time>
      </trkpt>
      <trkpt lat="48.79249" lon="2.12874">
        <ele>154</ele>
        <time>2019-06-23T10:05:59Z</time>
      </trkpt>
      <trkpt lat="48.79255" lon="2.12863">
        <ele>144</ele>
        <time>2019-06-23T10:06:10Z</time>
      </trkpt>
      <trkpt lat="48.79264" lon="2.12869">
        <ele>144</ele>
        <time>2019-06-23T10:06:17Z</time>
      </trkpt>
      <trkpt lat="48.79273" lon="2.12875">
        <ele>144</ele>
        <time>2019-06-23T10:06:24Z</time>
      </trkpt>
      <trkpt lat="48.79282" lon="2.1288">
        <ele>144</ele>
        <time>2019-06-23T10:06:32Z</time>
      </trkpt>
      <trkpt lat="48.7929" lon="2.12887">
        <ele>143</ele>
        <time>2019-06-23T10:06:39Z</time>
      </trkpt>
      <trkpt lat="48.79299" lon="2.12894">
        <ele>143</ele>
        <time>2019-06-23T10:06:51Z</time>
      </trkpt>
      <trkpt lat="48.79308" lon="2.12893">
        <ele>142</ele>
        <time>2019-06-23T10:06:57Z</time>
      </trkpt>
      <trkpt lat="48.79317" lon="2.12893">
        <ele>142</ele>
        <time>2019-06-23T10:07:03Z</time>
      </trkpt>
      <trkpt lat="48.79328" lon="2.12894">
        <ele>141</ele>
        <time>2019-06-23T10:07:09Z</time>
      </trkpt>
      <trkpt lat="48.79336" lon="2.12902">
        <ele>139</ele>
        <time>2019-06-23T10:07:16Z</time>
      </trkpt>
      <trkpt lat="48.79342" lon="2.1289">
        <ele>139</ele>
        <time>2019-06-23T10:07:25Z</time>
      </trkpt>
      <trkpt lat="48.79346" lon="2.12878">
        <ele>139</ele>
        <time>2019-06-23T10:07:34Z</time>
      </trkpt>
      <trkpt lat="48.79348" lon="2.12864">
        <ele>139</ele>
        <time>2019-06-23T10:07:42Z</time>
      </trkpt>
      <trkpt lat="48.79343" lon="2.1285">
        <ele>139</ele>
        <time>2019-06-23T10:07:47Z</time>
      </trkpt>
      <trkpt lat="48.7934" lon="2.12836">
        <ele>140</ele>
        <time>2019-06-23T10:07:53Z</time>
      </trkpt>
      <trkpt lat="48.79343" lon="2.12822">
        <ele>140</ele>
        <time>2019-06-23T10:07:59Z</time>
      </trkpt>
      <trkpt lat="48.79343" lon="2.12807">
        <ele>140</ele>
        <time>2019-06-23T10:08:06Z</time>
      </trkpt>
      <trkpt lat="48.79344" lon="2.12791">
        <ele>140</ele>
        <time>2019-06-23T10:08:13Z</time>
      </trkpt>
      <trkpt lat="48.79343" lon="2.12777">
        <ele>140</ele>
        <time>2019-06-23T10:08:20Z</time>
      </trkpt>
      <trkpt lat="48.79345" lon="2.12763">
        <ele>141</ele>
        <time>2019-06-23T10:08:25Z</time>
      </trkpt>
      <trkpt lat="48.79349" lon="2.12748">
        <ele>141</ele>
        <time>2019-06-23T10:08:36Z</time>
      </trkpt>
      <trkpt lat="48.79355" lon="2.12731">
        <ele>140</ele>
        <time>2019-06-23T10:08:44Z</time>
      </trkpt>
      <trkpt lat="48.79359" lon="2.12718">
        <ele>140</ele>
        <time>2019-06-23T10:08:50Z</time>
      </trkpt>
      <trkpt lat="48.79364" lon="2.12705">
        <ele>139</ele>
        <time>2019-06-23T10:08:56Z</time>
      </trkpt>
      <trkpt lat="48.79367" lon="2.12692">
        <ele>139</ele>
        <time>2019-06-23T10:09:03Z</time>
      </trkpt>
      <trkpt lat="48.79372" lon="2.12678">
        <ele>139</ele>
        <time>2019-06-23T10:09:12Z</time>
      </trkpt>
      <trkpt lat="48.79375" lon="2.12665">
        <ele>137</ele>
        <time>2019-06-23T10:09:18Z</time>
      </trkpt>
      <trkpt lat="48.79372" lon="2.12651">
        <ele>137</ele>
        <time>2019-06-23T10:09:25Z</time>
      </trkpt>
      <trkpt lat="48.79382" lon="2.12643">
        <ele>137</ele>
        <time>2019-06-23T10:09:32Z</time>
      </trkpt>
      <trkpt lat="48.7938" lon="2.12629">
        <ele>137</ele>
        <time>2019-06-23T10:09:48Z</time>
      </trkpt>
      <trkpt lat="48.7937" lon="2.12626">
        <ele>137</ele>
        <time>2019-06-23T10:09:59Z</time>
      </trkpt>
      <trkpt lat="48.79361" lon="2.12625">
        <ele>137</ele>
        <time>2019-06-23T10:10:11Z</time>
      </trkpt>
      <trkpt lat="48.79356" lon="2.12613">
        <ele>137</ele>
        <time>2019-06-23T10:10:17Z</time>
      </trkpt>
      <trkpt lat="48.79353" lon="2.12596">
        <ele>137</ele>
        <time>2019-06-23T10:10:22Z</time>
      </trkpt>
      <trkpt lat="48.79355" lon="2.12581">
        <ele>136</ele>
        <time>2019-06-23T10:10:29Z</time>
      </trkpt>
      <trkpt lat="48.79352" lon="2.12568">
        <ele>136</ele>
        <time>2019-06-23T10:10:37Z</time>
      </trkpt>
      <trkpt lat="48.79356" lon="2.12554">
        <ele>136</ele>
        <time>2019-06-23T10:10:44Z</time>
      </trkpt>
      <trkpt lat="48.79361" lon="2.12541">
        <ele>135</ele>
        <time>2019-06-23T10:10:50Z</time>
      </trkpt>
      <trkpt lat="48.79363" lon="2.12526">
        <ele>135</ele>
        <time>2019-06-23T10:10:56Z</time>
      </trkpt>
      <trkpt lat="48.79358" lon="2.12514">
        <ele>135</ele>
        <time>2019-06-23T10:11:02Z</time>
      </trkpt>
      <trkpt lat="48.79363" lon="2.12501">
        <ele>135</ele>
        <time>2019-06-23T10:11:10Z</time>
      </trkpt>
      <trkpt lat="48.7937" lon="2.12489">
        <ele>135</ele>
        <time>2019-06-23T10:11:16Z</time>
      </trkpt>
      <trkpt lat="48.79377" lon="2.12477">
        <ele>134</ele>
        <time>2019-06-23T10:11:21Z</time>
      </trkpt>
      <trkpt lat="48.79382" lon="2.12465">
        <ele>134</ele>
        <time>2019-06-23T10:11:28Z</time>
      </trkpt>
      <trkpt lat="48.79385" lon="2.1245">
        <ele>134</ele>
        <time>2019-06-23T10:11:34Z</time>
      </trkpt>
      <trkpt lat="48.79387" lon="2.12436">
        <ele>134</ele>
        <time>2019-06-23T10:11:45Z</time>
      </trkpt>
      <trkpt lat="48.79379" lon="2.12428">
        <ele>134</ele>
        <time>2019-06-23T10:11:53Z</time>
      </trkpt>
      <trkpt lat="48.79371" lon="2.12421">
        <ele>135</ele>
        <time>2019-06-23T10:12:00Z</time>
      </trkpt>
      <trkpt lat="48.79364" lon="2.12409">
        <ele>135</ele>
        <time>2019-06-23T10:12:07Z</time>
      </trkpt>
      <trkpt lat="48.79354" lon="2.12406">
        <ele>135</ele>
        <time>2019-06-23T10:12:15Z</time>
      </trkpt>
      <trkpt lat="48.79345" lon="2.12401">
        <ele>135</ele>
        <time>2019-06-23T10:12:21Z</time>
      </trkpt>
      <trkpt lat="48.79344" lon="2.12387">
        <ele>135</ele>
        <time>2019-06-23T10:12:29Z</time>
      </trkpt>
      <trkpt lat="48.79346" lon="2.12372">
        <ele>135</ele>
        <time>2019-06-23T10:12:35Z</time>
      </trkpt>
      <trkpt lat="48.79346" lon="2.12357">
        <ele>134</ele>
        <time>2019-06-23T10:12:42Z</time>
      </trkpt>
      <trkpt lat="48.79348" lon="2.12343">
        <ele>134</ele>
        <time>2019-06-23T10:12:51Z</time>
      </trkpt>
      <trkpt lat="48.79352" lon="2.12331">
        <ele>134</ele>
        <time>2019-06-23T10:12:56Z</time>
      </trkpt>
      <trkpt lat="48.79357" lon="2.12318">
        <ele>135</ele>
        <time>2019-06-23T10:13:03Z</time>
      </trkpt>
      <trkpt lat="48.79363" lon="2.12304">
        <ele>135</ele>
        <time>2019-06-23T10:13:09Z</time>
      </trkpt>
      <trkpt lat="48.7936" lon="2.1229">
        <ele>135</ele>
        <time>2019-06-23T10:13:16Z</time>
      </trkpt>
      <trkpt lat="48.79362" lon="2.12276">
        <ele>135</ele>
        <time>2019-06-23T10:13:25Z</time>
      </trkpt>
      <trkpt lat="48.79366" lon="2.12261">
        <ele>135</ele>
        <time>2019-06-23T10:13:32Z</time>
      </trkpt>
      <trkpt lat="48.79363" lon="2.12248">
        <ele>136</ele>
        <time>2019-06-23T10:13:38Z</time>
      </trkpt>
      <trkpt lat="48.79368" lon="2.12235">
        <ele>136</ele>
        <time>2019-06-23T10:13:46Z</time>
      </trkpt>
      <trkpt lat="48.79374" lon="2.12223">
        <ele>136</ele>
        <time>2019-06-23T10:13:51Z</time>
      </trkpt>
      <trkpt lat="48.79382" lon="2.12215">
        <ele>136</ele>
        <time>2019-06-23T10:13:57Z</time>
      </trkpt>
      <trkpt lat="48.79388" lon="2.12205">
        <ele>136</ele>
        <time>2019-06-23T10:14:03Z</time>
      </trkpt>
      <trkpt lat="48.79394" lon="2.12194">
        <ele>137</ele>
        <time>2019-06-23T10:14:08Z</time>
      </trkpt>
      <trkpt lat="48.794" lon="2.12181">
        <ele>137</ele>
        <time>2019-06-23T10:14:14Z</time>
      </trkpt>
      <trkpt lat="48.79403" lon="2.12167">
        <ele>137</ele>
        <time>2019-06-23T10:14:20Z</time>
      </trkpt>
      <trkpt lat="48.79408" lon="2.12154">
        <ele>138</ele>
        <time>2019-06-23T10:14:28Z</time>
      </trkpt>
      <trkpt lat="48.79412" lon="2.12139">
        <ele>138</ele>
        <time>2019-06-23T10:14:34Z</time>
      </trkpt>
      <trkpt lat="48.79411" lon="2.12125">
        <ele>139</ele>
        <time>2019-06-23T10:14:43Z</time>
      </trkpt>
      <trkpt lat="48.79409" lon="2.12112">
        <ele>139</ele>
        <time>2019-06-23T10:14:50Z</time>
      </trkpt>
      <trkpt lat="48.79408" lon="2.12098">
        <ele>139</ele>
        <time>2019-06-23T10:15:09Z</time>
      </trkpt>
      <trkpt lat="48.79412" lon="2.12084">
        <ele>139</ele>
        <time>2019-06-23T10:15:30Z</time>
      </trkpt>
      <trkpt lat="48.79408" lon="2.12069">
        <ele>140</ele>
        <time>2019-06-23T10:15:41Z</time>
      </trkpt>
      <trkpt lat="48.79401" lon="2.1206">
        <ele>140</ele>
        <time>2019-06-23T10:15:49Z</time>
      </trkpt>
      <trkpt lat="48.79395" lon="2.1205">
        <ele>140</ele>
        <time>2019-06-23T10:15:56Z</time>
      </trkpt>
      <trkpt lat="48.79388" lon="2.1204">
        <ele>140</ele>
        <time>2019-06-23T10:16:02Z</time>
      </trkpt>
      <trkpt lat="48.79379" lon="2.12033">
        <ele>140</ele>
        <time>2019-06-23T10:16:10Z</time>
      </trkpt>
      <trkpt lat="48.79381" lon="2.12019">
        <ele>140</ele>
        <time>2019-06-23T10:16:25Z</time>
      </trkpt>
      <trkpt lat="48.79385" lon="2.12005">
        <ele>140</ele>
        <time>2019-06-23T10:16:31Z</time>
      </trkpt>
      <trkpt lat="48.79391" lon="2.11994">
        <ele>141</ele>
        <time>2019-06-23T10:16:40Z</time>
      </trkpt>
      <trkpt lat="48.79394" lon="2.11981">
        <ele>141</ele>
        <time>2019-06-23T10:16:48Z</time>
      </trkpt>
      <trkpt lat="48.79401" lon="2.1197">
        <ele>141</ele>
        <time>2019-06-23T10:16:57Z</time>
      </trkpt>
      <trkpt lat="48.79407" lon="2.1196">
        <ele>141</ele>
        <time>2019-06-23T10:17:04Z</time>
      </trkpt>
      <trkpt lat="48.79413" lon="2.11949">
        <ele>141</ele>
        <time>2019-06-23T10:17:09Z</time>
      </trkpt>
      <trkpt lat="48.79416" lon="2.11935">
        <ele>141</ele>
        <time>2019-06-23T10:17:17Z</time>
      </trkpt>
      <trkpt lat="48.79418" lon="2.1192">
        <ele>139</ele>
        <time>2019-06-23T10:17:24Z</time>
      </trkpt>
      <trkpt lat="48.7942" lon="2.11907">
        <ele>138</ele>
        <time>2019-06-23T10:17:32Z</time>
      </trkpt>
      <trkpt lat="48.79426" lon="2.11895">
        <ele>137</ele>
        <time>2019-06-23T10:17:39Z</time>
      </trkpt>
      <trkpt lat="48.79431" lon="2.11884">
        <ele>137</ele>
        <time>2019-06-23T10:17:46Z</time>
      </trkpt>
      <trkpt lat="48.79437" lon="2.11872">
        <ele>136</ele>
        <time>2019-06-23T10:17:52Z</time>
      </trkpt>
      <trkpt lat="48.79443" lon="2.11861">
        <ele>136</ele>
        <time>2019-06-23T10:18:00Z</time>
      </trkpt>
      <trkpt lat="48.7945" lon="2.1185">
        <ele>136</ele>
        <time>2019-06-23T10:18:06Z</time>
      </trkpt>
      <trkpt lat="48.79455" lon="2.11838">
        <ele>136</ele>
        <time>2019-06-23T10:18:12Z</time>
      </trkpt>
      <trkpt lat="48.79462" lon="2.11828">
        <ele>135</ele>
        <time>2019-06-23T10:18:19Z</time>
      </trkpt>
      <trkpt lat="48.79469" lon="2.11817">
        <ele>135</ele>
        <time>2019-06-23T10:18:27Z</time>
      </trkpt>
      <trkpt lat="48.79477" lon="2.1181">
        <ele>135</ele>
        <time>2019-06-23T10:18:33Z</time>
      </trkpt>
      <trkpt lat="48.79482" lon="2.11795">
        <ele>135</ele>
        <time>2019-06-23T10:18:40Z</time>
      </trkpt>
      <trkpt lat="48.79487" lon="2.11784">
        <ele>135</ele>
        <time>2019-06-23T10:18:47Z</time>
      </trkpt>
      <trkpt lat="48.79492" lon="2.11773">
        <ele>135</ele>
        <time>2019-06-23T10:18:54Z</time>
      </trkpt>
      <trkpt lat="48.79496" lon="2.11758">
        <ele>136</ele>
        <time>2019-06-23T10:19:02Z</time>
      </trkpt>
      <trkpt lat="48.795" lon="2.11744">
        <ele>135</ele>
        <time>2019-06-23T10:19:10Z</time>
      </trkpt>
      <trkpt lat="48.79507" lon="2.11734">
        <ele>133</ele>
        <time>2019-06-23T10:19:17Z</time>
      </trkpt>
      <trkpt lat="48.79509" lon="2.1172">
        <ele>132</ele>
        <time>2019-06-23T10:19:26Z</time>
      </trkpt>
      <trkpt lat="48.79512" lon="2.11707">
        <ele>131</ele>
        <time>2019-06-23T10:19:36Z</time>
      </trkpt>
      <trkpt lat="48.79517" lon="2.11696">
        <ele>131</ele>
        <time>2019-06-23T10:19:43Z</time>
      </trkpt>
      <trkpt lat="48.79525" lon="2.11685">
        <ele>130</ele>
        <time>2019-06-23T10:19:49Z</time>
      </trkpt>
      <trkpt lat="48.79529" lon="2.11672">
        <ele>130</ele>
        <time>2019-06-23T10:19:53Z</time>
      </trkpt>
      <trkpt lat="48.79535" lon="2.11663">
        <ele>126</ele>
        <time>2019-06-23T10:20:00Z</time>
      </trkpt>
      <trkpt lat="48.79535" lon="2.11648">
        <ele>126</ele>
        <time>2019-06-23T10:20:10Z</time>
      </trkpt>
      <trkpt lat="48.79534" lon="2.11632">
        <ele>125</ele>
        <time>2019-06-23T10:20:16Z</time>
      </trkpt>
      <trkpt lat="48.79533" lon="2.11617">
        <ele>125</ele>
        <time>2019-06-23T10:20:22Z</time>
      </trkpt>
      <trkpt lat="48.79531" lon="2.11602">
        <ele>124</ele>
        <time>2019-06-23T10:20:29Z</time>
      </trkpt>
      <trkpt lat="48.79529" lon="2.11588">
        <ele>124</ele>
        <time>2019-06-23T10:20:38Z</time>
      </trkpt>
      <trkpt lat="48.79526" lon="2.11574">
        <ele>121</ele>
        <time>2019-06-23T10:20:45Z</time>
      </trkpt>
      <trkpt lat="48.79524" lon="2.11559">
        <ele>120</ele>
        <time>2019-06-23T10:20:53Z</time>
      </trkpt>
      <trkpt lat="48.7952" lon="2.11546">
        <ele>120</ele>
        <time>2019-06-23T10:21:01Z</time>
      </trkpt>
      <trkpt lat="48.79518" lon="2.11532">
        <ele>120</ele>
        <time>2019-06-23T10:21:07Z</time>
      </trkpt>
      <trkpt lat="48.79517" lon="2.11517">
        <ele>119</ele>
        <time>2019-06-23T10:21:16Z</time>
      </trkpt>
      <trkpt lat="48.79514" lon="2.11504">
        <ele>119</ele>
        <time>2019-06-23T10:21:26Z</time>
      </trkpt>
      <trkpt lat="48.79514" lon="2.11489">
        <ele>118</ele>
        <time>2019-06-23T10:21:34Z</time>
      </trkpt>
      <trkpt lat="48.79512" lon="2.11475">
        <ele>117</ele>
        <time>2019-06-23T10:21:41Z</time>
      </trkpt>
      <trkpt lat="48.79513" lon="2.1146">
        <ele>117</ele>
        <time>2019-06-23T10:21:50Z</time>
      </trkpt>
      <trkpt lat="48.79513" lon="2.11446">
        <ele>117</ele>
        <time>2019-06-23T10:21:56Z</time>
      </trkpt>
      <trkpt lat="48.79514" lon="2.11432">
        <ele>116</ele>
        <time>2019-06-23T10:22:01Z</time>
      </trkpt>
      <trkpt lat="48.79516" lon="2.11418">
        <ele>116</ele>
        <time>2019-06-23T10:22:09Z</time>
      </trkpt>
      <trkpt lat="48.79519" lon="2.11405">
        <ele>117</ele>
        <time>2019-06-23T10:22:14Z</time>
      </trkpt>
      <trkpt lat="48.79523" lon="2.11392">
        <ele>117</ele>
        <time>2019-06-23T10:22:20Z</time>
      </trkpt>
      <trkpt lat="48.7953" lon="2.11383">
        <ele>117</ele>
        <time>2019-06-23T10:22:26Z</time>
      </trkpt>
      <trkpt lat="48.79536" lon="2.11371">
        <ele>118</ele>
        <time>2019-06-23T10:22:33Z</time>
      </trkpt>
      <trkpt lat="48.79544" lon="2.1136">
        <ele>118</ele>
        <time>2019-06-23T10:22:40Z</time>
      </trkpt>
      <trkpt lat="48.79552" lon="2.11351">
        <ele>118</ele>
        <time>2019-06-23T10:22:47Z</time>
      </trkpt>
      <trkpt lat="48.79561" lon="2.11345">
        <ele>118</ele>
        <time>2019-06-23T10:22:53Z</time>
      </trkpt>
      <trkpt lat="48.7957" lon="2.11341">
        <ele>118</ele>
        <time>2019-06-23T10:22:59Z</time>
      </trkpt>
      <trkpt lat="48.79579" lon="2.11336">
        <ele>118</ele>
        <time>2019-06-23T10:23:05Z</time>
      </trkpt>
      <trkpt lat="48.7959" lon="2.11333">
        <ele>120</ele>
        <time>2019-06-23T10:23:11Z</time>
      </trkpt>
      <trkpt lat="48.79593" lon="2.1132">
        <ele>122</ele>
        <time>2019-06-23T10:23:23Z</time>
      </trkpt>
      <trkpt lat="48.796" lon="2.11308">
        <ele>124</ele>
        <time>2019-06-23T10:23:29Z</time>
      </trkpt>
      <trkpt lat="48.79608" lon="2.11303">
        <ele>125</ele>
        <time>2019-06-23T10:23:35Z</time>
      </trkpt>
      <trkpt lat="48.79616" lon="2.11291">
        <ele>126</ele>
        <time>2019-06-23T10:23:42Z</time>
      </trkpt>
      <trkpt lat="48.79625" lon="2.11283">
        <ele>126</ele>
        <time>2019-06-23T10:23:50Z</time>
      </trkpt>
      <trkpt lat="48.79632" lon="2.11275">
        <ele>127</ele>
        <time>2019-06-23T10:23:57Z</time>
      </trkpt>
      <trkpt lat="48.79639" lon="2.11264">
        <ele>127</ele>
        <time>2019-06-23T10:24:05Z</time>
      </trkpt>
      <trkpt lat="48.79645" lon="2.11253">
        <ele>127</ele>
        <time>2019-06-23T10:24:18Z</time>
      </trkpt>
      <trkpt lat="48.79656" lon="2.11243">
        <ele>128</ele>
        <time>2019-06-23T10:24:32Z</time>
      </trkpt>
      <trkpt lat="48.79648" lon="2.11236">
        <ele>128</ele>
        <time>2019-06-23T10:25:27Z</time>
      </trkpt>
      <trkpt lat="48.79651" lon="2.11221">
        <ele>128</ele>
        <time>2019-06-23T10:25:35Z</time>
      </trkpt>
      <trkpt lat="48.79658" lon="2.11208">
        <ele>128</ele>
        <time>2019-06-23T10:25:41Z</time>
      </trkpt>
      <trkpt lat="48.79661" lon="2.11195">
        <ele>127</ele>
        <time>2019-06-23T10:25:46Z</time>
      </trkpt>
      <trkpt lat="48.79667" lon="2.11184">
        <ele>124</ele>
        <time>2019-06-23T10:25:53Z</time>
      </trkpt>
      <trkpt lat="48.79673" lon="2.11171">
        <ele>124</ele>
        <time>2019-06-23T10:26:02Z</time>
      </trkpt>
      <trkpt lat="48.79676" lon="2.11157">
        <ele>124</ele>
        <time>2019-06-23T10:26:09Z</time>
      </trkpt>
      <trkpt lat="48.79679" lon="2.11144">
        <ele>124</ele>
        <time>2019-06-23T10:26:16Z</time>
      </trkpt>
      <trkpt lat="48.79684" lon="2.11131">
        <ele>123</ele>
        <time>2019-06-23T10:26:23Z</time>
      </trkpt>
      <trkpt lat="48.79688" lon="2.11118">
        <ele>123</ele>
        <time>2019-06-23T10:26:30Z</time>
      </trkpt>
      <trkpt lat="48.79694" lon="2.11105">
        <ele>123</ele>
        <time>2019-06-23T10:26:37Z</time>
      </trkpt>
      <trkpt lat="48.79697" lon="2.1109">
        <ele>124</ele>
        <time>2019-06-23T10:26:44Z</time>
      </trkpt>
      <trkpt lat="48.79699" lon="2.11076">
        <ele>125</ele>
        <time>2019-06-23T10:26:51Z</time>
      </trkpt>
      <trkpt lat="48.79701" lon="2.11062">
        <ele>125</ele>
        <time>2019-06-23T10:26:58Z</time>
      </trkpt>
      <trkpt lat="48.79705" lon="2.11049">
        <ele>125</ele>
        <time>2019-06-23T10:27:08Z</time>
      </trkpt>
      <trkpt lat="48.7971" lon="2.11037">
        <ele>125</ele>
        <time>2019-06-23T10:27:18Z</time>
      </trkpt>
      <trkpt lat="48.79717" lon="2.11025">
        <ele>125</ele>
        <time>2019-06-23T10:27:25Z</time>
      </trkpt>
      <trkpt lat="48.79719" lon="2.1101">
        <ele>125</ele>
        <time>2019-06-23T10:27:32Z</time>
      </trkpt>
      <trkpt lat="48.79724" lon="2.10998">
        <ele>127</ele>
        <time>2019-06-23T10:27:40Z</time>
      </trkpt>
      <trkpt lat="48.79729" lon="2.10985">
        <ele>127</ele>
        <time>2019-06-23T10:27:47Z</time>
      </trkpt>
      <trkpt lat="48.79731" lon="2.10971">
        <ele>127</ele>
        <time>2019-06-23T10:27:54Z</time>
      </trkpt>
      <trkpt lat="48.79732" lon="2.10956">
        <ele>128</ele>
        <time>2019-06-23T10:28:02Z</time>
      </trkpt>
      <trkpt lat="48.79735" lon="2.10943">
        <ele>128</ele>
        <time>2019-06-23T10:28:10Z</time>
      </trkpt>
      <trkpt lat="48.7974" lon="2.10928">
        <ele>127</ele>
        <time>2019-06-23T10:28:18Z</time>
      </trkpt>
      <trkpt lat="48.79742" lon="2.10914">
        <ele>128</ele>
        <time>2019-06-23T10:28:26Z</time>
      </trkpt>
      <trkpt lat="48.79744" lon="2.10901">
        <ele>129</ele>
        <time>2019-06-23T10:28:32Z</time>
      </trkpt>
      <trkpt lat="48.79745" lon="2.10886">
        <ele>131</ele>
        <time>2019-06-23T10:28:41Z</time>
      </trkpt>
      <trkpt lat="48.79749" lon="2.10873">
        <ele>131</ele>
        <time>2019-06-23T10:28:48Z</time>
      </trkpt>
      <trkpt lat="48.79752" lon="2.10859">
        <ele>127</ele>
        <time>2019-06-23T10:28:55Z</time>
      </trkpt>
      <trkpt lat="48.79755" lon="2.10845">
        <ele>128</ele>
        <time>2019-06-23T10:29:03Z</time>
      </trkpt>
      <trkpt lat="48.79755" lon="2.10829">
        <ele>129</ele>
        <time>2019-06-23T10:29:10Z</time>
      </trkpt>
      <trkpt lat="48.79759" lon="2.10815">
        <ele>128</ele>
        <time>2019-06-23T10:29:17Z</time>
      </trkpt>
      <trkpt lat="48.79764" lon="2.10801">
        <ele>127</ele>
        <time>2019-06-23T10:29:26Z</time>
      </trkpt>
      <trkpt lat="48.79765" lon="2.10786">
        <ele>127</ele>
        <time>2019-06-23T10:29:35Z</time>
      </trkpt>
      <trkpt lat="48.79769" lon="2.10771">
        <ele>127</ele>
        <time>2019-06-23T10:29:43Z</time>
      </trkpt>
      <trkpt lat="48.79775" lon="2.10759">
        <ele>127</ele>
        <time>2019-06-23T10:29:50Z</time>
      </trkpt>
      <trkpt lat="48.79779" lon="2.10744">
        <ele>126</ele>
        <time>2019-06-23T10:29:57Z</time>
      </trkpt>
      <trkpt lat="48.79781" lon="2.1073">
        <ele>126</ele>
        <time>2019-06-23T10:30:04Z</time>
      </trkpt>
      <trkpt lat="48.79783" lon="2.10715">
        <ele>126</ele>
        <time>2019-06-23T10:30:10Z</time>
      </trkpt>
      <trkpt lat="48.79786" lon="2.10702">
        <ele>125</ele>
        <time>2019-06-23T10:30:18Z</time>
      </trkpt>
      <trkpt lat="48.79788" lon="2.10688">
        <ele>125</ele>
        <time>2019-06-23T10:30:24Z</time>
      </trkpt>
      <trkpt lat="48.79791" lon="2.10675">
        <ele>125</ele>
        <time>2019-06-23T10:30:32Z</time>
      </trkpt>
      <trkpt lat="48.79794" lon="2.1066">
        <ele>125</ele>
        <time>2019-06-23T10:30:40Z</time>
      </trkpt>
      <trkpt lat="48.79796" lon="2.10646">
        <ele>124</ele>
        <time>2019-06-23T10:30:47Z</time>
      </trkpt>
      <trkpt lat="48.79801" lon="2.10632">
        <ele>124</ele>
        <time>2019-06-23T10:30:53Z</time>
      </trkpt>
      <trkpt lat="48.79803" lon="2.10618">
        <ele>124</ele>
        <time>2019-06-23T10:31:01Z</time>
      </trkpt>
      <trkpt lat="48.79806" lon="2.10605">
        <ele>124</ele>
        <time>2019-06-23T10:31:08Z</time>
      </trkpt>
      <trkpt lat="48.79809" lon="2.1059">
        <ele>124</ele>
        <time>2019-06-23T10:31:14Z</time>
      </trkpt>
      <trkpt lat="48.7981" lon="2.10576">
        <ele>124</ele>
        <time>2019-06-23T10:31:21Z</time>
      </trkpt>
      <trkpt lat="48.79812" lon="2.10562">
        <ele>124</ele>
        <time>2019-06-23T10:31:29Z</time>
      </trkpt>
      <trkpt lat="48.79821" lon="2.1056">
        <ele>124</ele>
        <time>2019-06-23T10:31:57Z</time>
      </trkpt>
      <trkpt lat="48.7983" lon="2.10559">
        <ele>124</ele>
        <time>2019-06-23T10:32:06Z</time>
      </trkpt>
      <trkpt lat="48.79839" lon="2.10564">
        <ele>121</ele>
        <time>2019-06-23T10:32:13Z</time>
      </trkpt>
      <trkpt lat="48.79848" lon="2.10569">
        <ele>121</ele>
        <time>2019-06-23T10:32:24Z</time>
      </trkpt>
      <trkpt lat="48.79858" lon="2.10574">
        <ele>121</ele>
        <time>2019-06-23T10:32:31Z</time>
      </trkpt>
      <trkpt lat="48.79868" lon="2.10582">
        <ele>120</ele>
        <time>2019-06-23T10:32:37Z</time>
      </trkpt>
      <trkpt lat="48.79877" lon="2.10588">
        <ele>120</ele>
        <time>2019-06-23T10:32:44Z</time>
      </trkpt>
      <trkpt lat="48.79887" lon="2.10592">
        <ele>119</ele>
        <time>2019-06-23T10:32:51Z</time>
      </trkpt>
      <trkpt lat="48.79896" lon="2.10596">
        <ele>119</ele>
        <time>2019-06-23T10:32:58Z</time>
      </trkpt>
      <trkpt lat="48.79905" lon="2.10593">
        <ele>119</ele>
        <time>2019-06-23T10:33:05Z</time>
      </trkpt>
      <trkpt lat="48.79908" lon="2.10579">
        <ele>119</ele>
        <time>2019-06-23T10:33:12Z</time>
      </trkpt>
      <trkpt lat="48.79912" lon="2.10565">
        <ele>119</ele>
        <time>2019-06-23T10:33:18Z</time>
      </trkpt>
      <trkpt lat="48.79914" lon="2.1055">
        <ele>119</ele>
        <time>2019-06-23T10:33:25Z</time>
      </trkpt>
      <trkpt lat="48.79915" lon="2.10536">
        <ele>119</ele>
        <time>2019-06-23T10:33:32Z</time>
      </trkpt>
      <trkpt lat="48.79919" lon="2.10522">
        <ele>118</ele>
        <time>2019-06-23T10:33:39Z</time>
      </trkpt>
      <trkpt lat="48.79921" lon="2.10507">
        <ele>118</ele>
        <time>2019-06-23T10:33:46Z</time>
      </trkpt>
      <trkpt lat="48.79923" lon="2.10493">
        <ele>118</ele>
        <time>2019-06-23T10:33:53Z</time>
      </trkpt>
      <trkpt lat="48.79927" lon="2.10479">
        <ele>119</ele>
        <time>2019-06-23T10:34:00Z</time>
      </trkpt>
      <trkpt lat="48.7993" lon="2.10465">
        <ele>119</ele>
        <time>2019-06-23T10:34:07Z</time>
      </trkpt>
      <trkpt lat="48.79933" lon="2.10451">
        <ele>119</ele>
        <time>2019-06-23T10:34:14Z</time>
      </trkpt>
      <trkpt lat="48.79935" lon="2.10437">
        <ele>119</ele>
        <time>2019-06-23T10:34:22Z</time>
      </trkpt>
      <trkpt lat="48.79938" lon="2.10424">
        <ele>119</ele>
        <time>2019-06-23T10:34:31Z</time>
      </trkpt>
      <trkpt lat="48.79942" lon="2.10409">
        <ele>119</ele>
        <time>2019-06-23T10:34:38Z</time>
      </trkpt>
      <trkpt lat="48.79946" lon="2.10397">
        <ele>119</ele>
        <time>2019-06-23T10:34:45Z</time>
      </trkpt>
      <trkpt lat="48.79949" lon="2.10382">
        <ele>119</ele>
        <time>2019-06-23T10:34:54Z</time>
      </trkpt>
      <trkpt lat="48.79953" lon="2.10369">
        <ele>119</ele>
        <time>2019-06-23T10:35:04Z</time>
      </trkpt>
      <trkpt lat="48.79962" lon="2.10368">
        <ele>119</ele>
        <time>2019-06-23T10:35:11Z</time>
      </trkpt>
      <trkpt lat="48.79972" lon="2.10374">
        <ele>119</ele>
        <time>2019-06-23T10:35:17Z</time>
      </trkpt>
      <trkpt lat="48.79981" lon="2.1038">
        <ele>119</ele>
        <time>2019-06-23T10:35:24Z</time>
      </trkpt>
      <trkpt lat="48.79992" lon="2.10381">
        <ele>119</ele>
        <time>2019-06-23T10:35:29Z</time>
      </trkpt>
      <trkpt lat="48.80002" lon="2.10388">
        <ele>118</ele>
        <time>2019-06-23T10:35:37Z</time>
      </trkpt>
      <trkpt lat="48.80011" lon="2.10393">
        <ele>118</ele>
        <time>2019-06-23T10:35:43Z</time>
      </trkpt>
      <trkpt lat="48.80019" lon="2.10401">
        <ele>119</ele>
        <time>2019-06-23T10:35:48Z</time>
      </trkpt>
      <trkpt lat="48.80026" lon="2.10409">
        <ele>118</ele>
        <time>2019-06-23T10:35:56Z</time>
      </trkpt>
      <trkpt lat="48.80035" lon="2.10413">
        <ele>118</ele>
        <time>2019-06-23T10:36:03Z</time>
      </trkpt>
      <trkpt lat="48.80044" lon="2.10417">
        <ele>119</ele>
        <time>2019-06-23T10:36:09Z</time>
      </trkpt>
      <trkpt lat="48.80053" lon="2.1042">
        <ele>119</ele>
        <time>2019-06-23T10:36:18Z</time>
      </trkpt>
      <trkpt lat="48.80062" lon="2.10423">
        <ele>119</ele>
        <time>2019-06-23T10:36:31Z</time>
      </trkpt>
      <trkpt lat="48.80071" lon="2.10428">
        <ele>118</ele>
        <time>2019-06-23T10:36:38Z</time>
      </trkpt>
      <trkpt lat="48.80082" lon="2.10425">
        <ele>118</ele>
        <time>2019-06-23T10:36:44Z</time>
      </trkpt>
      <trkpt lat="48.80091" lon="2.10429">
        <ele>118</ele>
        <time>2019-06-23T10:36:57Z</time>
      </trkpt>
      <trkpt lat="48.801" lon="2.10438">
        <ele>118</ele>
        <time>2019-06-23T10:37:01Z</time>
      </trkpt>
      <trkpt lat="48.80105" lon="2.10453">
        <ele>118</ele>
        <time>2019-06-23T10:37:05Z</time>
      </trkpt>
      <trkpt lat="48.80113" lon="2.10465">
        <ele>118</ele>
        <time>2019-06-23T10:37:10Z</time>
      </trkpt>
      <trkpt lat="48.8012" lon="2.10474">
        <ele>118</ele>
        <time>2019-06-23T10:37:17Z</time>
      </trkpt>
      <trkpt lat="48.80131" lon="2.10478">
        <ele>118</ele>
        <time>2019-06-23T10:37:26Z</time>
      </trkpt>
      <trkpt lat="48.8014" lon="2.10483">
        <ele>118</ele>
        <time>2019-06-23T10:37:33Z</time>
      </trkpt>
      <trkpt lat="48.80149" lon="2.10486">
        <ele>118</ele>
        <time>2019-06-23T10:37:40Z</time>
      </trkpt>
      <trkpt lat="48.80158" lon="2.10488">
        <ele>118</ele>
        <time>2019-06-23T10:37:44Z</time>
      </trkpt>
      <trkpt lat="48.80167" lon="2.1049">
        <ele>118</ele>
        <time>2019-06-23T10:37:48Z</time>
      </trkpt>
      <trkpt lat="48.80176" lon="2.10495">
        <ele>118</ele>
        <time>2019-06-23T10:37:53Z</time>
      </trkpt>
      <trkpt lat="48.80185" lon="2.10502">
        <ele>118</ele>
        <time>2019-06-23T10:38:00Z</time>
      </trkpt>
      <trkpt lat="48.80195" lon="2.10505">
        <ele>119</ele>
        <time>2019-06-23T10:38:06Z</time>
      </trkpt>
      <trkpt lat="48.80204" lon="2.10507">
        <ele>119</ele>
        <time>2019-06-23T10:38:12Z</time>
      </trkpt>
      <trkpt lat="48.80213" lon="2.10514">
        <ele>119</ele>
        <time>2019-06-23T10:38:19Z</time>
      </trkpt>
      <trkpt lat="48.80221" lon="2.10521">
        <ele>119</ele>
        <time>2019-06-23T10:38:28Z</time>
      </trkpt>
      <trkpt lat="48.8023" lon="2.10525">
        <ele>119</ele>
        <time>2019-06-23T10:38:38Z</time>
      </trkpt>
      <trkpt lat="48.80239" lon="2.10524">
        <ele>119</ele>
        <time>2019-06-23T10:38:44Z</time>
      </trkpt>
      <trkpt lat="48.8025" lon="2.10528">
        <ele>119</ele>
        <time>2019-06-23T10:38:52Z</time>
      </trkpt>
      <trkpt lat="48.8026" lon="2.10533">
        <ele>120</ele>
        <time>2019-06-23T10:38:58Z</time>
      </trkpt>
      <trkpt lat="48.80269" lon="2.10538">
        <ele>120</ele>
        <time>2019-06-23T10:39:04Z</time>
      </trkpt>
      <trkpt lat="48.80278" lon="2.10546">
        <ele>120</ele>
        <time>2019-06-23T10:39:11Z</time>
      </trkpt>
      <trkpt lat="48.80286" lon="2.10553">
        <ele>120</ele>
        <time>2019-06-23T10:39:19Z</time>
      </trkpt>
      <trkpt lat="48.80295" lon="2.10556">
        <ele>121</ele>
        <time>2019-06-23T10:39:25Z</time>
      </trkpt>
      <trkpt lat="48.80304" lon="2.10561">
        <ele>121</ele>
        <time>2019-06-23T10:39:32Z</time>
      </trkpt>
      <trkpt lat="48.80314" lon="2.10562">
        <ele>121</ele>
        <time>2019-06-23T10:39:46Z</time>
      </trkpt>
      <trkpt lat="48.80322" lon="2.10555">
        <ele>121</ele>
        <time>2019-06-23T10:41:02Z</time>
      </trkpt>
      <trkpt lat="48.80329" lon="2.10545">
        <ele>121</ele>
        <time>2019-06-23T10:41:10Z</time>
      </trkpt>
      <trkpt lat="48.80338" lon="2.1055">
        <ele>122</ele>
        <time>2019-06-23T10:41:26Z</time>
      </trkpt>
      <trkpt lat="48.80347" lon="2.10553">
        <ele>122</ele>
        <time>2019-06-23T10:41:31Z</time>
      </trkpt>
      <trkpt lat="48.80356" lon="2.10557">
        <ele>122</ele>
        <time>2019-06-23T10:41:47Z</time>
      </trkpt>
      <trkpt lat="48.80364" lon="2.10566">
        <ele>122</ele>
        <time>2019-06-23T10:43:26Z</time>
      </trkpt>
      <trkpt lat="48.80371" lon="2.10575">
        <ele>122</ele>
        <time>2019-06-23T10:43:43Z</time>
      </trkpt>
      <trkpt lat="48.80377" lon="2.10585">
        <ele>122</ele>
        <time>2019-06-23T10:44:10Z</time>
      </trkpt>
      <trkpt lat="48.80382" lon="2.10598">
        <ele>122</ele>
        <time>2019-06-23T10:44:34Z</time>
      </trkpt>
      <trkpt lat="48.80389" lon="2.10606">
        <ele>122</ele>
        <time>2019-06-23T10:44:41Z</time>
      </trkpt>
      <trkpt lat="48.80398" lon="2.10612">
        <ele>122</ele>
        <time>2019-06-23T10:44:48Z</time>
      </trkpt>
      <trkpt lat="48.80408" lon="2.10615">
        <ele>122</ele>
        <time>2019-06-23T10:44:53Z</time>
      </trkpt>
      <trkpt lat="48.80418" lon="2.10622">
        <ele>122</ele>
        <time>2019-06-23T10:45:00Z</time>
      </trkpt>
      <trkpt lat="48.80427" lon="2.10625">
        <ele>122</ele>
        <time>2019-06-23T10:45:09Z</time>
      </trkpt>
      <trkpt lat="48.80436" lon="2.10629">
        <ele>122</ele>
        <time>2019-06-23T10:45:16Z</time>
      </trkpt>
      <trkpt lat="48.80445" lon="2.10639">
        <ele>122</ele>
        <time>2019-06-23T10:45:28Z</time>
      </trkpt>
      <trkpt lat="48.80454" lon="2.10646">
        <ele>122</ele>
        <time>2019-06-23T10:45:36Z</time>
      </trkpt>
      <trkpt lat="48.80463" lon="2.10652">
        <ele>122</ele>
        <time>2019-06-23T10:45:47Z</time>
      </trkpt>
      <trkpt lat="48.80472" lon="2.10656">
        <ele>122</ele>
        <time>2019-06-23T10:45:58Z</time>
      </trkpt>
      <trkpt lat="48.80478" lon="2.10666">
        <ele>122</ele>
        <time>2019-06-23T10:46:10Z</time>
      </trkpt>
      <trkpt lat="48.80486" lon="2.10674">
        <ele>122</ele>
        <time>2019-06-23T10:46:18Z</time>
      </trkpt>
      <trkpt lat="48.80496" lon="2.10675">
        <ele>122</ele>
        <time>2019-06-23T10:46:26Z</time>
      </trkpt>
      <trkpt lat="48.80504" lon="2.10683">
        <ele>121</ele>
        <time>2019-06-23T10:46:31Z</time>
      </trkpt>
      <trkpt lat="48.80512" lon="2.10691">
        <ele>120</ele>
        <time>2019-06-23T10:46:35Z</time>
      </trkpt>
      <trkpt lat="48.80521" lon="2.10694">
        <ele>120</ele>
        <time>2019-06-23T10:46:44Z</time>
      </trkpt>
      <trkpt lat="48.80529" lon="2.10699">
        <ele>120</ele>
        <time>2019-06-23T10:46:49Z</time>
      </trkpt>
      <trkpt lat="48.80539" lon="2.10704">
        <ele>119</ele>
        <time>2019-06-23T10:46:56Z</time>
      </trkpt>
      <trkpt lat="48.80548" lon="2.10708">
        <ele>119</ele>
        <time>2019-06-23T10:47:02Z</time>
      </trkpt>
      <trkpt lat="48.80559" lon="2.10714">
        <ele>119</ele>
        <time>2019-06-23T10:47:11Z</time>
      </trkpt>
      <trkpt lat="48.80568" lon="2.10717">
        <ele>119</ele>
        <time>2019-06-23T10:47:21Z</time>
      </trkpt>
      <trkpt lat="48.80577" lon="2.10725">
        <ele>119</ele>
        <time>2019-06-23T10:47:27Z</time>
      </trkpt>
      <trkpt lat="48.80585" lon="2.10731">
        <ele>117</ele>
        <time>2019-06-23T10:47:34Z</time>
      </trkpt>
      <trkpt lat="48.80596" lon="2.10735">
        <ele>117</ele>
        <time>2019-06-23T10:47:41Z</time>
      </trkpt>
      <trkpt lat="48.80606" lon="2.10739">
        <ele>117</ele>
        <time>2019-06-23T10:47:48Z</time>
      </trkpt>
      <trkpt lat="48.80615" lon="2.10745">
        <ele>117</ele>
        <time>2019-06-23T10:47:53Z</time>
      </trkpt>
      <trkpt lat="48.80622" lon="2.10753">
        <ele>118</ele>
        <time>2019-06-23T10:48:01Z</time>
      </trkpt>
      <trkpt lat="48.8063" lon="2.10762">
        <ele>118</ele>
        <time>2019-06-23T10:48:12Z</time>
      </trkpt>
      <trkpt lat="48.80637" lon="2.10771">
        <ele>118</ele>
        <time>2019-06-23T10:48:22Z</time>
      </trkpt>
      <trkpt lat="48.80646" lon="2.10777">
        <ele>118</ele>
        <time>2019-06-23T10:48:34Z</time>
      </trkpt>
      <trkpt lat="48.80655" lon="2.10777">
        <ele>117</ele>
        <time>2019-06-23T10:48:41Z</time>
      </trkpt>
      <trkpt lat="48.80664" lon="2.10772">
        <ele>117</ele>
        <time>2019-06-23T10:48:52Z</time>
      </trkpt>
      <trkpt lat="48.80672" lon="2.10781">
        <ele>114</ele>
        <time>2019-06-23T10:48:56Z</time>
      </trkpt>
      <trkpt lat="48.80681" lon="2.10791">
        <ele>114</ele>
        <time>2019-06-23T10:49:01Z</time>
      </trkpt>
      <trkpt lat="48.80693" lon="2.10794">
        <ele>114</ele>
        <time>2019-06-23T10:49:06Z</time>
      </trkpt>
      <trkpt lat="48.80704" lon="2.10796">
        <ele>114</ele>
        <time>2019-06-23T10:49:10Z</time>
      </trkpt>
      <trkpt lat="48.80715" lon="2.10799">
        <ele>113</ele>
        <time>2019-06-23T10:49:14Z</time>
      </trkpt>
      <trkpt lat="48.80725" lon="2.10805">
        <ele>113</ele>
        <time>2019-06-23T10:49:21Z</time>
      </trkpt>
      <trkpt lat="48.80729" lon="2.10818">
        <ele>113</ele>
        <time>2019-06-23T10:49:28Z</time>
      </trkpt>
      <trkpt lat="48.80726" lon="2.10831">
        <ele>113</ele>
        <time>2019-06-23T10:49:37Z</time>
      </trkpt>
      <trkpt lat="48.80724" lon="2.10845">
        <ele>113</ele>
        <time>2019-06-23T10:49:44Z</time>
      </trkpt>
      <trkpt lat="48.80726" lon="2.10859">
        <ele>113</ele>
        <time>2019-06-23T10:49:54Z</time>
      </trkpt>
      <trkpt lat="48.80728" lon="2.10873">
        <ele>113</ele>
        <time>2019-06-23T10:50:02Z</time>
      </trkpt>
      <trkpt lat="48.80731" lon="2.10887">
        <ele>113</ele>
        <time>2019-06-23T10:50:08Z</time>
      </trkpt>
      <trkpt lat="48.80737" lon="2.109">
        <ele>113</ele>
        <time>2019-06-23T10:50:14Z</time>
      </trkpt>
      <trkpt lat="48.80742" lon="2.10912">
        <ele>112</ele>
        <time>2019-06-23T10:50:20Z</time>
      </trkpt>
      <trkpt lat="48.80749" lon="2.10923">
        <ele>112</ele>
        <time>2019-06-23T10:50:26Z</time>
      </trkpt>
      <trkpt lat="48.80755" lon="2.10934">
        <ele>111</ele>
        <time>2019-06-23T10:50:33Z</time>
      </trkpt>
      <trkpt lat="48.80762" lon="2.10944">
        <ele>112</ele>
        <time>2019-06-23T10:50:39Z</time>
      </trkpt>
      <trkpt lat="48.80769" lon="2.10953">
        <ele>112</ele>
        <time>2019-06-23T10:50:45Z</time>
      </trkpt>
      <trkpt lat="48.80778" lon="2.10961">
        <ele>112</ele>
        <time>2019-06-23T10:50:52Z</time>
      </trkpt>
      <trkpt lat="48.80786" lon="2.10965">
        <ele>112</ele>
        <time>2019-06-23T10:50:59Z</time>
      </trkpt>
      <trkpt lat="48.80796" lon="2.1097">
        <ele>112</ele>
        <time>2019-06-23T10:51:06Z</time>
      </trkpt>
      <trkpt lat="48.80805" lon="2.10971">
        <ele>112</ele>
        <time>2019-06-23T10:51:14Z</time>
      </trkpt>
      <trkpt lat="48.80814" lon="2.10968">
        <ele>112</ele>
        <time>2019-06-23T10:51:21Z</time>
      </trkpt>
      <trkpt lat="48.80824" lon="2.10963">
        <ele>112</ele>
        <time>2019-06-23T10:51:29Z</time>
      </trkpt>
      <trkpt lat="48.80833" lon="2.10956">
        <ele>112</ele>
        <time>2019-06-23T10:51:37Z</time>
      </trkpt>
      <trkpt lat="48.80841" lon="2.10951">
        <ele>112</ele>
        <time>2019-06-23T10:51:43Z</time>
      </trkpt>
      <trkpt lat="48.8085" lon="2.10945">
        <ele>112</ele>
        <time>2019-06-23T10:51:49Z</time>
      </trkpt>
      <trkpt lat="48.80858" lon="2.10937">
        <ele>112</ele>
        <time>2019-06-23T10:51:56Z</time>
      </trkpt>
      <trkpt lat="48.80865" lon="2.10927">
        <ele>112</ele>
        <time>2019-06-23T10:52:05Z</time>
      </trkpt>
      <trkpt lat="48.80869" lon="2.10915">
        <ele>112</ele>
        <time>2019-06-23T10:52:12Z</time>
      </trkpt>
      <trkpt lat="48.80872" lon="2.10901">
        <ele>112</ele>
        <time>2019-06-23T10:52:20Z</time>
      </trkpt>
      <trkpt lat="48.80877" lon="2.10889">
        <ele>112</ele>
        <time>2019-06-23T10:52:29Z</time>
      </trkpt>
      <trkpt lat="48.80883" lon="2.10875">
        <ele>112</ele>
        <time>2019-06-23T10:52:36Z</time>
      </trkpt>
      <trkpt lat="48.80888" lon="2.10862">
        <ele>111</ele>
        <time>2019-06-23T10:52:44Z</time>
      </trkpt>
      <trkpt lat="48.80893" lon="2.10851">
        <ele>111</ele>
        <time>2019-06-23T10:52:54Z</time>
      </trkpt>
      <trkpt lat="48.80894" lon="2.10836">
        <ele>111</ele>
        <time>2019-06-23T10:53:07Z</time>
      </trkpt>
      <trkpt lat="48.80894" lon="2.10819">
        <ele>111</ele>
        <time>2019-06-23T10:53:14Z</time>
      </trkpt>
      <trkpt lat="48.80896" lon="2.10805">
        <ele>111</ele>
        <time>2019-06-23T10:53:18Z</time>
      </trkpt>
      <trkpt lat="48.80897" lon="2.10789">
        <ele>112</ele>
        <time>2019-06-23T10:53:28Z</time>
      </trkpt>
      <trkpt lat="48.80896" lon="2.10775">
        <ele>112</ele>
        <time>2019-06-23T10:53:43Z</time>
      </trkpt>
      <trkpt lat="48.80898" lon="2.1076">
        <ele>112</ele>
        <time>2019-06-23T10:53:56Z</time>
      </trkpt>
      <trkpt lat="48.80905" lon="2.10752">
        <ele>112</ele>
        <time>2019-06-23T10:54:04Z</time>
      </trkpt>
      <trkpt lat="48.8091" lon="2.10739">
        <ele>113</ele>
        <time>2019-06-23T10:54:12Z</time>
      </trkpt>
      <trkpt lat="48.80914" lon="2.10725">
        <ele>113</ele>
        <time>2019-06-23T10:54:28Z</time>
      </trkpt>
      <trkpt lat="48.80918" lon="2.10713">
        <ele>112</ele>
        <time>2019-06-23T10:54:43Z</time>
      </trkpt>
      <trkpt lat="48.80924" lon="2.10699">
        <ele>112</ele>
        <time>2019-06-23T10:54:49Z</time>
      </trkpt>
      <trkpt lat="48.80932" lon="2.10688">
        <ele>112</ele>
        <time>2019-06-23T10:54:56Z</time>
      </trkpt>
      <trkpt lat="48.80941" lon="2.10683">
        <ele>112</ele>
        <time>2019-06-23T10:55:02Z</time>
      </trkpt>
      <trkpt lat="48.80949" lon="2.10674">
        <ele>112</ele>
        <time>2019-06-23T10:55:11Z</time>
      </trkpt>
      <trkpt lat="48.80956" lon="2.10667">
        <ele>112</ele>
        <time>2019-06-23T10:55:17Z</time>
      </trkpt>
      <trkpt lat="48.80965" lon="2.1066">
        <ele>112</ele>
        <time>2019-06-23T10:55:20Z</time>
      </trkpt>
      <trkpt lat="48.80974" lon="2.10657">
        <ele>112</ele>
        <time>2019-06-23T10:55:22Z</time>
      </trkpt>
      <trkpt lat="48.80983" lon="2.10648">
        <ele>112</ele>
        <time>2019-06-23T10:55:26Z</time>
      </trkpt>
      <trkpt lat="48.80991" lon="2.1064">
        <ele>112</ele>
        <time>2019-06-23T10:55:33Z</time>
      </trkpt>
      <trkpt lat="48.80999" lon="2.10635">
        <ele>112</ele>
        <time>2019-06-23T10:55:39Z</time>
      </trkpt>
      <trkpt lat="48.81008" lon="2.10626">
        <ele>111</ele>
        <time>2019-06-23T10:55:46Z</time>
      </trkpt>
      <trkpt lat="48.81015" lon="2.10615">
        <ele>112</ele>
        <time>2019-06-23T10:55:54Z</time>
      </trkpt>
      <trkpt lat="48.81023" lon="2.10605">
        <ele>112</ele>
        <time>2019-06-23T10:56:04Z</time>
      </trkpt>
      <trkpt lat="48.81031" lon="2.10596">
        <ele>112</ele>
        <time>2019-06-23T10:56:13Z</time>
      </trkpt>
      <trkpt lat="48.8104" lon="2.10589">
        <ele>112</ele>
        <time>2019-06-23T10:56:20Z</time>
      </trkpt>
      <trkpt lat="48.81046" lon="2.10576">
        <ele>113</ele>
        <time>2019-06-23T10:56:33Z</time>
      </trkpt>
      <trkpt lat="48.81054" lon="2.10566">
        <ele>113</ele>
        <time>2019-06-23T10:56:41Z</time>
      </trkpt>
      <trkpt lat="48.81062" lon="2.10556">
        <ele>113</ele>
        <time>2019-06-23T10:56:50Z</time>
      </trkpt>
      <trkpt lat="48.8107" lon="2.10547">
        <ele>113</ele>
        <time>2019-06-23T10:56:56Z</time>
      </trkpt>
      <trkpt lat="48.81079" lon="2.10546">
        <ele>113</ele>
        <time>2019-06-23T10:57:00Z</time>
      </trkpt>
      <trkpt lat="48.81086" lon="2.10538">
        <ele>114</ele>
        <time>2019-06-23T10:57:07Z</time>
      </trkpt>
      <trkpt lat="48.81094" lon="2.10529">
        <ele>114</ele>
        <time>2019-06-23T10:57:16Z</time>
      </trkpt>
      <trkpt lat="48.811" lon="2.10514">
        <ele>114</ele>
        <time>2019-06-23T10:57:22Z</time>
      </trkpt>
      <trkpt lat="48.8111" lon="2.10506">
        <ele>114</ele>
        <time>2019-06-23T10:57:31Z</time>
      </trkpt>
      <trkpt lat="48.81117" lon="2.10495">
        <ele>114</ele>
        <time>2019-06-23T10:57:38Z</time>
      </trkpt>
      <trkpt lat="48.81128" lon="2.10493">
        <ele>114</ele>
        <time>2019-06-23T10:57:44Z</time>
      </trkpt>
      <trkpt lat="48.81138" lon="2.10488">
        <ele>114</ele>
        <time>2019-06-23T10:57:50Z</time>
      </trkpt>
      <trkpt lat="48.81146" lon="2.10482">
        <ele>114</ele>
        <time>2019-06-23T10:57:59Z</time>
      </trkpt>
      <trkpt lat="48.81156" lon="2.10477">
        <ele>114</ele>
        <time>2019-06-23T10:58:02Z</time>
      </trkpt>
      <trkpt lat="48.81163" lon="2.10468">
        <ele>114</ele>
        <time>2019-06-23T10:58:09Z</time>
      </trkpt>
      <trkpt lat="48.81172" lon="2.10461">
        <ele>115</ele>
        <time>2019-06-23T10:58:20Z</time>
      </trkpt>
      <trkpt lat="48.8118" lon="2.10453">
        <ele>115</ele>
        <time>2019-06-23T10:58:26Z</time>
      </trkpt>
      <trkpt lat="48.81186" lon="2.10443">
        <ele>115</ele>
        <time>2019-06-23T10:58:35Z</time>
      </trkpt>
      <trkpt lat="48.81194" lon="2.10431">
        <ele>115</ele>
        <time>2019-06-23T10:58:44Z</time>
      </trkpt>
      <trkpt lat="48.812" lon="2.1042">
        <ele>115</ele>
        <time>2019-06-23T10:58:51Z</time>
      </trkpt>
      <trkpt lat="48.81209" lon="2.10415">
        <ele>115</ele>
        <time>2019-06-23T10:59:05Z</time>
      </trkpt>
      <trkpt lat="48.81217" lon="2.10402">
        <ele>116</ele>
        <time>2019-06-23T10:59:15Z</time>
      </trkpt>
      <trkpt lat="48.81222" lon="2.10387">
        <ele>116</ele>
        <time>2019-06-23T10:59:21Z</time>
      </trkpt>
      <trkpt lat="48.8123" lon="2.10379">
        <ele>116</ele>
        <time>2019-06-23T10:59:34Z</time>
      </trkpt>
      <trkpt lat="48.8124" lon="2.10367">
        <ele>116</ele>
        <time>2019-06-23T10:59:42Z</time>
      </trkpt>
      <trkpt lat="48.81248" lon="2.10358">
        <ele>116</ele>
        <time>2019-06-23T10:59:49Z</time>
      </trkpt>
      <trkpt lat="48.81256" lon="2.10348">
        <ele>116</ele>
        <time>2019-06-23T10:59:53Z</time>
      </trkpt>
      <trkpt lat="48.81265" lon="2.10343">
        <ele>116</ele>
        <time>2019-06-23T10:59:57Z</time>
      </trkpt>
      <trkpt lat="48.81274" lon="2.10337">
        <ele>116</ele>
        <time>2019-06-23T11:00:04Z</time>
      </trkpt>
      <trkpt lat="48.81283" lon="2.10335">
        <ele>116</ele>
        <time>2019-06-23T11:00:09Z</time>
      </trkpt>
      <trkpt lat="48.81291" lon="2.10327">
        <ele>115</ele>
        <time>2019-06-23T11:00:16Z</time>
      </trkpt>
      <trkpt lat="48.81297" lon="2.10317">
        <ele>115</ele>
        <time>2019-06-23T11:00:23Z</time>
      </trkpt>
      <trkpt lat="48.81308" lon="2.10318">
        <ele>115</ele>
        <time>2019-06-23T11:00:33Z</time>
      </trkpt>
      <trkpt lat="48.81319" lon="2.1032">
        <ele>115</ele>
        <time>2019-06-23T11:00:43Z</time>
      </trkpt>
      <trkpt lat="48.81331" lon="2.10321">
        <ele>115</ele>
        <time>2019-06-23T11:00:47Z</time>
      </trkpt>
      <trkpt lat="48.81343" lon="2.10323">
        <ele>114</ele>
        <time>2019-06-23T11:00:52Z</time>
      </trkpt>
      <trkpt lat="48.81353" lon="2.10321">
        <ele>114</ele>
        <time>2019-06-23T11:00:56Z</time>
      </trkpt>
      <trkpt lat="48.81363" lon="2.10313">
        <ele>113</ele>
        <time>2019-06-23T11:01:01Z</time>
      </trkpt>
      <trkpt lat="48.81372" lon="2.10309">
        <ele>113</ele>
        <time>2019-06-23T11:01:06Z</time>
      </trkpt>
      <trkpt lat="48.81382" lon="2.10306">
        <ele>113</ele>
        <time>2019-06-23T11:01:12Z</time>
      </trkpt>
      <trkpt lat="48.81391" lon="2.10301">
        <ele>113</ele>
        <time>2019-06-23T11:01:19Z</time>
      </trkpt>
      <trkpt lat="48.81398" lon="2.1029">
        <ele>112</ele>
        <time>2019-06-23T11:01:26Z</time>
      </trkpt>
      <trkpt lat="48.81404" lon="2.10281">
        <ele>112</ele>
        <time>2019-06-23T11:01:33Z</time>
      </trkpt>
      <trkpt lat="48.8141" lon="2.10268">
        <ele>111</ele>
        <time>2019-06-23T11:01:40Z</time>
      </trkpt>
      <trkpt lat="48.81417" lon="2.10257">
        <ele>111</ele>
        <time>2019-06-23T11:01:49Z</time>
      </trkpt>
      <trkpt lat="48.81419" lon="2.10244">
        <ele>110</ele>
        <time>2019-06-23T11:02:06Z</time>
      </trkpt>
      <trkpt lat="48.81418" lon="2.1023">
        <ele>111</ele>
        <time>2019-06-23T11:02:28Z</time>
      </trkpt>
      <trkpt lat="48.81418" lon="2.10216">
        <ele>111</ele>
        <time>2019-06-23T11:02:34Z</time>
      </trkpt>
      <trkpt lat="48.81416" lon="2.10202">
        <ele>111</ele>
        <time>2019-06-23T11:02:42Z</time>
      </trkpt>
      <trkpt lat="48.81416" lon="2.10188">
        <ele>111</ele>
        <time>2019-06-23T11:02:50Z</time>
      </trkpt>
      <trkpt lat="48.81411" lon="2.10176">
        <ele>112</ele>
        <time>2019-06-23T11:03:00Z</time>
      </trkpt>
      <trkpt lat="48.81407" lon="2.10163">
        <ele>112</ele>
        <time>2019-06-23T11:03:13Z</time>
      </trkpt>
      <trkpt lat="48.81406" lon="2.10148">
        <ele>112</ele>
        <time>2019-06-23T11:03:21Z</time>
      </trkpt>
      <trkpt lat="48.8135" lon="2.1011">
        <ele>113</ele>
        <time>2019-06-23T11:04:26Z</time>
      </trkpt>
      <trkpt lat="48.8134" lon="2.10108">
        <ele>113</ele>
        <time>2019-06-23T11:04:41Z</time>
      </trkpt>
      <trkpt lat="48.81331" lon="2.10105">
        <ele>113</ele>
        <time>2019-06-23T11:04:48Z</time>
      </trkpt>
      <trkpt lat="48.81322" lon="2.10103">
        <ele>113</ele>
        <time>2019-06-23T11:04:55Z</time>
      </trkpt>
      <trkpt lat="48.81312" lon="2.101">
        <ele>113</ele>
        <time>2019-06-23T11:05:02Z</time>
      </trkpt>
      <trkpt lat="48.81302" lon="2.10098">
        <ele>113</ele>
        <time>2019-06-23T11:05:09Z</time>
      </trkpt>
      <trkpt lat="48.81294" lon="2.1009">
        <ele>113</ele>
        <time>2019-06-23T11:05:15Z</time>
      </trkpt>
      <trkpt lat="48.81285" lon="2.10082">
        <ele>114</ele>
        <time>2019-06-23T11:05:23Z</time>
      </trkpt>
      <trkpt lat="48.81276" lon="2.10077">
        <ele>114</ele>
        <time>2019-06-23T11:05:30Z</time>
      </trkpt>
      <trkpt lat="48.81268" lon="2.10072">
        <ele>114</ele>
        <time>2019-06-23T11:05:35Z</time>
      </trkpt>
      <trkpt lat="48.81259" lon="2.10065">
        <ele>114</ele>
        <time>2019-06-23T11:05:42Z</time>
      </trkpt>
      <trkpt lat="48.8125" lon="2.10062">
        <ele>114</ele>
        <time>2019-06-23T11:05:48Z</time>
      </trkpt>
      <trkpt lat="48.81241" lon="2.10058">
        <ele>113</ele>
        <time>2019-06-23T11:05:54Z</time>
      </trkpt>
      <trkpt lat="48.81232" lon="2.10053">
        <ele>113</ele>
        <time>2019-06-23T11:05:59Z</time>
      </trkpt>
      <trkpt lat="48.81223" lon="2.10049">
        <ele>113</ele>
        <time>2019-06-23T11:06:06Z</time>
      </trkpt>
      <trkpt lat="48.81215" lon="2.10042">
        <ele>113</ele>
        <time>2019-06-23T11:06:14Z</time>
      </trkpt>
      <trkpt lat="48.81208" lon="2.10032">
        <ele>113</ele>
        <time>2019-06-23T11:06:19Z</time>
      </trkpt>
      <trkpt lat="48.812" lon="2.10024">
        <ele>113</ele>
        <time>2019-06-23T11:06:28Z</time>
      </trkpt>
      <trkpt lat="48.8119" lon="2.10021">
        <ele>113</ele>
        <time>2019-06-23T11:06:34Z</time>
      </trkpt>
      <trkpt lat="48.8118" lon="2.10018">
        <ele>113</ele>
        <time>2019-06-23T11:06:41Z</time>
      </trkpt>
      <trkpt lat="48.81171" lon="2.1001">
        <ele>113</ele>
        <time>2019-06-23T11:06:48Z</time>
      </trkpt>
      <trkpt lat="48.81163" lon="2.10003">
        <ele>113</ele>
        <time>2019-06-23T11:06:55Z</time>
      </trkpt>
      <trkpt lat="48.81153" lon="2.09998">
        <ele>113</ele>
        <time>2019-06-23T11:07:01Z</time>
      </trkpt>
      <trkpt lat="48.81143" lon="2.09992">
        <ele>113</ele>
        <time>2019-06-23T11:07:10Z</time>
      </trkpt>
      <trkpt lat="48.81135" lon="2.09983">
        <ele>113</ele>
        <time>2019-06-23T11:07:17Z</time>
      </trkpt>
      <trkpt lat="48.81129" lon="2.0997">
        <ele>113</ele>
        <time>2019-06-23T11:07:25Z</time>
      </trkpt>
      <trkpt lat="48.81126" lon="2.09956">
        <ele>113</ele>
        <time>2019-06-23T11:07:33Z</time>
      </trkpt>
      <trkpt lat="48.81122" lon="2.09942">
        <ele>113</ele>
        <time>2019-06-23T11:07:38Z</time>
      </trkpt>
      <trkpt lat="48.81116" lon="2.09928">
        <ele>113</ele>
        <time>2019-06-23T11:07:46Z</time>
      </trkpt>
      <trkpt lat="48.81113" lon="2.09913">
        <ele>113</ele>
        <time>2019-06-23T11:07:52Z</time>
      </trkpt>
      <trkpt lat="48.81109" lon="2.09899">
        <ele>113</ele>
        <time>2019-06-23T11:08:01Z</time>
      </trkpt>
      <trkpt lat="48.81106" lon="2.09886">
        <ele>113</ele>
        <time>2019-06-23T11:08:09Z</time>
      </trkpt>
      <trkpt lat="48.81103" lon="2.09872">
        <ele>113</ele>
        <time>2019-06-23T11:08:17Z</time>
      </trkpt>
      <trkpt lat="48.8111" lon="2.09879">
        <ele>113</ele>
        <time>2019-06-23T11:59:17Z</time>
      </trkpt>
      <trkpt lat="48.81116" lon="2.09866">
        <ele>114</ele>
        <time>2019-06-23T11:59:33Z</time>
      </trkpt>
      <trkpt lat="48.81124" lon="2.0986">
        <ele>114</ele>
        <time>2019-06-23T11:59:46Z</time>
      </trkpt>
      <trkpt lat="48.81127" lon="2.09847">
        <ele>114</ele>
        <time>2019-06-23T11:59:52Z</time>
      </trkpt>
      <trkpt lat="48.8113" lon="2.09832">
        <ele>114</ele>
        <time>2019-06-23T11:59:59Z</time>
      </trkpt>
      <trkpt lat="48.81131" lon="2.09818">
        <ele>114</ele>
        <time>2019-06-23T12:00:06Z</time>
      </trkpt>
      <trkpt lat="48.81131" lon="2.09803">
        <ele>114</ele>
        <time>2019-06-23T12:00:16Z</time>
      </trkpt>
      <trkpt lat="48.81136" lon="2.09789">
        <ele>114</ele>
        <time>2019-06-23T12:00:23Z</time>
      </trkpt>
      <trkpt lat="48.81139" lon="2.09776">
        <ele>115</ele>
        <time>2019-06-23T12:00:37Z</time>
      </trkpt>
      <trkpt lat="48.81143" lon="2.09759">
        <ele>115</ele>
        <time>2019-06-23T12:00:47Z</time>
      </trkpt>
      <trkpt lat="48.81146" lon="2.09745">
        <ele>115</ele>
        <time>2019-06-23T12:00:56Z</time>
      </trkpt>
      <trkpt lat="48.8115" lon="2.09732">
        <ele>115</ele>
        <time>2019-06-23T12:01:02Z</time>
      </trkpt>
      <trkpt lat="48.81154" lon="2.09718">
        <ele>115</ele>
        <time>2019-06-23T12:01:08Z</time>
      </trkpt>
      <trkpt lat="48.81155" lon="2.09704">
        <ele>115</ele>
        <time>2019-06-23T12:01:18Z</time>
      </trkpt>
      <trkpt lat="48.81163" lon="2.09693">
        <ele>115</ele>
        <time>2019-06-23T12:01:27Z</time>
      </trkpt>
      <trkpt lat="48.81166" lon="2.0968">
        <ele>115</ele>
        <time>2019-06-23T12:01:33Z</time>
      </trkpt>
      <trkpt lat="48.81169" lon="2.09664">
        <ele>116</ele>
        <time>2019-06-23T12:01:39Z</time>
      </trkpt>
      <trkpt lat="48.81175" lon="2.09652">
        <ele>116</ele>
        <time>2019-06-23T12:01:45Z</time>
      </trkpt>
      <trkpt lat="48.81179" lon="2.09638">
        <ele>116</ele>
        <time>2019-06-23T12:01:53Z</time>
      </trkpt>
      <trkpt lat="48.81185" lon="2.09625">
        <ele>117</ele>
        <time>2019-06-23T12:01:59Z</time>
      </trkpt>
      <trkpt lat="48.81191" lon="2.09613">
        <ele>117</ele>
        <time>2019-06-23T12:02:07Z</time>
      </trkpt>
      <trkpt lat="48.81195" lon="2.09601">
        <ele>117</ele>
        <time>2019-06-23T12:02:19Z</time>
      </trkpt>
      <trkpt lat="48.81196" lon="2.09586">
        <ele>117</ele>
        <time>2019-06-23T12:02:26Z</time>
      </trkpt>
      <trkpt lat="48.81201" lon="2.09572">
        <ele>116</ele>
        <time>2019-06-23T12:02:34Z</time>
      </trkpt>
      <trkpt lat="48.81207" lon="2.09559">
        <ele>116</ele>
        <time>2019-06-23T12:02:44Z</time>
      </trkpt>
      <trkpt lat="48.81211" lon="2.09543">
        <ele>115</ele>
        <time>2019-06-23T12:02:52Z</time>
      </trkpt>
      <trkpt lat="48.81214" lon="2.09528">
        <ele>115</ele>
        <time>2019-06-23T12:02:58Z</time>
      </trkpt>
      <trkpt lat="48.81214" lon="2.09511">
        <ele>115</ele>
        <time>2019-06-23T12:03:08Z</time>
      </trkpt>
      <trkpt lat="48.81219" lon="2.09497">
        <ele>114</ele>
        <time>2019-06-23T12:03:13Z</time>
      </trkpt>
      <trkpt lat="48.81219" lon="2.09483">
        <ele>114</ele>
        <time>2019-06-23T12:03:19Z</time>
      </trkpt>
      <trkpt lat="48.81222" lon="2.09466">
        <ele>114</ele>
        <time>2019-06-23T12:03:26Z</time>
      </trkpt>
      <trkpt lat="48.81225" lon="2.09452">
        <ele>114</ele>
        <time>2019-06-23T12:03:30Z</time>
      </trkpt>
      <trkpt lat="48.81229" lon="2.09439">
        <ele>115</ele>
        <time>2019-06-23T12:03:40Z</time>
      </trkpt>
      <trkpt lat="48.81233" lon="2.09423">
        <ele>115</ele>
        <time>2019-06-23T12:03:47Z</time>
      </trkpt>
      <trkpt lat="48.81236" lon="2.09409">
        <ele>115</ele>
        <time>2019-06-23T12:03:56Z</time>
      </trkpt>
      <trkpt lat="48.81242" lon="2.09398">
        <ele>115</ele>
        <time>2019-06-23T12:04:03Z</time>
      </trkpt>
      <trkpt lat="48.81243" lon="2.09384">
        <ele>114</ele>
        <time>2019-06-23T12:04:09Z</time>
      </trkpt>
      <trkpt lat="48.8125" lon="2.09372">
        <ele>114</ele>
        <time>2019-06-23T12:04:20Z</time>
      </trkpt>
      <trkpt lat="48.81255" lon="2.09361">
        <ele>116</ele>
        <time>2019-06-23T12:04:25Z</time>
      </trkpt>
      <trkpt lat="48.81257" lon="2.09348">
        <ele>116</ele>
        <time>2019-06-23T12:04:34Z</time>
      </trkpt>
      <trkpt lat="48.81265" lon="2.09343">
        <ele>116</ele>
        <time>2019-06-23T12:04:43Z</time>
      </trkpt>
      <trkpt lat="48.81272" lon="2.09332">
        <ele>115</ele>
        <time>2019-06-23T12:04:48Z</time>
      </trkpt>
      <trkpt lat="48.81281" lon="2.09332">
        <ele>115</ele>
        <time>2019-06-23T12:04:55Z</time>
      </trkpt>
      <trkpt lat="48.81288" lon="2.09321">
        <ele>115</ele>
        <time>2019-06-23T12:05:02Z</time>
      </trkpt>
      <trkpt lat="48.81293" lon="2.0931">
        <ele>115</ele>
        <time>2019-06-23T12:05:09Z</time>
      </trkpt>
      <trkpt lat="48.81298" lon="2.09299">
        <ele>115</ele>
        <time>2019-06-23T12:05:17Z</time>
      </trkpt>
      <trkpt lat="48.81306" lon="2.0929">
        <ele>115</ele>
        <time>2019-06-23T12:05:24Z</time>
      </trkpt>
      <trkpt lat="48.81303" lon="2.09276">
        <ele>115</ele>
        <time>2019-06-23T12:05:32Z</time>
      </trkpt>
      <trkpt lat="48.81303" lon="2.0926">
        <ele>115</ele>
        <time>2019-06-23T12:05:41Z</time>
      </trkpt>
      <trkpt lat="48.81306" lon="2.09245">
        <ele>113</ele>
        <time>2019-06-23T12:05:49Z</time>
      </trkpt>
      <trkpt lat="48.81312" lon="2.09231">
        <ele>113</ele>
        <time>2019-06-23T12:05:54Z</time>
      </trkpt>
      <trkpt lat="48.81318" lon="2.09218">
        <ele>113</ele>
        <time>2019-06-23T12:06:03Z</time>
      </trkpt>
      <trkpt lat="48.81322" lon="2.09204">
        <ele>112</ele>
        <time>2019-06-23T12:06:10Z</time>
      </trkpt>
      <trkpt lat="48.81326" lon="2.09191">
        <ele>112</ele>
        <time>2019-06-23T12:06:16Z</time>
      </trkpt>
      <trkpt lat="48.81329" lon="2.09177">
        <ele>112</ele>
        <time>2019-06-23T12:06:26Z</time>
      </trkpt>
      <trkpt lat="48.81333" lon="2.09164">
        <ele>111</ele>
        <time>2019-06-23T12:06:35Z</time>
      </trkpt>
      <trkpt lat="48.81337" lon="2.0915">
        <ele>113</ele>
        <time>2019-06-23T12:06:42Z</time>
      </trkpt>
      <trkpt lat="48.81341" lon="2.09138">
        <ele>114</ele>
        <time>2019-06-23T12:06:49Z</time>
      </trkpt>
      <trkpt lat="48.81346" lon="2.09125">
        <ele>114</ele>
        <time>2019-06-23T12:06:57Z</time>
      </trkpt>
      <trkpt lat="48.8135" lon="2.09112">
        <ele>114</ele>
        <time>2019-06-23T12:07:03Z</time>
      </trkpt>
      <trkpt lat="48.81354" lon="2.09098">
        <ele>114</ele>
        <time>2019-06-23T12:07:10Z</time>
      </trkpt>
      <trkpt lat="48.81358" lon="2.09085">
        <ele>114</ele>
        <time>2019-06-23T12:07:19Z</time>
      </trkpt>
      <trkpt lat="48.8136" lon="2.09071">
        <ele>114</ele>
        <time>2019-06-23T12:07:25Z</time>
      </trkpt>
      <trkpt lat="48.81363" lon="2.09058">
        <ele>114</ele>
        <time>2019-06-23T12:07:31Z</time>
      </trkpt>
      <trkpt lat="48.81368" lon="2.09044">
        <ele>115</ele>
        <time>2019-06-23T12:07:38Z</time>
      </trkpt>
      <trkpt lat="48.81366" lon="2.09029">
        <ele>114</ele>
        <time>2019-06-23T12:07:47Z</time>
      </trkpt>
      <trkpt lat="48.81366" lon="2.09014">
        <ele>114</ele>
        <time>2019-06-23T12:07:57Z</time>
      </trkpt>
      <trkpt lat="48.81371" lon="2.09002">
        <ele>115</ele>
        <time>2019-06-23T12:08:03Z</time>
      </trkpt>
      <trkpt lat="48.81377" lon="2.08989">
        <ele>114</ele>
        <time>2019-06-23T12:08:09Z</time>
      </trkpt>
      <trkpt lat="48.81382" lon="2.08978">
        <ele>115</ele>
        <time>2019-06-23T12:08:15Z</time>
      </trkpt>
      <trkpt lat="48.81386" lon="2.08964">
        <ele>115</ele>
        <time>2019-06-23T12:08:23Z</time>
      </trkpt>
      <trkpt lat="48.81379" lon="2.08954">
        <ele>114</ele>
        <time>2019-06-23T12:08:37Z</time>
      </trkpt>
      <trkpt lat="48.81377" lon="2.0894">
        <ele>114</ele>
        <time>2019-06-23T12:08:56Z</time>
      </trkpt>
      <trkpt lat="48.81378" lon="2.08926">
        <ele>114</ele>
        <time>2019-06-23T12:09:03Z</time>
      </trkpt>
      <trkpt lat="48.81378" lon="2.08911">
        <ele>114</ele>
        <time>2019-06-23T12:09:11Z</time>
      </trkpt>
      <trkpt lat="48.81381" lon="2.08897">
        <ele>114</ele>
        <time>2019-06-23T12:09:19Z</time>
      </trkpt>
      <trkpt lat="48.81382" lon="2.08883">
        <ele>114</ele>
        <time>2019-06-23T12:09:27Z</time>
      </trkpt>
      <trkpt lat="48.81383" lon="2.08868">
        <ele>114</ele>
        <time>2019-06-23T12:09:35Z</time>
      </trkpt>
      <trkpt lat="48.81386" lon="2.08853">
        <ele>114</ele>
        <time>2019-06-23T12:09:43Z</time>
      </trkpt>
      <trkpt lat="48.81388" lon="2.08839">
        <ele>114</ele>
        <time>2019-06-23T12:09:51Z</time>
      </trkpt>
      <trkpt lat="48.81389" lon="2.08824">
        <ele>114</ele>
        <time>2019-06-23T12:09:59Z</time>
      </trkpt>
      <trkpt lat="48.81392" lon="2.08809">
        <ele>114</ele>
        <time>2019-06-23T12:10:09Z</time>
      </trkpt>
      <trkpt lat="48.81396" lon="2.08796">
        <ele>114</ele>
        <time>2019-06-23T12:10:17Z</time>
      </trkpt>
      <trkpt lat="48.81401" lon="2.08783">
        <ele>114</ele>
        <time>2019-06-23T12:10:26Z</time>
      </trkpt>
      <trkpt lat="48.81405" lon="2.0877">
        <ele>114</ele>
        <time>2019-06-23T12:10:33Z</time>
      </trkpt>
      <trkpt lat="48.81409" lon="2.08758">
        <ele>114</ele>
        <time>2019-06-23T12:10:40Z</time>
      </trkpt>
      <trkpt lat="48.81415" lon="2.08745">
        <ele>115</ele>
        <time>2019-06-23T12:10:47Z</time>
      </trkpt>
      <trkpt lat="48.81417" lon="2.08731">
        <ele>116</ele>
        <time>2019-06-23T12:10:55Z</time>
      </trkpt>
      <trkpt lat="48.81418" lon="2.08716">
        <ele>116</ele>
        <time>2019-06-23T12:11:04Z</time>
      </trkpt>
      <trkpt lat="48.81423" lon="2.08703">
        <ele>116</ele>
        <time>2019-06-23T12:11:11Z</time>
      </trkpt>
      <trkpt lat="48.81428" lon="2.0869">
        <ele>116</ele>
        <time>2019-06-23T12:11:19Z</time>
      </trkpt>
      <trkpt lat="48.81432" lon="2.08675">
        <ele>116</ele>
        <time>2019-06-23T12:11:26Z</time>
      </trkpt>
      <trkpt lat="48.81437" lon="2.08662">
        <ele>116</ele>
        <time>2019-06-23T12:11:32Z</time>
      </trkpt>
      <trkpt lat="48.81443" lon="2.0865">
        <ele>116</ele>
        <time>2019-06-23T12:11:40Z</time>
      </trkpt>
      <trkpt lat="48.81446" lon="2.08637">
        <ele>116</ele>
        <time>2019-06-23T12:11:47Z</time>
      </trkpt>
      <trkpt lat="48.81449" lon="2.08622">
        <ele>116</ele>
        <time>2019-06-23T12:11:53Z</time>
      </trkpt>
      <trkpt lat="48.81452" lon="2.08608">
        <ele>115</ele>
        <time>2019-06-23T12:12:01Z</time>
      </trkpt>
      <trkpt lat="48.81456" lon="2.08596">
        <ele>115</ele>
        <time>2019-06-23T12:12:08Z</time>
      </trkpt>
      <trkpt lat="48.81459" lon="2.08581">
        <ele>114</ele>
        <time>2019-06-23T12:12:16Z</time>
      </trkpt>
      <trkpt lat="48.81463" lon="2.08567">
        <ele>114</ele>
        <time>2019-06-23T12:12:23Z</time>
      </trkpt>
      <trkpt lat="48.81468" lon="2.08554">
        <ele>114</ele>
        <time>2019-06-23T12:12:33Z</time>
      </trkpt>
      <trkpt lat="48.81474" lon="2.08543">
        <ele>114</ele>
        <time>2019-06-23T12:12:43Z</time>
      </trkpt>
      <trkpt lat="48.81477" lon="2.0853">
        <ele>113</ele>
        <time>2019-06-23T12:12:57Z</time>
      </trkpt>
      <trkpt lat="48.81485" lon="2.08523">
        <ele>113</ele>
        <time>2019-06-23T12:13:05Z</time>
      </trkpt>
      <trkpt lat="48.81493" lon="2.08516">
        <ele>113</ele>
        <time>2019-06-23T12:13:11Z</time>
      </trkpt>
      <trkpt lat="48.81501" lon="2.08508">
        <ele>113</ele>
        <time>2019-06-23T12:13:16Z</time>
      </trkpt>
      <trkpt lat="48.81508" lon="2.08494">
        <ele>113</ele>
        <time>2019-06-23T12:13:21Z</time>
      </trkpt>
      <trkpt lat="48.81515" lon="2.08483">
        <ele>114</ele>
        <time>2019-06-23T12:13:27Z</time>
      </trkpt>
      <trkpt lat="48.81522" lon="2.08473">
        <ele>115</ele>
        <time>2019-06-23T12:13:32Z</time>
      </trkpt>
      <trkpt lat="48.81528" lon="2.08459">
        <ele>115</ele>
        <time>2019-06-23T12:13:38Z</time>
      </trkpt>
      <trkpt lat="48.81534" lon="2.08444">
        <ele>116</ele>
        <time>2019-06-23T12:13:45Z</time>
      </trkpt>
      <trkpt lat="48.81537" lon="2.0843">
        <ele>116</ele>
        <time>2019-06-23T12:13:52Z</time>
      </trkpt>
      <trkpt lat="48.8154" lon="2.08415">
        <ele>116</ele>
        <time>2019-06-23T12:13:59Z</time>
      </trkpt>
      <trkpt lat="48.81538" lon="2.08401">
        <ele>116</ele>
        <time>2019-06-23T12:14:06Z</time>
      </trkpt>
      <trkpt lat="48.81537" lon="2.08386">
        <ele>116</ele>
        <time>2019-06-23T12:14:14Z</time>
      </trkpt>
      <trkpt lat="48.81536" lon="2.0837">
        <ele>116</ele>
        <time>2019-06-23T12:14:21Z</time>
      </trkpt>
      <trkpt lat="48.81535" lon="2.08356">
        <ele>116</ele>
        <time>2019-06-23T12:14:29Z</time>
      </trkpt>
      <trkpt lat="48.81532" lon="2.08342">
        <ele>116</ele>
        <time>2019-06-23T12:14:36Z</time>
      </trkpt>
      <trkpt lat="48.81528" lon="2.08329">
        <ele>117</ele>
        <time>2019-06-23T12:14:44Z</time>
      </trkpt>
      <trkpt lat="48.81522" lon="2.08317">
        <ele>116</ele>
        <time>2019-06-23T12:14:53Z</time>
      </trkpt>
      <trkpt lat="48.81518" lon="2.08303">
        <ele>117</ele>
        <time>2019-06-23T12:15:00Z</time>
      </trkpt>
      <trkpt lat="48.81512" lon="2.08292">
        <ele>117</ele>
        <time>2019-06-23T12:15:09Z</time>
      </trkpt>
      <trkpt lat="48.81506" lon="2.0828">
        <ele>117</ele>
        <time>2019-06-23T12:15:17Z</time>
      </trkpt>
      <trkpt lat="48.815" lon="2.0827">
        <ele>116</ele>
        <time>2019-06-23T12:15:26Z</time>
      </trkpt>
      <trkpt lat="48.81492" lon="2.08263">
        <ele>116</ele>
        <time>2019-06-23T12:15:36Z</time>
      </trkpt>
      <trkpt lat="48.81483" lon="2.08258">
        <ele>116</ele>
        <time>2019-06-23T12:15:44Z</time>
      </trkpt>
      <trkpt lat="48.81474" lon="2.08254">
        <ele>116</ele>
        <time>2019-06-23T12:15:52Z</time>
      </trkpt>
      <trkpt lat="48.81465" lon="2.08252">
        <ele>116</ele>
        <time>2019-06-23T12:15:59Z</time>
      </trkpt>
      <trkpt lat="48.81455" lon="2.08249">
        <ele>118</ele>
        <time>2019-06-23T12:16:06Z</time>
      </trkpt>
      <trkpt lat="48.81445" lon="2.08245">
        <ele>118</ele>
        <time>2019-06-23T12:16:13Z</time>
      </trkpt>
      <trkpt lat="48.81436" lon="2.08246">
        <ele>118</ele>
        <time>2019-06-23T12:16:20Z</time>
      </trkpt>
      <trkpt lat="48.81427" lon="2.08251">
        <ele>117</ele>
        <time>2019-06-23T12:16:29Z</time>
      </trkpt>
      <trkpt lat="48.81416" lon="2.08254">
        <ele>118</ele>
        <time>2019-06-23T12:16:38Z</time>
      </trkpt>
      <trkpt lat="48.81407" lon="2.08257">
        <ele>119</ele>
        <time>2019-06-23T12:16:45Z</time>
      </trkpt>
      <trkpt lat="48.81398" lon="2.08262">
        <ele>119</ele>
        <time>2019-06-23T12:16:54Z</time>
      </trkpt>
      <trkpt lat="48.81389" lon="2.08271">
        <ele>119</ele>
        <time>2019-06-23T12:17:00Z</time>
      </trkpt>
      <trkpt lat="48.81383" lon="2.08282">
        <ele>119</ele>
        <time>2019-06-23T12:17:05Z</time>
      </trkpt>
      <trkpt lat="48.81377" lon="2.08293">
        <ele>119</ele>
        <time>2019-06-23T12:17:10Z</time>
      </trkpt>
      <trkpt lat="48.81372" lon="2.08305">
        <ele>119</ele>
        <time>2019-06-23T12:17:17Z</time>
      </trkpt>
      <trkpt lat="48.81368" lon="2.08319">
        <ele>119</ele>
        <time>2019-06-23T12:17:23Z</time>
      </trkpt>
      <trkpt lat="48.81362" lon="2.0833">
        <ele>120</ele>
        <time>2019-06-23T12:17:30Z</time>
      </trkpt>
      <trkpt lat="48.81358" lon="2.08343">
        <ele>119</ele>
        <time>2019-06-23T12:17:37Z</time>
      </trkpt>
      <trkpt lat="48.81356" lon="2.08359">
        <ele>118</ele>
        <time>2019-06-23T12:17:45Z</time>
      </trkpt>
      <trkpt lat="48.81354" lon="2.08374">
        <ele>118</ele>
        <time>2019-06-23T12:17:52Z</time>
      </trkpt>
      <trkpt lat="48.81352" lon="2.0839">
        <ele>118</ele>
        <time>2019-06-23T12:17:59Z</time>
      </trkpt>
      <trkpt lat="48.81348" lon="2.08403">
        <ele>118</ele>
        <time>2019-06-23T12:18:07Z</time>
      </trkpt>
      <trkpt lat="48.81345" lon="2.08416">
        <ele>118</ele>
        <time>2019-06-23T12:18:15Z</time>
      </trkpt>
      <trkpt lat="48.81343" lon="2.08432">
        <ele>118</ele>
        <time>2019-06-23T12:18:22Z</time>
      </trkpt>
      <trkpt lat="48.81346" lon="2.08446">
        <ele>117</ele>
        <time>2019-06-23T12:18:32Z</time>
      </trkpt>
      <trkpt lat="48.81352" lon="2.08459">
        <ele>117</ele>
        <time>2019-06-23T12:18:38Z</time>
      </trkpt>
      <trkpt lat="48.81354" lon="2.08473">
        <ele>117</ele>
        <time>2019-06-23T12:18:44Z</time>
      </trkpt>
      <trkpt lat="48.81349" lon="2.08487">
        <ele>117</ele>
        <time>2019-06-23T12:18:50Z</time>
      </trkpt>
      <trkpt lat="48.81342" lon="2.08498">
        <ele>117</ele>
        <time>2019-06-23T12:18:58Z</time>
      </trkpt>
      <trkpt lat="48.81333" lon="2.08507">
        <ele>118</ele>
        <time>2019-06-23T12:19:05Z</time>
      </trkpt>
      <trkpt lat="48.81325" lon="2.08514">
        <ele>119</ele>
        <time>2019-06-23T12:19:10Z</time>
      </trkpt>
      <trkpt lat="48.81318" lon="2.08525">
        <ele>119</ele>
        <time>2019-06-23T12:19:16Z</time>
      </trkpt>
      <trkpt lat="48.81312" lon="2.08537">
        <ele>119</ele>
        <time>2019-06-23T12:19:23Z</time>
      </trkpt>
      <trkpt lat="48.81305" lon="2.08547">
        <ele>119</ele>
        <time>2019-06-23T12:19:31Z</time>
      </trkpt>
      <trkpt lat="48.81297" lon="2.08555">
        <ele>120</ele>
        <time>2019-06-23T12:19:41Z</time>
      </trkpt>
      <trkpt lat="48.8129" lon="2.08563">
        <ele>120</ele>
        <time>2019-06-23T12:19:46Z</time>
      </trkpt>
      <trkpt lat="48.81279" lon="2.08569">
        <ele>121</ele>
        <time>2019-06-23T12:19:53Z</time>
      </trkpt>
      <trkpt lat="48.81271" lon="2.08578">
        <ele>121</ele>
        <time>2019-06-23T12:20:01Z</time>
      </trkpt>
      <trkpt lat="48.81262" lon="2.08586">
        <ele>122</ele>
        <time>2019-06-23T12:20:09Z</time>
      </trkpt>
      <trkpt lat="48.81257" lon="2.08598">
        <ele>122</ele>
        <time>2019-06-23T12:20:15Z</time>
      </trkpt>
      <trkpt lat="48.8125" lon="2.08608">
        <ele>124</ele>
        <time>2019-06-23T12:20:25Z</time>
      </trkpt>
      <trkpt lat="48.81243" lon="2.08619">
        <ele>125</ele>
        <time>2019-06-23T12:20:32Z</time>
      </trkpt>
      <trkpt lat="48.81236" lon="2.08629">
        <ele>125</ele>
        <time>2019-06-23T12:20:38Z</time>
      </trkpt>
      <trkpt lat="48.81227" lon="2.08635">
        <ele>125</ele>
        <time>2019-06-23T12:20:45Z</time>
      </trkpt>
      <trkpt lat="48.81218" lon="2.08641">
        <ele>125</ele>
        <time>2019-06-23T12:20:51Z</time>
      </trkpt>
      <trkpt lat="48.81208" lon="2.08647">
        <ele>125</ele>
        <time>2019-06-23T12:20:59Z</time>
      </trkpt>
      <trkpt lat="48.81199" lon="2.08654">
        <ele>125</ele>
        <time>2019-06-23T12:21:05Z</time>
      </trkpt>
      <trkpt lat="48.81195" lon="2.08668">
        <ele>124</ele>
        <time>2019-06-23T12:21:11Z</time>
      </trkpt>
      <trkpt lat="48.81188" lon="2.08675">
        <ele>124</ele>
        <time>2019-06-23T12:21:20Z</time>
      </trkpt>
      <trkpt lat="48.81181" lon="2.08686">
        <ele>124</ele>
        <time>2019-06-23T12:21:30Z</time>
      </trkpt>
      <trkpt lat="48.81172" lon="2.08689">
        <ele>124</ele>
        <time>2019-06-23T12:21:36Z</time>
      </trkpt>
      <trkpt lat="48.81165" lon="2.08699">
        <ele>125</ele>
        <time>2019-06-23T12:21:41Z</time>
      </trkpt>
      <trkpt lat="48.81157" lon="2.08706">
        <ele>125</ele>
        <time>2019-06-23T12:21:49Z</time>
      </trkpt>
      <trkpt lat="48.81148" lon="2.08716">
        <ele>125</ele>
        <time>2019-06-23T12:21:57Z</time>
      </trkpt>
      <trkpt lat="48.8114" lon="2.08724">
        <ele>125</ele>
        <time>2019-06-23T12:22:06Z</time>
      </trkpt>
      <trkpt lat="48.8113" lon="2.08729">
        <ele>125</ele>
        <time>2019-06-23T12:22:13Z</time>
      </trkpt>
      <trkpt lat="48.81122" lon="2.08737">
        <ele>125</ele>
        <time>2019-06-23T12:22:21Z</time>
      </trkpt>
      <trkpt lat="48.81111" lon="2.0874">
        <ele>125</ele>
        <time>2019-06-23T12:22:29Z</time>
      </trkpt>
      <trkpt lat="48.81103" lon="2.08748">
        <ele>125</ele>
        <time>2019-06-23T12:22:34Z</time>
      </trkpt>
      <trkpt lat="48.81095" lon="2.08755">
        <ele>124</ele>
        <time>2019-06-23T12:22:44Z</time>
      </trkpt>
      <trkpt lat="48.81086" lon="2.08763">
        <ele>124</ele>
        <time>2019-06-23T12:22:50Z</time>
      </trkpt>
      <trkpt lat="48.8108" lon="2.08775">
        <ele>124</ele>
        <time>2019-06-23T12:22:59Z</time>
      </trkpt>
      <trkpt lat="48.81072" lon="2.08783">
        <ele>124</ele>
        <time>2019-06-23T12:23:07Z</time>
      </trkpt>
      <trkpt lat="48.81063" lon="2.08793">
        <ele>123</ele>
        <time>2019-06-23T12:23:16Z</time>
      </trkpt>
      <trkpt lat="48.81055" lon="2.08804">
        <ele>123</ele>
        <time>2019-06-23T12:23:21Z</time>
      </trkpt>
      <trkpt lat="48.81048" lon="2.08814">
        <ele>123</ele>
        <time>2019-06-23T12:23:27Z</time>
      </trkpt>
      <trkpt lat="48.81041" lon="2.08822">
        <ele>123</ele>
        <time>2019-06-23T12:23:33Z</time>
      </trkpt>
      <trkpt lat="48.81034" lon="2.08832">
        <ele>123</ele>
        <time>2019-06-23T12:23:41Z</time>
      </trkpt>
      <trkpt lat="48.81025" lon="2.08837">
        <ele>123</ele>
        <time>2019-06-23T12:23:47Z</time>
      </trkpt>
      <trkpt lat="48.81015" lon="2.08842">
        <ele>122</ele>
        <time>2019-06-23T12:23:54Z</time>
      </trkpt>
      <trkpt lat="48.81006" lon="2.08841">
        <ele>122</ele>
        <time>2019-06-23T12:23:58Z</time>
      </trkpt>
      <trkpt lat="48.80995" lon="2.08836">
        <ele>122</ele>
        <time>2019-06-23T12:24:04Z</time>
      </trkpt>
      <trkpt lat="48.80986" lon="2.0884">
        <ele>121</ele>
        <time>2019-06-23T12:24:09Z</time>
      </trkpt>
      <trkpt lat="48.80977" lon="2.08846">
        <ele>121</ele>
        <time>2019-06-23T12:24:16Z</time>
      </trkpt>
      <trkpt lat="48.8097" lon="2.08854">
        <ele>120</ele>
        <time>2019-06-23T12:24:22Z</time>
      </trkpt>
      <trkpt lat="48.80961" lon="2.08862">
        <ele>120</ele>
        <time>2019-06-23T12:24:29Z</time>
      </trkpt>
      <trkpt lat="48.80955" lon="2.08871">
        <ele>120</ele>
        <time>2019-06-23T12:24:36Z</time>
      </trkpt>
      <trkpt lat="48.80947" lon="2.08878">
        <ele>120</ele>
        <time>2019-06-23T12:24:42Z</time>
      </trkpt>
      <trkpt lat="48.80939" lon="2.08885">
        <ele>120</ele>
        <time>2019-06-23T12:24:51Z</time>
      </trkpt>
      <trkpt lat="48.80932" lon="2.08894">
        <ele>120</ele>
        <time>2019-06-23T12:25:00Z</time>
      </trkpt>
      <trkpt lat="48.80924" lon="2.08902">
        <ele>119</ele>
        <time>2019-06-23T12:25:10Z</time>
      </trkpt>
      <trkpt lat="48.80915" lon="2.08907">
        <ele>118</ele>
        <time>2019-06-23T12:25:15Z</time>
      </trkpt>
      <trkpt lat="48.80908" lon="2.08917">
        <ele>119</ele>
        <time>2019-06-23T12:25:21Z</time>
      </trkpt>
      <trkpt lat="48.809" lon="2.08924">
        <ele>119</ele>
        <time>2019-06-23T12:25:27Z</time>
      </trkpt>
      <trkpt lat="48.80891" lon="2.08931">
        <ele>118</ele>
        <time>2019-06-23T12:25:36Z</time>
      </trkpt>
      <trkpt lat="48.80882" lon="2.08938">
        <ele>118</ele>
        <time>2019-06-23T12:25:44Z</time>
      </trkpt>
      <trkpt lat="48.80875" lon="2.08948">
        <ele>118</ele>
        <time>2019-06-23T12:25:51Z</time>
      </trkpt>
      <trkpt lat="48.80867" lon="2.08953">
        <ele>118</ele>
        <time>2019-06-23T12:25:58Z</time>
      </trkpt>
      <trkpt lat="48.80857" lon="2.0896">
        <ele>118</ele>
        <time>2019-06-23T12:26:03Z</time>
      </trkpt>
      <trkpt lat="48.80849" lon="2.08968">
        <ele>118</ele>
        <time>2019-06-23T12:26:10Z</time>
      </trkpt>
      <trkpt lat="48.80841" lon="2.08975">
        <ele>118</ele>
        <time>2019-06-23T12:26:17Z</time>
      </trkpt>
      <trkpt lat="48.80833" lon="2.08982">
        <ele>117</ele>
        <time>2019-06-23T12:26:24Z</time>
      </trkpt>
      <trkpt lat="48.80826" lon="2.08994">
        <ele>117</ele>
        <time>2019-06-23T12:26:32Z</time>
      </trkpt>
      <trkpt lat="48.80817" lon="2.09002">
        <ele>117</ele>
        <time>2019-06-23T12:26:39Z</time>
      </trkpt>
      <trkpt lat="48.80809" lon="2.0901">
        <ele>117</ele>
        <time>2019-06-23T12:26:46Z</time>
      </trkpt>
      <trkpt lat="48.80801" lon="2.09015">
        <ele>117</ele>
        <time>2019-06-23T12:26:52Z</time>
      </trkpt>
      <trkpt lat="48.80791" lon="2.09022">
        <ele>116</ele>
        <time>2019-06-23T12:26:58Z</time>
      </trkpt>
      <trkpt lat="48.80783" lon="2.09027">
        <ele>116</ele>
        <time>2019-06-23T12:27:05Z</time>
      </trkpt>
      <trkpt lat="48.80775" lon="2.09036">
        <ele>116</ele>
        <time>2019-06-23T12:27:15Z</time>
      </trkpt>
      <trkpt lat="48.8077" lon="2.09049">
        <ele>116</ele>
        <time>2019-06-23T12:27:23Z</time>
      </trkpt>
      <trkpt lat="48.80762" lon="2.0906">
        <ele>117</ele>
        <time>2019-06-23T12:27:30Z</time>
      </trkpt>
      <trkpt lat="48.80756" lon="2.09071">
        <ele>117</ele>
        <time>2019-06-23T12:27:39Z</time>
      </trkpt>
      <trkpt lat="48.80749" lon="2.09081">
        <ele>117</ele>
        <time>2019-06-23T12:27:45Z</time>
      </trkpt>
      <trkpt lat="48.80741" lon="2.09087">
        <ele>117</ele>
        <time>2019-06-23T12:27:52Z</time>
      </trkpt>
      <trkpt lat="48.80731" lon="2.09096">
        <ele>117</ele>
        <time>2019-06-23T12:27:59Z</time>
      </trkpt>
      <trkpt lat="48.80722" lon="2.09098">
        <ele>117</ele>
        <time>2019-06-23T12:28:03Z</time>
      </trkpt>
      <trkpt lat="48.80713" lon="2.09106">
        <ele>117</ele>
        <time>2019-06-23T12:28:18Z</time>
      </trkpt>
      <trkpt lat="48.80704" lon="2.09113">
        <ele>117</ele>
        <time>2019-06-23T12:28:25Z</time>
      </trkpt>
      <trkpt lat="48.80694" lon="2.0912">
        <ele>117</ele>
        <time>2019-06-23T12:28:31Z</time>
      </trkpt>
      <trkpt lat="48.80685" lon="2.09125">
        <ele>117</ele>
        <time>2019-06-23T12:28:38Z</time>
      </trkpt>
      <trkpt lat="48.80678" lon="2.09133">
        <ele>116</ele>
        <time>2019-06-23T12:28:44Z</time>
      </trkpt>
      <trkpt lat="48.8067" lon="2.09142">
        <ele>116</ele>
        <time>2019-06-23T12:28:52Z</time>
      </trkpt>
      <trkpt lat="48.80662" lon="2.09147">
        <ele>117</ele>
        <time>2019-06-23T12:29:06Z</time>
      </trkpt>
      <trkpt lat="48.80653" lon="2.09154">
        <ele>117</ele>
        <time>2019-06-23T12:29:18Z</time>
      </trkpt>
      <trkpt lat="48.80644" lon="2.09164">
        <ele>118</ele>
        <time>2019-06-23T12:29:21Z</time>
      </trkpt>
      <trkpt lat="48.80637" lon="2.09173">
        <ele>117</ele>
        <time>2019-06-23T12:29:26Z</time>
      </trkpt>
      <trkpt lat="48.80631" lon="2.09185">
        <ele>117</ele>
        <time>2019-06-23T12:29:32Z</time>
      </trkpt>
      <trkpt lat="48.80625" lon="2.09196">
        <ele>117</ele>
        <time>2019-06-23T12:29:37Z</time>
      </trkpt>
      <trkpt lat="48.80619" lon="2.09209">
        <ele>117</ele>
        <time>2019-06-23T12:29:42Z</time>
      </trkpt>
      <trkpt lat="48.80609" lon="2.09215">
        <ele>117</ele>
        <time>2019-06-23T12:29:49Z</time>
      </trkpt>
      <trkpt lat="48.80601" lon="2.09224">
        <ele>117</ele>
        <time>2019-06-23T12:29:54Z</time>
      </trkpt>
      <trkpt lat="48.80592" lon="2.09229">
        <ele>117</ele>
        <time>2019-06-23T12:29:59Z</time>
      </trkpt>
      <trkpt lat="48.80581" lon="2.09234">
        <ele>119</ele>
        <time>2019-06-23T12:30:07Z</time>
      </trkpt>
      <trkpt lat="48.80572" lon="2.09238">
        <ele>119</ele>
        <time>2019-06-23T12:30:14Z</time>
      </trkpt>
      <trkpt lat="48.80563" lon="2.09242">
        <ele>119</ele>
        <time>2019-06-23T12:30:22Z</time>
      </trkpt>
      <trkpt lat="48.80555" lon="2.0925">
        <ele>118</ele>
        <time>2019-06-23T12:30:29Z</time>
      </trkpt>
      <trkpt lat="48.80546" lon="2.09254">
        <ele>118</ele>
        <time>2019-06-23T12:30:34Z</time>
      </trkpt>
      <trkpt lat="48.80537" lon="2.0926">
        <ele>119</ele>
        <time>2019-06-23T12:30:40Z</time>
      </trkpt>
      <trkpt lat="48.80529" lon="2.09266">
        <ele>119</ele>
        <time>2019-06-23T12:30:47Z</time>
      </trkpt>
      <trkpt lat="48.80524" lon="2.09279">
        <ele>118</ele>
        <time>2019-06-23T12:30:54Z</time>
      </trkpt>
      <trkpt lat="48.80522" lon="2.09293">
        <ele>118</ele>
        <time>2019-06-23T12:31:03Z</time>
      </trkpt>
      <trkpt lat="48.80519" lon="2.09306">
        <ele>117</ele>
        <time>2019-06-23T12:31:10Z</time>
      </trkpt>
      <trkpt lat="48.80515" lon="2.09321">
        <ele>116</ele>
        <time>2019-06-23T12:31:17Z</time>
      </trkpt>
      <trkpt lat="48.80513" lon="2.09336">
        <ele>113</ele>
        <time>2019-06-23T12:31:24Z</time>
      </trkpt>
      <trkpt lat="48.8051" lon="2.09349">
        <ele>113</ele>
        <time>2019-06-23T12:31:32Z</time>
      </trkpt>
      <trkpt lat="48.80507" lon="2.09362">
        <ele>113</ele>
        <time>2019-06-23T12:31:40Z</time>
      </trkpt>
      <trkpt lat="48.80503" lon="2.09376">
        <ele>112</ele>
        <time>2019-06-23T12:31:48Z</time>
      </trkpt>
      <trkpt lat="48.80501" lon="2.09389">
        <ele>112</ele>
        <time>2019-06-23T12:31:55Z</time>
      </trkpt>
      <trkpt lat="48.80498" lon="2.09403">
        <ele>111</ele>
        <time>2019-06-23T12:32:02Z</time>
      </trkpt>
      <trkpt lat="48.80495" lon="2.09418">
        <ele>110</ele>
        <time>2019-06-23T12:32:09Z</time>
      </trkpt>
      <trkpt lat="48.80492" lon="2.09433">
        <ele>111</ele>
        <time>2019-06-23T12:32:15Z</time>
      </trkpt>
      <trkpt lat="48.80488" lon="2.09446">
        <ele>111</ele>
        <time>2019-06-23T12:32:20Z</time>
      </trkpt>
      <trkpt lat="48.80483" lon="2.0946">
        <ele>111</ele>
        <time>2019-06-23T12:32:28Z</time>
      </trkpt>
      <trkpt lat="48.80476" lon="2.0947">
        <ele>111</ele>
        <time>2019-06-23T12:32:36Z</time>
      </trkpt>
      <trkpt lat="48.80469" lon="2.09479">
        <ele>112</ele>
        <time>2019-06-23T12:32:43Z</time>
      </trkpt>
      <trkpt lat="48.80463" lon="2.09491">
        <ele>112</ele>
        <time>2019-06-23T12:32:50Z</time>
      </trkpt>
      <trkpt lat="48.80458" lon="2.09503">
        <ele>113</ele>
        <time>2019-06-23T12:32:57Z</time>
      </trkpt>
      <trkpt lat="48.80454" lon="2.09516">
        <ele>114</ele>
        <time>2019-06-23T12:33:05Z</time>
      </trkpt>
      <trkpt lat="48.8045" lon="2.0953">
        <ele>114</ele>
        <time>2019-06-23T12:33:12Z</time>
      </trkpt>
      <trkpt lat="48.80446" lon="2.09543">
        <ele>115</ele>
        <time>2019-06-23T12:33:19Z</time>
      </trkpt>
      <trkpt lat="48.80443" lon="2.09557">
        <ele>115</ele>
        <time>2019-06-23T12:33:30Z</time>
      </trkpt>
      <trkpt lat="48.80437" lon="2.09568">
        <ele>116</ele>
        <time>2019-06-23T12:33:45Z</time>
      </trkpt>
      <trkpt lat="48.80428" lon="2.09573">
        <ele>117</ele>
        <time>2019-06-23T12:33:55Z</time>
      </trkpt>
      <trkpt lat="48.80419" lon="2.0958">
        <ele>119</ele>
        <time>2019-06-23T12:34:01Z</time>
      </trkpt>
      <trkpt lat="48.8041" lon="2.0958">
        <ele>120</ele>
        <time>2019-06-23T12:34:08Z</time>
      </trkpt>
      <trkpt lat="48.804" lon="2.09577">
        <ele>119</ele>
        <time>2019-06-23T12:34:15Z</time>
      </trkpt>
      <trkpt lat="48.80391" lon="2.0958">
        <ele>119</ele>
        <time>2019-06-23T12:34:26Z</time>
      </trkpt>
      <trkpt lat="48.80386" lon="2.09595">
        <ele>121</ele>
        <time>2019-06-23T12:34:35Z</time>
      </trkpt>
      <trkpt lat="48.80381" lon="2.09608">
        <ele>121</ele>
        <time>2019-06-23T12:34:43Z</time>
      </trkpt>
      <trkpt lat="48.80377" lon="2.09622">
        <ele>121</ele>
        <time>2019-06-23T12:34:55Z</time>
      </trkpt>
      <trkpt lat="48.80374" lon="2.09638">
        <ele>122</ele>
        <time>2019-06-23T12:35:08Z</time>
      </trkpt>
      <trkpt lat="48.80372" lon="2.09651">
        <ele>122</ele>
        <time>2019-06-23T12:35:15Z</time>
      </trkpt>
      <trkpt lat="48.80373" lon="2.09665">
        <ele>122</ele>
        <time>2019-06-23T12:35:20Z</time>
      </trkpt>
      <trkpt lat="48.80377" lon="2.09678">
        <ele>122</ele>
        <time>2019-06-23T12:35:25Z</time>
      </trkpt>
      <trkpt lat="48.80382" lon="2.09693">
        <ele>122</ele>
        <time>2019-06-23T12:35:31Z</time>
      </trkpt>
      <trkpt lat="48.80389" lon="2.09702">
        <ele>122</ele>
        <time>2019-06-23T12:35:39Z</time>
      </trkpt>
      <trkpt lat="48.80396" lon="2.09711">
        <ele>121</ele>
        <time>2019-06-23T12:35:50Z</time>
      </trkpt>
      <trkpt lat="48.80401" lon="2.09724">
        <ele>121</ele>
        <time>2019-06-23T12:35:58Z</time>
      </trkpt>
      <trkpt lat="48.80409" lon="2.0973">
        <ele>120</ele>
        <time>2019-06-23T12:36:02Z</time>
      </trkpt>
      <trkpt lat="48.80418" lon="2.09733">
        <ele>117</ele>
        <time>2019-06-23T12:36:08Z</time>
      </trkpt>
      <trkpt lat="48.80427" lon="2.09738">
        <ele>117</ele>
        <time>2019-06-23T12:36:17Z</time>
      </trkpt>
      <trkpt lat="48.80436" lon="2.09743">
        <ele>116</ele>
        <time>2019-06-23T12:36:25Z</time>
      </trkpt>
      <trkpt lat="48.80446" lon="2.09748">
        <ele>116</ele>
        <time>2019-06-23T12:36:34Z</time>
      </trkpt>
      <trkpt lat="48.80455" lon="2.09752">
        <ele>115</ele>
        <time>2019-06-23T12:36:43Z</time>
      </trkpt>
      <trkpt lat="48.80465" lon="2.09756">
        <ele>114</ele>
        <time>2019-06-23T12:37:01Z</time>
      </trkpt>
      <trkpt lat="48.80474" lon="2.09761">
        <ele>114</ele>
        <time>2019-06-23T12:37:11Z</time>
      </trkpt>
      <trkpt lat="48.80479" lon="2.09773">
        <ele>114</ele>
        <time>2019-06-23T12:37:18Z</time>
      </trkpt>
      <trkpt lat="48.80485" lon="2.09784">
        <ele>114</ele>
        <time>2019-06-23T12:37:23Z</time>
      </trkpt>
      <trkpt lat="48.80494" lon="2.09792">
        <ele>114</ele>
        <time>2019-06-23T12:37:29Z</time>
      </trkpt>
      <trkpt lat="48.80504" lon="2.098">
        <ele>112</ele>
        <time>2019-06-23T12:37:35Z</time>
      </trkpt>
      <trkpt lat="48.80512" lon="2.0981">
        <ele>112</ele>
        <time>2019-06-23T12:37:41Z</time>
      </trkpt>
      <trkpt lat="48.8052" lon="2.09816">
        <ele>112</ele>
        <time>2019-06-23T12:37:46Z</time>
      </trkpt>
      <trkpt lat="48.80528" lon="2.09823">
        <ele>112</ele>
        <time>2019-06-23T12:37:52Z</time>
      </trkpt>
      <trkpt lat="48.80536" lon="2.09829">
        <ele>112</ele>
        <time>2019-06-23T12:37:58Z</time>
      </trkpt>
      <trkpt lat="48.80545" lon="2.09836">
        <ele>113</ele>
        <time>2019-06-23T12:38:06Z</time>
      </trkpt>
      <trkpt lat="48.80553" lon="2.09842">
        <ele>113</ele>
        <time>2019-06-23T12:38:12Z</time>
      </trkpt>
      <trkpt lat="48.80561" lon="2.0985">
        <ele>113</ele>
        <time>2019-06-23T12:38:21Z</time>
      </trkpt>
      <trkpt lat="48.8057" lon="2.09857">
        <ele>114</ele>
        <time>2019-06-23T12:38:35Z</time>
      </trkpt>
      <trkpt lat="48.80571" lon="2.09871">
        <ele>114</ele>
        <time>2019-06-23T12:38:51Z</time>
      </trkpt>
      <trkpt lat="48.80578" lon="2.0988">
        <ele>114</ele>
        <time>2019-06-23T12:38:57Z</time>
      </trkpt>
      <trkpt lat="48.80587" lon="2.09885">
        <ele>115</ele>
        <time>2019-06-23T12:39:06Z</time>
      </trkpt>
      <trkpt lat="48.80595" lon="2.09892">
        <ele>115</ele>
        <time>2019-06-23T12:39:16Z</time>
      </trkpt>
      <trkpt lat="48.80603" lon="2.09899">
        <ele>115</ele>
        <time>2019-06-23T12:39:20Z</time>
      </trkpt>
      <trkpt lat="48.80613" lon="2.09901">
        <ele>115</ele>
        <time>2019-06-23T12:39:25Z</time>
      </trkpt>
      <trkpt lat="48.80622" lon="2.09904">
        <ele>114</ele>
        <time>2019-06-23T12:39:31Z</time>
      </trkpt>
      <trkpt lat="48.80632" lon="2.09907">
        <ele>114</ele>
        <time>2019-06-23T12:39:37Z</time>
      </trkpt>
      <trkpt lat="48.8064" lon="2.09913">
        <ele>114</ele>
        <time>2019-06-23T12:39:41Z</time>
      </trkpt>
      <trkpt lat="48.8065" lon="2.09914">
        <ele>115</ele>
        <time>2019-06-23T12:39:47Z</time>
      </trkpt>
      <trkpt lat="48.80658" lon="2.0992">
        <ele>115</ele>
        <time>2019-06-23T12:39:50Z</time>
      </trkpt>
      <trkpt lat="48.80668" lon="2.09925">
        <ele>115</ele>
        <time>2019-06-23T12:39:55Z</time>
      </trkpt>
      <trkpt lat="48.80679" lon="2.09926">
        <ele>115</ele>
        <time>2019-06-23T12:40:05Z</time>
      </trkpt>
      <trkpt lat="48.80689" lon="2.09932">
        <ele>115</ele>
        <time>2019-06-23T12:40:11Z</time>
      </trkpt>
      <trkpt lat="48.80696" lon="2.09943">
        <ele>115</ele>
        <time>2019-06-23T12:40:17Z</time>
      </trkpt>
      <trkpt lat="48.807" lon="2.09956">
        <ele>115</ele>
        <time>2019-06-23T12:40:27Z</time>
      </trkpt>
      <trkpt lat="48.80702" lon="2.09972">
        <ele>115</ele>
        <time>2019-06-23T12:40:35Z</time>
      </trkpt>
      <trkpt lat="48.80706" lon="2.09986">
        <ele>116</ele>
        <time>2019-06-23T12:40:41Z</time>
      </trkpt>
      <trkpt lat="48.80707" lon="2.10002">
        <ele>116</ele>
        <time>2019-06-23T12:40:48Z</time>
      </trkpt>
      <trkpt lat="48.80709" lon="2.10017">
        <ele>116</ele>
        <time>2019-06-23T12:40:56Z</time>
      </trkpt>
      <trkpt lat="48.80711" lon="2.10031">
        <ele>116</ele>
        <time>2019-06-23T12:41:04Z</time>
      </trkpt>
      <trkpt lat="48.80711" lon="2.10047">
        <ele>116</ele>
        <time>2019-06-23T12:41:12Z</time>
      </trkpt>
      <trkpt lat="48.80716" lon="2.10059">
        <ele>116</ele>
        <time>2019-06-23T12:41:17Z</time>
      </trkpt>
      <trkpt lat="48.80717" lon="2.10075">
        <ele>116</ele>
        <time>2019-06-23T12:41:26Z</time>
      </trkpt>
      <trkpt lat="48.8072" lon="2.1009">
        <ele>116</ele>
        <time>2019-06-23T12:41:33Z</time>
      </trkpt>
      <trkpt lat="48.80721" lon="2.10105">
        <ele>116</ele>
        <time>2019-06-23T12:41:39Z</time>
      </trkpt>
      <trkpt lat="48.8072" lon="2.10122">
        <ele>115</ele>
        <time>2019-06-23T12:41:47Z</time>
      </trkpt>
      <trkpt lat="48.80724" lon="2.10136">
        <ele>116</ele>
        <time>2019-06-23T12:41:54Z</time>
      </trkpt>
      <trkpt lat="48.80727" lon="2.1015">
        <ele>116</ele>
        <time>2019-06-23T12:42:00Z</time>
      </trkpt>
      <trkpt lat="48.80729" lon="2.10164">
        <ele>116</ele>
        <time>2019-06-23T12:42:15Z</time>
      </trkpt>
      <trkpt lat="48.80734" lon="2.10175">
        <ele>116</ele>
        <time>2019-06-23T12:42:26Z</time>
      </trkpt>
      <trkpt lat="48.80734" lon="2.10189">
        <ele>115</ele>
        <time>2019-06-23T12:42:31Z</time>
      </trkpt>
      <trkpt lat="48.80738" lon="2.10203">
        <ele>115</ele>
        <time>2019-06-23T12:42:35Z</time>
      </trkpt>
      <trkpt lat="48.80739" lon="2.10218">
        <ele>115</ele>
        <time>2019-06-23T12:42:40Z</time>
      </trkpt>
      <trkpt lat="48.80743" lon="2.10233">
        <ele>116</ele>
        <time>2019-06-23T12:42:47Z</time>
      </trkpt>
      <trkpt lat="48.80745" lon="2.10248">
        <ele>116</ele>
        <time>2019-06-23T12:42:52Z</time>
      </trkpt>
      <trkpt lat="48.80745" lon="2.10263">
        <ele>117</ele>
        <time>2019-06-23T12:42:59Z</time>
      </trkpt>
      <trkpt lat="48.80743" lon="2.10277">
        <ele>116</ele>
        <time>2019-06-23T12:43:06Z</time>
      </trkpt>
      <trkpt lat="48.80743" lon="2.10294">
        <ele>117</ele>
        <time>2019-06-23T12:43:13Z</time>
      </trkpt>
      <trkpt lat="48.80749" lon="2.10311">
        <ele>117</ele>
        <time>2019-06-23T12:43:21Z</time>
      </trkpt>
      <trkpt lat="48.80742" lon="2.10321">
        <ele>118</ele>
        <time>2019-06-23T12:43:50Z</time>
      </trkpt>
      <trkpt lat="48.80737" lon="2.10334">
        <ele>119</ele>
        <time>2019-06-23T12:43:59Z</time>
      </trkpt>
      <trkpt lat="48.80729" lon="2.10343">
        <ele>118</ele>
        <time>2019-06-23T12:44:10Z</time>
      </trkpt>
      <trkpt lat="48.8072" lon="2.10348">
        <ele>118</ele>
        <time>2019-06-23T12:44:15Z</time>
      </trkpt>
      <trkpt lat="48.8071" lon="2.10347">
        <ele>118</ele>
        <time>2019-06-23T12:44:22Z</time>
      </trkpt>
      <trkpt lat="48.807" lon="2.10354">
        <ele>118</ele>
        <time>2019-06-23T12:44:31Z</time>
      </trkpt>
      <trkpt lat="48.80691" lon="2.10365">
        <ele>118</ele>
        <time>2019-06-23T12:44:38Z</time>
      </trkpt>
      <trkpt lat="48.80683" lon="2.10373">
        <ele>118</ele>
        <time>2019-06-23T12:44:46Z</time>
      </trkpt>
      <trkpt lat="48.80674" lon="2.10383">
        <ele>118</ele>
        <time>2019-06-23T12:44:53Z</time>
      </trkpt>
      <trkpt lat="48.80667" lon="2.10392">
        <ele>118</ele>
        <time>2019-06-23T12:44:58Z</time>
      </trkpt>
      <trkpt lat="48.80659" lon="2.10399">
        <ele>120</ele>
        <time>2019-06-23T12:45:05Z</time>
      </trkpt>
      <trkpt lat="48.80651" lon="2.10407">
        <ele>120</ele>
        <time>2019-06-23T12:45:12Z</time>
      </trkpt>
      <trkpt lat="48.80644" lon="2.10417">
        <ele>119</ele>
        <time>2019-06-23T12:45:18Z</time>
      </trkpt>
      <trkpt lat="48.80636" lon="2.10425">
        <ele>120</ele>
        <time>2019-06-23T12:45:32Z</time>
      </trkpt>
      <trkpt lat="48.80629" lon="2.10433">
        <ele>120</ele>
        <time>2019-06-23T12:45:40Z</time>
      </trkpt>
      <trkpt lat="48.80619" lon="2.10435">
        <ele>120</ele>
        <time>2019-06-23T12:45:49Z</time>
      </trkpt>
      <trkpt lat="48.80611" lon="2.10441">
        <ele>120</ele>
        <time>2019-06-23T12:46:00Z</time>
      </trkpt>
      <trkpt lat="48.80603" lon="2.10453">
        <ele>120</ele>
        <time>2019-06-23T12:46:09Z</time>
      </trkpt>
      <trkpt lat="48.80596" lon="2.10464">
        <ele>120</ele>
        <time>2019-06-23T12:46:15Z</time>
      </trkpt>
      <trkpt lat="48.80588" lon="2.10472">
        <ele>120</ele>
        <time>2019-06-23T12:46:21Z</time>
      </trkpt>
      <trkpt lat="48.80579" lon="2.10479">
        <ele>122</ele>
        <time>2019-06-23T12:46:27Z</time>
      </trkpt>
      <trkpt lat="48.80571" lon="2.10486">
        <ele>121</ele>
        <time>2019-06-23T12:46:35Z</time>
      </trkpt>
      <trkpt lat="48.80561" lon="2.10488">
        <ele>122</ele>
        <time>2019-06-23T12:46:48Z</time>
      </trkpt>
      <trkpt lat="48.80552" lon="2.10496">
        <ele>122</ele>
        <time>2019-06-23T12:46:56Z</time>
      </trkpt>
      <trkpt lat="48.80546" lon="2.10508">
        <ele>121</ele>
        <time>2019-06-23T12:47:02Z</time>
      </trkpt>
      <trkpt lat="48.80538" lon="2.10518">
        <ele>121</ele>
        <time>2019-06-23T12:47:09Z</time>
      </trkpt>
      <trkpt lat="48.8053" lon="2.10523">
        <ele>121</ele>
        <time>2019-06-23T12:47:17Z</time>
      </trkpt>
      <trkpt lat="48.80521" lon="2.10528">
        <ele>122</ele>
        <time>2019-06-23T12:47:22Z</time>
      </trkpt>
      <trkpt lat="48.80512" lon="2.10534">
        <ele>122</ele>
        <time>2019-06-23T12:47:31Z</time>
      </trkpt>
      <trkpt lat="48.80504" lon="2.10542">
        <ele>122</ele>
        <time>2019-06-23T12:47:41Z</time>
      </trkpt>
      <trkpt lat="48.80497" lon="2.10551">
        <ele>123</ele>
        <time>2019-06-23T12:47:48Z</time>
      </trkpt>
      <trkpt lat="48.8049" lon="2.10563">
        <ele>123</ele>
        <time>2019-06-23T12:47:55Z</time>
      </trkpt>
      <trkpt lat="48.80483" lon="2.10576">
        <ele>123</ele>
        <time>2019-06-23T12:48:05Z</time>
      </trkpt>
      <trkpt lat="48.80476" lon="2.10584">
        <ele>123</ele>
        <time>2019-06-23T12:48:12Z</time>
      </trkpt>
      <trkpt lat="48.80467" lon="2.1059">
        <ele>123</ele>
        <time>2019-06-23T12:48:18Z</time>
      </trkpt>
      <trkpt lat="48.80461" lon="2.10601">
        <ele>123</ele>
        <time>2019-06-23T12:48:23Z</time>
      </trkpt>
      <trkpt lat="48.80455" lon="2.10615">
        <ele>123</ele>
        <time>2019-06-23T12:48:27Z</time>
      </trkpt>
      <trkpt lat="48.80446" lon="2.10619">
        <ele>122</ele>
        <time>2019-06-23T12:48:33Z</time>
      </trkpt>
      <trkpt lat="48.80437" lon="2.10613">
        <ele>123</ele>
        <time>2019-06-23T12:48:40Z</time>
      </trkpt>
      <trkpt lat="48.80427" lon="2.10606">
        <ele>123</ele>
        <time>2019-06-23T12:48:46Z</time>
      </trkpt>
      <trkpt lat="48.80419" lon="2.10605">
        <ele>123</ele>
        <time>2019-06-23T12:48:55Z</time>
      </trkpt>
      <trkpt lat="48.80409" lon="2.10604">
        <ele>122</ele>
        <time>2019-06-23T12:49:05Z</time>
      </trkpt>
      <trkpt lat="48.80399" lon="2.10601">
        <ele>122</ele>
        <time>2019-06-23T12:49:13Z</time>
      </trkpt>
      <trkpt lat="48.80391" lon="2.10595">
        <ele>122</ele>
        <time>2019-06-23T12:49:20Z</time>
      </trkpt>
      <trkpt lat="48.80382" lon="2.10589">
        <ele>122</ele>
        <time>2019-06-23T12:49:25Z</time>
      </trkpt>
      <trkpt lat="48.80374" lon="2.10582">
        <ele>122</ele>
        <time>2019-06-23T12:49:31Z</time>
      </trkpt>
      <trkpt lat="48.80366" lon="2.10574">
        <ele>122</ele>
        <time>2019-06-23T12:49:40Z</time>
      </trkpt>
      <trkpt lat="48.80359" lon="2.10565">
        <ele>122</ele>
        <time>2019-06-23T12:50:13Z</time>
      </trkpt>
      <trkpt lat="48.80358" lon="2.10551">
        <ele>122</ele>
        <time>2019-06-23T12:50:25Z</time>
      </trkpt>
      <trkpt lat="48.80351" lon="2.10541">
        <ele>122</ele>
        <time>2019-06-23T12:50:43Z</time>
      </trkpt>
      <trkpt lat="48.80341" lon="2.10541">
        <ele>122</ele>
        <time>2019-06-23T12:50:50Z</time>
      </trkpt>
      <trkpt lat="48.80331" lon="2.10539">
        <ele>121</ele>
        <time>2019-06-23T12:51:11Z</time>
      </trkpt>
      <trkpt lat="48.80325" lon="2.1055">
        <ele>121</ele>
        <time>2019-06-23T12:51:21Z</time>
      </trkpt>
      <trkpt lat="48.80318" lon="2.10561">
        <ele>121</ele>
        <time>2019-06-23T12:51:32Z</time>
      </trkpt>
      <trkpt lat="48.80309" lon="2.10567">
        <ele>121</ele>
        <time>2019-06-23T12:51:40Z</time>
      </trkpt>
      <trkpt lat="48.80298" lon="2.10564">
        <ele>121</ele>
        <time>2019-06-23T12:51:47Z</time>
      </trkpt>
      <trkpt lat="48.8029" lon="2.10561">
        <ele>120</ele>
        <time>2019-06-23T12:51:55Z</time>
      </trkpt>
      <trkpt lat="48.80281" lon="2.10555">
        <ele>120</ele>
        <time>2019-06-23T12:52:03Z</time>
      </trkpt>
      <trkpt lat="48.80272" lon="2.10548">
        <ele>120</ele>
        <time>2019-06-23T12:52:12Z</time>
      </trkpt>
      <trkpt lat="48.80263" lon="2.10545">
        <ele>120</ele>
        <time>2019-06-23T12:52:21Z</time>
      </trkpt>
      <trkpt lat="48.80255" lon="2.1054">
        <ele>120</ele>
        <time>2019-06-23T12:52:29Z</time>
      </trkpt>
      <trkpt lat="48.80245" lon="2.1054">
        <ele>119</ele>
        <time>2019-06-23T12:52:38Z</time>
      </trkpt>
      <trkpt lat="48.80235" lon="2.10535">
        <ele>119</ele>
        <time>2019-06-23T12:52:47Z</time>
      </trkpt>
      <trkpt lat="48.80226" lon="2.10532">
        <ele>119</ele>
        <time>2019-06-23T12:52:53Z</time>
      </trkpt>
      <trkpt lat="48.80217" lon="2.10531">
        <ele>119</ele>
        <time>2019-06-23T12:53:01Z</time>
      </trkpt>
      <trkpt lat="48.80207" lon="2.10529">
        <ele>119</ele>
        <time>2019-06-23T12:53:11Z</time>
      </trkpt>
      <trkpt lat="48.80198" lon="2.10527">
        <ele>119</ele>
        <time>2019-06-23T12:53:20Z</time>
      </trkpt>
      <trkpt lat="48.80189" lon="2.10519">
        <ele>119</ele>
        <time>2019-06-23T12:53:26Z</time>
      </trkpt>
      <trkpt lat="48.80179" lon="2.10514">
        <ele>118</ele>
        <time>2019-06-23T12:53:35Z</time>
      </trkpt>
      <trkpt lat="48.8017" lon="2.10507">
        <ele>118</ele>
        <time>2019-06-23T12:53:44Z</time>
      </trkpt>
      <trkpt lat="48.8016" lon="2.10501">
        <ele>118</ele>
        <time>2019-06-23T12:53:54Z</time>
      </trkpt>
      <trkpt lat="48.80152" lon="2.10492">
        <ele>118</ele>
        <time>2019-06-23T12:54:04Z</time>
      </trkpt>
      <trkpt lat="48.80143" lon="2.10495">
        <ele>118</ele>
        <time>2019-06-23T12:54:09Z</time>
      </trkpt>
      <trkpt lat="48.80133" lon="2.10494">
        <ele>118</ele>
        <time>2019-06-23T12:54:18Z</time>
      </trkpt>
      <trkpt lat="48.80125" lon="2.10489">
        <ele>118</ele>
        <time>2019-06-23T12:54:26Z</time>
      </trkpt>
      <trkpt lat="48.80116" lon="2.1049">
        <ele>118</ele>
        <time>2019-06-23T12:54:37Z</time>
      </trkpt>
      <trkpt lat="48.80107" lon="2.10488">
        <ele>118</ele>
        <time>2019-06-23T12:54:46Z</time>
      </trkpt>
      <trkpt lat="48.80097" lon="2.10485">
        <ele>119</ele>
        <time>2019-06-23T12:54:52Z</time>
      </trkpt>
      <trkpt lat="48.80087" lon="2.10477">
        <ele>119</ele>
        <time>2019-06-23T12:54:59Z</time>
      </trkpt>
      <trkpt lat="48.80078" lon="2.10476">
        <ele>119</ele>
        <time>2019-06-23T12:55:05Z</time>
      </trkpt>
      <trkpt lat="48.80071" lon="2.10465">
        <ele>119</ele>
        <time>2019-06-23T12:55:17Z</time>
      </trkpt>
      <trkpt lat="48.80061" lon="2.10458">
        <ele>119</ele>
        <time>2019-06-23T12:55:23Z</time>
      </trkpt>
      <trkpt lat="48.80052" lon="2.10451">
        <ele>119</ele>
        <time>2019-06-23T12:55:27Z</time>
      </trkpt>
      <trkpt lat="48.80044" lon="2.10445">
        <ele>119</ele>
        <time>2019-06-23T12:55:31Z</time>
      </trkpt>
      <trkpt lat="48.80034" lon="2.10437">
        <ele>119</ele>
        <time>2019-06-23T12:55:33Z</time>
      </trkpt>
      <trkpt lat="48.80025" lon="2.1043">
        <ele>119</ele>
        <time>2019-06-23T12:55:41Z</time>
      </trkpt>
      <trkpt lat="48.80016" lon="2.10423">
        <ele>119</ele>
        <time>2019-06-23T12:55:51Z</time>
      </trkpt>
      <trkpt lat="48.80008" lon="2.10417">
        <ele>119</ele>
        <time>2019-06-23T12:56:00Z</time>
      </trkpt>
      <trkpt lat="48.79999" lon="2.10413">
        <ele>119</ele>
        <time>2019-06-23T12:56:09Z</time>
      </trkpt>
      <trkpt lat="48.7999" lon="2.1041">
        <ele>119</ele>
        <time>2019-06-23T12:56:16Z</time>
      </trkpt>
      <trkpt lat="48.7998" lon="2.10404">
        <ele>119</ele>
        <time>2019-06-23T12:56:26Z</time>
      </trkpt>
      <trkpt lat="48.7997" lon="2.104">
        <ele>119</ele>
        <time>2019-06-23T12:56:30Z</time>
      </trkpt>
      <trkpt lat="48.79963" lon="2.1039">
        <ele>119</ele>
        <time>2019-06-23T12:56:34Z</time>
      </trkpt>
      <trkpt lat="48.79959" lon="2.10377">
        <ele>119</ele>
        <time>2019-06-23T12:56:40Z</time>
      </trkpt>
      <trkpt lat="48.79952" lon="2.10367">
        <ele>119</ele>
        <time>2019-06-23T12:56:51Z</time>
      </trkpt>
      <trkpt lat="48.79943" lon="2.10359">
        <ele>119</ele>
        <time>2019-06-23T12:57:03Z</time>
      </trkpt>
      <trkpt lat="48.79935" lon="2.10353">
        <ele>119</ele>
        <time>2019-06-23T12:57:11Z</time>
      </trkpt>
      <trkpt lat="48.79927" lon="2.10347">
        <ele>119</ele>
        <time>2019-06-23T12:57:19Z</time>
      </trkpt>
      <trkpt lat="48.79919" lon="2.1034">
        <ele>120</ele>
        <time>2019-06-23T12:57:25Z</time>
      </trkpt>
      <trkpt lat="48.79909" lon="2.10338">
        <ele>121</ele>
        <time>2019-06-23T12:57:33Z</time>
      </trkpt>
      <trkpt lat="48.79902" lon="2.1033">
        <ele>121</ele>
        <time>2019-06-23T12:57:37Z</time>
      </trkpt>
      <trkpt lat="48.79894" lon="2.10319">
        <ele>122</ele>
        <time>2019-06-23T12:57:45Z</time>
      </trkpt>
      <trkpt lat="48.79884" lon="2.10316">
        <ele>122</ele>
        <time>2019-06-23T12:57:50Z</time>
      </trkpt>
      <trkpt lat="48.79875" lon="2.10311">
        <ele>123</ele>
        <time>2019-06-23T12:57:57Z</time>
      </trkpt>
      <trkpt lat="48.79866" lon="2.10305">
        <ele>123</ele>
        <time>2019-06-23T12:58:04Z</time>
      </trkpt>
      <trkpt lat="48.79856" lon="2.10295">
        <ele>123</ele>
        <time>2019-06-23T12:58:10Z</time>
      </trkpt>
      <trkpt lat="48.79847" lon="2.1029">
        <ele>123</ele>
        <time>2019-06-23T12:58:13Z</time>
      </trkpt>
      <trkpt lat="48.79836" lon="2.10287">
        <ele>124</ele>
        <time>2019-06-23T12:58:21Z</time>
      </trkpt>
      <trkpt lat="48.79827" lon="2.10287">
        <ele>126</ele>
        <time>2019-06-23T12:58:30Z</time>
      </trkpt>
      <trkpt lat="48.79819" lon="2.10279">
        <ele>126</ele>
        <time>2019-06-23T12:58:43Z</time>
      </trkpt>
      <trkpt lat="48.79811" lon="2.10273">
        <ele>126</ele>
        <time>2019-06-23T12:58:50Z</time>
      </trkpt>
      <trkpt lat="48.79802" lon="2.10269">
        <ele>126</ele>
        <time>2019-06-23T12:58:57Z</time>
      </trkpt>
      <trkpt lat="48.79793" lon="2.10266">
        <ele>127</ele>
        <time>2019-06-23T12:59:08Z</time>
      </trkpt>
      <trkpt lat="48.79783" lon="2.10265">
        <ele>127</ele>
        <time>2019-06-23T12:59:14Z</time>
      </trkpt>
      <trkpt lat="48.79772" lon="2.10263">
        <ele>127</ele>
        <time>2019-06-23T12:59:20Z</time>
      </trkpt>
      <trkpt lat="48.79763" lon="2.10258">
        <ele>128</ele>
        <time>2019-06-23T12:59:26Z</time>
      </trkpt>
      <trkpt lat="48.79753" lon="2.10253">
        <ele>129</ele>
        <time>2019-06-23T12:59:36Z</time>
      </trkpt>
      <trkpt lat="48.79746" lon="2.10244">
        <ele>129</ele>
        <time>2019-06-23T12:59:43Z</time>
      </trkpt>
      <trkpt lat="48.79736" lon="2.10237">
        <ele>130</ele>
        <time>2019-06-23T12:59:48Z</time>
      </trkpt>
      <trkpt lat="48.79728" lon="2.10227">
        <ele>130</ele>
        <time>2019-06-23T12:59:52Z</time>
      </trkpt>
      <trkpt lat="48.7972" lon="2.10218">
        <ele>130</ele>
        <time>2019-06-23T12:59:57Z</time>
      </trkpt>
      <trkpt lat="48.79712" lon="2.10209">
        <ele>130</ele>
        <time>2019-06-23T13:00:06Z</time>
      </trkpt>
      <trkpt lat="48.79703" lon="2.10204">
        <ele>131</ele>
        <time>2019-06-23T13:00:15Z</time>
      </trkpt>
      <trkpt lat="48.79693" lon="2.10208">
        <ele>131</ele>
        <time>2019-06-23T13:00:22Z</time>
      </trkpt>
      <trkpt lat="48.79688" lon="2.10219">
        <ele>131</ele>
        <time>2019-06-23T13:00:28Z</time>
      </trkpt>
      <trkpt lat="48.79685" lon="2.10233">
        <ele>131</ele>
        <time>2019-06-23T13:00:37Z</time>
      </trkpt>
      <trkpt lat="48.79681" lon="2.10247">
        <ele>131</ele>
        <time>2019-06-23T13:00:45Z</time>
      </trkpt>
      <trkpt lat="48.79676" lon="2.10259">
        <ele>131</ele>
        <time>2019-06-23T13:00:54Z</time>
      </trkpt>
      <trkpt lat="48.79672" lon="2.10273">
        <ele>130</ele>
        <time>2019-06-23T13:01:01Z</time>
      </trkpt>
      <trkpt lat="48.79668" lon="2.10285">
        <ele>130</ele>
        <time>2019-06-23T13:01:06Z</time>
      </trkpt>
      <trkpt lat="48.79664" lon="2.10299">
        <ele>134</ele>
        <time>2019-06-23T13:01:15Z</time>
      </trkpt>
      <trkpt lat="48.79657" lon="2.10308">
        <ele>133</ele>
        <time>2019-06-23T13:01:21Z</time>
      </trkpt>
      <trkpt lat="48.79652" lon="2.1032">
        <ele>133</ele>
        <time>2019-06-23T13:02:18Z</time>
      </trkpt>
      <trkpt lat="48.79645" lon="2.10331">
        <ele>133</ele>
        <time>2019-06-23T13:02:45Z</time>
      </trkpt>
      <trkpt lat="48.79638" lon="2.10342">
        <ele>133</ele>
        <time>2019-06-23T13:02:55Z</time>
      </trkpt>
      <trkpt lat="48.79629" lon="2.10344">
        <ele>134</ele>
        <time>2019-06-23T13:03:03Z</time>
      </trkpt>
      <trkpt lat="48.7962" lon="2.10344">
        <ele>135</ele>
        <time>2019-06-23T13:03:11Z</time>
      </trkpt>
      <trkpt lat="48.79526" lon="2.10355">
        <ele>147</ele>
        <time>2019-06-23T13:04:18Z</time>
      </trkpt>
      <trkpt lat="48.79523" lon="2.10368">
        <ele>147</ele>
        <time>2019-06-23T13:04:22Z</time>
      </trkpt>
      <trkpt lat="48.79516" lon="2.10377">
        <ele>147</ele>
        <time>2019-06-23T13:04:32Z</time>
      </trkpt>
      <trkpt lat="48.79509" lon="2.10387">
        <ele>148</ele>
        <time>2019-06-23T13:04:41Z</time>
      </trkpt>
      <trkpt lat="48.795" lon="2.10394">
        <ele>154</ele>
        <time>2019-06-23T13:04:51Z</time>
      </trkpt>
      <trkpt lat="48.79497" lon="2.1038">
        <ele>154</ele>
        <time>2019-06-23T13:05:04Z</time>
      </trkpt>
      <trkpt lat="48.79498" lon="2.10367">
        <ele>154</ele>
        <time>2019-06-23T13:05:11Z</time>
      </trkpt>
      <trkpt lat="48.79502" lon="2.10352">
        <ele>148</ele>
        <time>2019-06-23T13:05:17Z</time>
      </trkpt>
      <trkpt lat="48.79503" lon="2.10338">
        <ele>149</ele>
        <time>2019-06-23T13:05:26Z</time>
      </trkpt>
      <trkpt lat="48.79501" lon="2.10323">
        <ele>148</ele>
        <time>2019-06-23T13:05:37Z</time>
      </trkpt>
      <trkpt lat="48.79501" lon="2.10308">
        <ele>147</ele>
        <time>2019-06-23T13:05:44Z</time>
      </trkpt>
      <trkpt lat="48.79499" lon="2.10293">
        <ele>152</ele>
        <time>2019-06-23T13:05:57Z</time>
      </trkpt>
      <trkpt lat="48.79494" lon="2.10282">
        <ele>152</ele>
        <time>2019-06-23T13:06:07Z</time>
      </trkpt>
      <trkpt lat="48.79487" lon="2.10271">
        <ele>152</ele>
        <time>2019-06-23T13:06:16Z</time>
      </trkpt>
      <trkpt lat="48.79479" lon="2.10263">
        <ele>152</ele>
        <time>2019-06-23T13:06:24Z</time>
      </trkpt>
      <trkpt lat="48.7947" lon="2.10258">
        <ele>153</ele>
        <time>2019-06-23T13:06:32Z</time>
      </trkpt>
      <trkpt lat="48.79462" lon="2.1025">
        <ele>153</ele>
        <time>2019-06-23T13:06:41Z</time>
      </trkpt>
      <trkpt lat="48.79453" lon="2.10244">
        <ele>155</ele>
        <time>2019-06-23T13:06:50Z</time>
      </trkpt>
      <trkpt lat="48.79448" lon="2.10232">
        <ele>155</ele>
        <time>2019-06-23T13:07:00Z</time>
      </trkpt>
      <trkpt lat="48.79442" lon="2.10219">
        <ele>156</ele>
        <time>2019-06-23T13:07:08Z</time>
      </trkpt>
      <trkpt lat="48.79439" lon="2.10205">
        <ele>157</ele>
        <time>2019-06-23T13:07:13Z</time>
      </trkpt>
      <trkpt lat="48.79431" lon="2.10198">
        <ele>157</ele>
        <time>2019-06-23T13:07:23Z</time>
      </trkpt>
      <trkpt lat="48.79428" lon="2.10183">
        <ele>159</ele>
        <time>2019-06-23T13:07:37Z</time>
      </trkpt>
      <trkpt lat="48.7943" lon="2.10169">
        <ele>160</ele>
        <time>2019-06-23T13:07:47Z</time>
      </trkpt>
      <trkpt lat="48.79434" lon="2.10156">
        <ele>161</ele>
        <time>2019-06-23T13:07:54Z</time>
      </trkpt>
      <trkpt lat="48.79436" lon="2.10139">
        <ele>161</ele>
        <time>2019-06-23T13:08:00Z</time>
      </trkpt>
      <trkpt lat="48.79438" lon="2.10126">
        <ele>161</ele>
        <time>2019-06-23T13:08:08Z</time>
      </trkpt>
      <trkpt lat="48.79435" lon="2.10111">
        <ele>162</ele>
        <time>2019-06-23T13:08:20Z</time>
      </trkpt>
      <trkpt lat="48.79436" lon="2.10098">
        <ele>163</ele>
        <time>2019-06-23T13:08:31Z</time>
      </trkpt>
      <trkpt lat="48.79439" lon="2.10084">
        <ele>163</ele>
        <time>2019-06-23T13:08:44Z</time>
      </trkpt>
      <trkpt lat="48.79444" lon="2.10069">
        <ele>166</ele>
        <time>2019-06-23T13:08:59Z</time>
      </trkpt>
      <trkpt lat="48.79446" lon="2.10055">
        <ele>166</ele>
        <time>2019-06-23T13:09:12Z</time>
      </trkpt>
      <trkpt lat="48.79445" lon="2.10041">
        <ele>167</ele>
        <time>2019-06-23T13:09:23Z</time>
      </trkpt>
      <trkpt lat="48.79448" lon="2.10028">
        <ele>167</ele>
        <time>2019-06-23T13:09:33Z</time>
      </trkpt>
      <trkpt lat="48.79448" lon="2.10014">
        <ele>168</ele>
        <time>2019-06-23T13:09:42Z</time>
      </trkpt>
      <trkpt lat="48.79452" lon="2.1">
        <ele>167</ele>
        <time>2019-06-23T13:09:50Z</time>
      </trkpt>
      <trkpt lat="48.79455" lon="2.09987">
        <ele>170</ele>
        <time>2019-06-23T13:09:57Z</time>
      </trkpt>
      <trkpt lat="48.79464" lon="2.09977">
        <ele>169</ele>
        <time>2019-06-23T13:10:05Z</time>
      </trkpt>
      <trkpt lat="48.79471" lon="2.09965">
        <ele>169</ele>
        <time>2019-06-23T13:10:12Z</time>
      </trkpt>
      <trkpt lat="48.7948" lon="2.09962">
        <ele>168</ele>
        <time>2019-06-23T13:10:28Z</time>
      </trkpt>
      <trkpt lat="48.79488" lon="2.09952">
        <ele>168</ele>
        <time>2019-06-23T13:10:36Z</time>
      </trkpt>
      <trkpt lat="48.79487" lon="2.09937">
        <ele>167</ele>
        <time>2019-06-23T13:12:00Z</time>
      </trkpt>
      <trkpt lat="48.79484" lon="2.09923">
        <ele>167</ele>
        <time>2019-06-23T13:12:14Z</time>
      </trkpt>
      <trkpt lat="48.79482" lon="2.09909">
        <ele>168</ele>
        <time>2019-06-23T13:12:26Z</time>
      </trkpt>
      <trkpt lat="48.79478" lon="2.09895">
        <ele>169</ele>
        <time>2019-06-23T13:12:34Z</time>
      </trkpt>
      <trkpt lat="48.79476" lon="2.09882">
        <ele>169</ele>
        <time>2019-06-23T13:12:51Z</time>
      </trkpt>
      <trkpt lat="48.79476" lon="2.09866">
        <ele>169</ele>
        <time>2019-06-23T13:13:00Z</time>
      </trkpt>
      <trkpt lat="48.79473" lon="2.09852">
        <ele>169</ele>
        <time>2019-06-23T13:13:10Z</time>
      </trkpt>
      <trkpt lat="48.79471" lon="2.09837">
        <ele>169</ele>
        <time>2019-06-23T13:13:19Z</time>
      </trkpt>
      <trkpt lat="48.7947" lon="2.09823">
        <ele>168</ele>
        <time>2019-06-23T13:13:29Z</time>
      </trkpt>
      <trkpt lat="48.7947" lon="2.09807">
        <ele>168</ele>
        <time>2019-06-23T13:13:38Z</time>
      </trkpt>
      <trkpt lat="48.79468" lon="2.09793">
        <ele>168</ele>
        <time>2019-06-23T13:13:45Z</time>
      </trkpt>
      <trkpt lat="48.79464" lon="2.0978">
        <ele>169</ele>
        <time>2019-06-23T13:13:54Z</time>
      </trkpt>
      <trkpt lat="48.79461" lon="2.09765">
        <ele>169</ele>
        <time>2019-06-23T13:14:02Z</time>
      </trkpt>
      <trkpt lat="48.79459" lon="2.09749">
        <ele>166</ele>
        <time>2019-06-23T13:14:11Z</time>
      </trkpt>
      <trkpt lat="48.79458" lon="2.09734">
        <ele>166</ele>
        <time>2019-06-23T13:14:19Z</time>
      </trkpt>
      <trkpt lat="48.79455" lon="2.0972">
        <ele>166</ele>
        <time>2019-06-23T13:14:31Z</time>
      </trkpt>
      <trkpt lat="48.79452" lon="2.09707">
        <ele>166</ele>
        <time>2019-06-23T13:14:42Z</time>
      </trkpt>
      <trkpt lat="48.79443" lon="2.09703">
        <ele>167</ele>
        <time>2019-06-23T13:14:51Z</time>
      </trkpt>
      <trkpt lat="48.79433" lon="2.09701">
        <ele>168</ele>
        <time>2019-06-23T13:14:59Z</time>
      </trkpt>
      <trkpt lat="48.79424" lon="2.09695">
        <ele>169</ele>
        <time>2019-06-23T13:15:15Z</time>
      </trkpt>
      <trkpt lat="48.7942" lon="2.09683">
        <ele>170</ele>
        <time>2019-06-23T13:15:27Z</time>
      </trkpt>
      <trkpt lat="48.79413" lon="2.09674">
        <ele>176</ele>
        <time>2019-06-23T13:15:31Z</time>
      </trkpt>
      <trkpt lat="48.7941" lon="2.09659">
        <ele>175</ele>
        <time>2019-06-23T13:15:38Z</time>
      </trkpt>
      <trkpt lat="48.79407" lon="2.09646">
        <ele>175</ele>
        <time>2019-06-23T13:15:46Z</time>
      </trkpt>
      <trkpt lat="48.79404" lon="2.09632">
        <ele>175</ele>
        <time>2019-06-23T13:15:55Z</time>
      </trkpt>
      <trkpt lat="48.79403" lon="2.09618">
        <ele>174</ele>
        <time>2019-06-23T13:16:04Z</time>
      </trkpt>
      <trkpt lat="48.794" lon="2.09601">
        <ele>173</ele>
        <time>2019-06-23T13:16:09Z</time>
      </trkpt>
      <trkpt lat="48.79397" lon="2.09587">
        <ele>172</ele>
        <time>2019-06-23T13:16:18Z</time>
      </trkpt>
      <trkpt lat="48.79398" lon="2.09571">
        <ele>171</ele>
        <time>2019-06-23T13:16:22Z</time>
      </trkpt>
      <trkpt lat="48.79398" lon="2.09555">
        <ele>172</ele>
        <time>2019-06-23T13:16:27Z</time>
      </trkpt>
      <trkpt lat="48.79394" lon="2.09542">
        <ele>173</ele>
        <time>2019-06-23T13:16:32Z</time>
      </trkpt>
      <trkpt lat="48.79396" lon="2.09528">
        <ele>172</ele>
        <time>2019-06-23T13:16:40Z</time>
      </trkpt>
      <trkpt lat="48.79395" lon="2.09513">
        <ele>172</ele>
        <time>2019-06-23T13:16:48Z</time>
      </trkpt>
      <trkpt lat="48.79394" lon="2.09498">
        <ele>171</ele>
        <time>2019-06-23T13:16:58Z</time>
      </trkpt>
      <trkpt lat="48.7939" lon="2.09486">
        <ele>172</ele>
        <time>2019-06-23T13:17:06Z</time>
      </trkpt>
      <trkpt lat="48.79387" lon="2.09473">
        <ele>173</ele>
        <time>2019-06-23T13:17:17Z</time>
      </trkpt>
      <trkpt lat="48.79383" lon="2.0946">
        <ele>173</ele>
        <time>2019-06-23T13:17:25Z</time>
      </trkpt>
      <trkpt lat="48.79378" lon="2.09448">
        <ele>174</ele>
        <time>2019-06-23T13:17:33Z</time>
      </trkpt>
      <trkpt lat="48.79376" lon="2.09433">
        <ele>174</ele>
        <time>2019-06-23T13:17:40Z</time>
      </trkpt>
      <trkpt lat="48.79378" lon="2.09418">
        <ele>174</ele>
        <time>2019-06-23T13:17:45Z</time>
      </trkpt>
      <trkpt lat="48.79378" lon="2.09404">
        <ele>174</ele>
        <time>2019-06-23T13:17:51Z</time>
      </trkpt>
      <trkpt lat="48.79378" lon="2.09389">
        <ele>174</ele>
        <time>2019-06-23T13:17:58Z</time>
      </trkpt>
      <trkpt lat="48.79376" lon="2.09375">
        <ele>174</ele>
        <time>2019-06-23T13:18:04Z</time>
      </trkpt>
      <trkpt lat="48.79371" lon="2.09363">
        <ele>175</ele>
        <time>2019-06-23T13:18:09Z</time>
      </trkpt>
      <trkpt lat="48.79368" lon="2.09349">
        <ele>175</ele>
        <time>2019-06-23T13:18:17Z</time>
      </trkpt>
      <trkpt lat="48.79367" lon="2.09334">
        <ele>176</ele>
        <time>2019-06-23T13:18:27Z</time>
      </trkpt>
      <trkpt lat="48.79368" lon="2.0932">
        <ele>174</ele>
        <time>2019-06-23T13:18:36Z</time>
      </trkpt>
      <trkpt lat="48.79367" lon="2.09303">
        <ele>174</ele>
        <time>2019-06-23T13:18:44Z</time>
      </trkpt>
      <trkpt lat="48.79365" lon="2.09289">
        <ele>174</ele>
        <time>2019-06-23T13:18:50Z</time>
      </trkpt>
      <trkpt lat="48.79367" lon="2.09275">
        <ele>174</ele>
        <time>2019-06-23T13:18:57Z</time>
      </trkpt>
      <trkpt lat="48.79367" lon="2.09256">
        <ele>174</ele>
        <time>2019-06-23T13:19:06Z</time>
      </trkpt>
      <trkpt lat="48.79369" lon="2.09241">
        <ele>171</ele>
        <time>2019-06-23T13:19:13Z</time>
      </trkpt>
      <trkpt lat="48.79372" lon="2.09227">
        <ele>170</ele>
        <time>2019-06-23T13:19:22Z</time>
      </trkpt>
      <trkpt lat="48.79371" lon="2.09212">
        <ele>169</ele>
        <time>2019-06-23T13:19:29Z</time>
      </trkpt>
      <trkpt lat="48.79371" lon="2.09197">
        <ele>169</ele>
        <time>2019-06-23T13:19:35Z</time>
      </trkpt>
      <trkpt lat="48.79373" lon="2.09184">
        <ele>168</ele>
        <time>2019-06-23T13:19:44Z</time>
      </trkpt>
      <trkpt lat="48.79369" lon="2.0917">
        <ele>169</ele>
        <time>2019-06-23T13:19:49Z</time>
      </trkpt>
      <trkpt lat="48.79365" lon="2.09155">
        <ele>166</ele>
        <time>2019-06-23T13:19:57Z</time>
      </trkpt>
      <trkpt lat="48.79368" lon="2.0914">
        <ele>165</ele>
        <time>2019-06-23T13:20:04Z</time>
      </trkpt>
      <trkpt lat="48.79369" lon="2.09126">
        <ele>165</ele>
        <time>2019-06-23T13:20:13Z</time>
      </trkpt>
      <trkpt lat="48.79369" lon="2.09112">
        <ele>165</ele>
        <time>2019-06-23T13:20:18Z</time>
      </trkpt>
      <trkpt lat="48.79371" lon="2.09097">
        <ele>164</ele>
        <time>2019-06-23T13:20:24Z</time>
      </trkpt>
      <trkpt lat="48.79365" lon="2.09085">
        <ele>165</ele>
        <time>2019-06-23T13:20:30Z</time>
      </trkpt>
      <trkpt lat="48.79367" lon="2.09071">
        <ele>164</ele>
        <time>2019-06-23T13:20:37Z</time>
      </trkpt>
      <trkpt lat="48.79367" lon="2.09055">
        <ele>164</ele>
        <time>2019-06-23T13:20:42Z</time>
      </trkpt>
      <trkpt lat="48.79363" lon="2.09043">
        <ele>165</ele>
        <time>2019-06-23T13:20:53Z</time>
      </trkpt>
      <trkpt lat="48.79361" lon="2.09029">
        <ele>165</ele>
        <time>2019-06-23T13:21:02Z</time>
      </trkpt>
      <trkpt lat="48.79356" lon="2.09013">
        <ele>166</ele>
        <time>2019-06-23T13:21:10Z</time>
      </trkpt>
      <trkpt lat="48.79351" lon="2.09002">
        <ele>168</ele>
        <time>2019-06-23T13:21:18Z</time>
      </trkpt>
      <trkpt lat="48.79345" lon="2.08991">
        <ele>169</ele>
        <time>2019-06-23T13:21:24Z</time>
      </trkpt>
      <trkpt lat="48.79334" lon="2.0899">
        <ele>170</ele>
        <time>2019-06-23T13:21:30Z</time>
      </trkpt>
      <trkpt lat="48.79325" lon="2.08984">
        <ele>172</ele>
        <time>2019-06-23T13:21:37Z</time>
      </trkpt>
      <trkpt lat="48.79317" lon="2.08978">
        <ele>172</ele>
        <time>2019-06-23T13:21:46Z</time>
      </trkpt>
      <trkpt lat="48.7931" lon="2.08968">
        <ele>172</ele>
        <time>2019-06-23T13:21:53Z</time>
      </trkpt>
      <trkpt lat="48.79309" lon="2.08952">
        <ele>172</ele>
        <time>2019-06-23T13:22:01Z</time>
      </trkpt>
      <trkpt lat="48.79303" lon="2.08937">
        <ele>172</ele>
        <time>2019-06-23T13:22:07Z</time>
      </trkpt>
      <trkpt lat="48.793" lon="2.08922">
        <ele>172</ele>
        <time>2019-06-23T13:22:15Z</time>
      </trkpt>
      <trkpt lat="48.79296" lon="2.08909">
        <ele>171</ele>
        <time>2019-06-23T13:22:26Z</time>
      </trkpt>
      <trkpt lat="48.79296" lon="2.08895">
        <ele>171</ele>
        <time>2019-06-23T13:22:35Z</time>
      </trkpt>
      <trkpt lat="48.79297" lon="2.08878">
        <ele>171</ele>
        <time>2019-06-23T13:22:41Z</time>
      </trkpt>
      <trkpt lat="48.79296" lon="2.08862">
        <ele>171</ele>
        <time>2019-06-23T13:22:50Z</time>
      </trkpt>
      <trkpt lat="48.79296" lon="2.08848">
        <ele>170</ele>
        <time>2019-06-23T13:22:58Z</time>
      </trkpt>
      <trkpt lat="48.79304" lon="2.0884">
        <ele>170</ele>
        <time>2019-06-23T13:23:03Z</time>
      </trkpt>
      <trkpt lat="48.7931" lon="2.08826">
        <ele>169</ele>
        <time>2019-06-23T13:23:10Z</time>
      </trkpt>
      <trkpt lat="48.79314" lon="2.08811">
        <ele>170</ele>
        <time>2019-06-23T13:23:16Z</time>
      </trkpt>
      <trkpt lat="48.79313" lon="2.08796">
        <ele>170</ele>
        <time>2019-06-23T13:23:22Z</time>
      </trkpt>
      <trkpt lat="48.79315" lon="2.0878">
        <ele>170</ele>
        <time>2019-06-23T13:23:30Z</time>
      </trkpt>
      <trkpt lat="48.79318" lon="2.08766">
        <ele>170</ele>
        <time>2019-06-23T13:23:37Z</time>
      </trkpt>
      <trkpt lat="48.79324" lon="2.08755">
        <ele>171</ele>
        <time>2019-06-23T13:23:45Z</time>
      </trkpt>
      <trkpt lat="48.79331" lon="2.08743">
        <ele>171</ele>
        <time>2019-06-23T13:23:52Z</time>
      </trkpt>
      <trkpt lat="48.79336" lon="2.08729">
        <ele>170</ele>
        <time>2019-06-23T13:23:57Z</time>
      </trkpt>
      <trkpt lat="48.79342" lon="2.08718">
        <ele>170</ele>
        <time>2019-06-23T13:24:03Z</time>
      </trkpt>
      <trkpt lat="48.79347" lon="2.08706">
        <ele>171</ele>
        <time>2019-06-23T13:24:09Z</time>
      </trkpt>
      <trkpt lat="48.79353" lon="2.08694">
        <ele>171</ele>
        <time>2019-06-23T13:24:18Z</time>
      </trkpt>
      <trkpt lat="48.7936" lon="2.08685">
        <ele>171</ele>
        <time>2019-06-23T13:24:25Z</time>
      </trkpt>
      <trkpt lat="48.79367" lon="2.08673">
        <ele>171</ele>
        <time>2019-06-23T13:24:32Z</time>
      </trkpt>
      <trkpt lat="48.79373" lon="2.0866">
        <ele>174</ele>
        <time>2019-06-23T13:24:40Z</time>
      </trkpt>
      <trkpt lat="48.79378" lon="2.08649">
        <ele>174</ele>
        <time>2019-06-23T13:24:48Z</time>
      </trkpt>
      <trkpt lat="48.79385" lon="2.08638">
        <ele>174</ele>
        <time>2019-06-23T13:24:56Z</time>
      </trkpt>
      <trkpt lat="48.79391" lon="2.08627">
        <ele>174</ele>
        <time>2019-06-23T13:25:05Z</time>
      </trkpt>
      <trkpt lat="48.794" lon="2.0862">
        <ele>175</ele>
        <time>2019-06-23T13:25:10Z</time>
      </trkpt>
      <trkpt lat="48.7941" lon="2.08618">
        <ele>175</ele>
        <time>2019-06-23T13:25:19Z</time>
      </trkpt>
      <trkpt lat="48.79419" lon="2.08616">
        <ele>172</ele>
        <time>2019-06-23T13:25:28Z</time>
      </trkpt>
      <trkpt lat="48.79428" lon="2.08608">
        <ele>173</ele>
        <time>2019-06-23T13:25:36Z</time>
      </trkpt>
      <trkpt lat="48.79437" lon="2.086">
        <ele>173</ele>
        <time>2019-06-23T13:25:41Z</time>
      </trkpt>
      <trkpt lat="48.79446" lon="2.08596">
        <ele>172</ele>
        <time>2019-06-23T13:25:47Z</time>
      </trkpt>
      <trkpt lat="48.79457" lon="2.08592">
        <ele>172</ele>
        <time>2019-06-23T13:25:55Z</time>
      </trkpt>
      <trkpt lat="48.79466" lon="2.08586">
        <ele>171</ele>
        <time>2019-06-23T13:26:01Z</time>
      </trkpt>
      <trkpt lat="48.79474" lon="2.08578">
        <ele>173</ele>
        <time>2019-06-23T13:26:08Z</time>
      </trkpt>
      <trkpt lat="48.79481" lon="2.08568">
        <ele>173</ele>
        <time>2019-06-23T13:26:13Z</time>
      </trkpt>
      <trkpt lat="48.79486" lon="2.08554">
        <ele>173</ele>
        <time>2019-06-23T13:26:22Z</time>
      </trkpt>
      <trkpt lat="48.7949" lon="2.08539">
        <ele>173</ele>
        <time>2019-06-23T13:26:29Z</time>
      </trkpt>
      <trkpt lat="48.79493" lon="2.08526">
        <ele>173</ele>
        <time>2019-06-23T13:26:39Z</time>
      </trkpt>
      <trkpt lat="48.79501" lon="2.08517">
        <ele>170</ele>
        <time>2019-06-23T13:26:46Z</time>
      </trkpt>
      <trkpt lat="48.79507" lon="2.08506">
        <ele>171</ele>
        <time>2019-06-23T13:26:51Z</time>
      </trkpt>
      <trkpt lat="48.79513" lon="2.08494">
        <ele>170</ele>
        <time>2019-06-23T13:27:00Z</time>
      </trkpt>
      <trkpt lat="48.79516" lon="2.08481">
        <ele>170</ele>
        <time>2019-06-23T13:27:07Z</time>
      </trkpt>
      <trkpt lat="48.7952" lon="2.08467">
        <ele>169</ele>
        <time>2019-06-23T13:27:13Z</time>
      </trkpt>
      <trkpt lat="48.79521" lon="2.08452">
        <ele>170</ele>
        <time>2019-06-23T13:27:23Z</time>
      </trkpt>
      <trkpt lat="48.79528" lon="2.08441">
        <ele>169</ele>
        <time>2019-06-23T13:27:32Z</time>
      </trkpt>
      <trkpt lat="48.79531" lon="2.08429">
        <ele>170</ele>
        <time>2019-06-23T13:27:43Z</time>
      </trkpt>
      <trkpt lat="48.79535" lon="2.08416">
        <ele>170</ele>
        <time>2019-06-23T13:27:51Z</time>
      </trkpt>
      <trkpt lat="48.79531" lon="2.08401">
        <ele>171</ele>
        <time>2019-06-23T13:27:57Z</time>
      </trkpt>
      <trkpt lat="48.79531" lon="2.08384">
        <ele>171</ele>
        <time>2019-06-23T13:28:04Z</time>
      </trkpt>
      <trkpt lat="48.79529" lon="2.08368">
        <ele>171</ele>
        <time>2019-06-23T13:28:09Z</time>
      </trkpt>
      <trkpt lat="48.7953" lon="2.08352">
        <ele>171</ele>
        <time>2019-06-23T13:28:16Z</time>
      </trkpt>
      <trkpt lat="48.7953" lon="2.08338">
        <ele>171</ele>
        <time>2019-06-23T13:28:22Z</time>
      </trkpt>
      <trkpt lat="48.79531" lon="2.08322">
        <ele>172</ele>
        <time>2019-06-23T13:28:27Z</time>
      </trkpt>
      <trkpt lat="48.79534" lon="2.08307">
        <ele>172</ele>
        <time>2019-06-23T13:28:34Z</time>
      </trkpt>
      <trkpt lat="48.79539" lon="2.08295">
        <ele>171</ele>
        <time>2019-06-23T13:28:43Z</time>
      </trkpt>
      <trkpt lat="48.7954" lon="2.08281">
        <ele>171</ele>
        <time>2019-06-23T13:28:53Z</time>
      </trkpt>
      <trkpt lat="48.79546" lon="2.08267">
        <ele>171</ele>
        <time>2019-06-23T13:29:00Z</time>
      </trkpt>
      <trkpt lat="48.79552" lon="2.08256">
        <ele>171</ele>
        <time>2019-06-23T13:29:10Z</time>
      </trkpt>
      <trkpt lat="48.7956" lon="2.08248">
        <ele>171</ele>
        <time>2019-06-23T13:29:18Z</time>
      </trkpt>
      <trkpt lat="48.7957" lon="2.0824">
        <ele>171</ele>
        <time>2019-06-23T13:29:30Z</time>
      </trkpt>
      <trkpt lat="48.79578" lon="2.08233">
        <ele>171</ele>
        <time>2019-06-23T13:29:36Z</time>
      </trkpt>
      <trkpt lat="48.79581" lon="2.08219">
        <ele>172</ele>
        <time>2019-06-23T13:29:43Z</time>
      </trkpt>
      <trkpt lat="48.79582" lon="2.08205">
        <ele>173</ele>
        <time>2019-06-23T13:29:49Z</time>
      </trkpt>
      <trkpt lat="48.79585" lon="2.08192">
        <ele>170</ele>
        <time>2019-06-23T13:29:57Z</time>
      </trkpt>
      <trkpt lat="48.79592" lon="2.0818">
        <ele>171</ele>
        <time>2019-06-23T13:30:04Z</time>
      </trkpt>
      <trkpt lat="48.79598" lon="2.08168">
        <ele>171</ele>
        <time>2019-06-23T13:30:11Z</time>
      </trkpt>
      <trkpt lat="48.79604" lon="2.08155">
        <ele>173</ele>
        <time>2019-06-23T13:30:18Z</time>
      </trkpt>
      <trkpt lat="48.79608" lon="2.08143">
        <ele>173</ele>
        <time>2019-06-23T13:30:25Z</time>
      </trkpt>
      <trkpt lat="48.79614" lon="2.08129">
        <ele>173</ele>
        <time>2019-06-23T13:30:33Z</time>
      </trkpt>
      <trkpt lat="48.7962" lon="2.08119">
        <ele>173</ele>
        <time>2019-06-23T13:30:40Z</time>
      </trkpt>
      <trkpt lat="48.79623" lon="2.08104">
        <ele>173</ele>
        <time>2019-06-23T13:30:49Z</time>
      </trkpt>
      <trkpt lat="48.79628" lon="2.0809">
        <ele>174</ele>
        <time>2019-06-23T13:30:55Z</time>
      </trkpt>
      <trkpt lat="48.79632" lon="2.08076">
        <ele>176</ele>
        <time>2019-06-23T13:31:04Z</time>
      </trkpt>
      <trkpt lat="48.7964" lon="2.08068">
        <ele>176</ele>
        <time>2019-06-23T13:31:10Z</time>
      </trkpt>
      <trkpt lat="48.79637" lon="2.08053">
        <ele>176</ele>
        <time>2019-06-23T13:31:20Z</time>
      </trkpt>
      <trkpt lat="48.79635" lon="2.08038">
        <ele>176</ele>
        <time>2019-06-23T13:31:25Z</time>
      </trkpt>
      <trkpt lat="48.79637" lon="2.08024">
        <ele>176</ele>
        <time>2019-06-23T13:31:31Z</time>
      </trkpt>
      <trkpt lat="48.79638" lon="2.08009">
        <ele>176</ele>
        <time>2019-06-23T13:31:37Z</time>
      </trkpt>
      <trkpt lat="48.79642" lon="2.07996">
        <ele>177</ele>
        <time>2019-06-23T13:31:45Z</time>
      </trkpt>
      <trkpt lat="48.79641" lon="2.07981">
        <ele>177</ele>
        <time>2019-06-23T13:31:52Z</time>
      </trkpt>
      <trkpt lat="48.79645" lon="2.07966">
        <ele>177</ele>
        <time>2019-06-23T13:31:58Z</time>
      </trkpt>
      <trkpt lat="48.79648" lon="2.07951">
        <ele>177</ele>
        <time>2019-06-23T13:32:05Z</time>
      </trkpt>
      <trkpt lat="48.7965" lon="2.07937">
        <ele>177</ele>
        <time>2019-06-23T13:32:11Z</time>
      </trkpt>
      <trkpt lat="48.79651" lon="2.07922">
        <ele>177</ele>
        <time>2019-06-23T13:32:18Z</time>
      </trkpt>
      <trkpt lat="48.79652" lon="2.07908">
        <ele>177</ele>
        <time>2019-06-23T13:32:27Z</time>
      </trkpt>
      <trkpt lat="48.79654" lon="2.07893">
        <ele>177</ele>
        <time>2019-06-23T13:32:34Z</time>
      </trkpt>
      <trkpt lat="48.79656" lon="2.07878">
        <ele>177</ele>
        <time>2019-06-23T13:32:41Z</time>
      </trkpt>
      <trkpt lat="48.79661" lon="2.07867">
        <ele>177</ele>
        <time>2019-06-23T13:32:47Z</time>
      </trkpt>
      <trkpt lat="48.79659" lon="2.07852">
        <ele>177</ele>
        <time>2019-06-23T13:32:55Z</time>
      </trkpt>
      <trkpt lat="48.79664" lon="2.0784">
        <ele>177</ele>
        <time>2019-06-23T13:33:02Z</time>
      </trkpt>
      <trkpt lat="48.79668" lon="2.07825">
        <ele>176</ele>
        <time>2019-06-23T13:33:10Z</time>
      </trkpt>
      <trkpt lat="48.79671" lon="2.07812">
        <ele>175</ele>
        <time>2019-06-23T13:33:17Z</time>
      </trkpt>
      <trkpt lat="48.79675" lon="2.07798">
        <ele>174</ele>
        <time>2019-06-23T13:33:26Z</time>
      </trkpt>
      <trkpt lat="48.79681" lon="2.07788">
        <ele>174</ele>
        <time>2019-06-23T13:33:32Z</time>
      </trkpt>
      <trkpt lat="48.79689" lon="2.07779">
        <ele>174</ele>
        <time>2019-06-23T13:33:38Z</time>
      </trkpt>
      <trkpt lat="48.79696" lon="2.07769">
        <ele>174</ele>
        <time>2019-06-23T13:33:45Z</time>
      </trkpt>
      <trkpt lat="48.79698" lon="2.07755">
        <ele>174</ele>
        <time>2019-06-23T13:33:53Z</time>
      </trkpt>
      <trkpt lat="48.797" lon="2.07742">
        <ele>175</ele>
        <time>2019-06-23T13:34:00Z</time>
      </trkpt>
      <trkpt lat="48.79706" lon="2.07731">
        <ele>175</ele>
        <time>2019-06-23T13:34:09Z</time>
      </trkpt>
      <trkpt lat="48.7971" lon="2.07718">
        <ele>175</ele>
        <time>2019-06-23T13:34:17Z</time>
      </trkpt>
      <trkpt lat="48.79714" lon="2.07704">
        <ele>175</ele>
        <time>2019-06-23T13:34:22Z</time>
      </trkpt>
      <trkpt lat="48.79717" lon="2.07689">
        <ele>175</ele>
        <time>2019-06-23T13:34:30Z</time>
      </trkpt>
      <trkpt lat="48.79716" lon="2.07675">
        <ele>175</ele>
        <time>2019-06-23T13:34:35Z</time>
      </trkpt>
      <trkpt lat="48.79717" lon="2.07661">
        <ele>176</ele>
        <time>2019-06-23T13:34:44Z</time>
      </trkpt>
      <trkpt lat="48.79717" lon="2.07646">
        <ele>177</ele>
        <time>2019-06-23T13:34:53Z</time>
      </trkpt>
      <trkpt lat="48.79719" lon="2.07631">
        <ele>177</ele>
        <time>2019-06-23T13:35:01Z</time>
      </trkpt>
      <trkpt lat="48.79723" lon="2.07617">
        <ele>177</ele>
        <time>2019-06-23T13:35:10Z</time>
      </trkpt>
      <trkpt lat="48.79721" lon="2.07603">
        <ele>177</ele>
        <time>2019-06-23T13:35:18Z</time>
      </trkpt>
      <trkpt lat="48.7972" lon="2.07587">
        <ele>177</ele>
        <time>2019-06-23T13:35:24Z</time>
      </trkpt>
      <trkpt lat="48.79726" lon="2.07577">
        <ele>178</ele>
        <time>2019-06-23T13:35:33Z</time>
      </trkpt>
      <trkpt lat="48.79721" lon="2.07565">
        <ele>178</ele>
        <time>2019-06-23T13:36:03Z</time>
      </trkpt>
      <trkpt lat="48.79712" lon="2.07559">
        <ele>178</ele>
        <time>2019-06-23T13:36:10Z</time>
      </trkpt>
      <trkpt lat="48.79703" lon="2.07552">
        <ele>177</ele>
        <time>2019-06-23T13:36:17Z</time>
      </trkpt>
      <trkpt lat="48.79695" lon="2.07545">
        <ele>177</ele>
        <time>2019-06-23T13:36:25Z</time>
      </trkpt>
      <trkpt lat="48.79686" lon="2.07536">
        <ele>177</ele>
        <time>2019-06-23T13:36:34Z</time>
      </trkpt>
      <trkpt lat="48.7968" lon="2.07526">
        <ele>177</ele>
        <time>2019-06-23T13:36:39Z</time>
      </trkpt>
      <trkpt lat="48.79671" lon="2.07519">
        <ele>177</ele>
        <time>2019-06-23T13:36:45Z</time>
      </trkpt>
      <trkpt lat="48.79661" lon="2.07512">
        <ele>176</ele>
        <time>2019-06-23T13:36:52Z</time>
      </trkpt>
      <trkpt lat="48.79654" lon="2.07504">
        <ele>176</ele>
        <time>2019-06-23T13:36:59Z</time>
      </trkpt>
      <trkpt lat="48.79646" lon="2.07495">
        <ele>176</ele>
        <time>2019-06-23T13:37:06Z</time>
      </trkpt>
      <trkpt lat="48.79639" lon="2.07485">
        <ele>176</ele>
        <time>2019-06-23T13:37:16Z</time>
      </trkpt>
      <trkpt lat="48.79629" lon="2.07479">
        <ele>176</ele>
        <time>2019-06-23T13:37:24Z</time>
      </trkpt>
      <trkpt lat="48.79619" lon="2.07475">
        <ele>176</ele>
        <time>2019-06-23T13:37:32Z</time>
      </trkpt>
      <trkpt lat="48.7961" lon="2.07474">
        <ele>175</ele>
        <time>2019-06-23T13:37:37Z</time>
      </trkpt>
      <trkpt lat="48.796" lon="2.07464">
        <ele>175</ele>
        <time>2019-06-23T13:37:48Z</time>
      </trkpt>
      <trkpt lat="48.79591" lon="2.07455">
        <ele>176</ele>
        <time>2019-06-23T13:37:53Z</time>
      </trkpt>
      <trkpt lat="48.79582" lon="2.07449">
        <ele>175</ele>
        <time>2019-06-23T13:38:02Z</time>
      </trkpt>
      <trkpt lat="48.79573" lon="2.07441">
        <ele>175</ele>
        <time>2019-06-23T13:38:08Z</time>
      </trkpt>
      <trkpt lat="48.79564" lon="2.07436">
        <ele>175</ele>
        <time>2019-06-23T13:38:15Z</time>
      </trkpt>
      <trkpt lat="48.79554" lon="2.07433">
        <ele>175</ele>
        <time>2019-06-23T13:38:25Z</time>
      </trkpt>
      <trkpt lat="48.79546" lon="2.07427">
        <ele>175</ele>
        <time>2019-06-23T13:38:34Z</time>
      </trkpt>
      <trkpt lat="48.79537" lon="2.07428">
        <ele>174</ele>
        <time>2019-06-23T13:38:38Z</time>
      </trkpt>
      <trkpt lat="48.79528" lon="2.07421">
        <ele>174</ele>
        <time>2019-06-23T13:38:47Z</time>
      </trkpt>
      <trkpt lat="48.79523" lon="2.0741">
        <ele>175</ele>
        <time>2019-06-23T13:38:53Z</time>
      </trkpt>
      <trkpt lat="48.79516" lon="2.07401">
        <ele>174</ele>
        <time>2019-06-23T13:38:58Z</time>
      </trkpt>
      <trkpt lat="48.79507" lon="2.07395">
        <ele>174</ele>
        <time>2019-06-23T13:39:02Z</time>
      </trkpt>
      <trkpt lat="48.79503" lon="2.07383">
        <ele>174</ele>
        <time>2019-06-23T13:39:08Z</time>
      </trkpt>
      <trkpt lat="48.79494" lon="2.07379">
        <ele>173</ele>
        <time>2019-06-23T13:39:16Z</time>
      </trkpt>
      <trkpt lat="48.79484" lon="2.07376">
        <ele>172</ele>
        <time>2019-06-23T13:39:23Z</time>
      </trkpt>
      <trkpt lat="48.79474" lon="2.07374">
        <ele>172</ele>
        <time>2019-06-23T13:39:28Z</time>
      </trkpt>
      <trkpt lat="48.79466" lon="2.07367">
        <ele>172</ele>
        <time>2019-06-23T13:39:37Z</time>
      </trkpt>
      <trkpt lat="48.79457" lon="2.0736">
        <ele>172</ele>
        <time>2019-06-23T13:39:43Z</time>
      </trkpt>
      <trkpt lat="48.79449" lon="2.07353">
        <ele>172</ele>
        <time>2019-06-23T13:39:48Z</time>
      </trkpt>
      <trkpt lat="48.7944" lon="2.07345">
        <ele>171</ele>
        <time>2019-06-23T13:39:56Z</time>
      </trkpt>
      <trkpt lat="48.79433" lon="2.07336">
        <ele>171</ele>
        <time>2019-06-23T13:40:03Z</time>
      </trkpt>
      <trkpt lat="48.79423" lon="2.07329">
        <ele>170</ele>
        <time>2019-06-23T13:40:11Z</time>
      </trkpt>
      <trkpt lat="48.79418" lon="2.07316">
        <ele>170</ele>
        <time>2019-06-23T13:40:16Z</time>
      </trkpt>
      <trkpt lat="48.79417" lon="2.07302">
        <ele>170</ele>
        <time>2019-06-23T13:40:24Z</time>
      </trkpt>
      <trkpt lat="48.79417" lon="2.07288">
        <ele>168</ele>
        <time>2019-06-23T13:40:32Z</time>
      </trkpt>
      <trkpt lat="48.79415" lon="2.07273">
        <ele>168</ele>
        <time>2019-06-23T13:40:40Z</time>
      </trkpt>
      <trkpt lat="48.79416" lon="2.07258">
        <ele>167</ele>
        <time>2019-06-23T13:40:47Z</time>
      </trkpt>
      <trkpt lat="48.79417" lon="2.07242">
        <ele>167</ele>
        <time>2019-06-23T13:40:55Z</time>
      </trkpt>
      <trkpt lat="48.79419" lon="2.07228">
        <ele>167</ele>
        <time>2019-06-23T13:41:02Z</time>
      </trkpt>
      <trkpt lat="48.79417" lon="2.07213">
        <ele>167</ele>
        <time>2019-06-23T13:41:07Z</time>
      </trkpt>
      <trkpt lat="48.79419" lon="2.072">
        <ele>167</ele>
        <time>2019-06-23T13:41:15Z</time>
      </trkpt>
      <trkpt lat="48.79423" lon="2.07186">
        <ele>167</ele>
        <time>2019-06-23T13:41:24Z</time>
      </trkpt>
      <trkpt lat="48.79431" lon="2.07181">
        <ele>167</ele>
        <time>2019-06-23T13:41:31Z</time>
      </trkpt>
      <trkpt lat="48.79423" lon="2.07174">
        <ele>166</ele>
        <time>2019-06-23T13:41:40Z</time>
      </trkpt>
      <trkpt lat="48.79413" lon="2.07175">
        <ele>166</ele>
        <time>2019-06-23T13:41:47Z</time>
      </trkpt>
      <trkpt lat="48.79403" lon="2.07177">
        <ele>166</ele>
        <time>2019-06-23T13:41:57Z</time>
      </trkpt>
      <trkpt lat="48.79395" lon="2.07171">
        <ele>167</ele>
        <time>2019-06-23T13:42:02Z</time>
      </trkpt>
      <trkpt lat="48.79386" lon="2.07171">
        <ele>167</ele>
        <time>2019-06-23T13:42:10Z</time>
      </trkpt>
      <trkpt lat="48.79376" lon="2.07169">
        <ele>167</ele>
        <time>2019-06-23T13:42:16Z</time>
      </trkpt>
      <trkpt lat="48.79367" lon="2.07165">
        <ele>166</ele>
        <time>2019-06-23T13:42:24Z</time>
      </trkpt>
      <trkpt lat="48.79357" lon="2.07162">
        <ele>166</ele>
        <time>2019-06-23T13:42:34Z</time>
      </trkpt>
      <trkpt lat="48.79349" lon="2.07157">
        <ele>166</ele>
        <time>2019-06-23T13:42:41Z</time>
      </trkpt>
      <trkpt lat="48.79339" lon="2.07157">
        <ele>167</ele>
        <time>2019-06-23T13:42:50Z</time>
      </trkpt>
      <trkpt lat="48.7933" lon="2.07154">
        <ele>166</ele>
        <time>2019-06-23T13:42:56Z</time>
      </trkpt>
      <trkpt lat="48.79321" lon="2.07153">
        <ele>166</ele>
        <time>2019-06-23T13:43:02Z</time>
      </trkpt>
      <trkpt lat="48.79311" lon="2.07149">
        <ele>166</ele>
        <time>2019-06-23T13:43:09Z</time>
      </trkpt>
      <trkpt lat="48.79302" lon="2.07144">
        <ele>166</ele>
        <time>2019-06-23T13:43:17Z</time>
      </trkpt>
      <trkpt lat="48.79293" lon="2.0714">
        <ele>166</ele>
        <time>2019-06-23T13:43:27Z</time>
      </trkpt>
      <trkpt lat="48.79284" lon="2.07135">
        <ele>166</ele>
        <time>2019-06-23T13:43:34Z</time>
      </trkpt>
      <trkpt lat="48.79275" lon="2.0713">
        <ele>165</ele>
        <time>2019-06-23T13:43:40Z</time>
      </trkpt>
      <trkpt lat="48.79265" lon="2.07128">
        <ele>165</ele>
        <time>2019-06-23T13:43:48Z</time>
      </trkpt>
      <trkpt lat="48.79257" lon="2.07124">
        <ele>165</ele>
        <time>2019-06-23T13:43:55Z</time>
      </trkpt>
      <trkpt lat="48.79248" lon="2.07117">
        <ele>165</ele>
        <time>2019-06-23T13:44:02Z</time>
      </trkpt>
      <trkpt lat="48.79238" lon="2.07116">
        <ele>165</ele>
        <time>2019-06-23T13:44:09Z</time>
      </trkpt>
      <trkpt lat="48.79228" lon="2.07114">
        <ele>165</ele>
        <time>2019-06-23T13:44:16Z</time>
      </trkpt>
      <trkpt lat="48.79219" lon="2.0711">
        <ele>165</ele>
        <time>2019-06-23T13:44:23Z</time>
      </trkpt>
      <trkpt lat="48.79209" lon="2.07106">
        <ele>165</ele>
        <time>2019-06-23T13:44:30Z</time>
      </trkpt>
      <trkpt lat="48.79198" lon="2.07104">
        <ele>165</ele>
        <time>2019-06-23T13:44:37Z</time>
      </trkpt>
      <trkpt lat="48.79188" lon="2.071">
        <ele>166</ele>
        <time>2019-06-23T13:44:46Z</time>
      </trkpt>
      <trkpt lat="48.79178" lon="2.071">
        <ele>166</ele>
        <time>2019-06-23T13:44:52Z</time>
      </trkpt>
      <trkpt lat="48.7917" lon="2.07096">
        <ele>166</ele>
        <time>2019-06-23T13:44:59Z</time>
      </trkpt>
      <trkpt lat="48.7916" lon="2.07096">
        <ele>166</ele>
        <time>2019-06-23T13:45:07Z</time>
      </trkpt>
      <trkpt lat="48.7915" lon="2.0709">
        <ele>166</ele>
        <time>2019-06-23T13:45:15Z</time>
      </trkpt>
      <trkpt lat="48.79141" lon="2.07087">
        <ele>166</ele>
        <time>2019-06-23T13:45:20Z</time>
      </trkpt>
      <trkpt lat="48.79132" lon="2.07085">
        <ele>166</ele>
        <time>2019-06-23T13:45:33Z</time>
      </trkpt>
      <trkpt lat="48.79123" lon="2.0708">
        <ele>166</ele>
        <time>2019-06-23T13:45:41Z</time>
      </trkpt>
      <trkpt lat="48.79115" lon="2.07088">
        <ele>166</ele>
        <time>2019-06-23T13:45:53Z</time>
      </trkpt>
      <trkpt lat="48.79107" lon="2.07098">
        <ele>166</ele>
        <time>2019-06-23T13:46:03Z</time>
      </trkpt>
      <trkpt lat="48.79104" lon="2.07112">
        <ele>166</ele>
        <time>2019-06-23T13:46:10Z</time>
      </trkpt>
      <trkpt lat="48.79099" lon="2.07126">
        <ele>166</ele>
        <time>2019-06-23T13:46:18Z</time>
      </trkpt>
      <trkpt lat="48.79096" lon="2.07143">
        <ele>166</ele>
        <time>2019-06-23T13:46:26Z</time>
      </trkpt>
      <trkpt lat="48.79092" lon="2.07155">
        <ele>165</ele>
        <time>2019-06-23T13:46:33Z</time>
      </trkpt>
      <trkpt lat="48.79087" lon="2.07167">
        <ele>165</ele>
        <time>2019-06-23T13:46:39Z</time>
      </trkpt>
      <trkpt lat="48.79077" lon="2.07176">
        <ele>166</ele>
        <time>2019-06-23T13:46:47Z</time>
      </trkpt>
      <trkpt lat="48.79067" lon="2.07172">
        <ele>167</ele>
        <time>2019-06-23T13:46:55Z</time>
      </trkpt>
      <trkpt lat="48.79058" lon="2.07163">
        <ele>166</ele>
        <time>2019-06-23T13:47:02Z</time>
      </trkpt>
      <trkpt lat="48.79051" lon="2.07154">
        <ele>166</ele>
        <time>2019-06-23T13:47:09Z</time>
      </trkpt>
      <trkpt lat="48.79045" lon="2.07142">
        <ele>166</ele>
        <time>2019-06-23T13:47:15Z</time>
      </trkpt>
      <trkpt lat="48.79038" lon="2.07132">
        <ele>166</ele>
        <time>2019-06-23T13:47:24Z</time>
      </trkpt>
      <trkpt lat="48.7903" lon="2.07125">
        <ele>166</ele>
        <time>2019-06-23T13:47:34Z</time>
      </trkpt>
      <trkpt lat="48.79022" lon="2.07117">
        <ele>166</ele>
        <time>2019-06-23T13:47:40Z</time>
      </trkpt>
      <trkpt lat="48.79013" lon="2.0711">
        <ele>165</ele>
        <time>2019-06-23T13:47:46Z</time>
      </trkpt>
      <trkpt lat="48.79005" lon="2.071">
        <ele>165</ele>
        <time>2019-06-23T13:47:52Z</time>
      </trkpt>
      <trkpt lat="48.78998" lon="2.0709">
        <ele>165</ele>
        <time>2019-06-23T13:48:00Z</time>
      </trkpt>
      <trkpt lat="48.78991" lon="2.0708">
        <ele>164</ele>
        <time>2019-06-23T13:48:07Z</time>
      </trkpt>
      <trkpt lat="48.78983" lon="2.07069">
        <ele>164</ele>
        <time>2019-06-23T13:48:13Z</time>
      </trkpt>
      <trkpt lat="48.78976" lon="2.07059">
        <ele>163</ele>
        <time>2019-06-23T13:48:22Z</time>
      </trkpt>
      <trkpt lat="48.78969" lon="2.0705">
        <ele>163</ele>
        <time>2019-06-23T13:48:27Z</time>
      </trkpt>
      <trkpt lat="48.78961" lon="2.07042">
        <ele>163</ele>
        <time>2019-06-23T13:48:35Z</time>
      </trkpt>
      <trkpt lat="48.78953" lon="2.07036">
        <ele>163</ele>
        <time>2019-06-23T13:48:41Z</time>
      </trkpt>
      <trkpt lat="48.78948" lon="2.07023">
        <ele>162</ele>
        <time>2019-06-23T13:48:48Z</time>
      </trkpt>
      <trkpt lat="48.78941" lon="2.07013">
        <ele>162</ele>
        <time>2019-06-23T13:48:55Z</time>
      </trkpt>
      <trkpt lat="48.78932" lon="2.0701">
        <ele>161</ele>
        <time>2019-06-23T13:49:03Z</time>
      </trkpt>
      <trkpt lat="48.78922" lon="2.07013">
        <ele>161</ele>
        <time>2019-06-23T13:49:11Z</time>
      </trkpt>
      <trkpt lat="48.78914" lon="2.07006">
        <ele>160</ele>
        <time>2019-06-23T13:49:18Z</time>
      </trkpt>
      <trkpt lat="48.78904" lon="2.07003">
        <ele>160</ele>
        <time>2019-06-23T13:49:28Z</time>
      </trkpt>
      <trkpt lat="48.78894" lon="2.06997">
        <ele>160</ele>
        <time>2019-06-23T13:49:36Z</time>
      </trkpt>
      <trkpt lat="48.78885" lon="2.06997">
        <ele>160</ele>
        <time>2019-06-23T13:49:42Z</time>
      </trkpt>
      <trkpt lat="48.78875" lon="2.06994">
        <ele>160</ele>
        <time>2019-06-23T13:49:50Z</time>
      </trkpt>
      <trkpt lat="48.78866" lon="2.0699">
        <ele>160</ele>
        <time>2019-06-23T13:49:58Z</time>
      </trkpt>
      <trkpt lat="48.78855" lon="2.06988">
        <ele>161</ele>
        <time>2019-06-23T13:50:10Z</time>
      </trkpt>
      <trkpt lat="48.78845" lon="2.06987">
        <ele>161</ele>
        <time>2019-06-23T13:50:15Z</time>
      </trkpt>
      <trkpt lat="48.78836" lon="2.06986">
        <ele>161</ele>
        <time>2019-06-23T13:50:19Z</time>
      </trkpt>
      <trkpt lat="48.78826" lon="2.06987">
        <ele>162</ele>
        <time>2019-06-23T13:50:27Z</time>
      </trkpt>
      <trkpt lat="48.78818" lon="2.06992">
        <ele>162</ele>
        <time>2019-06-23T13:50:36Z</time>
      </trkpt>
      <trkpt lat="48.78811" lon="2.07002">
        <ele>162</ele>
        <time>2019-06-23T13:50:43Z</time>
      </trkpt>
      <trkpt lat="48.78804" lon="2.07012">
        <ele>162</ele>
        <time>2019-06-23T13:50:52Z</time>
      </trkpt>
      <trkpt lat="48.78798" lon="2.07023">
        <ele>162</ele>
        <time>2019-06-23T13:51:01Z</time>
      </trkpt>
      <trkpt lat="48.78794" lon="2.07036">
        <ele>162</ele>
        <time>2019-06-23T13:51:12Z</time>
      </trkpt>
      <trkpt lat="48.78792" lon="2.07053">
        <ele>161</ele>
        <time>2019-06-23T13:51:21Z</time>
      </trkpt>
      <trkpt lat="48.7879" lon="2.07066">
        <ele>161</ele>
        <time>2019-06-23T13:51:25Z</time>
      </trkpt>
      <trkpt lat="48.78789" lon="2.07081">
        <ele>161</ele>
        <time>2019-06-23T13:51:30Z</time>
      </trkpt>
      <trkpt lat="48.78788" lon="2.07096">
        <ele>161</ele>
        <time>2019-06-23T13:51:38Z</time>
      </trkpt>
      <trkpt lat="48.78786" lon="2.07109">
        <ele>161</ele>
        <time>2019-06-23T13:51:46Z</time>
      </trkpt>
      <trkpt lat="48.78785" lon="2.07123">
        <ele>161</ele>
        <time>2019-06-23T13:51:52Z</time>
      </trkpt>
      <trkpt lat="48.78786" lon="2.07139">
        <ele>161</ele>
        <time>2019-06-23T13:51:59Z</time>
      </trkpt>
      <trkpt lat="48.78785" lon="2.07153">
        <ele>161</ele>
        <time>2019-06-23T13:52:07Z</time>
      </trkpt>
      <trkpt lat="48.7878" lon="2.07167">
        <ele>161</ele>
        <time>2019-06-23T13:52:17Z</time>
      </trkpt>
      <trkpt lat="48.78775" lon="2.07181">
        <ele>161</ele>
        <time>2019-06-23T13:52:21Z</time>
      </trkpt>
      <trkpt lat="48.78772" lon="2.07194">
        <ele>161</ele>
        <time>2019-06-23T13:52:30Z</time>
      </trkpt>
      <trkpt lat="48.78771" lon="2.07208">
        <ele>161</ele>
        <time>2019-06-23T13:52:38Z</time>
      </trkpt>
      <trkpt lat="48.78769" lon="2.07224">
        <ele>161</ele>
        <time>2019-06-23T13:52:44Z</time>
      </trkpt>
      <trkpt lat="48.78765" lon="2.07238">
        <ele>160</ele>
        <time>2019-06-23T13:52:50Z</time>
      </trkpt>
      <trkpt lat="48.78759" lon="2.07249">
        <ele>160</ele>
        <time>2019-06-23T13:52:57Z</time>
      </trkpt>
      <trkpt lat="48.78751" lon="2.07257">
        <ele>159</ele>
        <time>2019-06-23T13:53:04Z</time>
      </trkpt>
      <trkpt lat="48.78748" lon="2.07271">
        <ele>158</ele>
        <time>2019-06-23T13:53:11Z</time>
      </trkpt>
      <trkpt lat="48.78744" lon="2.07286">
        <ele>157</ele>
        <time>2019-06-23T13:53:18Z</time>
      </trkpt>
      <trkpt lat="48.78739" lon="2.07298">
        <ele>157</ele>
        <time>2019-06-23T13:53:27Z</time>
      </trkpt>
      <trkpt lat="48.78738" lon="2.07312">
        <ele>157</ele>
        <time>2019-06-23T13:53:33Z</time>
      </trkpt>
      <trkpt lat="48.78735" lon="2.07325">
        <ele>157</ele>
        <time>2019-06-23T13:53:42Z</time>
      </trkpt>
      <trkpt lat="48.78732" lon="2.07339">
        <ele>156</ele>
        <time>2019-06-23T13:53:49Z</time>
      </trkpt>
      <trkpt lat="48.78728" lon="2.07353">
        <ele>156</ele>
        <time>2019-06-23T13:53:55Z</time>
      </trkpt>
      <trkpt lat="48.78726" lon="2.07367">
        <ele>156</ele>
        <time>2019-06-23T13:54:04Z</time>
      </trkpt>
      <trkpt lat="48.78723" lon="2.07381">
        <ele>156</ele>
        <time>2019-06-23T13:54:12Z</time>
      </trkpt>
      <trkpt lat="48.7872" lon="2.07395">
        <ele>156</ele>
        <time>2019-06-23T13:54:19Z</time>
      </trkpt>
      <trkpt lat="48.78717" lon="2.07409">
        <ele>156</ele>
        <time>2019-06-23T13:54:26Z</time>
      </trkpt>
      <trkpt lat="48.78715" lon="2.07424">
        <ele>157</ele>
        <time>2019-06-23T13:54:33Z</time>
      </trkpt>
      <trkpt lat="48.78715" lon="2.07439">
        <ele>157</ele>
        <time>2019-06-23T13:54:39Z</time>
      </trkpt>
      <trkpt lat="48.78714" lon="2.07453">
        <ele>157</ele>
        <time>2019-06-23T13:54:46Z</time>
      </trkpt>
      <trkpt lat="48.78714" lon="2.07468">
        <ele>157</ele>
        <time>2019-06-23T13:54:52Z</time>
      </trkpt>
      <trkpt lat="48.78713" lon="2.07483">
        <ele>157</ele>
        <time>2019-06-23T13:54:58Z</time>
      </trkpt>
      <trkpt lat="48.78713" lon="2.07498">
        <ele>158</ele>
        <time>2019-06-23T13:55:05Z</time>
      </trkpt>
      <trkpt lat="48.78713" lon="2.07512">
        <ele>158</ele>
        <time>2019-06-23T13:55:14Z</time>
      </trkpt>
      <trkpt lat="48.78712" lon="2.07526">
        <ele>158</ele>
        <time>2019-06-23T13:55:20Z</time>
      </trkpt>
      <trkpt lat="48.7871" lon="2.07542">
        <ele>158</ele>
        <time>2019-06-23T13:55:25Z</time>
      </trkpt>
      <trkpt lat="48.78707" lon="2.07557">
        <ele>159</ele>
        <time>2019-06-23T13:55:32Z</time>
      </trkpt>
      <trkpt lat="48.78708" lon="2.07572">
        <ele>158</ele>
        <time>2019-06-23T13:55:40Z</time>
      </trkpt>
      <trkpt lat="48.7871" lon="2.07588">
        <ele>159</ele>
        <time>2019-06-23T13:55:48Z</time>
      </trkpt>
      <trkpt lat="48.78712" lon="2.07604">
        <ele>159</ele>
        <time>2019-06-23T13:55:57Z</time>
      </trkpt>
      <trkpt lat="48.78712" lon="2.07617">
        <ele>159</ele>
        <time>2019-06-23T13:56:03Z</time>
      </trkpt>
      <trkpt lat="48.78711" lon="2.07631">
        <ele>159</ele>
        <time>2019-06-23T13:56:10Z</time>
      </trkpt>
      <trkpt lat="48.78711" lon="2.07646">
        <ele>159</ele>
        <time>2019-06-23T13:56:18Z</time>
      </trkpt>
      <trkpt lat="48.78713" lon="2.07661">
        <ele>158</ele>
        <time>2019-06-23T13:56:26Z</time>
      </trkpt>
      <trkpt lat="48.78713" lon="2.07675">
        <ele>158</ele>
        <time>2019-06-23T13:56:32Z</time>
      </trkpt>
      <trkpt lat="48.78713" lon="2.07692">
        <ele>158</ele>
        <time>2019-06-23T13:56:41Z</time>
      </trkpt>
      <trkpt lat="48.78708" lon="2.07706">
        <ele>159</ele>
        <time>2019-06-23T13:56:46Z</time>
      </trkpt>
      <trkpt lat="48.78707" lon="2.07721">
        <ele>158</ele>
        <time>2019-06-23T13:56:56Z</time>
      </trkpt>
      <trkpt lat="48.78707" lon="2.07736">
        <ele>158</ele>
        <time>2019-06-23T13:57:02Z</time>
      </trkpt>
      <trkpt lat="48.78709" lon="2.07751">
        <ele>158</ele>
        <time>2019-06-23T13:57:08Z</time>
      </trkpt>
      <trkpt lat="48.78706" lon="2.07765">
        <ele>159</ele>
        <time>2019-06-23T13:57:14Z</time>
      </trkpt>
      <trkpt lat="48.78704" lon="2.07779">
        <ele>159</ele>
        <time>2019-06-23T13:57:21Z</time>
      </trkpt>
      <trkpt lat="48.78703" lon="2.07797">
        <ele>159</ele>
        <time>2019-06-23T13:57:30Z</time>
      </trkpt>
      <trkpt lat="48.78702" lon="2.0781">
        <ele>159</ele>
        <time>2019-06-23T13:57:35Z</time>
      </trkpt>
      <trkpt lat="48.78702" lon="2.07825">
        <ele>159</ele>
        <time>2019-06-23T13:57:45Z</time>
      </trkpt>
      <trkpt lat="48.78705" lon="2.0784">
        <ele>160</ele>
        <time>2019-06-23T13:57:53Z</time>
      </trkpt>
      <trkpt lat="48.78706" lon="2.07855">
        <ele>160</ele>
        <time>2019-06-23T13:57:59Z</time>
      </trkpt>
      <trkpt lat="48.78706" lon="2.07869">
        <ele>160</ele>
        <time>2019-06-23T13:58:06Z</time>
      </trkpt>
      <trkpt lat="48.78704" lon="2.07883">
        <ele>160</ele>
        <time>2019-06-23T13:58:13Z</time>
      </trkpt>
      <trkpt lat="48.787" lon="2.07897">
        <ele>160</ele>
        <time>2019-06-23T13:58:22Z</time>
      </trkpt>
      <trkpt lat="48.787" lon="2.07914">
        <ele>160</ele>
        <time>2019-06-23T13:58:28Z</time>
      </trkpt>
      <trkpt lat="48.787" lon="2.07928">
        <ele>160</ele>
        <time>2019-06-23T13:58:36Z</time>
      </trkpt>
      <trkpt lat="48.787" lon="2.07942">
        <ele>159</ele>
        <time>2019-06-23T13:58:42Z</time>
      </trkpt>
      <trkpt lat="48.78699" lon="2.07958">
        <ele>159</ele>
        <time>2019-06-23T13:58:50Z</time>
      </trkpt>
      <trkpt lat="48.78698" lon="2.07973">
        <ele>159</ele>
        <time>2019-06-23T13:58:55Z</time>
      </trkpt>
      <trkpt lat="48.78695" lon="2.07987">
        <ele>159</ele>
        <time>2019-06-23T13:59:04Z</time>
      </trkpt>
      <trkpt lat="48.78692" lon="2.08">
        <ele>156</ele>
        <time>2019-06-23T13:59:12Z</time>
      </trkpt>
      <trkpt lat="48.78685" lon="2.0801">
        <ele>156</ele>
        <time>2019-06-23T13:59:19Z</time>
      </trkpt>
      <trkpt lat="48.78679" lon="2.08022">
        <ele>155</ele>
        <time>2019-06-23T13:59:24Z</time>
      </trkpt>
      <trkpt lat="48.78676" lon="2.08036">
        <ele>154</ele>
        <time>2019-06-23T13:59:30Z</time>
      </trkpt>
      <trkpt lat="48.7867" lon="2.08046">
        <ele>154</ele>
        <time>2019-06-23T13:59:38Z</time>
      </trkpt>
      <trkpt lat="48.78661" lon="2.08052">
        <ele>154</ele>
        <time>2019-06-23T13:59:48Z</time>
      </trkpt>
      <trkpt lat="48.78653" lon="2.08055">
        <ele>154</ele>
        <time>2019-06-23T13:59:54Z</time>
      </trkpt>
      <trkpt lat="48.78643" lon="2.08058">
        <ele>154</ele>
        <time>2019-06-23T14:00:01Z</time>
      </trkpt>
      <trkpt lat="48.78634" lon="2.08059">
        <ele>153</ele>
        <time>2019-06-23T14:00:07Z</time>
      </trkpt>
      <trkpt lat="48.78623" lon="2.08058">
        <ele>153</ele>
        <time>2019-06-23T14:00:15Z</time>
      </trkpt>
      <trkpt lat="48.78615" lon="2.08055">
        <ele>153</ele>
        <time>2019-06-23T14:00:26Z</time>
      </trkpt>
      <trkpt lat="48.78605" lon="2.0805">
        <ele>153</ele>
        <time>2019-06-23T14:00:33Z</time>
      </trkpt>
      <trkpt lat="48.78596" lon="2.08047">
        <ele>154</ele>
        <time>2019-06-23T14:00:41Z</time>
      </trkpt>
      <trkpt lat="48.78587" lon="2.08041">
        <ele>154</ele>
        <time>2019-06-23T14:00:46Z</time>
      </trkpt>
      <trkpt lat="48.78577" lon="2.08037">
        <ele>150</ele>
        <time>2019-06-23T14:00:52Z</time>
      </trkpt>
      <trkpt lat="48.78568" lon="2.08033">
        <ele>149</ele>
        <time>2019-06-23T14:00:59Z</time>
      </trkpt>
      <trkpt lat="48.78561" lon="2.08025">
        <ele>150</ele>
        <time>2019-06-23T14:01:08Z</time>
      </trkpt>
      <trkpt lat="48.78555" lon="2.08015">
        <ele>150</ele>
        <time>2019-06-23T14:01:14Z</time>
      </trkpt>
      <trkpt lat="48.78549" lon="2.08004">
        <ele>149</ele>
        <time>2019-06-23T14:01:21Z</time>
      </trkpt>
      <trkpt lat="48.78547" lon="2.0799">
        <ele>153</ele>
        <time>2019-06-23T14:01:26Z</time>
      </trkpt>
      <trkpt lat="48.78545" lon="2.07976">
        <ele>153</ele>
        <time>2019-06-23T14:01:31Z</time>
      </trkpt>
      <trkpt lat="48.7854" lon="2.07962">
        <ele>153</ele>
        <time>2019-06-23T14:01:40Z</time>
      </trkpt>
      <trkpt lat="48.78541" lon="2.07948">
        <ele>153</ele>
        <time>2019-06-23T14:01:47Z</time>
      </trkpt>
      <trkpt lat="48.78542" lon="2.07935">
        <ele>154</ele>
        <time>2019-06-23T14:01:53Z</time>
      </trkpt>
      <trkpt lat="48.78537" lon="2.07921">
        <ele>153</ele>
        <time>2019-06-23T14:02:04Z</time>
      </trkpt>
      <trkpt lat="48.7853" lon="2.07908">
        <ele>154</ele>
        <time>2019-06-23T14:02:11Z</time>
      </trkpt>
      <trkpt lat="48.78528" lon="2.07894">
        <ele>155</ele>
        <time>2019-06-23T14:02:19Z</time>
      </trkpt>
      <trkpt lat="48.78519" lon="2.07887">
        <ele>154</ele>
        <time>2019-06-23T14:02:27Z</time>
      </trkpt>
      <trkpt lat="48.78513" lon="2.07875">
        <ele>154</ele>
        <time>2019-06-23T14:02:32Z</time>
      </trkpt>
      <trkpt lat="48.78504" lon="2.07867">
        <ele>154</ele>
        <time>2019-06-23T14:02:41Z</time>
      </trkpt>
      <trkpt lat="48.785" lon="2.07852">
        <ele>154</ele>
        <time>2019-06-23T14:02:47Z</time>
      </trkpt>
      <trkpt lat="48.78495" lon="2.0784">
        <ele>151</ele>
        <time>2019-06-23T14:02:56Z</time>
      </trkpt>
      <trkpt lat="48.78488" lon="2.07831">
        <ele>150</ele>
        <time>2019-06-23T14:03:04Z</time>
      </trkpt>
      <trkpt lat="48.7848" lon="2.07815">
        <ele>149</ele>
        <time>2019-06-23T14:03:09Z</time>
      </trkpt>
      <trkpt lat="48.78473" lon="2.07804">
        <ele>149</ele>
        <time>2019-06-23T14:03:15Z</time>
      </trkpt>
      <trkpt lat="48.78464" lon="2.07802">
        <ele>148</ele>
        <time>2019-06-23T14:03:29Z</time>
      </trkpt>
      <trkpt lat="48.7846" lon="2.07788">
        <ele>148</ele>
        <time>2019-06-23T14:03:35Z</time>
      </trkpt>
      <trkpt lat="48.78452" lon="2.07773">
        <ele>148</ele>
        <time>2019-06-23T14:03:40Z</time>
      </trkpt>
      <trkpt lat="48.78445" lon="2.07759">
        <ele>147</ele>
        <time>2019-06-23T14:03:46Z</time>
      </trkpt>
      <trkpt lat="48.78443" lon="2.07743">
        <ele>148</ele>
        <time>2019-06-23T14:03:51Z</time>
      </trkpt>
      <trkpt lat="48.78444" lon="2.07729">
        <ele>149</ele>
        <time>2019-06-23T14:03:59Z</time>
      </trkpt>
      <trkpt lat="48.78441" lon="2.07714">
        <ele>149</ele>
        <time>2019-06-23T14:04:07Z</time>
      </trkpt>
      <trkpt lat="48.78438" lon="2.07701">
        <ele>150</ele>
        <time>2019-06-23T14:04:13Z</time>
      </trkpt>
      <trkpt lat="48.7843" lon="2.07691">
        <ele>149</ele>
        <time>2019-06-23T14:04:22Z</time>
      </trkpt>
      <trkpt lat="48.78423" lon="2.07684">
        <ele>149</ele>
        <time>2019-06-23T14:04:30Z</time>
      </trkpt>
      <trkpt lat="48.78418" lon="2.07671">
        <ele>148</ele>
        <time>2019-06-23T14:04:38Z</time>
      </trkpt>
      <trkpt lat="48.78416" lon="2.07656">
        <ele>148</ele>
        <time>2019-06-23T14:04:45Z</time>
      </trkpt>
      <trkpt lat="48.78413" lon="2.07642">
        <ele>148</ele>
        <time>2019-06-23T14:04:52Z</time>
      </trkpt>
      <trkpt lat="48.78405" lon="2.07633">
        <ele>148</ele>
        <time>2019-06-23T14:04:59Z</time>
      </trkpt>
      <trkpt lat="48.784" lon="2.0762">
        <ele>148</ele>
        <time>2019-06-23T14:05:08Z</time>
      </trkpt>
      <trkpt lat="48.78392" lon="2.07611">
        <ele>148</ele>
        <time>2019-06-23T14:05:18Z</time>
      </trkpt>
      <trkpt lat="48.78384" lon="2.07605">
        <ele>148</ele>
        <time>2019-06-23T14:05:24Z</time>
      </trkpt>
      <trkpt lat="48.78374" lon="2.07601">
        <ele>148</ele>
        <time>2019-06-23T14:05:40Z</time>
      </trkpt>
      <trkpt lat="48.78364" lon="2.07598">
        <ele>147</ele>
        <time>2019-06-23T14:05:46Z</time>
      </trkpt>
      <trkpt lat="48.78355" lon="2.07594">
        <ele>147</ele>
        <time>2019-06-23T14:05:52Z</time>
      </trkpt>
      <trkpt lat="48.78346" lon="2.07593">
        <ele>147</ele>
        <time>2019-06-23T14:06:02Z</time>
      </trkpt>
      <trkpt lat="48.78336" lon="2.07591">
        <ele>147</ele>
        <time>2019-06-23T14:06:09Z</time>
      </trkpt>
      <trkpt lat="48.78326" lon="2.07587">
        <ele>146</ele>
        <time>2019-06-23T14:06:17Z</time>
      </trkpt>
      <trkpt lat="48.78318" lon="2.07576">
        <ele>147</ele>
        <time>2019-06-23T14:06:24Z</time>
      </trkpt>
      <trkpt lat="48.78311" lon="2.07568">
        <ele>147</ele>
        <time>2019-06-23T14:06:31Z</time>
      </trkpt>
      <trkpt lat="48.78304" lon="2.07558">
        <ele>147</ele>
        <time>2019-06-23T14:06:43Z</time>
      </trkpt>
      <trkpt lat="48.78295" lon="2.07552">
        <ele>146</ele>
        <time>2019-06-23T14:06:54Z</time>
      </trkpt>
      <trkpt lat="48.78285" lon="2.07547">
        <ele>146</ele>
        <time>2019-06-23T14:07:04Z</time>
      </trkpt>
      <trkpt lat="48.78278" lon="2.07538">
        <ele>146</ele>
        <time>2019-06-23T14:07:13Z</time>
      </trkpt>
      <trkpt lat="48.78274" lon="2.07525">
        <ele>146</ele>
        <time>2019-06-23T14:07:19Z</time>
      </trkpt>
      <trkpt lat="48.78269" lon="2.07512">
        <ele>146</ele>
        <time>2019-06-23T14:07:25Z</time>
      </trkpt>
      <trkpt lat="48.78268" lon="2.07495">
        <ele>148</ele>
        <time>2019-06-23T14:07:29Z</time>
      </trkpt>
      <trkpt lat="48.78269" lon="2.0748">
        <ele>149</ele>
        <time>2019-06-23T14:07:36Z</time>
      </trkpt>
      <trkpt lat="48.7827" lon="2.07466">
        <ele>150</ele>
        <time>2019-06-23T14:07:44Z</time>
      </trkpt>
      <trkpt lat="48.78265" lon="2.07452">
        <ele>151</ele>
        <time>2019-06-23T14:07:55Z</time>
      </trkpt>
      <trkpt lat="48.78263" lon="2.07438">
        <ele>151</ele>
        <time>2019-06-23T14:08:07Z</time>
      </trkpt>
      <trkpt lat="48.78258" lon="2.07426">
        <ele>151</ele>
        <time>2019-06-23T14:08:13Z</time>
      </trkpt>
      <trkpt lat="48.78253" lon="2.07411">
        <ele>151</ele>
        <time>2019-06-23T14:08:17Z</time>
      </trkpt>
      <trkpt lat="48.78252" lon="2.07396">
        <ele>152</ele>
        <time>2019-06-23T14:08:23Z</time>
      </trkpt>
      <trkpt lat="48.78253" lon="2.07381">
        <ele>153</ele>
        <time>2019-06-23T14:08:39Z</time>
      </trkpt>
      <trkpt lat="48.78244" lon="2.07375">
        <ele>147</ele>
        <time>2019-06-23T14:08:50Z</time>
      </trkpt>
      <trkpt lat="48.78241" lon="2.07361">
        <ele>147</ele>
        <time>2019-06-23T14:09:59Z</time>
      </trkpt>
      <trkpt lat="48.78242" lon="2.07347">
        <ele>148</ele>
        <time>2019-06-23T14:10:26Z</time>
      </trkpt>
      <trkpt lat="48.7824" lon="2.07333">
        <ele>150</ele>
        <time>2019-06-23T14:10:37Z</time>
      </trkpt>
      <trkpt lat="48.78237" lon="2.07319">
        <ele>149</ele>
        <time>2019-06-23T14:10:47Z</time>
      </trkpt>
      <trkpt lat="48.78233" lon="2.07306">
        <ele>148</ele>
        <time>2019-06-23T14:10:58Z</time>
      </trkpt>
      <trkpt lat="48.78228" lon="2.07294">
        <ele>147</ele>
        <time>2019-06-23T14:11:06Z</time>
      </trkpt>
      <trkpt lat="48.78231" lon="2.07281">
        <ele>148</ele>
        <time>2019-06-23T14:11:15Z</time>
      </trkpt>
      <trkpt lat="48.78234" lon="2.07267">
        <ele>149</ele>
        <time>2019-06-23T14:11:23Z</time>
      </trkpt>
      <trkpt lat="48.78235" lon="2.07253">
        <ele>150</ele>
        <time>2019-06-23T14:11:31Z</time>
      </trkpt>
      <trkpt lat="48.78232" lon="2.07238">
        <ele>149</ele>
        <time>2019-06-23T14:11:42Z</time>
      </trkpt>
      <trkpt lat="48.78234" lon="2.07222">
        <ele>148</ele>
        <time>2019-06-23T14:12:13Z</time>
      </trkpt>
      <trkpt lat="48.78234" lon="2.07208">
        <ele>148</ele>
        <time>2019-06-23T14:12:21Z</time>
      </trkpt>
      <trkpt lat="48.78227" lon="2.07198">
        <ele>148</ele>
        <time>2019-06-23T14:12:27Z</time>
      </trkpt>
      <trkpt lat="48.78224" lon="2.07183">
        <ele>148</ele>
        <time>2019-06-23T14:12:33Z</time>
      </trkpt>
      <trkpt lat="48.78221" lon="2.07169">
        <ele>147</ele>
        <time>2019-06-23T14:12:41Z</time>
      </trkpt>
      <trkpt lat="48.78218" lon="2.07156">
        <ele>147</ele>
        <time>2019-06-23T14:13:14Z</time>
      </trkpt>
      <trkpt lat="48.78214" lon="2.07144">
        <ele>147</ele>
        <time>2019-06-23T14:13:19Z</time>
      </trkpt>
      <trkpt lat="48.78212" lon="2.0713">
        <ele>147</ele>
        <time>2019-06-23T14:13:29Z</time>
      </trkpt>
      <trkpt lat="48.78217" lon="2.07119">
        <ele>147</ele>
        <time>2019-06-23T14:13:33Z</time>
      </trkpt>
      <trkpt lat="48.78221" lon="2.07104">
        <ele>148</ele>
        <time>2019-06-23T14:13:40Z</time>
      </trkpt>
      <trkpt lat="48.78223" lon="2.07089">
        <ele>148</ele>
        <time>2019-06-23T14:13:50Z</time>
      </trkpt>
      <trkpt lat="48.78223" lon="2.07075">
        <ele>149</ele>
        <time>2019-06-23T14:14:01Z</time>
      </trkpt>
      <trkpt lat="48.78216" lon="2.07065">
        <ele>148</ele>
        <time>2019-06-23T14:14:11Z</time>
      </trkpt>
      <trkpt lat="48.78208" lon="2.07056">
        <ele>148</ele>
        <time>2019-06-23T14:14:17Z</time>
      </trkpt>
      <trkpt lat="48.78203" lon="2.07043">
        <ele>147</ele>
        <time>2019-06-23T14:14:26Z</time>
      </trkpt>
      <trkpt lat="48.78201" lon="2.07028">
        <ele>147</ele>
        <time>2019-06-23T14:14:39Z</time>
      </trkpt>
      <trkpt lat="48.78194" lon="2.07016">
        <ele>147</ele>
        <time>2019-06-23T14:14:45Z</time>
      </trkpt>
      <trkpt lat="48.78186" lon="2.07008">
        <ele>145</ele>
        <time>2019-06-23T14:14:54Z</time>
      </trkpt>
      <trkpt lat="48.78181" lon="2.06994">
        <ele>146</ele>
        <time>2019-06-23T14:15:05Z</time>
      </trkpt>
      <trkpt lat="48.78179" lon="2.0698">
        <ele>147</ele>
        <time>2019-06-23T14:15:10Z</time>
      </trkpt>
      <trkpt lat="48.78175" lon="2.06967">
        <ele>148</ele>
        <time>2019-06-23T14:15:16Z</time>
      </trkpt>
      <trkpt lat="48.78169" lon="2.06956">
        <ele>148</ele>
        <time>2019-06-23T14:15:25Z</time>
      </trkpt>
      <trkpt lat="48.78163" lon="2.06945">
        <ele>143</ele>
        <time>2019-06-23T14:15:37Z</time>
      </trkpt>
      <trkpt lat="48.78159" lon="2.06931">
        <ele>144</ele>
        <time>2019-06-23T14:15:44Z</time>
      </trkpt>
      <trkpt lat="48.78154" lon="2.06919">
        <ele>145</ele>
        <time>2019-06-23T14:15:57Z</time>
      </trkpt>
      <trkpt lat="48.7815" lon="2.06906">
        <ele>146</ele>
        <time>2019-06-23T14:16:03Z</time>
      </trkpt>
      <trkpt lat="48.78142" lon="2.06897">
        <ele>145</ele>
        <time>2019-06-23T14:16:09Z</time>
      </trkpt>
      <trkpt lat="48.78131" lon="2.06893">
        <ele>145</ele>
        <time>2019-06-23T14:16:17Z</time>
      </trkpt>
      <trkpt lat="48.78123" lon="2.06887">
        <ele>144</ele>
        <time>2019-06-23T14:16:24Z</time>
      </trkpt>
      <trkpt lat="48.78115" lon="2.0688">
        <ele>144</ele>
        <time>2019-06-23T14:16:31Z</time>
      </trkpt>
      <trkpt lat="48.78105" lon="2.06876">
        <ele>144</ele>
        <time>2019-06-23T14:16:40Z</time>
      </trkpt>
      <trkpt lat="48.78097" lon="2.06869">
        <ele>143</ele>
        <time>2019-06-23T14:16:47Z</time>
      </trkpt>
      <trkpt lat="48.78087" lon="2.06866">
        <ele>143</ele>
        <time>2019-06-23T14:16:54Z</time>
      </trkpt>
      <trkpt lat="48.78078" lon="2.0686">
        <ele>141</ele>
        <time>2019-06-23T14:17:07Z</time>
      </trkpt>
      <trkpt lat="48.78075" lon="2.06846">
        <ele>141</ele>
        <time>2019-06-23T14:17:14Z</time>
      </trkpt>
      <trkpt lat="48.78067" lon="2.06836">
        <ele>141</ele>
        <time>2019-06-23T14:17:23Z</time>
      </trkpt>
      <trkpt lat="48.78059" lon="2.0683">
        <ele>141</ele>
        <time>2019-06-23T14:17:33Z</time>
      </trkpt>
      <trkpt lat="48.7805" lon="2.06828">
        <ele>141</ele>
        <time>2019-06-23T14:17:42Z</time>
      </trkpt>
      <trkpt lat="48.7804" lon="2.06827">
        <ele>141</ele>
        <time>2019-06-23T14:17:47Z</time>
      </trkpt>
      <trkpt lat="48.78033" lon="2.06818">
        <ele>141</ele>
        <time>2019-06-23T14:17:55Z</time>
      </trkpt>
      <trkpt lat="48.78026" lon="2.06806">
        <ele>141</ele>
        <time>2019-06-23T14:18:05Z</time>
      </trkpt>
      <trkpt lat="48.78023" lon="2.06793">
        <ele>141</ele>
        <time>2019-06-23T14:18:12Z</time>
      </trkpt>
      <trkpt lat="48.78017" lon="2.06781">
        <ele>141</ele>
        <time>2019-06-23T14:18:20Z</time>
      </trkpt>
      <trkpt lat="48.78012" lon="2.06768">
        <ele>141</ele>
        <time>2019-06-23T14:18:29Z</time>
      </trkpt>
      <trkpt lat="48.78005" lon="2.06759">
        <ele>140</ele>
        <time>2019-06-23T14:18:34Z</time>
      </trkpt>
      <trkpt lat="48.77997" lon="2.06753">
        <ele>140</ele>
        <time>2019-06-23T14:18:40Z</time>
      </trkpt>
      <trkpt lat="48.77988" lon="2.06745">
        <ele>140</ele>
        <time>2019-06-23T14:18:45Z</time>
      </trkpt>
      <trkpt lat="48.77982" lon="2.06735">
        <ele>141</ele>
        <time>2019-06-23T14:18:56Z</time>
      </trkpt>
      <trkpt lat="48.77974" lon="2.06728">
        <ele>141</ele>
        <time>2019-06-23T14:19:05Z</time>
      </trkpt>
      <trkpt lat="48.77964" lon="2.06724">
        <ele>141</ele>
        <time>2019-06-23T14:19:14Z</time>
      </trkpt>
      <trkpt lat="48.77957" lon="2.06712">
        <ele>141</ele>
        <time>2019-06-23T14:19:21Z</time>
      </trkpt>
      <trkpt lat="48.77951" lon="2.067">
        <ele>141</ele>
        <time>2019-06-23T14:19:31Z</time>
      </trkpt>
      <trkpt lat="48.77948" lon="2.06686">
        <ele>141</ele>
        <time>2019-06-23T14:19:42Z</time>
      </trkpt>
      <trkpt lat="48.77947" lon="2.0667">
        <ele>140</ele>
        <time>2019-06-23T14:19:51Z</time>
      </trkpt>
      <trkpt lat="48.77942" lon="2.06658">
        <ele>140</ele>
        <time>2019-06-23T14:19:59Z</time>
      </trkpt>
      <trkpt lat="48.77936" lon="2.06648">
        <ele>140</ele>
        <time>2019-06-23T14:20:06Z</time>
      </trkpt>
      <trkpt lat="48.77937" lon="2.06634">
        <ele>140</ele>
        <time>2019-06-23T14:20:15Z</time>
      </trkpt>
      <trkpt lat="48.77943" lon="2.06623">
        <ele>140</ele>
        <time>2019-06-23T14:20:22Z</time>
      </trkpt>
      <trkpt lat="48.77942" lon="2.06609">
        <ele>140</ele>
        <time>2019-06-23T14:20:32Z</time>
      </trkpt>
      <trkpt lat="48.77946" lon="2.06596">
        <ele>140</ele>
        <time>2019-06-23T14:20:49Z</time>
      </trkpt>
      <trkpt lat="48.77954" lon="2.06605">
        <ele>141</ele>
        <time>2019-06-23T14:20:56Z</time>
      </trkpt>
      <trkpt lat="48.77962" lon="2.06613">
        <ele>141</ele>
        <time>2019-06-23T14:21:02Z</time>
      </trkpt>
      <trkpt lat="48.77964" lon="2.06627">
        <ele>141</ele>
        <time>2019-06-23T14:21:11Z</time>
      </trkpt>
      <trkpt lat="48.7796" lon="2.06639">
        <ele>141</ele>
        <time>2019-06-23T14:21:19Z</time>
      </trkpt>
      <trkpt lat="48.77969" lon="2.06636">
        <ele>142</ele>
        <time>2019-06-23T14:21:26Z</time>
      </trkpt>
      <trkpt lat="48.77979" lon="2.06634">
        <ele>142</ele>
        <time>2019-06-23T14:21:30Z</time>
      </trkpt>
      <trkpt lat="48.77988" lon="2.06629">
        <ele>142</ele>
        <time>2019-06-23T14:21:47Z</time>
      </trkpt>
      <trkpt lat="48.77997" lon="2.06627">
        <ele>142</ele>
        <time>2019-06-23T14:22:00Z</time>
      </trkpt>
      <trkpt lat="48.78006" lon="2.0663">
        <ele>148</ele>
        <time>2019-06-23T14:22:12Z</time>
      </trkpt>
      <trkpt lat="48.78015" lon="2.06624">
        <ele>148</ele>
        <time>2019-06-23T14:22:23Z</time>
      </trkpt>
      <trkpt lat="48.78019" lon="2.06612">
        <ele>148</ele>
        <time>2019-06-23T14:22:37Z</time>
      </trkpt>
      <trkpt lat="48.78026" lon="2.06602">
        <ele>148</ele>
        <time>2019-06-23T14:22:44Z</time>
      </trkpt>
      <trkpt lat="48.78035" lon="2.06593">
        <ele>149</ele>
        <time>2019-06-23T14:22:52Z</time>
      </trkpt>
      <trkpt lat="48.78044" lon="2.06589">
        <ele>150</ele>
        <time>2019-06-23T14:22:59Z</time>
      </trkpt>
      <trkpt lat="48.78053" lon="2.06578">
        <ele>152</ele>
        <time>2019-06-23T14:23:07Z</time>
      </trkpt>
      <trkpt lat="48.78064" lon="2.06577">
        <ele>153</ele>
        <time>2019-06-23T14:23:13Z</time>
      </trkpt>
      <trkpt lat="48.78072" lon="2.06584">
        <ele>153</ele>
        <time>2019-06-23T14:23:22Z</time>
      </trkpt>
      <trkpt lat="48.78077" lon="2.06599">
        <ele>152</ele>
        <time>2019-06-23T14:23:28Z</time>
      </trkpt>
      <trkpt lat="48.7808" lon="2.06613">
        <ele>152</ele>
        <time>2019-06-23T14:23:36Z</time>
      </trkpt>
      <trkpt lat="48.7808" lon="2.06627">
        <ele>151</ele>
        <time>2019-06-23T14:23:43Z</time>
      </trkpt>
      <trkpt lat="48.78086" lon="2.0664">
        <ele>155</ele>
        <time>2019-06-23T14:23:51Z</time>
      </trkpt>
      <trkpt lat="48.78089" lon="2.06654">
        <ele>154</ele>
        <time>2019-06-23T14:23:56Z</time>
      </trkpt>
      <trkpt lat="48.78092" lon="2.06641">
        <ele>155</ele>
        <time>2019-06-23T14:24:04Z</time>
      </trkpt>
      <trkpt lat="48.78098" lon="2.0663">
        <ele>155</ele>
        <time>2019-06-23T14:24:11Z</time>
      </trkpt>
      <trkpt lat="48.78107" lon="2.06619">
        <ele>156</ele>
        <time>2019-06-23T14:24:19Z</time>
      </trkpt>
      <trkpt lat="48.78115" lon="2.06613">
        <ele>156</ele>
        <time>2019-06-23T14:24:22Z</time>
      </trkpt>
      <trkpt lat="48.78122" lon="2.06603">
        <ele>156</ele>
        <time>2019-06-23T14:24:30Z</time>
      </trkpt>
      <trkpt lat="48.78125" lon="2.06588">
        <ele>156</ele>
        <time>2019-06-23T14:24:48Z</time>
      </trkpt>
      <trkpt lat="48.7813" lon="2.06577">
        <ele>157</ele>
        <time>2019-06-23T14:24:58Z</time>
      </trkpt>
      <trkpt lat="48.7814" lon="2.06573">
        <ele>157</ele>
        <time>2019-06-23T14:25:02Z</time>
      </trkpt>
      <trkpt lat="48.78139" lon="2.06559">
        <ele>157</ele>
        <time>2019-06-23T14:25:18Z</time>
      </trkpt>
      <trkpt lat="48.78134" lon="2.06546">
        <ele>157</ele>
        <time>2019-06-23T14:25:26Z</time>
      </trkpt>
      <trkpt lat="48.78129" lon="2.06534">
        <ele>157</ele>
        <time>2019-06-23T14:25:34Z</time>
      </trkpt>
      <trkpt lat="48.78125" lon="2.06521">
        <ele>157</ele>
        <time>2019-06-23T14:25:41Z</time>
      </trkpt>
      <trkpt lat="48.7812" lon="2.0651">
        <ele>157</ele>
        <time>2019-06-23T14:25:49Z</time>
      </trkpt>
      <trkpt lat="48.78119" lon="2.06494">
        <ele>158</ele>
        <time>2019-06-23T14:25:59Z</time>
      </trkpt>
      <trkpt lat="48.78119" lon="2.06479">
        <ele>158</ele>
        <time>2019-06-23T14:26:08Z</time>
      </trkpt>
      <trkpt lat="48.78115" lon="2.06467">
        <ele>158</ele>
        <time>2019-06-23T14:26:14Z</time>
      </trkpt>
      <trkpt lat="48.78109" lon="2.06456">
        <ele>158</ele>
        <time>2019-06-23T14:26:20Z</time>
      </trkpt>
      <trkpt lat="48.78103" lon="2.06445">
        <ele>158</ele>
        <time>2019-06-23T14:26:26Z</time>
      </trkpt>
      <trkpt lat="48.78096" lon="2.06435">
        <ele>158</ele>
        <time>2019-06-23T14:26:36Z</time>
      </trkpt>
      <trkpt lat="48.78089" lon="2.06424">
        <ele>158</ele>
        <time>2019-06-23T14:26:44Z</time>
      </trkpt>
      <trkpt lat="48.78082" lon="2.06414">
        <ele>158</ele>
        <time>2019-06-23T14:26:52Z</time>
      </trkpt>
      <trkpt lat="48.78074" lon="2.06407">
        <ele>157</ele>
        <time>2019-06-23T14:26:58Z</time>
      </trkpt>
      <trkpt lat="48.78068" lon="2.06395">
        <ele>157</ele>
        <time>2019-06-23T14:27:05Z</time>
      </trkpt>
      <trkpt lat="48.78062" lon="2.06385">
        <ele>157</ele>
        <time>2019-06-23T14:27:13Z</time>
      </trkpt>
      <trkpt lat="48.78055" lon="2.06375">
        <ele>157</ele>
        <time>2019-06-23T14:27:21Z</time>
      </trkpt>
      <trkpt lat="48.78049" lon="2.06364">
        <ele>157</ele>
        <time>2019-06-23T14:27:28Z</time>
      </trkpt>
      <trkpt lat="48.78042" lon="2.06355">
        <ele>157</ele>
        <time>2019-06-23T14:27:36Z</time>
      </trkpt>
      <trkpt lat="48.78034" lon="2.06347">
        <ele>157</ele>
        <time>2019-06-23T14:27:43Z</time>
      </trkpt>
      <trkpt lat="48.78025" lon="2.0634">
        <ele>157</ele>
        <time>2019-06-23T14:27:51Z</time>
      </trkpt>
      <trkpt lat="48.78018" lon="2.0633">
        <ele>157</ele>
        <time>2019-06-23T14:27:56Z</time>
      </trkpt>
      <trkpt lat="48.78009" lon="2.06322">
        <ele>157</ele>
        <time>2019-06-23T14:28:04Z</time>
      </trkpt>
      <trkpt lat="48.78002" lon="2.06311">
        <ele>157</ele>
        <time>2019-06-23T14:28:13Z</time>
      </trkpt>
      <trkpt lat="48.77997" lon="2.06298">
        <ele>155</ele>
        <time>2019-06-23T14:28:20Z</time>
      </trkpt>
      <trkpt lat="48.77991" lon="2.06286">
        <ele>155</ele>
        <time>2019-06-23T14:28:29Z</time>
      </trkpt>
      <trkpt lat="48.77984" lon="2.06278">
        <ele>155</ele>
        <time>2019-06-23T14:28:36Z</time>
      </trkpt>
      <trkpt lat="48.77976" lon="2.06269">
        <ele>155</ele>
        <time>2019-06-23T14:28:44Z</time>
      </trkpt>
      <trkpt lat="48.77971" lon="2.06258">
        <ele>155</ele>
        <time>2019-06-23T14:28:50Z</time>
      </trkpt>
      <trkpt lat="48.77964" lon="2.06248">
        <ele>156</ele>
        <time>2019-06-23T14:28:57Z</time>
      </trkpt>
      <trkpt lat="48.77957" lon="2.06236">
        <ele>155</ele>
        <time>2019-06-23T14:29:05Z</time>
      </trkpt>
      <trkpt lat="48.77955" lon="2.06222">
        <ele>155</ele>
        <time>2019-06-23T14:29:13Z</time>
      </trkpt>
      <trkpt lat="48.77955" lon="2.06208">
        <ele>155</ele>
        <time>2019-06-23T14:29:19Z</time>
      </trkpt>
      <trkpt lat="48.77954" lon="2.06193">
        <ele>155</ele>
        <time>2019-06-23T14:29:29Z</time>
      </trkpt>
      <trkpt lat="48.7796" lon="2.06181">
        <ele>155</ele>
        <time>2019-06-23T14:29:36Z</time>
      </trkpt>
      <trkpt lat="48.77964" lon="2.06167">
        <ele>155</ele>
        <time>2019-06-23T14:29:43Z</time>
      </trkpt>
      <trkpt lat="48.77966" lon="2.06153">
        <ele>156</ele>
        <time>2019-06-23T14:29:50Z</time>
      </trkpt>
      <trkpt lat="48.7797" lon="2.0614">
        <ele>156</ele>
        <time>2019-06-23T14:29:57Z</time>
      </trkpt>
      <trkpt lat="48.77975" lon="2.06126">
        <ele>157</ele>
        <time>2019-06-23T14:30:08Z</time>
      </trkpt>
      <trkpt lat="48.77982" lon="2.06117">
        <ele>157</ele>
        <time>2019-06-23T14:30:15Z</time>
      </trkpt>
      <trkpt lat="48.77989" lon="2.06106">
        <ele>157</ele>
        <time>2019-06-23T14:30:23Z</time>
      </trkpt>
      <trkpt lat="48.77991" lon="2.06092">
        <ele>158</ele>
        <time>2019-06-23T14:30:32Z</time>
      </trkpt>
      <trkpt lat="48.77992" lon="2.06076">
        <ele>159</ele>
        <time>2019-06-23T14:30:40Z</time>
      </trkpt>
      <trkpt lat="48.77991" lon="2.06061">
        <ele>159</ele>
        <time>2019-06-23T14:30:47Z</time>
      </trkpt>
      <trkpt lat="48.77989" lon="2.06047">
        <ele>159</ele>
        <time>2019-06-23T14:30:55Z</time>
      </trkpt>
      <trkpt lat="48.77984" lon="2.06031">
        <ele>160</ele>
        <time>2019-06-23T14:31:02Z</time>
      </trkpt>
      <trkpt lat="48.7798" lon="2.06018">
        <ele>160</ele>
        <time>2019-06-23T14:31:07Z</time>
      </trkpt>
      <trkpt lat="48.77979" lon="2.06004">
        <ele>160</ele>
        <time>2019-06-23T14:31:14Z</time>
      </trkpt>
      <trkpt lat="48.77981" lon="2.0599">
        <ele>162</ele>
        <time>2019-06-23T14:31:22Z</time>
      </trkpt>
      <trkpt lat="48.77984" lon="2.05975">
        <ele>162</ele>
        <time>2019-06-23T14:31:30Z</time>
      </trkpt>
      <trkpt lat="48.77991" lon="2.05966">
        <ele>162</ele>
        <time>2019-06-23T14:31:41Z</time>
      </trkpt>
      <trkpt lat="48.77993" lon="2.05952">
        <ele>162</ele>
        <time>2019-06-23T14:31:49Z</time>
      </trkpt>
      <trkpt lat="48.7799" lon="2.05936">
        <ele>162</ele>
        <time>2019-06-23T14:31:56Z</time>
      </trkpt>
      <trkpt lat="48.77994" lon="2.05921">
        <ele>163</ele>
        <time>2019-06-23T14:32:04Z</time>
      </trkpt>
      <trkpt lat="48.77999" lon="2.05908">
        <ele>163</ele>
        <time>2019-06-23T14:32:14Z</time>
      </trkpt>
      <trkpt lat="48.78007" lon="2.05899">
        <ele>163</ele>
        <time>2019-06-23T14:32:19Z</time>
      </trkpt>
      <trkpt lat="48.78013" lon="2.05885">
        <ele>162</ele>
        <time>2019-06-23T14:32:22Z</time>
      </trkpt>
      <trkpt lat="48.78015" lon="2.0587">
        <ele>162</ele>
        <time>2019-06-23T14:32:31Z</time>
      </trkpt>
      <trkpt lat="48.78017" lon="2.05857">
        <ele>162</ele>
        <time>2019-06-23T14:32:39Z</time>
      </trkpt>
      <trkpt lat="48.78021" lon="2.05841">
        <ele>162</ele>
        <time>2019-06-23T14:32:48Z</time>
      </trkpt>
      <trkpt lat="48.78022" lon="2.05827">
        <ele>162</ele>
        <time>2019-06-23T14:32:57Z</time>
      </trkpt>
      <trkpt lat="48.78027" lon="2.05813">
        <ele>162</ele>
        <time>2019-06-23T14:33:06Z</time>
      </trkpt>
      <trkpt lat="48.78033" lon="2.05802">
        <ele>162</ele>
        <time>2019-06-23T14:33:15Z</time>
      </trkpt>
      <trkpt lat="48.78039" lon="2.05791">
        <ele>162</ele>
        <time>2019-06-23T14:33:37Z</time>
      </trkpt>
      <trkpt lat="48.78041" lon="2.05777">
        <ele>162</ele>
        <time>2019-06-23T14:33:47Z</time>
      </trkpt>
      <trkpt lat="48.78041" lon="2.05762">
        <ele>162</ele>
        <time>2019-06-23T14:33:57Z</time>
      </trkpt>
      <trkpt lat="48.78047" lon="2.05751">
        <ele>162</ele>
        <time>2019-06-23T14:34:05Z</time>
      </trkpt>
      <trkpt lat="48.78047" lon="2.05737">
        <ele>162</ele>
        <time>2019-06-23T14:34:14Z</time>
      </trkpt>
      <trkpt lat="48.78046" lon="2.05723">
        <ele>162</ele>
        <time>2019-06-23T14:34:23Z</time>
      </trkpt>
      <trkpt lat="48.78044" lon="2.05709">
        <ele>162</ele>
        <time>2019-06-23T14:34:32Z</time>
      </trkpt>
      <trkpt lat="48.78042" lon="2.05694">
        <ele>163</ele>
        <time>2019-06-23T14:34:38Z</time>
      </trkpt>
      <trkpt lat="48.78045" lon="2.05681">
        <ele>163</ele>
        <time>2019-06-23T14:34:44Z</time>
      </trkpt>
      <trkpt lat="48.78049" lon="2.05667">
        <ele>163</ele>
        <time>2019-06-23T14:34:49Z</time>
      </trkpt>
      <trkpt lat="48.78048" lon="2.05652">
        <ele>163</ele>
        <time>2019-06-23T14:35:08Z</time>
      </trkpt>
      <trkpt lat="48.7804" lon="2.05644">
        <ele>163</ele>
        <time>2019-06-23T14:35:16Z</time>
      </trkpt>
      <trkpt lat="48.78033" lon="2.05632">
        <ele>163</ele>
        <time>2019-06-23T14:35:24Z</time>
      </trkpt>
      <trkpt lat="48.78028" lon="2.0562">
        <ele>162</ele>
        <time>2019-06-23T14:35:30Z</time>
      </trkpt>
      <trkpt lat="48.78023" lon="2.05608">
        <ele>162</ele>
        <time>2019-06-23T14:35:39Z</time>
      </trkpt>
      <trkpt lat="48.78024" lon="2.05593">
        <ele>162</ele>
        <time>2019-06-23T14:35:46Z</time>
      </trkpt>
      <trkpt lat="48.78033" lon="2.05583">
        <ele>162</ele>
        <time>2019-06-23T14:35:51Z</time>
      </trkpt>
      <trkpt lat="48.78038" lon="2.0557">
        <ele>162</ele>
        <time>2019-06-23T14:35:56Z</time>
      </trkpt>
      <trkpt lat="48.78041" lon="2.05556">
        <ele>162</ele>
        <time>2019-06-23T14:36:05Z</time>
      </trkpt>
      <trkpt lat="48.78043" lon="2.05541">
        <ele>162</ele>
        <time>2019-06-23T14:36:11Z</time>
      </trkpt>
      <trkpt lat="48.78046" lon="2.05527">
        <ele>162</ele>
        <time>2019-06-23T14:36:22Z</time>
      </trkpt>
      <trkpt lat="48.78045" lon="2.05513">
        <ele>162</ele>
        <time>2019-06-23T14:36:30Z</time>
      </trkpt>
      <trkpt lat="48.78042" lon="2.055">
        <ele>162</ele>
        <time>2019-06-23T14:36:36Z</time>
      </trkpt>
      <trkpt lat="48.78043" lon="2.05486">
        <ele>162</ele>
        <time>2019-06-23T14:36:41Z</time>
      </trkpt>
      <trkpt lat="48.78044" lon="2.05473">
        <ele>162</ele>
        <time>2019-06-23T14:36:49Z</time>
      </trkpt>
      <trkpt lat="48.78045" lon="2.05457">
        <ele>162</ele>
        <time>2019-06-23T14:36:58Z</time>
      </trkpt>
      <trkpt lat="48.78045" lon="2.05442">
        <ele>162</ele>
        <time>2019-06-23T14:37:04Z</time>
      </trkpt>
      <trkpt lat="48.78047" lon="2.05427">
        <ele>162</ele>
        <time>2019-06-23T14:37:10Z</time>
      </trkpt>
      <trkpt lat="48.78049" lon="2.05412">
        <ele>162</ele>
        <time>2019-06-23T14:37:18Z</time>
      </trkpt>
      <trkpt lat="48.78048" lon="2.05397">
        <ele>161</ele>
        <time>2019-06-23T14:37:28Z</time>
      </trkpt>
      <trkpt lat="48.78051" lon="2.05384">
        <ele>161</ele>
        <time>2019-06-23T14:37:42Z</time>
      </trkpt>
      <trkpt lat="48.78049" lon="2.05371">
        <ele>161</ele>
        <time>2019-06-23T14:37:50Z</time>
      </trkpt>
      <trkpt lat="48.78045" lon="2.05358">
        <ele>161</ele>
        <time>2019-06-23T14:37:59Z</time>
      </trkpt>
      <trkpt lat="48.78041" lon="2.05345">
        <ele>161</ele>
        <time>2019-06-23T14:38:08Z</time>
      </trkpt>
      <trkpt lat="48.78036" lon="2.05332">
        <ele>159</ele>
        <time>2019-06-23T14:38:14Z</time>
      </trkpt>
      <trkpt lat="48.7803" lon="2.0532">
        <ele>158</ele>
        <time>2019-06-23T14:38:22Z</time>
      </trkpt>
      <trkpt lat="48.78028" lon="2.05306">
        <ele>158</ele>
        <time>2019-06-23T14:38:29Z</time>
      </trkpt>
      <trkpt lat="48.78029" lon="2.0529">
        <ele>158</ele>
        <time>2019-06-23T14:38:34Z</time>
      </trkpt>
      <trkpt lat="48.78024" lon="2.05278">
        <ele>157</ele>
        <time>2019-06-23T14:38:41Z</time>
      </trkpt>
      <trkpt lat="48.78015" lon="2.05273">
        <ele>157</ele>
        <time>2019-06-23T14:38:54Z</time>
      </trkpt>
      <trkpt lat="48.78006" lon="2.05266">
        <ele>156</ele>
        <time>2019-06-23T14:39:01Z</time>
      </trkpt>
      <trkpt lat="48.78001" lon="2.05256">
        <ele>154</ele>
        <time>2019-06-23T14:39:10Z</time>
      </trkpt>
      <trkpt lat="48.77991" lon="2.05252">
        <ele>153</ele>
        <time>2019-06-23T14:39:19Z</time>
      </trkpt>
      <trkpt lat="48.77982" lon="2.05251">
        <ele>152</ele>
        <time>2019-06-23T14:39:31Z</time>
      </trkpt>
      <trkpt lat="48.77972" lon="2.05251">
        <ele>152</ele>
        <time>2019-06-23T14:39:39Z</time>
      </trkpt>
      <trkpt lat="48.77968" lon="2.05238">
        <ele>152</ele>
        <time>2019-06-23T14:39:45Z</time>
      </trkpt>
      <trkpt lat="48.77966" lon="2.05223">
        <ele>152</ele>
        <time>2019-06-23T14:39:53Z</time>
      </trkpt>
      <trkpt lat="48.77965" lon="2.05207">
        <ele>152</ele>
        <time>2019-06-23T14:40:02Z</time>
      </trkpt>
      <trkpt lat="48.77967" lon="2.05194">
        <ele>152</ele>
        <time>2019-06-23T14:40:08Z</time>
      </trkpt>
      <trkpt lat="48.77965" lon="2.05178">
        <ele>152</ele>
        <time>2019-06-23T14:40:17Z</time>
      </trkpt>
      <trkpt lat="48.77963" lon="2.05163">
        <ele>152</ele>
        <time>2019-06-23T14:40:23Z</time>
      </trkpt>
      <trkpt lat="48.77962" lon="2.05148">
        <ele>152</ele>
        <time>2019-06-23T14:40:31Z</time>
      </trkpt>
      <trkpt lat="48.77962" lon="2.05134">
        <ele>152</ele>
        <time>2019-06-23T14:40:39Z</time>
      </trkpt>
      <trkpt lat="48.77965" lon="2.05119">
        <ele>152</ele>
        <time>2019-06-23T14:40:47Z</time>
      </trkpt>
      <trkpt lat="48.77965" lon="2.05105">
        <ele>152</ele>
        <time>2019-06-23T14:40:55Z</time>
      </trkpt>
      <trkpt lat="48.77969" lon="2.05091">
        <ele>152</ele>
        <time>2019-06-23T14:41:01Z</time>
      </trkpt>
      <trkpt lat="48.77969" lon="2.05075">
        <ele>152</ele>
        <time>2019-06-23T14:41:07Z</time>
      </trkpt>
      <trkpt lat="48.77968" lon="2.05061">
        <ele>152</ele>
        <time>2019-06-23T14:41:14Z</time>
      </trkpt>
      <trkpt lat="48.77967" lon="2.05046">
        <ele>152</ele>
        <time>2019-06-23T14:41:24Z</time>
      </trkpt>
      <trkpt lat="48.7797" lon="2.05031">
        <ele>152</ele>
        <time>2019-06-23T14:41:31Z</time>
      </trkpt>
      <trkpt lat="48.77976" lon="2.05019">
        <ele>152</ele>
        <time>2019-06-23T14:41:39Z</time>
      </trkpt>
      <trkpt lat="48.77977" lon="2.05005">
        <ele>152</ele>
        <time>2019-06-23T14:41:48Z</time>
      </trkpt>
      <trkpt lat="48.7798" lon="2.04991">
        <ele>152</ele>
        <time>2019-06-23T14:41:57Z</time>
      </trkpt>
      <trkpt lat="48.77983" lon="2.04976">
        <ele>153</ele>
        <time>2019-06-23T14:42:07Z</time>
      </trkpt>
      <trkpt lat="48.77987" lon="2.04962">
        <ele>153</ele>
        <time>2019-06-23T14:42:13Z</time>
      </trkpt>
      <trkpt lat="48.77991" lon="2.04949">
        <ele>153</ele>
        <time>2019-06-23T14:42:22Z</time>
      </trkpt>
      <trkpt lat="48.77997" lon="2.04939">
        <ele>153</ele>
        <time>2019-06-23T14:42:29Z</time>
      </trkpt>
      <trkpt lat="48.78006" lon="2.04932">
        <ele>155</ele>
        <time>2019-06-23T14:42:40Z</time>
      </trkpt>
      <trkpt lat="48.78014" lon="2.04925">
        <ele>155</ele>
        <time>2019-06-23T14:42:46Z</time>
      </trkpt>
      <trkpt lat="48.78018" lon="2.04912">
        <ele>155</ele>
        <time>2019-06-23T14:42:54Z</time>
      </trkpt>
      <trkpt lat="48.78017" lon="2.04898">
        <ele>155</ele>
        <time>2019-06-23T14:43:01Z</time>
      </trkpt>
      <trkpt lat="48.78021" lon="2.04884">
        <ele>155</ele>
        <time>2019-06-23T14:43:11Z</time>
      </trkpt>
      <trkpt lat="48.78025" lon="2.04872">
        <ele>155</ele>
        <time>2019-06-23T14:43:20Z</time>
      </trkpt>
      <trkpt lat="48.78029" lon="2.04856">
        <ele>155</ele>
        <time>2019-06-23T14:43:29Z</time>
      </trkpt>
      <trkpt lat="48.78029" lon="2.04842">
        <ele>155</ele>
        <time>2019-06-23T14:43:37Z</time>
      </trkpt>
      <trkpt lat="48.7803" lon="2.04828">
        <ele>154</ele>
        <time>2019-06-23T14:43:45Z</time>
      </trkpt>
      <trkpt lat="48.78039" lon="2.04817">
        <ele>154</ele>
        <time>2019-06-23T14:43:59Z</time>
      </trkpt>
      <trkpt lat="48.78045" lon="2.04806">
        <ele>154</ele>
        <time>2019-06-23T14:44:02Z</time>
      </trkpt>
      <trkpt lat="48.78045" lon="2.04791">
        <ele>154</ele>
        <time>2019-06-23T14:44:10Z</time>
      </trkpt>
      <trkpt lat="48.78041" lon="2.04779">
        <ele>154</ele>
        <time>2019-06-23T14:44:20Z</time>
      </trkpt>
      <trkpt lat="48.78051" lon="2.04775">
        <ele>154</ele>
        <time>2019-06-23T14:44:24Z</time>
      </trkpt>
      <trkpt lat="48.78056" lon="2.04763">
        <ele>154</ele>
        <time>2019-06-23T14:44:30Z</time>
      </trkpt>
      <trkpt lat="48.78058" lon="2.04749">
        <ele>155</ele>
        <time>2019-06-23T14:44:38Z</time>
      </trkpt>
      <trkpt lat="48.78057" lon="2.04735">
        <ele>155</ele>
        <time>2019-06-23T14:44:43Z</time>
      </trkpt>
      <trkpt lat="48.78058" lon="2.04721">
        <ele>155</ele>
        <time>2019-06-23T14:44:53Z</time>
      </trkpt>
      <trkpt lat="48.78062" lon="2.04708">
        <ele>155</ele>
        <time>2019-06-23T14:45:01Z</time>
      </trkpt>
      <trkpt lat="48.78067" lon="2.04696">
        <ele>155</ele>
        <time>2019-06-23T14:45:09Z</time>
      </trkpt>
      <trkpt lat="48.78074" lon="2.04688">
        <ele>155</ele>
        <time>2019-06-23T14:45:17Z</time>
      </trkpt>
      <trkpt lat="48.78083" lon="2.04679">
        <ele>155</ele>
        <time>2019-06-23T14:45:24Z</time>
      </trkpt>
      <trkpt lat="48.7809" lon="2.04669">
        <ele>156</ele>
        <time>2019-06-23T14:45:31Z</time>
      </trkpt>
      <trkpt lat="48.78087" lon="2.04655">
        <ele>156</ele>
        <time>2019-06-23T14:45:44Z</time>
      </trkpt>
      <trkpt lat="48.7809" lon="2.04642">
        <ele>157</ele>
        <time>2019-06-23T14:45:55Z</time>
      </trkpt>
      <trkpt lat="48.78097" lon="2.0463">
        <ele>157</ele>
        <time>2019-06-23T14:46:02Z</time>
      </trkpt>
      <trkpt lat="48.78096" lon="2.04615">
        <ele>157</ele>
        <time>2019-06-23T14:46:09Z</time>
      </trkpt>
      <trkpt lat="48.78095" lon="2.046">
        <ele>157</ele>
        <time>2019-06-23T14:46:16Z</time>
      </trkpt>
      <trkpt lat="48.78094" lon="2.04586">
        <ele>156</ele>
        <time>2019-06-23T14:46:23Z</time>
      </trkpt>
      <trkpt lat="48.78092" lon="2.04572">
        <ele>156</ele>
        <time>2019-06-23T14:46:32Z</time>
      </trkpt>
      <trkpt lat="48.78096" lon="2.0456">
        <ele>156</ele>
        <time>2019-06-23T14:46:57Z</time>
      </trkpt>
    </trkseg>
  </trk>
</gpx>